# Wetter Temperatur Luftdruck Luftfeuchtigkeit Sichtweite Windgeschwindigkeit Windrichtung Zeit
1 Rain 15 1025 93 10000 4.1 220 21:57 28.01.2020
2 Rain 15 1025 93 10000 4.1 220 21:38 28.01.2020
3 Clouds 15 1025 93 10000 4.1 220 21:19 28.01.2020
4 Clouds 15 1025 93 10000 3.6 220 20:46 28.01.2020
5 Clouds 15 1025 93 10000 4.6 220 20:26 28.01.2020
6 Clouds 15 1025 93 10000 4.1 230 19:56 28.01.2020
7 Clouds 15 1024 93 10000 4.6 230 19:37 28.01.2020
8 Clouds 15 1024 93 10000 4.6 230 19:19 28.01.2020
9 Clouds 15 1024 93 10000 4.6 220 18:42 28.01.2020
10 Clouds 16 1024 87 10000 5.1 210 18:23 28.01.2020
11 Clouds 16 1024 87 10000 5.1 220 17:59 28.01.2020
12 Clouds 16 1024 88 10000 4.1 220 17:40 28.01.2020
13 Clouds 16 1024 88 10000 4.1 220 17:22 28.01.2020
14 Clouds 17 1024 82 10000 4.1 230 16:59 28.01.2020
15 Clouds 17 1024 82 10000 4.6 230 16:41 28.01.2020
16 Clouds 17 1024 82 10000 4.6 230 16:22 28.01.2020
17 Clouds 16 1024 87 10000 4.6 230 15:57 28.01.2020
18 Rain 16 1025 87 10000 4.6 230 15:38 28.01.2020
19 Rain 16 1025 87 10000 4.6 230 15:18 28.01.2020
20 Clouds 16 1025 87 10000 6.2 230 14:44 28.01.2020
21 Clouds 16 1025 87 10000 6.2 240 14:20 28.01.2020
22 Clouds 16 1025 87 10000 5.7 230 13:43 28.01.2020
23 Clouds 16 1026 87 10000 5.7 230 13:24 28.01.2020
24 Clouds 16 1026 87 10000 6.2 240 12:45 28.01.2020
25 Clouds 16 1026 87 10000 5.1 230 12:25 28.01.2020
26 Clouds 15 1025 93 10000 5.7 230 11:59 28.01.2020
27 Clouds 15 1025 93 10000 5.7 230 11:41 28.01.2020
28 Clouds 15 1025 93 10000 4.6 230 11:22 28.01.2020
29 Clouds 15 1025 93 10000 3.6 230 10:55 28.01.2020
30 Clouds 15 1024 93 10000 4.1 230 10:36 28.01.2020
31 Clouds 15 1024 93 10000 4.1 230 10:18 28.01.2020
32 Clouds 14 1024 100 10000 4.1 240 09:41 28.01.2020
33 Clouds 14 1024 100 10000 4.1 240 09:20 28.01.2020
34 Clouds 14 1024 100 10000 3.6 240 08:46 28.01.2020
35 Clouds 14 1023 100 10000 4.1 230 08:26 28.01.2020
36 Clouds 14 1023 100 10000 4.1 230 07:56 28.01.2020
37 Clouds 14 1023 100 10000 4.1 230 07:34 28.01.2020
38 Clouds 14 1023 100 10000 4.6 240 06:48 28.01.2020
39 Drizzle 14 1023 100 8000 3.1 240 06:25 28.01.2020
40 Drizzle 14 1023 100 5000 3.6 230 05:40 28.01.2020
41 Clouds 14 1023 100 10000 4.1 230 05:21 28.01.2020
42 Clouds 14 1024 100 8000 3.1 230 03:50 28.01.2020
43 Drizzle 14 1024 100 6000 4.6 240 02:49 28.01.2020
44 Clouds 14 1024 100 10000 5.1 250 02:25 28.01.2020
45 Clouds 14 1024 100 10000 5.1 230 01:56 28.01.2020
46 Clouds 14 1024 93 10000 5.1 250 01:22 28.01.2020
47 Drizzle 15 1024 100 4500 5.7 220 00:45 28.01.2020
48 Drizzle 15 1024 100 4500 6.2 220 00:23 28.01.2020
49 Drizzle 15 1024 93 8000 6.2 230 23:44 27.01.2020
50 Clouds 15 1024 93 10000 5.7 230 23:20 27.01.2020
51 Clouds 15 1024 93 10000 5.7 230 22:45 27.01.2020
52 Clouds 15 1024 93 5000 6.2 230 22:20 27.01.2020
53 Clouds 15 1024 93 5000 6.2 230 22:20 27.01.2020
54 Drizzle 15 1024 100 2000 5.7 220 21:58 27.01.2020
55 Drizzle 15 1024 100 2000 5.7 220 21:39 27.01.2020
56 Drizzle 15 1024 100 10000 6.7 230 21:19 27.01.2020
57 Drizzle 15 1024 93 10000 5.1 220 21:19 27.01.2020
58 Drizzle 15 1023 100 3000 6.2 220 20:57 27.01.2020
59 Drizzle 15 1023 93 10000 5.1 240 20:38 27.01.2020
60 Drizzle 15 1023 93 10000 5.1 240 20:20 27.01.2020
61 Drizzle 15 1023 100 5000 6.7 210 19:57 27.01.2020
62 Drizzle 15 1023 100 5000 6.7 210 19:38 27.01.2020
63 Drizzle 15 1023 100 3000 7.2 210 19:20 27.01.2020
64 Drizzle 15 1023 93 3000 5.7 220 18:40 27.01.2020
65 Drizzle 15 1023 93 3000 5.7 220 18:40 27.01.2020
66 Drizzle 15 1023 93 3000 5.7 220 18:21 27.01.2020
67 Clouds 15 1023 93 10000 7.2 220 17:58 27.01.2020
68 Clouds 15 1022 93 10000 8.2 210 17:39 27.01.2020
69 Clouds 15 1022 93 10000 8.2 210 17:39 27.01.2020
70 Clouds 15 1022 93 10000 8.2 210 17:19 27.01.2020
71 Clouds 15 1022 93 10000 8.2 210 16:56 27.01.2020
72 Rain 15 1023 93 10000 6.7 220 16:37 27.01.2020
73 Rain 15 1023 93 10000 6.7 220 16:19 27.01.2020
74 Clouds 15 1023 93 10000 8.7 210 15:42 27.01.2020
75 Clouds 15 1023 93 10000 8.7 210 15:20 27.01.2020
76 Clouds 15 1023 93 10000 6.7 220 14:59 27.01.2020
77 Clouds 15 1023 93 10000 6.7 220 14:40 27.01.2020
78 Drizzle 15 1023 100 10000 8.2 210 14:21 27.01.2020
79 Drizzle 15 1024 100 6000 8.2 220 13:46 27.01.2020
80 Drizzle 15 1024 87 7000 8.7 210 13:24 27.01.2020
81 Drizzle 15 1024 87 10000 8.7 210 12:58 27.01.2020
82 Clouds 15 1024 82 10000 8.7 210 12:39 27.01.2020
83 Clouds 15 1024 82 10000 8.7 210 12:21 27.01.2020
84 Clouds 15 1024 82 10000 8.2 200 11:43 27.01.2020
85 Clouds 15 1024 82 10000 6.7 210 11:43 27.01.2020
86 Clouds 15 1024 82 10000 6.7 210 11:22 27.01.2020
87 Clouds 14 1024 87 10000 7.2 210 10:57 27.01.2020
88 Clouds 14 1024 87 10000 6.7 210 10:39 27.01.2020
89 Clouds 14 1024 87 10000 6.7 210 10:20 27.01.2020
90 Clouds 14 1024 87 10000 6.2 200 09:39 27.01.2020
91 Clouds 14 1024 87 10000 6.2 210 09:19 27.01.2020
92 Clouds 14 1023 87 10000 6.2 210 08:56 27.01.2020
93 Clouds 14 1023 87 10000 6.2 210 08:38 27.01.2020
94 Clouds 14 1023 93 10000 5.1 210 08:18 27.01.2020
95 Clouds 14 1023 93 10000 4.6 200 07:46 27.01.2020
96 Clouds 14 1023 93 10000 5.1 210 07:26 27.01.2020
97 Clouds 14 1023 93 10000 4.1 200 06:38 27.01.2020
98 Clouds 13 1024 93 10000 4.1 200 05:45 27.01.2020
99 Clouds 14 1024 93 10000 2.6 170 04:37 27.01.2020
100 Clouds 13 1024 93 10000 2.6 170 03:35 27.01.2020
101 Clouds 13 1025 93 10000 3.6 170 01:55 27.01.2020
102 Clouds 13 1025 93 10000 3.6 170 01:27 27.01.2020
103 Clouds 13 1025 93 10000 2.6 200 00:41 27.01.2020
104 Clouds 13 1025 93 10000 2.6 200 00:21 27.01.2020
105 Clouds 13 1025 87 10000 3.1 200 23:44 26.01.2020
106 Clouds 13 1025 87 10000 3.1 200 23:26 26.01.2020
107 Clouds 12 1025 93 10000 2.1 210 22:59 26.01.2020
108 Clouds 12 1025 93 10000 2.1 210 22:39 26.01.2020
109 Clouds 13 1025 93 10000 2.1 200 22:20 26.01.2020
110 Clouds 13 1025 93 10000 2.1 220 21:58 26.01.2020
111 Clouds 13 1025 93 10000 2.1 220 21:39 26.01.2020
112 Clouds 13 1025 93 10000 2.6 210 21:21 26.01.2020
113 Clouds 13 1025 93 10000 2.6 210 21:21 26.01.2020
114 Clouds 13 1025 93 10000 2.6 210 20:58 26.01.2020
115 Clouds 13 1025 87 10000 3.1 210 20:38 26.01.2020
116 Clouds 13 1025 87 10000 3.1 210 20:19 26.01.2020
117 Clouds 13 1025 87 10000 3.1 220 19:58 26.01.2020
118 Clouds 13 1025 87 10000 3.1 220 19:38 26.01.2020
119 Clouds 14 1025 82 10000 2.6 220 19:20 26.01.2020
120 Clouds 14 1024 82 10000 3.6 220 18:56 26.01.2020
121 Clouds 14 1024 76 10000 5.1 210 18:38 26.01.2020
122 Clouds 15 1024 76 10000 5.1 210 18:20 26.01.2020
123 Clouds 15 1024 76 10000 6.2 210 17:55 26.01.2020
124 Clouds 15 1024 72 10000 5.1 230 17:37 26.01.2020
125 Clouds 15 1024 72 10000 5.1 230 17:18 26.01.2020
126 Clouds 15 1024 72 10000 4.6 210 16:56 26.01.2020
127 Fog 16 1024 77 10000 5.1 210 16:38 26.01.2020
128 Fog 16 1024 77 10000 5.1 210 16:18 26.01.2020
129 Rain 15 1024 77 0 3.58 218 15:43 26.01.2020
130 Rain 15 1024 81 0 3.58 253 15:21 26.01.2020
131 Rain 16 1014 69 0 4.52 241 14:58 26.01.2020
132 Rain 16 1024 64 0 4.52 241 14:38 26.01.2020
133 Rain 16 1025 65 0 2.46 200 14:19 26.01.2020
134 Rain 16 1025 64 0 2.46 200 14:19 26.01.2020
135 Rain 15 1025 69 0 2.46 200 13:40 26.01.2020
136 Rain 15 1015 74 0 3.49 195 13:19 26.01.2020
137 Rain 16 1026 73 0 3.49 195 12:56 26.01.2020
138 Rain 15 1026 75 0 3.49 195 12:37 26.01.2020
139 Rain 15 1015 74 0 3.49 195 12:19 26.01.2020
140 Rain 14 1025 80 0 3.49 195 11:57 26.01.2020
141 Fog 12 1025 100 150 1.5 60 11:36 26.01.2020
142 Fog 11 1025 100 150 1.5 60 11:18 26.01.2020
143 Fog 10 1025 100 150 1.5 60 10:55 26.01.2020
144 Fog 10 1025 100 150 1.5 60 10:37 26.01.2020
145 Fog 9 1025 100 150 1.5 60 10:18 26.01.2020
146 Fog 8 1024 89 4000 2.1 100 09:41 26.01.2020
147 Clouds 8 1024 89 10000 1.59 127 09:23 26.01.2020
148 Clouds 8 1024 100 9000 1 270 08:57 26.01.2020
149 Clouds 8 1023 100 9000 1 280 08:39 26.01.2020
150 Clear 8 1023 100 9000 1 280 08:21 26.01.2020
151 Clear 8 1023 100 9000 0.5 0 07:50 26.01.2020
152 Fog 8 1023 100 9000 1 270 07:25 26.01.2020
153 Clear 9 1022 100 9000 1 0 06:40 26.01.2020
154 Fog 8 1022 100 10000 1.5 270 06:22 26.01.2020
155 Clear 9 1022 100 10000 1.5 280 05:27 26.01.2020
156 Clear 10 1022 100 10000 1.5 280 03:23 26.01.2020
157 Clouds 11 1022 93 10000 1.5 250 02:38 26.01.2020
158 Clouds 11 1022 93 10000 1.5 280 01:43 26.01.2020
159 Clouds 11 1021 93 10000 1.5 260 01:22 26.01.2020
160 Clear 10 1021 100 10000 1.31 300 00:42 26.01.2020
161 Clear 11 1021 100 10000 1.5 270 00:23 26.01.2020
162 Clear 12 1021 88 0 0.89 285 23:39 25.01.2020
163 Clear 11 1021 88 0 1.79 294 23:20 25.01.2020
164 Clear 11 1021 87 0 2.42 320 22:56 25.01.2020
165 Clear 11 1020 87 0 1.79 297 22:36 25.01.2020
166 Clear 11 1020 87 0 3.58 313 22:18 25.01.2020
167 Clear 11 1020 87 0 3.58 313 22:18 25.01.2020
168 Clear 11 1020 86 0 3.58 318 21:41 25.01.2020
169 Clear 11 1019 86 0 3.58 322 21:23 25.01.2020
170 Clear 9 1020 87 0 2.42 320 20:56 25.01.2020
171 Clear 9 1020 87 0 2.42 320 20:38 25.01.2020
172 Clouds 12 1019 85 0 3.58 317 20:20 25.01.2020
173 Clouds 11 1018 83 0 2.31 341 19:44 25.01.2020
174 Clouds 13 1017 76 0 3.13 353 19:20 25.01.2020
175 Clouds 13 1018 79 0 3.13 290 18:57 25.01.2020
176 Clouds 13 1017 76 0 3.13 353 18:39 25.01.2020
177 Clouds 13 1017 76 0 3.13 344 18:20 25.01.2020
178 Clouds 14 1017 74 0 3.58 311 17:42 25.01.2020
179 Clouds 14 1017 73 0 2.24 311 17:23 25.01.2020
180 Clouds 14 1017 72 0 1.34 332 16:58 25.01.2020
181 Clouds 15 1016 74 0 0.45 23 16:40 25.01.2020
182 Clouds 14 1016 74 0 0.45 22 16:21 25.01.2020
183 Clouds 15 1016 75 0 4.42 4 15:55 25.01.2020
184 Clouds 15 1016 78 0 0.45 40 15:37 25.01.2020
185 Clouds 14 1016 77 0 0.89 136 15:18 25.01.2020
186 Clouds 14 1016 80 0 1.79 151 14:41 25.01.2020
187 Clouds 14 1016 81 0 2.68 103 14:19 25.01.2020
188 Clouds 13 1016 88 0 1.34 341 13:43 25.01.2020
189 Clouds 13 1017 91 0 1.34 315 13:24 25.01.2020
190 Clouds 12 1017 100 10000 3.6 20 12:46 25.01.2020
191 Clouds 12 1017 100 10000 3.6 20 12:28 25.01.2020
192 Clouds 11 1017 100 10000 3.6 20 11:54 25.01.2020
193 Clouds 11 1016 100 10000 3.6 20 11:36 25.01.2020
194 Clouds 11 1016 100 10000 3.6 20 11:18 25.01.2020
195 Clouds 11 1016 100 10000 3.1 10 10:41 25.01.2020
196 Clouds 10 1016 100 10000 3.6 20 10:21 25.01.2020
197 Clouds 10 1016 93 10000 3.6 20 09:57 25.01.2020
198 Clouds 10 1015 100 10000 3.6 30 09:37 25.01.2020
199 Clouds 10 1015 100 10000 3.6 30 09:18 25.01.2020
200 Clouds 10 1015 100 10000 3.6 30 08:42 25.01.2020
201 Clouds 10 1015 100 10000 3.6 30 08:42 25.01.2020
202 Drizzle 10 1014 100 6000 4.1 30 07:53 25.01.2020
203 Drizzle 10 1014 100 6000 4.1 30 07:53 25.01.2020
204 Drizzle 10 1014 100 10000 5.1 30 06:58 25.01.2020
205 Drizzle 10 1014 100 7000 4.6 40 06:31 25.01.2020
206 Drizzle 10 1014 100 1600 4.1 40 05:51 25.01.2020
207 Rain 10 1014 100 1700 4.6 30 05:30 25.01.2020
208 Drizzle 10 1014 100 1700 4.6 40 03:56 25.01.2020
209 Drizzle 10 1014 100 3500 4.6 30 03:37 25.01.2020
210 Clouds 10 1014 100 10000 4.1 40 02:35 25.01.2020
211 Rain 10 1015 100 10000 5.1 30 01:54 25.01.2020
212 Clouds 11 1015 100 10000 2.6 30 00:59 25.01.2020
213 Clouds 10 1015 100 10000 2.6 30 00:37 25.01.2020
214 Clouds 10 1015 100 10000 2.6 30 00:18 25.01.2020
215 Clouds 10 1015 100 10000 2.6 30 00:18 25.01.2020
216 Rain 10 1015 100 10000 2.6 30 23:41 24.01.2020
217 Rain 10 1015 100 10000 2.6 40 23:23 24.01.2020
218 Rain 10 1015 100 10000 2.1 40 22:46 24.01.2020
219 Rain 10 1015 100 10000 2.1 40 22:27 24.01.2020
220 Rain 10 1015 100 10000 1.5 50 21:58 24.01.2020
221 Rain 10 1015 100 10000 2.1 60 21:40 24.01.2020
222 Rain 10 1015 100 10000 2.1 60 21:18 24.01.2020
223 Rain 11 1015 100 10000 1 0 20:43 24.01.2020
224 Rain 11 1015 100 10000 2.6 130 20:22 24.01.2020
225 Rain 11 1015 100 10000 4.6 150 19:58 24.01.2020
226 Rain 12 1014 87 10000 2.1 70 19:40 24.01.2020
227 Clouds 12 1014 93 10000 2.6 50 19:22 24.01.2020
228 Clouds 13 1015 87 10000 2.6 30 18:54 24.01.2020
229 Clouds 13 1015 82 10000 2.1 70 18:36 24.01.2020
230 Clouds 13 1015 82 10000 2.1 70 18:18 24.01.2020
231 Clouds 13 1015 82 10000 2.6 80 17:42 24.01.2020
232 Clouds 13 1015 82 10000 3.1 120 17:21 24.01.2020
233 Clouds 13 1015 82 10000 2.6 100 16:43 24.01.2020
234 Clouds 13 1015 87 10000 3.1 100 16:22 24.01.2020
235 Clouds 13 1015 87 10000 3.1 100 16:22 24.01.2020
236 Clouds 13 1015 87 10000 3.1 100 15:57 24.01.2020
237 Clouds 13 1016 87 10000 3.6 0 15:39 24.01.2020
238 Clouds 13 1016 87 10000 3.6 0 15:20 24.01.2020
239 Clouds 13 1016 87 10000 3.1 80 14:41 24.01.2020
240 Clouds 13 1016 87 10000 3.1 80 14:23 24.01.2020
241 Clouds 12 1017 93 10000 4.1 80 13:57 24.01.2020
242 Clouds 12 1017 93 10000 4.1 100 13:39 24.01.2020
243 Clouds 12 1017 93 10000 4.1 100 13:19 24.01.2020
244 Clouds 11 1017 100 10000 3.1 0 12:41 24.01.2020
245 Clouds 11 1017 100 10000 3.6 70 12:18 24.01.2020
246 Clouds 11 1017 100 10000 4.6 50 11:43 24.01.2020
247 Clouds 10 1017 100 10000 3.1 90 11:19 24.01.2020
248 Clouds 10 1017 100 10000 3.6 50 10:43 24.01.2020
249 Clouds 10 1017 100 9000 4.1 60 10:22 24.01.2020
250 Clouds 10 1017 100 10000 3.1 80 09:57 24.01.2020
251 Clouds 10 1017 100 10000 3.1 80 09:39 24.01.2020
252 Clouds 10 1017 100 10000 3.1 80 09:39 24.01.2020
253 Clouds 9 1017 100 8000 3.1 100 09:21 24.01.2020
254 Fog 9 1016 100 6000 3.1 110 08:40 24.01.2020
255 Mist 9 1016 100 2500 3.1 90 08:20 24.01.2020
256 Mist 9 1016 100 2000 3.1 100 07:51 24.01.2020
257 Mist 9 1016 100 4000 2.6 80 07:32 24.01.2020
258 Mist 8 1016 100 5000 3.1 80 06:48 24.01.2020
259 Clouds 8 1016 100 8000 2.6 60 06:29 24.01.2020
260 Clouds 8 1016 100 9000 2.6 60 05:58 24.01.2020
261 Clouds 8 1016 100 9000 2.6 90 04:57 24.01.2020
262 Clouds 8 1016 100 9000 2.1 340 02:53 24.01.2020
263 Clouds 8 1016 100 9000 2.1 350 02:25 24.01.2020
264 Fog 9 1016 100 9000 1 10 01:45 24.01.2020
265 Fog 9 1016 100 8000 1.5 50 01:26 24.01.2020
266 Clouds 9 1016 100 10000 1 10 00:23 24.01.2020
267 Clouds 9 1016 100 10000 1.5 50 23:49 23.01.2020
268 Clouds 9 1015 100 10000 1.5 70 23:31 23.01.2020
269 Clouds 10 1015 100 10000 2.1 50 22:59 23.01.2020
270 Clouds 10 1015 100 10000 2.6 80 22:38 23.01.2020
271 Clouds 10 1015 100 10000 2.6 80 22:19 23.01.2020
272 Clouds 10 1015 100 10000 2.6 50 21:57 23.01.2020
273 Clouds 11 1015 93 10000 2.1 70 21:39 23.01.2020
274 Clouds 10 1015 93 10000 2.1 70 21:20 23.01.2020
275 Clouds 11 1014 93 10000 2.6 0 20:58 23.01.2020
276 Clouds 11 1014 93 10000 2.6 0 20:38 23.01.2020
277 Clouds 11 1014 93 10000 2.6 0 20:38 23.01.2020
278 Clouds 11 1014 87 10000 2.1 80 20:19 23.01.2020
279 Clouds 11 1014 87 10000 2.1 80 20:19 23.01.2020
280 Clouds 11 1014 81 10000 2.1 60 19:56 23.01.2020
281 Clouds 11 1013 81 10000 1.5 70 19:38 23.01.2020
282 Clouds 11 1013 81 10000 1.5 70 19:19 23.01.2020
283 Clouds 12 1013 81 10000 1.5 90 18:42 23.01.2020
284 Clouds 12 1013 81 10000 2.1 60 18:21 23.01.2020
285 Clouds 12 1013 81 10000 2.1 60 18:21 23.01.2020
286 Clouds 12 1013 76 10000 2.6 110 17:58 23.01.2020
287 Clouds 12 1013 76 10000 2.1 130 17:40 23.01.2020
288 Clouds 13 1013 76 10000 2.1 130 17:20 23.01.2020
289 Clouds 12 1013 76 10000 3.1 120 16:56 23.01.2020
290 Clouds 12 1013 76 10000 2.6 140 16:37 23.01.2020
291 Clouds 12 1013 76 10000 2.6 140 16:18 23.01.2020
292 Clouds 12 1013 81 10000 2.6 120 15:55 23.01.2020
293 Clouds 12 1013 87 10000 2.1 0 15:37 23.01.2020
294 Clouds 12 1013 87 10000 2.1 0 15:18 23.01.2020
295 Clouds 12 1013 93 10000 2.1 70 14:55 23.01.2020
296 Clouds 11 1013 93 10000 2.1 70 14:37 23.01.2020
297 Clouds 11 1013 93 10000 2.1 70 14:19 23.01.2020
298 Clouds 11 1014 93 10000 2.6 70 13:40 23.01.2020
299 Drizzle 10 1014 100 10000 3.6 70 13:20 23.01.2020
300 Drizzle 10 1014 100 10000 3.6 70 12:47 23.01.2020
301 Drizzle 9 1014 100 10000 2.6 0 12:25 23.01.2020
302 Clouds 9 1014 100 10000 3.1 80 11:59 23.01.2020
303 Clouds 9 1014 100 10000 3.1 110 11:39 23.01.2020
304 Clouds 9 1014 100 10000 3.1 110 11:19 23.01.2020
305 Clouds 8 1014 100 10000 3.6 90 10:45 23.01.2020
306 Clouds 8 1014 93 10000 3.6 110 10:23 23.01.2020
307 Drizzle 8 1014 100 10000 3.6 90 09:59 23.01.2020
308 Clouds 8 1013 100 10000 3.1 0 09:38 23.01.2020
309 Clouds 8 1013 100 10000 3.1 0 09:20 23.01.2020
310 Clouds 8 1013 100 10000 3.6 100 08:42 23.01.2020
311 Clouds 8 1013 100 10000 2.1 80 08:24 23.01.2020
312 Clouds 8 1013 100 10000 2.1 80 08:24 23.01.2020
313 Clouds 8 1013 100 10000 2.1 80 07:48 23.01.2020
314 Clouds 8 1013 100 10000 2.6 80 07:27 23.01.2020
315 Clouds 8 1013 100 10000 3.1 70 06:54 23.01.2020
316 Clouds 8 1013 100 10000 2.6 60 06:23 23.01.2020
317 Clouds 8 1013 100 10000 2.6 50 05:58 23.01.2020
318 Clouds 8 1013 100 10000 1.5 30 04:24 23.01.2020
319 Clouds 8 1014 100 10000 2.6 50 02:45 23.01.2020
320 Clouds 8 1014 93 10000 3.1 60 01:44 23.01.2020
321 Clouds 9 1014 100 10000 4.6 50 00:28 23.01.2020
322 Clouds 9 1014 100 10000 4.1 50 23:54 22.01.2020
323 Clouds 9 1014 93 10000 4.6 50 23:36 22.01.2020
324 Clouds 9 1014 93 10000 4.6 50 23:18 22.01.2020
325 Clouds 9 1015 93 10000 5.1 40 22:41 22.01.2020
326 Clouds 9 1014 93 10000 4.6 40 22:23 22.01.2020
327 Clouds 9 1014 93 10000 4.6 50 21:56 22.01.2020
328 Clouds 9 1014 93 10000 5.7 40 21:36 22.01.2020
329 Clouds 9 1014 93 10000 5.7 40 21:18 22.01.2020
330 Clouds 9 1014 93 10000 5.1 40 20:41 22.01.2020
331 Clouds 9 1014 93 10000 5.1 40 20:23 22.01.2020
332 Clouds 9 1014 93 10000 4.6 40 19:58 22.01.2020
333 Clouds 9 1014 93 10000 4.6 40 19:39 22.01.2020
334 Clouds 9 1014 93 10000 5.1 40 19:19 22.01.2020
335 Rain 9 1014 93 10000 4.6 40 18:57 22.01.2020
336 Rain 10 1014 93 10000 4.6 30 18:38 22.01.2020
337 Rain 10 1014 93 10000 4.6 30 18:20 22.01.2020
338 Rain 10 1014 93 10000 4.6 40 17:55 22.01.2020
339 Rain 10 1014 93 10000 4.1 30 17:37 22.01.2020
340 Rain 10 1014 93 10000 4.1 30 17:19 22.01.2020
341 Rain 10 1014 87 10000 4.1 40 16:43 22.01.2020
342 Rain 10 1014 93 10000 5.1 40 16:23 22.01.2020
343 Rain 10 1014 87 10000 5.7 50 15:59 22.01.2020
344 Rain 10 1014 87 10000 5.7 50 15:40 22.01.2020
345 Rain 11 1014 81 10000 6.7 70 15:22 22.01.2020
346 Rain 12 1015 71 10000 6.2 60 14:57 22.01.2020
347 Clouds 12 1015 71 10000 6.7 60 14:37 22.01.2020
348 Clouds 12 1015 71 10000 6.7 60 14:18 22.01.2020
349 Clouds 12 1015 66 10000 6.7 60 13:54 22.01.2020
350 Clouds 12 1016 71 10000 5.7 60 13:36 22.01.2020
351 Clouds 12 1016 71 10000 5.7 60 13:18 22.01.2020
352 Clouds 11 1016 76 10000 5.7 50 12:55 22.01.2020
353 Clouds 11 1016 71 10000 5.7 40 12:37 22.01.2020
354 Clouds 11 1016 71 10000 5.7 40 12:18 22.01.2020
355 Clouds 11 1016 76 10000 5.7 40 11:56 22.01.2020
356 Clouds 10 1016 70 10000 6.2 50 11:37 22.01.2020
357 Clouds 10 1016 70 10000 6.2 50 11:18 22.01.2020
358 Clouds 10 1016 66 10000 3.6 40 10:43 22.01.2020
359 Clouds 9 1016 70 10000 4.6 40 10:20 22.01.2020
360 Clouds 8 1015 75 10000 5.7 40 09:43 22.01.2020
361 Clouds 8 1015 75 10000 5.7 40 09:25 22.01.2020
362 Clouds 9 1015 75 10000 6.2 50 08:57 22.01.2020
363 Clouds 8 1015 75 10000 6.2 50 08:39 22.01.2020
364 Clouds 8 1015 75 10000 6.2 40 08:21 22.01.2020
365 Clouds 9 1015 70 10000 5.7 40 07:54 22.01.2020
366 Clouds 9 1015 70 10000 6.7 40 07:36 22.01.2020
367 Clouds 9 1015 70 10000 6.7 40 07:18 22.01.2020
368 Clouds 9 1015 70 10000 5.1 30 06:30 22.01.2020
369 Clouds 9 1015 70 10000 6.2 30 05:41 22.01.2020
370 Clouds 9 1015 70 10000 6.2 30 05:41 22.01.2020
371 Clouds 10 1015 66 10000 7.2 40 04:20 22.01.2020
372 Clouds 10 1015 66 10000 6.7 30 03:23 22.01.2020
373 Clouds 10 1015 66 10000 6.7 30 03:23 22.01.2020
374 Clouds 10 1016 61 10000 6.7 30 02:27 22.01.2020
375 Clouds 10 1016 61 10000 5.1 20 00:45 22.01.2020
376 Clouds 10 1015 61 10000 5.1 30 00:26 22.01.2020
377 Clouds 10 1015 61 10000 5.7 40 23:39 21.01.2020
378 Clouds 10 1015 61 10000 5.7 40 23:39 21.01.2020
379 Clear 10 1015 61 10000 5.7 40 23:21 21.01.2020
380 Clear 10 1015 61 10000 5.1 40 22:59 21.01.2020
381 Clear 10 1015 61 10000 3.6 40 22:39 21.01.2020
382 Clear 10 1015 61 10000 3.6 40 22:20 21.01.2020
383 Clear 10 1015 66 10000 3.1 20 21:56 21.01.2020
384 Clear 10 1015 61 10000 4.6 30 21:37 21.01.2020
385 Clear 10 1015 61 10000 4.6 30 21:19 21.01.2020
386 Clear 10 1015 61 10000 4.6 50 20:55 21.01.2020
387 Clear 10 1015 61 10000 4.6 40 20:37 21.01.2020
388 Clear 10 1015 61 10000 4.6 40 20:18 21.01.2020
389 Clear 10 1015 61 10000 4.6 40 20:18 21.01.2020
390 Clear 11 1015 61 10000 5.1 40 19:55 21.01.2020
391 Clear 11 1015 57 10000 6.2 30 19:37 21.01.2020
392 Clear 11 1015 57 10000 6.2 30 19:37 21.01.2020
393 Clear 11 1015 57 10000 6.2 30 19:18 21.01.2020
394 Clear 12 1015 62 10000 5.1 30 18:55 21.01.2020
395 Clouds 12 1015 54 10000 6.7 30 18:36 21.01.2020
396 Clouds 12 1015 54 10000 6.7 30 18:18 21.01.2020
397 Clouds 13 1015 50 10000 7.7 50 17:42 21.01.2020
398 Clouds 13 1015 50 10000 7.7 50 17:20 21.01.2020
399 Clouds 13 1015 54 10000 6.7 40 16:58 21.01.2020
400 Clear 13 1015 54 10000 5.7 40 16:37 21.01.2020
401 Clear 13 1015 54 10000 5.7 40 16:18 21.01.2020
402 Clear 13 1015 50 10000 5.7 30 15:41 21.01.2020
403 Clear 13 1015 54 10000 6.2 40 15:20 21.01.2020
404 Clear 12 1016 54 10000 6.2 50 14:58 21.01.2020
405 Clear 12 1016 50 10000 5.7 40 14:37 21.01.2020
406 Clear 12 1016 50 10000 5.7 40 14:19 21.01.2020
407 Clear 12 1017 54 10000 6.7 30 13:39 21.01.2020
408 Clear 11 1018 53 10000 4.6 30 13:19 21.01.2020
409 Clear 10 1019 57 10000 7.2 30 12:43 21.01.2020
410 Clear 10 1018 57 10000 8.2 40 12:25 21.01.2020
411 Clear 10 1018 57 10000 7.2 40 11:57 21.01.2020
412 Clear 9 1018 61 10000 7.7 40 11:38 21.01.2020
413 Clear 9 1018 61 10000 7.7 40 11:20 21.01.2020
414 Clear 8 1018 65 10000 6.7 40 10:44 21.01.2020
415 Clear 8 1019 65 10000 7.2 40 10:23 21.01.2020
416 Clear 8 1019 65 10000 7.2 40 10:23 21.01.2020
417 Clear 7 1019 65 10000 6.2 40 09:59 21.01.2020
418 Clear 7 1019 65 10000 6.2 40 09:40 21.01.2020
419 Clear 7 1019 65 10000 5.7 40 09:22 21.01.2020
420 Clear 7 1019 65 10000 6.2 40 08:48 21.01.2020
421 Clear 7 1019 70 10000 5.7 30 08:27 21.01.2020
422 Clear 7 1019 65 10000 6.2 30 07:57 21.01.2020
423 Clear 7 1019 65 10000 6.2 30 07:38 21.01.2020
424 Clear 7 1019 65 10000 6.2 30 07:19 21.01.2020
425 Clear 7 1018 65 10000 6.2 30 06:45 21.01.2020
426 Clear 7 1018 65 10000 6.7 30 06:23 21.01.2020
427 Clear 7 1019 65 10000 6.2 40 05:41 21.01.2020
428 Clear 7 1019 64 10000 6.2 50 04:39 21.01.2020
429 Clear 8 1020 56 10000 6.2 40 02:54 21.01.2020
430 Clear 8 1020 52 10000 6.2 30 01:47 21.01.2020
431 Clear 8 1020 49 10000 6.7 30 00:54 21.01.2020
432 Clear 8 1020 49 10000 6.7 40 00:32 21.01.2020
433 Clear 8 1020 49 10000 7.2 40 23:57 20.01.2020
434 Clear 8 1020 49 10000 7.7 40 23:37 20.01.2020
435 Clear 8 1020 49 10000 7.7 40 23:18 20.01.2020
436 Clear 8 1020 49 10000 7.7 30 22:56 20.01.2020
437 Clear 8 1020 49 10000 8.2 40 22:36 20.01.2020
438 Clear 8 1020 49 10000 8.2 40 22:18 20.01.2020
439 Clear 9 1020 45 10000 8.2 30 21:55 20.01.2020
440 Clear 9 1020 52 10000 7.7 30 21:36 20.01.2020
441 Clear 9 1020 52 10000 7.7 30 21:18 20.01.2020
442 Clear 9 1019 45 10000 9.3 40 20:54 20.01.2020
443 Clear 9 1019 45 10000 7.2 40 20:36 20.01.2020
444 Clouds 9 1019 45 10000 7.2 40 20:18 20.01.2020
445 Clouds 9 1019 45 10000 7.2 40 20:18 20.01.2020
446 Clouds 9 1019 49 10000 7.2 40 19:54 20.01.2020
447 Clouds 9 1019 49 10000 7.2 40 19:54 20.01.2020
448 Clouds 10 1019 49 10000 8.2 40 19:36 20.01.2020
449 Clouds 10 1019 49 10000 8.2 40 19:18 20.01.2020
450 Clouds 11 1018 46 10000 9.3 30 18:42 20.01.2020
451 Clouds 11 1018 46 10000 9.8 30 18:21 20.01.2020
452 Clouds 12 1018 40 10000 10.8 40 17:39 20.01.2020
453 Clouds 12 1018 37 10000 11.3 40 17:19 20.01.2020
454 Clouds 12 1018 37 10000 12.3 40 16:55 20.01.2020
455 Clouds 12 1018 40 10000 10.3 30 16:36 20.01.2020
456 Clouds 12 1018 40 10000 10.3 30 16:18 20.01.2020
457 Clouds 12 1019 40 10000 9.8 40 15:41 20.01.2020
458 Clouds 12 1019 43 10000 8.7 30 15:22 20.01.2020
459 Clouds 11 1020 37 10000 9.3 20 14:59 20.01.2020
460 Clouds 11 1020 39 10000 9.8 40 14:40 20.01.2020
461 Clouds 11 1020 39 10000 9.8 40 14:21 20.01.2020
462 Clouds 10 1021 42 10000 9.3 40 13:57 20.01.2020
463 Clouds 10 1022 42 10000 9.3 30 13:38 20.01.2020
464 Clouds 10 1022 42 10000 9.3 30 13:20 20.01.2020
465 Clouds 9 1022 42 10000 9.3 40 12:42 20.01.2020
466 Clouds 8 1022 45 10000 9.8 40 12:23 20.01.2020
467 Clouds 8 1023 45 10000 7.7 40 11:56 20.01.2020
468 Clouds 8 1023 45 10000 9.3 30 11:37 20.01.2020
469 Clouds 7 1023 45 10000 9.3 30 11:18 20.01.2020
470 Clouds 7 1023 48 10000 8.2 30 10:46 20.01.2020
471 Clouds 7 1023 45 10000 9.3 30 10:21 20.01.2020
472 Clouds 6 1022 48 10000 8.7 30 09:42 20.01.2020
473 Clouds 7 1023 45 10000 7.2 30 09:24 20.01.2020
474 Clouds 7 1023 45 10000 8.2 20 08:56 20.01.2020
475 Clouds 7 1023 48 10000 8.7 20 08:35 20.01.2020
476 Clear 6 1023 48 10000 8.2 20 07:59 20.01.2020
477 Clear 6 1023 48 10000 8.2 20 07:41 20.01.2020
478 Clear 6 1023 48 10000 7.2 360 07:21 20.01.2020
479 Clear 6 1023 48 10000 5.7 10 06:44 20.01.2020
480 Clear 7 1023 48 10000 6.7 10 06:24 20.01.2020
481 Clear 6 1024 48 10000 8.2 20 05:41 20.01.2020
482 Clear 7 1024 42 10000 6.7 20 05:20 20.01.2020
483 Clear 7 1024 42 10000 8.2 30 04:24 20.01.2020
484 Clear 9 1025 36 10000 10.8 30 02:33 20.01.2020
485 Clear 9 1025 29 10000 10.3 30 01:40 20.01.2020
486 Clear 9 1025 26 10000 10.8 30 01:20 20.01.2020
487 Clear 10 1025 27 10000 10.8 30 00:43 20.01.2020
488 Clear 11 1025 21 10000 12.9 20 00:21 20.01.2020
489 Clear 11 1025 25 10000 11.3 20 23:38 19.01.2020
490 Clear 11 1025 25 10000 11.3 20 23:19 19.01.2020
491 Clear 12 1025 30 10000 10.3 10 22:56 19.01.2020
492 Clear 12 1025 40 10000 9.3 360 22:37 19.01.2020
493 Clear 12 1025 40 10000 9.3 360 22:19 19.01.2020
494 Clear 12 1025 33 10000 9.8 10 21:56 19.01.2020
495 Clear 12 1025 40 10000 9.8 360 21:38 19.01.2020
496 Clear 12 1025 40 10000 9.8 360 21:19 19.01.2020
497 Clear 13 1025 35 10000 9.8 360 20:57 19.01.2020
498 Clear 13 1025 37 10000 8.2 360 20:38 19.01.2020
499 Clear 13 1025 37 10000 8.2 360 20:20 19.01.2020
500 Clouds 13 1024 42 10000 8.7 360 19:55 19.01.2020
501 Clouds 13 1024 47 10000 7.7 360 19:37 19.01.2020
502 Clouds 14 1024 47 10000 7.7 360 19:37 19.01.2020
503 Clouds 14 1024 47 10000 7.7 360 19:19 19.01.2020
504 Clouds 14 1024 47 10000 7.7 360 19:19 19.01.2020
505 Clouds 14 1024 47 10000 7.7 360 19:19 19.01.2020
506 Clouds 14 1024 47 10000 7.2 360 18:55 19.01.2020
507 Clouds 15 1024 44 10000 8.7 10 18:37 19.01.2020
508 Clouds 15 1024 44 10000 8.7 10 18:19 19.01.2020
509 Clouds 15 1024 54 10000 7.2 360 17:57 19.01.2020
510 Clouds 16 1024 54 10000 7.2 10 17:39 19.01.2020
511 Clouds 16 1024 54 10000 7.2 10 17:20 19.01.2020
512 Clouds 16 1024 51 10000 7.7 10 16:57 19.01.2020
513 Clouds 16 1024 54 10000 7.7 20 16:38 19.01.2020
514 Clouds 16 1024 54 10000 7.7 20 16:19 19.01.2020
515 Clouds 16 1024 55 10000 6.7 10 15:57 19.01.2020
516 Clouds 16 1024 59 10000 6.2 360 15:37 19.01.2020
517 Clouds 16 1024 59 10000 6.2 360 15:19 19.01.2020
518 Clouds 16 1024 58 10000 7.2 360 14:57 19.01.2020
519 Clouds 16 1024 58 10000 7.2 360 14:38 19.01.2020
520 Clouds 15 1025 58 10000 6.7 10 14:18 19.01.2020
521 Clouds 15 1025 62 10000 7.7 360 13:55 19.01.2020
522 Clouds 15 1026 67 10000 7.2 10 13:37 19.01.2020
523 Clouds 15 1026 67 10000 7.2 10 13:18 19.01.2020
524 Clouds 14 1026 71 10000 8.2 350 12:42 19.01.2020
525 Clouds 14 1026 71 10000 8.2 350 12:23 19.01.2020
526 Clouds 14 1026 71 10000 8.2 350 11:58 19.01.2020
527 Clouds 13 1026 71 10000 8.2 350 11:39 19.01.2020
528 Clouds 13 1026 76 10000 8.2 350 11:20 19.01.2020
529 Clouds 13 1026 76 10000 8.2 350 10:55 19.01.2020
530 Clouds 13 1026 76 10000 7.7 340 10:37 19.01.2020
531 Clouds 12 1026 76 10000 7.7 340 10:18 19.01.2020
532 Clouds 12 1026 76 10000 7.7 340 10:18 19.01.2020
533 Clouds 12 1025 76 10000 6.2 360 09:44 19.01.2020
534 Clouds 12 1025 76 10000 4.1 320 09:25 19.01.2020
535 Clouds 12 1025 81 10000 2.6 310 08:58 19.01.2020
536 Clouds 12 1025 81 10000 3.6 330 08:39 19.01.2020
537 Clouds 12 1024 76 10000 5.1 350 08:21 19.01.2020
538 Clouds 12 1025 76 10000 5.1 360 07:42 19.01.2020
539 Clouds 12 1025 76 10000 3.1 310 07:22 19.01.2020
540 Clouds 12 1025 76 10000 4.6 320 06:51 19.01.2020
541 Clouds 12 1025 87 10000 5.7 330 05:41 19.01.2020
542 Clouds 12 1026 76 10000 2.6 310 02:44 19.01.2020
543 Clouds 13 1026 76 10000 3.1 320 02:21 19.01.2020
544 Clouds 13 1027 71 10000 3.6 310 01:25 19.01.2020
545 Clouds 13 1027 66 10000 3.6 300 00:50 19.01.2020
546 Clouds 13 1027 82 10000 4.6 330 00:29 19.01.2020
547 Clouds 13 1027 82 10000 4.6 330 23:58 18.01.2020
548 Clouds 13 1027 82 10000 5.1 320 23:40 18.01.2020
549 Clouds 13 1027 82 10000 5.1 320 23:21 18.01.2020
550 Clouds 14 1027 82 10000 3.1 300 22:55 18.01.2020
551 Rain 14 1027 82 10000 5.1 300 22:37 18.01.2020
552 Rain 14 1027 82 10000 5.1 300 22:37 18.01.2020
553 Rain 14 1027 82 10000 5.1 300 22:19 18.01.2020
554 Clouds 14 1026 87 10000 4.6 250 21:57 18.01.2020
555 Clouds 14 1027 87 10000 5.1 260 21:37 18.01.2020
556 Clouds 14 1027 87 10000 5.1 260 21:37 18.01.2020
557 Clouds 14 1027 87 10000 5.1 260 21:19 18.01.2020
558 Clouds 14 1027 87 10000 4.6 290 20:43 18.01.2020
559 Clouds 14 1027 87 10000 4.6 290 20:21 18.01.2020
560 Clouds 14 1027 82 10000 4.6 290 19:58 18.01.2020
561 Clouds 14 1027 82 10000 3.6 290 19:40 18.01.2020
562 Clouds 14 1027 82 10000 3.6 290 19:22 18.01.2020
563 Clouds 14 1027 82 10000 3.6 290 18:42 18.01.2020
564 Clouds 15 1026 77 10000 4.1 280 18:22 18.01.2020
565 Clouds 15 1026 77 10000 3.6 290 17:55 18.01.2020
566 Clouds 15 1027 77 10000 5.1 300 17:37 18.01.2020
567 Clouds 16 1027 77 10000 5.1 300 17:19 18.01.2020
568 Clouds 16 1027 77 10000 4.1 290 16:55 18.01.2020
569 Clouds 16 1027 77 10000 5.7 300 16:36 18.01.2020
570 Clouds 16 1027 77 10000 5.7 300 16:18 18.01.2020
571 Clouds 16 1027 77 10000 5.1 300 15:41 18.01.2020
572 Clouds 16 1027 77 10000 7.2 310 15:23 18.01.2020
573 Clouds 16 1027 82 10000 5.7 280 14:57 18.01.2020
574 Clouds 16 1027 82 10000 5.7 280 14:38 18.01.2020
575 Clouds 17 1027 77 10000 4.6 280 14:18 18.01.2020
576 Clouds 16 1027 82 10000 5.1 280 13:43 18.01.2020
577 Clouds 16 1028 87 10000 4.1 300 13:24 18.01.2020
578 Clouds 16 1028 82 10000 5.1 300 12:57 18.01.2020
579 Clouds 16 1028 82 10000 5.1 300 12:38 18.01.2020
580 Clouds 16 1028 82 10000 4.6 290 12:20 18.01.2020
581 Clouds 16 1028 82 10000 4.6 290 11:44 18.01.2020
582 Clouds 16 1028 88 10000 4.6 280 11:21 18.01.2020
583 Drizzle 16 1027 100 10000 5.1 270 10:57 18.01.2020
584 Drizzle 16 1027 100 4000 5.1 250 10:38 18.01.2020
585 Drizzle 16 1027 100 4000 5.1 250 10:19 18.01.2020
586 Clouds 16 1027 100 4000 5.7 240 09:43 18.01.2020
587 Drizzle 16 1026 100 4000 6.7 240 09:24 18.01.2020
588 Drizzle 16 1026 100 2000 5.7 240 08:55 18.01.2020
589 Drizzle 16 1026 100 3500 6.7 240 08:37 18.01.2020
590 Drizzle 16 1026 100 3500 6.7 240 08:19 18.01.2020
591 Rain 16 1025 100 2500 6.7 240 07:45 18.01.2020
592 Rain 16 1025 100 3000 8.2 230 07:26 18.01.2020
593 Rain 16 1025 100 2500 9.3 220 06:47 18.01.2020
594 Rain 16 1025 100 2500 9.3 220 06:47 18.01.2020
595 Rain 15 1026 100 4000 9.8 210 05:59 18.01.2020
596 Rain 15 1026 100 3000 8.2 200 05:19 18.01.2020
597 Drizzle 14 1028 93 10000 6.2 180 02:53 18.01.2020
598 Drizzle 14 1028 93 10000 6.2 180 02:53 18.01.2020
599 Clouds 14 1029 93 10000 3.1 150 01:51 18.01.2020
600 Clouds 14 1030 100 9000 2.1 140 01:29 18.01.2020
601 Rain 13 1031 100 9000 1 0 00:36 18.01.2020
602 Rain 14 1031 100 9000 1 0 00:18 18.01.2020
603 Clouds 14 1031 100 10000 0.5 0 23:40 17.01.2020
604 Clouds 14 1031 100 10000 0.5 0 23:19 17.01.2020
605 Clouds 14 1031 100 10000 1 0 22:44 17.01.2020
606 Clouds 14 1032 93 10000 1 0 22:21 17.01.2020
607 Clouds 14 1031 100 10000 1.5 140 21:58 17.01.2020
608 Clouds 14 1031 100 10000 2.1 110 21:40 17.01.2020
609 Clouds 13 1031 100 10000 2.1 110 21:22 17.01.2020
610 Clouds 14 1031 100 10000 2.1 120 20:57 17.01.2020
611 Clouds 14 1031 100 10000 1.5 130 20:38 17.01.2020
612 Clouds 14 1031 100 10000 1.5 130 20:20 17.01.2020
613 Clouds 14 1031 93 10000 2.1 110 19:55 17.01.2020
614 Clouds 14 1031 93 10000 1.5 130 19:37 17.01.2020
615 Clouds 14 1031 93 10000 1.5 130 19:18 17.01.2020
616 Clouds 14 1031 93 10000 2.1 0 18:47 17.01.2020
617 Clouds 15 1031 93 10000 2.6 0 18:28 17.01.2020
618 Clouds 15 1031 93 10000 2.6 130 17:58 17.01.2020
619 Clouds 15 1031 93 10000 2.6 130 17:39 17.01.2020
620 Clouds 15 1031 87 10000 3.1 100 17:20 17.01.2020
621 Clouds 15 1031 87 10000 2.6 100 16:43 17.01.2020
622 Clouds 15 1031 87 10000 3.1 100 16:21 17.01.2020
623 Clouds 15 1031 82 10000 2.6 70 15:55 17.01.2020
624 Fog 15 1031 93 10000 3.1 60 15:37 17.01.2020
625 Fog 15 1031 93 10000 3.1 60 15:19 17.01.2020
626 Fog 15 1032 100 9000 1.5 90 14:43 17.01.2020
627 Fog 15 1032 100 10000 2.6 60 14:23 17.01.2020
628 Fog 15 1032 100 10000 2.1 90 13:42 17.01.2020
629 Fog 15 1032 100 10000 1.5 0 13:23 17.01.2020
630 Fog 14 1032 100 9000 2.1 80 12:47 17.01.2020
631 Mist 14 1033 100 1200 1 0 12:23 17.01.2020
632 Fog 13 1033 100 300 1.5 100 11:43 17.01.2020
633 Fog 13 1032 100 7000 2.1 100 11:20 17.01.2020
634 Fog 12 1032 100 10000 1.5 60 10:57 17.01.2020
635 Fog 12 1032 100 10000 1.5 360 10:39 17.01.2020
636 Fog 12 1032 100 10000 1.5 360 10:20 17.01.2020
637 Fog 11 1031 100 10000 1.5 220 09:44 17.01.2020
638 Fog 11 1031 100 10000 1.5 300 09:21 17.01.2020
639 Fog 12 1031 100 10000 2.1 280 08:58 17.01.2020
640 Fog 12 1031 100 10000 1.5 270 08:40 17.01.2020
641 Fog 12 1031 100 10000 1.5 270 08:21 17.01.2020
642 Clouds 12 1030 100 10000 2.1 270 07:48 17.01.2020
643 Clouds 12 1030 100 10000 2.6 260 07:29 17.01.2020
644 Clouds 12 1029 100 10000 2.6 260 06:56 17.01.2020
645 Fog 12 1029 100 7000 2.6 240 06:36 17.01.2020
646 Fog 12 1029 100 500 2.6 270 05:19 17.01.2020
647 Clouds 13 1028 94 0 1.57 276 03:38 17.01.2020
648 Clouds 12 1028 95 0 1.79 230 02:42 17.01.2020
649 Clouds 13 1028 94 0 2.68 276 01:45 17.01.2020
650 Clouds 13 1028 94 0 1.34 244 01:27 17.01.2020
651 Clouds 13 1027 94 0 1.68 260 00:40 17.01.2020
652 Clouds 13 1027 100 10000 1.5 240 00:19 17.01.2020
653 Clouds 13 1027 100 10000 1.5 240 23:41 16.01.2020
654 Clouds 13 1027 100 10000 1.5 240 23:22 16.01.2020
655 Clouds 13 1026 100 10000 1.5 260 22:42 16.01.2020
656 Clouds 13 1026 100 10000 2.1 240 22:22 16.01.2020
657 Clouds 13 1026 100 10000 2.1 240 22:22 16.01.2020
658 Clouds 14 1025 93 10000 1.5 270 21:57 16.01.2020
659 Clouds 14 1025 93 10000 1.5 270 21:38 16.01.2020
660 Clouds 13 1025 100 10000 2.1 250 21:19 16.01.2020
661 Clouds 13 1025 100 10000 2.1 250 20:58 16.01.2020
662 Clouds 13 1025 93 10000 3.1 220 20:39 16.01.2020
663 Clouds 13 1025 93 10000 3.1 220 20:19 16.01.2020
664 Clouds 14 1024 93 10000 4.6 230 19:56 16.01.2020
665 Clouds 13 1024 93 10000 4.1 240 19:38 16.01.2020
666 Clouds 14 1024 93 10000 4.1 240 19:19 16.01.2020
667 Rain 14 1023 100 10000 8.2 240 18:55 16.01.2020
668 Rain 14 1022 93 8000 10.3 200 18:37 16.01.2020
669 Rain 14 1022 93 8000 10.3 200 18:18 16.01.2020
670 Drizzle 15 1022 93 4000 10.3 200 17:42 16.01.2020
671 Rain 15 1022 93 10000 9.8 200 17:23 16.01.2020
672 Clouds 16 1022 82 10000 12.3 190 16:57 16.01.2020
673 Clouds 16 1022 82 10000 12.3 190 16:39 16.01.2020
674 Clouds 16 1022 82 10000 12.3 190 16:19 16.01.2020
675 Clouds 16 1022 77 10000 12.3 190 15:44 16.01.2020
676 Clouds 16 1022 77 10000 11.3 190 15:23 16.01.2020
677 Clouds 17 1023 77 10000 12.9 190 14:57 16.01.2020
678 Clouds 17 1023 77 10000 12.9 190 14:57 16.01.2020
679 Clouds 16 1023 82 10000 11.3 190 14:39 16.01.2020
680 Clouds 16 1023 82 10000 11.3 190 14:20 16.01.2020
681 Clouds 16 1024 82 10000 10.8 190 13:45 16.01.2020
682 Clouds 16 1024 82 10000 9.3 190 13:26 16.01.2020
683 Clouds 16 1024 82 10000 10.3 180 12:47 16.01.2020
684 Clouds 16 1024 82 10000 9.3 190 12:29 16.01.2020
685 Clouds 16 1025 82 10000 7.7 180 11:59 16.01.2020
686 Clouds 16 1025 82 10000 7.7 180 11:41 16.01.2020
687 Clouds 16 1025 82 10000 7.7 180 11:41 16.01.2020
688 Clouds 15 1025 87 10000 7.7 180 11:23 16.01.2020
689 Clouds 15 1024 87 10000 7.2 170 10:55 16.01.2020
690 Clouds 15 1024 87 10000 6.7 170 10:37 16.01.2020
691 Clouds 15 1024 87 10000 6.7 170 10:18 16.01.2020
692 Clouds 15 1024 87 10000 6.7 170 09:42 16.01.2020
693 Clouds 15 1024 93 10000 6.2 170 09:24 16.01.2020
694 Clouds 15 1023 87 10000 6.7 170 08:58 16.01.2020
695 Clouds 15 1023 87 10000 6.7 170 08:39 16.01.2020
696 Clouds 15 1023 93 10000 7.7 180 08:18 16.01.2020
697 Clouds 15 1023 93 10000 7.7 170 07:42 16.01.2020
698 Clouds 15 1023 93 10000 6.7 170 07:23 16.01.2020
699 Clouds 15 1023 93 10000 6.7 170 07:23 16.01.2020
700 Clouds 15 1023 93 10000 6.7 180 06:52 16.01.2020
701 Clouds 15 1023 93 10000 6.7 180 06:34 16.01.2020
702 Clouds 15 1023 93 10000 6.7 190 05:49 16.01.2020
703 Clouds 15 1024 93 10000 7.7 190 04:50 16.01.2020
704 Clouds 15 1024 93 10000 8.7 190 03:57 16.01.2020
705 Clouds 15 1023 87 10000 7.7 190 02:47 16.01.2020
706 Clouds 15 1023 93 0 8.2 190 01:34 16.01.2020
707 Clouds 15 1024 93 10000 8.2 190 00:43 16.01.2020
708 Clouds 15 1024 93 10000 7.2 190 00:23 16.01.2020
709 Clouds 15 1024 93 10000 7.2 190 23:44 15.01.2020
710 Clouds 15 1023 93 10000 5.7 180 23:22 15.01.2020
711 Clouds 15 1023 93 10000 5.7 170 22:56 15.01.2020
712 Clouds 15 1023 93 10000 6.7 190 22:38 15.01.2020
713 Clouds 16 1023 93 10000 6.7 190 22:18 15.01.2020
714 Clouds 16 1023 93 10000 7.2 200 21:56 15.01.2020
715 Clouds 16 1023 93 10000 6.7 190 21:37 15.01.2020
716 Clouds 16 1023 93 10000 6.7 190 21:37 15.01.2020
717 Clouds 16 1023 93 10000 6.7 190 21:18 15.01.2020
718 Clouds 16 1023 93 10000 7.7 190 20:55 15.01.2020
719 Clouds 16 1023 93 10000 6.7 190 20:37 15.01.2020
720 Clouds 16 1023 93 10000 6.7 190 20:18 15.01.2020
721 Clouds 16 1022 93 10000 8.2 190 19:54 15.01.2020
722 Clouds 16 1022 93 10000 8.2 200 19:36 15.01.2020
723 Clouds 16 1022 93 10000 8.2 200 19:18 15.01.2020
724 Clouds 16 1022 93 10000 8.7 190 18:55 15.01.2020
725 Clouds 16 1022 93 10000 6.7 200 18:37 15.01.2020
726 Clouds 16 1022 93 10000 6.7 200 18:19 15.01.2020
727 Clouds 16 1022 93 10000 7.7 200 17:42 15.01.2020
728 Clouds 17 1021 88 10000 9.3 200 17:23 15.01.2020
729 Clouds 17 1021 88 10000 8.7 200 16:59 15.01.2020
730 Clouds 17 1021 88 10000 8.7 200 16:39 15.01.2020
731 Clouds 17 1021 88 10000 9.3 200 16:21 15.01.2020
732 Clouds 17 1021 88 10000 9.3 200 16:21 15.01.2020
733 Clouds 17 1021 88 10000 9.3 200 15:56 15.01.2020
734 Rain 17 1021 88 10000 9.3 200 15:38 15.01.2020
735 Rain 17 1021 88 10000 9.3 200 15:18 15.01.2020
736 Clouds 17 1021 88 10000 7.7 210 14:42 15.01.2020
737 Clouds 17 1021 88 10000 8.7 210 14:19 15.01.2020
738 Clouds 16 1021 93 10000 9.3 200 13:46 15.01.2020
739 Clouds 16 1022 93 10000 7.7 200 13:26 15.01.2020
740 Rain 16 1022 93 10000 8.2 200 12:59 15.01.2020
741 Rain 16 1022 93 10000 8.2 200 12:39 15.01.2020
742 Rain 16 1022 93 10000 8.2 210 12:19 15.01.2020
743 Rain 16 1022 93 10000 8.2 210 12:19 15.01.2020
744 Clouds 16 1021 93 10000 8.7 210 11:56 15.01.2020
745 Clouds 16 1021 93 10000 8.2 210 11:37 15.01.2020
746 Clouds 15 1021 93 10000 8.2 210 11:19 15.01.2020
747 Clouds 15 1020 93 10000 8.2 200 10:43 15.01.2020
748 Rain 15 1020 93 7000 8.2 200 10:25 15.01.2020
749 Clouds 15 1020 93 7000 9.3 200 09:45 15.01.2020
750 Clouds 15 1019 93 8000 9.3 200 09:26 15.01.2020
751 Clouds 15 1019 93 10000 8.7 200 08:59 15.01.2020
752 Clouds 15 1019 93 10000 8.7 200 08:41 15.01.2020
753 Clouds 15 1019 87 10000 8.7 200 08:22 15.01.2020
754 Clouds 15 1019 87 10000 8.7 200 07:52 15.01.2020
755 Clouds 15 1018 93 10000 7.2 200 07:32 15.01.2020
756 Clouds 15 1018 93 10000 8.2 200 06:46 15.01.2020
757 Clouds 15 1018 93 10000 8.2 200 06:20 15.01.2020
758 Clouds 15 1018 93 10000 7.7 190 04:44 15.01.2020
759 Clouds 15 1018 87 10000 9.3 190 02:39 15.01.2020
760 Clouds 15 1018 87 10000 9.3 180 01:28 15.01.2020
761 Clouds 15 1019 87 10000 8.2 180 00:59 15.01.2020
762 Clouds 15 1019 87 10000 8.2 180 00:36 15.01.2020
763 Clouds 15 1019 87 10000 8.2 180 00:18 15.01.2020
764 Clouds 15 1019 87 10000 8.7 180 23:45 14.01.2020
765 Clouds 15 1019 82 10000 9.8 180 23:24 14.01.2020
766 Clouds 15 1019 87 10000 10.3 180 22:41 14.01.2020
767 Clouds 15 1019 87 10000 9.8 180 22:20 14.01.2020
768 Clouds 15 1019 82 10000 10.3 190 21:59 14.01.2020
769 Clouds 15 1019 82 10000 9.8 190 21:41 14.01.2020
770 Clouds 15 1019 82 10000 9.8 190 21:23 14.01.2020
771 Clouds 15 1019 82 10000 8.7 190 20:59 14.01.2020
772 Clouds 15 1019 82 10000 10.8 190 20:41 14.01.2020
773 Clouds 15 1019 82 10000 10.8 190 20:21 14.01.2020
774 Clouds 15 1019 82 10000 10.8 190 19:56 14.01.2020
775 Rain 15 1019 87 10000 10.3 200 19:38 14.01.2020
776 Rain 15 1019 87 10000 10.3 200 19:19 14.01.2020
777 Rain 15 1019 87 10000 9.3 200 18:56 14.01.2020
778 Clouds 15 1018 87 10000 10.3 190 18:38 14.01.2020
779 Clouds 15 1018 87 10000 10.3 190 18:38 14.01.2020
780 Clouds 15 1018 87 10000 10.3 190 18:19 14.01.2020
781 Rain 15 1019 87 10000 9.3 200 17:39 14.01.2020
782 Rain 15 1019 87 10000 9.3 200 17:19 14.01.2020
783 Rain 15 1019 87 10000 9.3 190 16:57 14.01.2020
784 Rain 15 1018 87 10000 8.7 190 16:38 14.01.2020
785 Rain 15 1018 87 10000 8.7 190 16:20 14.01.2020
786 Clouds 15 1018 100 10000 7.7 190 15:55 14.01.2020
787 Rain 14 1019 100 10000 3.6 110 15:37 14.01.2020
788 Rain 14 1019 100 10000 3.6 110 15:18 14.01.2020
789 Clouds 14 1020 100 10000 4.6 190 14:43 14.01.2020
790 Clouds 14 1020 100 10000 4.6 190 14:20 14.01.2020
791 Drizzle 14 1020 93 2200 5.1 180 13:43 14.01.2020
792 Clouds 14 1021 87 10000 2.1 80 13:20 14.01.2020
793 Clouds 14 1021 93 10000 1 0 12:59 14.01.2020
794 Drizzle 14 1021 93 8000 2.1 50 12:40 14.01.2020
795 Drizzle 14 1021 93 8000 2.1 50 12:20 14.01.2020
796 Clouds 13 1022 100 9000 1.5 0 11:42 14.01.2020
797 Clouds 13 1022 93 9000 1.5 40 11:23 14.01.2020
798 Clouds 13 1022 93 9000 1.5 40 11:23 14.01.2020
799 Clouds 12 1022 93 10000 1.5 40 10:58 14.01.2020
800 Clouds 12 1022 93 10000 1.5 40 10:39 14.01.2020
801 Clouds 11 1021 73 10000 2.1 40 10:19 14.01.2020
802 Clouds 12 1021 73 10000 1.5 10 09:57 14.01.2020
803 Clouds 11 1021 73 10000 1.5 10 09:39 14.01.2020
804 Clouds 11 1021 100 10000 1.5 350 09:20 14.01.2020
805 Clouds 11 1021 100 10000 1.5 50 08:44 14.01.2020
806 Clouds 11 1021 100 10000 1.5 30 08:23 14.01.2020
807 Clouds 11 1021 100 10000 1 360 07:53 14.01.2020
808 Clouds 11 1021 100 10000 1.5 340 07:31 14.01.2020
809 Clouds 11 1021 100 10000 1.5 30 06:51 14.01.2020
810 Clouds 11 1021 100 10000 2.1 20 06:23 14.01.2020
811 Clouds 12 1021 93 10000 1.5 30 05:21 14.01.2020
812 Clouds 12 1022 93 10000 1 0 03:51 14.01.2020
813 Clouds 12 1022 93 10000 1 0 03:51 14.01.2020
814 Clouds 12 1022 93 10000 1 20 02:42 14.01.2020
815 Clouds 12 1023 93 10000 1 360 01:53 14.01.2020
816 Clouds 13 1023 87 10000 1.5 0 00:51 14.01.2020
817 Clouds 12 1023 93 10000 2.6 90 00:32 14.01.2020
818 Clouds 13 1023 87 10000 2.1 50 23:54 13.01.2020
819 Clouds 13 1023 87 10000 2.1 50 23:54 13.01.2020
820 Clouds 12 1024 87 10000 2.1 110 23:36 13.01.2020
821 Clouds 12 1024 87 10000 2.1 110 23:18 13.01.2020
822 Clouds 12 1024 81 10000 1 0 22:41 13.01.2020
823 Clouds 12 1024 81 10000 1.5 120 22:21 13.01.2020
824 Clouds 12 1024 81 10000 1.5 200 21:56 13.01.2020
825 Clouds 12 1024 76 10000 2.1 150 21:38 13.01.2020
826 Clouds 12 1024 76 10000 2.1 150 21:19 13.01.2020
827 Clouds 12 1024 76 10000 2.1 140 20:58 13.01.2020
828 Clouds 12 1024 76 10000 2.1 140 20:40 13.01.2020
829 Clouds 12 1024 76 10000 2.6 160 20:22 13.01.2020
830 Clouds 12 1024 76 10000 2.6 150 19:58 13.01.2020
831 Clouds 12 1024 76 10000 2.6 150 19:58 13.01.2020
832 Clouds 12 1024 76 10000 2.6 150 19:39 13.01.2020
833 Clouds 12 1024 76 10000 2.1 140 19:19 13.01.2020
834 Clouds 12 1024 76 10000 2.1 130 18:56 13.01.2020
835 Clouds 13 1024 71 10000 2.6 140 18:37 13.01.2020
836 Clouds 13 1024 71 10000 2.6 140 18:18 13.01.2020
837 Clouds 13 1024 71 10000 1.5 160 17:42 13.01.2020
838 Clouds 13 1024 76 10000 3.1 160 17:24 13.01.2020
839 Clouds 13 1024 76 10000 3.1 160 17:24 13.01.2020
840 Clouds 13 1024 76 10000 2.1 130 16:57 13.01.2020
841 Clouds 14 1024 78 0 1.34 190 16:38 13.01.2020
842 Clouds 13 1024 80 0 0.45 155 16:20 13.01.2020
843 Clouds 13 1024 87 0 0.89 159 15:44 13.01.2020
844 Clouds 14 1025 69 0 3.61 174 15:24 13.01.2020
845 Clouds 13 1025 69 0 3.61 174 14:59 13.01.2020
846 Clouds 13 1025 68 0 3.61 174 14:38 13.01.2020
847 Clouds 12 1025 97 0 0.89 101 14:20 13.01.2020
848 Clouds 11 1026 69 0 1.59 105 13:55 13.01.2020
849 Clouds 11 1027 78 0 0.89 89 13:37 13.01.2020
850 Clouds 11 1026 97 0 0.89 92 13:19 13.01.2020
851 Clouds 12 1027 93 10000 1.5 70 12:43 13.01.2020
852 Fog 8 1028 100 400 0.5 0 12:23 13.01.2020
853 Fog 8 1028 100 400 0.5 0 11:57 13.01.2020
854 -273 0 0 0 0 0 11:37 13.01.2020
855 Fog 8 1028 100 200 1.5 50 11:37 13.01.2020
856 Fog 8 1028 100 200 1.5 50 11:19 13.01.2020
857 Fog 6 1027 100 150 1.5 60 10:56 13.01.2020
858 Fog 6 1027 100 150 1.5 0 10:37 13.01.2020
859 Fog 6 1027 100 150 1.5 0 10:19 13.01.2020
860 Fog 5 1027 100 150 1.5 80 09:44 13.01.2020
861 Fog 6 1027 100 400 1.5 10 09:24 13.01.2020
862 Fog 5 1026 100 400 0.5 0 08:57 13.01.2020
863 Fog 5 1026 100 400 0.5 0 08:57 13.01.2020
864 Fog 5 1026 100 800 0.81 115 08:37 13.01.2020
865 Fog 4 1026 100 800 1.34 109 08:18 13.01.2020
866 Fog 5 1026 100 150 1.34 109 07:43 13.01.2020
867 Fog 5 1026 100 150 1.34 109 07:24 13.01.2020
868 Fog 4 1026 100 150 1.34 109 06:37 13.01.2020
869 Fog 5 1027 100 150 1.34 109 05:42 13.01.2020
870 Fog 6 1027 100 150 1.23 67 05:19 13.01.2020
871 Clouds 8 1027 93 10000 1.23 67 03:44 13.01.2020
872 Clouds 7 1028 87 10000 1 0 02:51 13.01.2020
873 Clouds 8 1028 81 10000 3.1 310 02:30 13.01.2020
874 Clouds 8 1029 81 10000 3.1 310 01:33 13.01.2020
875 Clouds 8 1029 81 10000 3.1 310 00:48 13.01.2020
876 Clouds 9 1029 81 10000 2.6 310 00:26 13.01.2020
877 Clouds 9 1029 81 10000 2.6 300 23:59 12.01.2020
878 Clouds 9 1029 81 10000 2.6 300 23:40 12.01.2020
879 Clouds 9 1029 81 10000 3.1 310 23:22 12.01.2020
880 Clouds 9 1029 81 10000 3.1 320 22:56 12.01.2020
881 Clouds 9 1030 81 10000 2.6 310 22:37 12.01.2020
882 Clouds 9 1030 81 10000 2.6 310 22:19 12.01.2020
883 Clouds 9 1030 76 10000 1 0 21:54 12.01.2020
884 Clouds 10 1030 76 10000 3.1 320 21:36 12.01.2020
885 Clouds 10 1030 76 10000 3.1 320 21:18 12.01.2020
886 Clouds 10 1030 75 10000 1.5 280 20:54 12.01.2020
887 Clouds 10 1030 75 10000 1 280 20:36 12.01.2020
888 Clear 10 1030 75 10000 1 280 20:18 12.01.2020
889 Clouds 10 1030 75 10000 1 210 19:54 12.01.2020
890 Clouds 11 1030 71 10000 1 0 19:36 12.01.2020
891 Clouds 11 1030 71 10000 1 0 19:18 12.01.2020
892 Clouds 11 1030 71 10000 1 0 19:18 12.01.2020
893 Clouds 12 1029 62 10000 1.5 0 18:54 12.01.2020
894 Clouds 13 1029 54 10000 1.5 80 18:36 12.01.2020
895 Clouds 13 1029 54 10000 1.5 80 18:18 12.01.2020
896 Clouds 13 1029 54 10000 1 0 17:42 12.01.2020
897 Clear 14 1029 58 10000 2.6 70 17:20 12.01.2020
898 Clear 14 1029 54 10000 3.1 70 16:57 12.01.2020
899 Clear 14 1029 54 10000 2.6 0 16:38 12.01.2020
900 Clear 14 1029 54 10000 2.6 0 16:19 12.01.2020
901 Clear 14 1030 58 10000 2.6 60 15:43 12.01.2020
902 Clear 14 1030 66 10000 2.1 100 15:25 12.01.2020
903 Clear 14 1031 71 10000 2.1 70 14:59 12.01.2020
904 Clear 14 1031 71 10000 2.1 70 14:41 12.01.2020
905 Clear 13 1031 71 10000 2.1 0 14:21 12.01.2020
906 Clear 13 1032 71 10000 2.6 80 13:56 12.01.2020
907 Clear 13 1032 71 10000 2.6 60 13:38 12.01.2020
908 Clear 13 1032 71 10000 2.6 60 13:20 12.01.2020
909 Clear 12 1033 76 10000 2.6 60 12:43 12.01.2020
910 Clear 11 1033 81 10000 2.1 70 12:21 12.01.2020
911 Clear 11 1033 81 10000 2.6 60 11:59 12.01.2020
912 Clouds 10 1032 87 10000 2.1 50 11:40 12.01.2020
913 Clouds 9 1032 87 10000 2.1 50 11:21 12.01.2020
914 Clouds 8 1032 93 10000 1.5 70 10:56 12.01.2020
915 Clouds 8 1032 100 10000 1 80 10:37 12.01.2020
916 Clouds 7 1032 100 10000 1 80 10:18 12.01.2020
917 Clouds 6 1032 100 10000 1 0 09:41 12.01.2020
918 Clouds 5 1032 100 10000 1.5 10 09:21 12.01.2020
919 Fog 5 1031 100 6000 1.5 10 08:47 12.01.2020
920 Clear 5 1031 93 10000 1 0 08:21 12.01.2020
921 Clear 5 1031 86 10000 1.5 50 07:46 12.01.2020
922 Clear 5 1031 93 10000 1 70 07:25 12.01.2020
923 Clear 5 1031 86 10000 1.5 340 06:50 12.01.2020
924 Clear 5 1031 86 10000 1 320 06:32 12.01.2020
925 Clear 6 1031 86 10000 1 50 05:50 12.01.2020
926 Clear 7 1031 86 10000 1 0 04:54 12.01.2020
927 Clear 7 1031 80 10000 1 340 03:35 12.01.2020
928 Clear 8 1031 75 10000 1 10 02:43 12.01.2020
929 Clear 8 1031 65 10000 1.5 330 02:24 12.01.2020
930 Clear 9 1032 66 10000 2.1 330 01:31 12.01.2020
931 Clear 9 1032 66 10000 2.1 330 00:46 12.01.2020
932 Clear 9 1032 66 10000 2.6 350 00:22 12.01.2020
933 Clear 9 1031 66 10000 3.1 340 23:56 11.01.2020
934 Clear 9 1031 66 10000 2.6 340 23:38 11.01.2020
935 Clear 9 1031 66 10000 2.6 340 23:18 11.01.2020
936 Clear 9 1031 70 10000 2.1 320 22:56 11.01.2020
937 Clear 9 1031 70 10000 1.5 310 22:37 11.01.2020
938 Clear 9 1031 70 10000 1.5 310 22:19 11.01.2020
939 Clear 10 1031 66 10000 1 0 21:44 11.01.2020
940 Clear 10 1031 66 10000 2.6 320 21:19 11.01.2020
941 Clear 10 1031 66 10000 2.6 320 21:19 11.01.2020
942 Clear 11 1031 62 10000 2.6 320 20:56 11.01.2020
943 Clear 11 1031 58 10000 2.6 310 20:38 11.01.2020
944 Clear 11 1031 58 10000 2.6 310 20:19 11.01.2020
945 Clear 11 1031 66 10000 1.5 330 19:56 11.01.2020
946 Clear 12 1031 62 10000 2.1 350 19:38 11.01.2020
947 Clear 12 1031 62 10000 2.1 350 19:20 11.01.2020
948 Clear 13 1030 58 10000 2.6 20 18:55 11.01.2020
949 Clear 13 1030 58 10000 3.1 20 18:36 11.01.2020
950 Clear 14 1030 58 10000 3.1 20 18:18 11.01.2020
951 Clear 14 1030 58 10000 3.1 20 18:18 11.01.2020
952 Clear 14 1030 58 10000 3.1 20 18:18 11.01.2020
953 Clear 14 1030 54 10000 3.6 30 17:56 11.01.2020
954 Clear 14 1030 54 10000 3.6 30 17:56 11.01.2020
955 Clear 14 1030 54 10000 3.6 40 17:37 11.01.2020
956 Clear 14 1030 54 10000 3.6 40 17:18 11.01.2020
957 Clear 15 1030 54 10000 3.1 40 16:43 11.01.2020
958 Clear 15 1030 54 10000 3.1 60 16:24 11.01.2020
959 Clear 15 1030 50 10000 3.1 60 15:56 11.01.2020
960 Clear 15 1030 54 10000 2.6 60 15:37 11.01.2020
961 Clear 14 1030 54 10000 2.6 60 15:19 11.01.2020
962 Clear 14 1030 54 10000 2.6 40 14:44 11.01.2020
963 Clear 13 1031 58 10000 2.1 30 14:24 11.01.2020
964 Clear 13 1031 62 10000 3.1 40 13:57 11.01.2020
965 Clear 13 1032 62 10000 3.1 60 13:37 11.01.2020
966 Clear 12 1032 62 10000 3.1 60 13:19 11.01.2020
967 Clear 12 1032 61 10000 3.6 50 12:44 11.01.2020
968 Clear 11 1032 61 10000 3.1 40 12:26 11.01.2020
969 Clear 10 1032 70 10000 4.1 60 11:56 11.01.2020
970 Clear 10 1032 70 10000 3.6 70 11:38 11.01.2020
971 Clear 10 1032 70 10000 3.6 70 11:18 11.01.2020
972 Clear 10 1032 66 10000 3.1 60 10:44 11.01.2020
973 Clear 9 1031 70 10000 2.6 20 10:24 11.01.2020
974 Clear 9 1031 70 10000 2.6 20 10:24 11.01.2020
975 Clear 8 1031 75 10000 2.1 10 09:43 11.01.2020
976 Clear 7 1031 80 10000 2.6 20 09:21 11.01.2020
977 Clear 7 1031 75 10000 2.6 30 08:43 11.01.2020
978 Clear 8 1031 70 10000 2.6 40 08:24 11.01.2020
979 Clear 8 1031 75 10000 3.1 30 07:59 11.01.2020
980 Clear 7 1031 75 10000 3.1 30 07:41 11.01.2020
981 Clear 7 1031 75 10000 2.1 10 07:22 11.01.2020
982 Clear 7 1030 75 10000 3.6 40 06:42 11.01.2020
983 Clear 8 1031 70 10000 3.6 40 05:22 11.01.2020
984 Clear 9 1031 65 10000 2.6 360 04:38 11.01.2020
985 Clear 9 1031 65 10000 2.6 360 04:20 11.01.2020
986 Clear 8 1031 70 10000 2.6 10 02:46 11.01.2020
987 Clouds 10 1031 70 10000 3.6 350 01:45 11.01.2020
988 Clouds 9 1031 70 10000 3.1 350 01:25 11.01.2020
989 Clouds 9 1031 81 10000 2.6 330 00:52 11.01.2020
990 Clouds 9 1031 81 10000 3.1 340 00:24 11.01.2020
991 Clouds 9 1031 76 10000 3.1 330 23:58 10.01.2020
992 Clouds 9 1031 76 10000 3.1 330 23:38 10.01.2020
993 Clouds 9 1031 76 10000 3.1 330 23:38 10.01.2020
994 Clouds 9 1031 76 10000 3.1 330 23:20 10.01.2020
995 Clouds 10 1031 71 10000 4.1 330 22:41 10.01.2020
996 Clouds 10 1031 71 10000 4.1 330 22:22 10.01.2020
997 Clouds 10 1030 71 10000 4.6 330 21:59 10.01.2020
998 Clouds 10 1030 71 10000 4.1 320 21:41 10.01.2020
999 Clouds 10 1030 71 10000 4.1 320 21:20 10.01.2020
1000 Clouds 10 1030 76 10000 5.1 330 20:57 10.01.2020
1001 Clouds 11 1030 76 10000 4.6 340 20:38 10.01.2020
1002 Clear 11 1030 76 10000 4.6 340 20:20 10.01.2020
1003 Clear 11 1029 71 10000 4.1 340 19:40 10.01.2020
1004 Clear 11 1029 71 10000 4.1 340 19:21 10.01.2020
1005 Clear 12 1029 76 10000 4.6 340 18:56 10.01.2020
1006 Clear 12 1029 66 10000 5.1 340 18:37 10.01.2020
1007 Clear 12 1029 66 10000 5.1 340 18:18 10.01.2020
1008 Clear 13 1029 62 10000 6.2 340 17:56 10.01.2020
1009 Clear 13 1029 58 10000 6.7 340 17:38 10.01.2020
1010 Clear 13 1029 58 10000 6.7 340 17:19 10.01.2020
1011 Clouds 14 1029 54 10000 5.1 10 16:42 10.01.2020
1012 Clouds 14 1029 54 10000 5.1 10 16:21 10.01.2020
1013 Clouds 14 1029 54 10000 6.2 360 15:58 10.01.2020
1014 Clouds 14 1029 54 10000 7.2 360 15:38 10.01.2020
1015 Clouds 14 1029 54 10000 7.2 360 15:20 10.01.2020
1016 Clear 14 1029 50 10000 7.7 350 14:59 10.01.2020
1017 Clear 14 1029 50 10000 7.7 350 14:40 10.01.2020
1018 Clouds 14 1030 58 10000 8.2 350 14:19 10.01.2020
1019 Clouds 13 1030 58 10000 7.7 350 13:57 10.01.2020
1020 Clouds 13 1031 58 10000 9.3 350 13:38 10.01.2020
1021 Clouds 13 1031 58 10000 9.3 350 13:19 10.01.2020
1022 Clouds 13 1032 58 10000 7.2 360 12:56 10.01.2020
1023 Clouds 13 1031 62 10000 5.7 350 12:38 10.01.2020
1024 Clouds 13 1031 62 10000 5.7 350 12:18 10.01.2020
1025 Clouds 12 1031 71 10000 6.7 350 11:42 10.01.2020
1026 Clouds 12 1031 71 10000 6.7 350 11:42 10.01.2020
1027 Clouds 12 1031 71 10000 4.6 360 11:22 10.01.2020
1028 Clouds 11 1031 76 10000 3.1 10 10:59 10.01.2020
1029 Clouds 11 1031 76 10000 5.1 340 10:39 10.01.2020
1030 Clouds 11 1031 76 10000 5.1 340 10:21 10.01.2020
1031 Clouds 10 1031 87 10000 3.6 350 09:56 10.01.2020
1032 Clouds 10 1031 87 10000 2.1 320 09:37 10.01.2020
1033 Clouds 10 1031 87 10000 2.1 320 09:19 10.01.2020
1034 Clouds 10 1031 87 10000 2.1 320 09:19 10.01.2020
1035 Clouds 10 1031 87 10000 2.1 310 08:40 10.01.2020
1036 Clouds 9 1030 87 10000 3.1 320 08:22 10.01.2020
1037 Clouds 10 1030 87 10000 2.6 330 07:44 10.01.2020
1038 Clouds 10 1030 81 10000 2.1 320 07:23 10.01.2020
1039 Clouds 10 1030 87 10000 2.1 320 06:45 10.01.2020
1040 Clouds 10 1030 81 10000 2.1 320 06:25 10.01.2020
1041 Clouds 10 1030 76 10000 2.1 320 05:46 10.01.2020
1042 Clouds 11 1030 81 10000 2.6 340 03:35 10.01.2020
1043 Clouds 11 1030 81 10000 2.1 340 02:59 10.01.2020
1044 Clouds 12 1030 87 10000 2.6 330 02:38 10.01.2020
1045 Clouds 12 1030 87 10000 2.1 310 01:38 10.01.2020
1046 Clouds 12 1030 87 10000 2.1 310 01:19 10.01.2020
1047 Clouds 12 1031 93 10000 1.5 300 00:39 10.01.2020
1048 Clouds 12 1031 87 10000 2.6 320 23:58 09.01.2020
1049 Clouds 12 1030 87 10000 2.6 330 23:38 09.01.2020
1050 Clouds 12 1030 87 10000 2.6 330 23:20 09.01.2020
1051 Clouds 12 1030 87 10000 3.6 350 22:57 09.01.2020
1052 Clouds 12 1030 81 10000 5.7 350 22:38 09.01.2020
1053 Clouds 12 1030 81 10000 5.7 350 22:19 09.01.2020
1054 Clouds 13 1030 87 10000 4.1 350 21:57 09.01.2020
1055 Clouds 13 1029 93 10000 3.1 350 21:37 09.01.2020
1056 Clouds 13 1029 93 10000 3.1 350 21:37 09.01.2020
1057 Clouds 13 1029 93 10000 3.1 350 21:37 09.01.2020
1058 Clouds 13 1029 93 10000 3.1 350 21:37 09.01.2020
1059 Clouds 13 1029 93 10000 3.1 350 21:19 09.01.2020
1060 Clouds 13 1029 93 10000 4.1 340 20:56 09.01.2020
1061 Clouds 13 1029 87 10000 4.1 340 20:38 09.01.2020
1062 Clouds 13 1029 87 10000 4.6 340 20:19 09.01.2020
1063 Clouds 13 1029 87 10000 4.6 340 20:19 09.01.2020
1064 Clouds 13 1029 87 10000 4.6 340 19:56 09.01.2020
1065 Clouds 13 1028 93 10000 5.1 340 19:37 09.01.2020
1066 Clouds 14 1028 87 10000 6.2 330 19:19 09.01.2020
1067 Drizzle 14 1028 100 9000 3.6 300 18:55 09.01.2020
1068 Drizzle 14 1028 100 9000 3.6 300 18:36 09.01.2020
1069 Rain 15 1028 87 10000 3.1 300 18:18 09.01.2020
1070 Rain 15 1028 87 10000 3.1 290 17:41 09.01.2020
1071 Clouds 16 1028 82 10000 3.1 300 17:18 09.01.2020
1072 Clouds 16 1027 77 10000 1.5 280 16:48 09.01.2020
1073 Clouds 16 1028 82 10000 3.1 300 16:23 09.01.2020
1074 Clouds 16 1028 82 10000 3.6 290 15:57 09.01.2020
1075 Clouds 16 1028 82 10000 3.6 290 15:57 09.01.2020
1076 Clouds 16 1028 82 10000 3.6 290 15:39 09.01.2020
1077 Clouds 16 1028 82 10000 3.1 340 15:18 09.01.2020
1078 Clouds 16 1028 82 10000 3.1 320 14:42 09.01.2020
1079 Clouds 15 1029 87 10000 3.1 310 14:22 09.01.2020
1080 Clouds 15 1029 87 10000 3.1 310 13:57 09.01.2020
1081 Clouds 15 1029 87 10000 2.6 300 13:39 09.01.2020
1082 Clouds 15 1029 87 10000 3.1 330 13:20 09.01.2020
1083 Clouds 15 1029 87 10000 3.1 330 12:59 09.01.2020
1084 Clouds 15 1030 93 10000 5.1 340 12:39 09.01.2020
1085 Clouds 15 1030 93 10000 4.6 330 12:19 09.01.2020
1086 Clouds 14 1029 93 10000 1 0 11:56 09.01.2020
1087 Clouds 14 1029 93 10000 1 0 11:37 09.01.2020
1088 Clouds 14 1029 93 10000 1 0 11:19 09.01.2020
1089 Clouds 14 1029 100 10000 1 0 10:43 09.01.2020
1090 Clouds 14 1028 100 10000 1 0 10:22 09.01.2020
1091 Clouds 13 1028 93 10000 2.6 320 09:56 09.01.2020
1092 Clouds 13 1028 93 10000 2.6 320 09:38 09.01.2020
1093 Clouds 13 1028 100 10000 2.1 340 09:18 09.01.2020
1094 Clouds 13 1028 100 10000 2.1 340 08:55 09.01.2020
1095 Clouds 13 1028 100 10000 2.6 300 08:37 09.01.2020
1096 Clouds 13 1028 100 10000 2.6 320 08:19 09.01.2020
1097 Clouds 13 1028 100 10000 2.6 310 07:42 09.01.2020
1098 Clouds 13 1028 87 10000 1 320 07:23 09.01.2020
1099 Clouds 13 1028 93 10000 3.6 330 06:38 09.01.2020
1100 Clouds 13 1028 100 10000 4.6 320 06:19 09.01.2020
1101 Clouds 13 1028 100 10000 5.1 310 05:44 09.01.2020
1102 Clouds 14 1028 100 10000 4.1 310 04:43 09.01.2020
1103 Clouds 13 1028 100 10000 4.1 300 03:31 09.01.2020
1104 Clouds 13 1029 100 10000 3.1 320 02:52 09.01.2020
1105 Clouds 13 1029 100 10000 3.1 340 02:24 09.01.2020
1106 Clouds 13 1029 100 10000 3.6 320 01:38 09.01.2020
1107 Clouds 13 1029 100 10000 2.1 330 00:43 09.01.2020
1108 Clouds 14 1029 100 10000 2.6 350 00:21 09.01.2020
1109 Clouds 14 1029 100 10000 2.6 350 00:21 09.01.2020
1110 Clouds 13 1029 100 10000 3.6 340 23:42 08.01.2020
1111 Clouds 13 1029 93 10000 3.1 330 23:24 08.01.2020
1112 Clouds 14 1029 100 10000 5.1 340 22:59 08.01.2020
1113 Clouds 13 1029 100 10000 5.1 340 22:39 08.01.2020
1114 Clouds 13 1029 100 10000 5.1 330 22:20 08.01.2020
1115 Clouds 13 1029 100 10000 4.1 320 21:57 08.01.2020
1116 Clouds 13 1029 100 10000 4.1 320 21:38 08.01.2020
1117 Clouds 13 1029 100 10000 4.6 320 21:20 08.01.2020
1118 Clouds 13 1029 100 10000 4.6 320 20:58 08.01.2020
1119 Clouds 13 1029 100 10000 4.1 330 20:38 08.01.2020
1120 Clouds 13 1029 100 10000 3.6 330 20:20 08.01.2020
1121 Clouds 13 1029 100 10000 3.6 330 19:56 08.01.2020
1122 Clouds 13 1029 93 10000 3.6 330 19:37 08.01.2020
1123 Clouds 13 1029 93 10000 4.6 340 19:19 08.01.2020
1124 Clouds 13 1029 93 10000 7.2 330 18:55 08.01.2020
1125 Clouds 13 1029 93 10000 7.2 330 18:37 08.01.2020
1126 Clouds 13 1028 87 10000 5.1 330 18:18 08.01.2020
1127 Clouds 14 1028 82 10000 4.6 320 17:48 08.01.2020
1128 Clouds 14 1029 93 10000 7.2 350 17:24 08.01.2020
1129 Clouds 14 1029 93 10000 7.2 350 16:58 08.01.2020
1130 Clouds 14 1028 76 10000 2.1 60 16:39 08.01.2020
1131 Clouds 14 1028 72 10000 4.1 30 16:19 08.01.2020
1132 Clouds 14 1028 72 10000 4.1 30 15:59 08.01.2020
1133 Clouds 14 1029 72 10000 3.1 310 15:40 08.01.2020
1134 Clouds 13 1029 76 10000 4.1 320 15:20 08.01.2020
1135 Clouds 13 1029 76 10000 2.1 50 14:56 08.01.2020
1136 Clouds 14 1029 76 10000 2.1 50 14:38 08.01.2020
1137 Clouds 13 1030 87 10000 2.1 90 14:19 08.01.2020
1138 Clouds 12 1030 87 10000 2.6 40 13:39 08.01.2020
1139 Clouds 12 1031 87 10000 4.1 330 13:19 08.01.2020
1140 Clouds 12 1031 87 10000 3.6 330 12:42 08.01.2020
1141 Clouds 12 1031 87 10000 3.6 340 12:19 08.01.2020
1142 Clouds 11 1031 87 10000 3.1 330 11:55 08.01.2020
1143 Clouds 11 1031 87 10000 3.1 330 11:55 08.01.2020
1144 Clouds 11 1031 87 10000 3.1 330 11:37 08.01.2020
1145 Clouds 10 1031 87 10000 3.1 330 11:18 08.01.2020
1146 Clouds 9 1030 93 10000 3.1 330 10:54 08.01.2020
1147 Clouds 9 1030 93 10000 3.1 330 10:36 08.01.2020
1148 Clouds 9 1030 93 10000 2.1 330 10:18 08.01.2020
1149 Clouds 8 1030 93 9000 2.6 350 09:41 08.01.2020
1150 Clear 8 1030 100 10000 3.1 340 09:19 08.01.2020
1151 Clouds 8 1030 100 10000 2.6 350 08:56 08.01.2020
1152 Clouds 8 1030 100 10000 2.6 350 08:37 08.01.2020
1153 Clouds 7 1030 93 10000 2.6 350 08:18 08.01.2020
1154 Clouds 7 1030 93 10000 4.1 340 07:48 08.01.2020
1155 Clouds 7 1030 93 10000 4.1 340 07:29 08.01.2020
1156 Clear 7 1030 93 10000 5.7 330 06:44 08.01.2020
1157 Clear 7 1030 93 10000 4.1 310 06:19 08.01.2020
1158 Clear 7 1030 87 10000 4.6 310 05:38 08.01.2020
1159 Clear 7 1030 81 10000 3.6 320 04:56 08.01.2020
1160 Clear 7 1030 76 10000 3.1 310 04:24 08.01.2020
1161 Clear 7 1030 81 10000 3.6 320 02:45 08.01.2020
1162 Clear 8 1031 81 10000 3.6 320 02:21 08.01.2020
1163 Clear 8 1031 87 10000 4.6 320 01:42 08.01.2020
1164 Clear 8 1031 87 10000 4.1 310 01:19 08.01.2020
1165 Clear 9 1031 81 10000 4.6 320 00:27 08.01.2020
1166 Clear 8 1031 81 10000 4.6 320 23:55 07.01.2020
1167 Clear 9 1031 76 10000 4.6 320 23:37 07.01.2020
1168 Clear 9 1031 81 10000 4.1 320 23:19 07.01.2020
1169 Clear 9 1031 76 10000 4.1 320 22:40 07.01.2020
1170 Clear 10 1031 76 10000 3.6 320 22:20 07.01.2020
1171 Clear 10 1031 81 10000 4.1 320 21:56 07.01.2020
1172 Clear 10 1031 81 10000 4.1 320 21:38 07.01.2020
1173 Clear 10 1031 81 10000 4.1 320 21:20 07.01.2020
1174 Clear 11 1031 76 10000 4.1 320 20:55 07.01.2020
1175 Clear 11 1031 76 10000 4.1 320 20:36 07.01.2020
1176 Clouds 11 1031 76 10000 2.6 320 20:18 07.01.2020
1177 Clear 11 1031 76 10000 2.6 320 19:38 07.01.2020
1178 Clear 12 1031 76 10000 1.5 10 19:20 07.01.2020
1179 Clear 12 1031 76 10000 1.5 10 18:58 07.01.2020
1180 Clear 13 1031 76 10000 2.1 50 18:40 07.01.2020
1181 Clear 14 1031 71 10000 2.1 70 18:19 07.01.2020
1182 Clear 14 1031 71 10000 2.1 70 17:59 07.01.2020
1183 Clear 14 1031 67 10000 2.1 70 17:39 07.01.2020
1184 Clear 14 1031 62 10000 3.1 90 17:21 07.01.2020
1185 Clear 15 1031 62 10000 3.1 90 16:57 07.01.2020
1186 Clear 15 1031 67 10000 2.6 80 16:38 07.01.2020
1187 Clear 14 1031 62 10000 2.6 50 16:19 07.01.2020
1188 Clear 14 1031 66 10000 2.6 60 15:58 07.01.2020
1189 Clear 14 1031 66 10000 2.6 60 15:39 07.01.2020
1190 Clear 13 1031 66 10000 3.6 60 15:21 07.01.2020
1191 Clear 13 1031 76 10000 3.1 60 14:54 07.01.2020
1192 Clear 13 1031 76 10000 3.1 60 14:36 07.01.2020
1193 Clouds 12 1032 76 10000 3.1 60 14:18 07.01.2020
1194 Clouds 12 1032 81 10000 2.6 60 13:39 07.01.2020
1195 Clouds 11 1033 87 10000 2.6 70 13:19 07.01.2020
1196 Clouds 10 1033 93 10000 2.1 90 12:41 07.01.2020
1197 Clouds 9 1033 87 10000 2.1 80 12:20 07.01.2020
1198 Clouds 9 1033 87 10000 1.5 80 11:55 07.01.2020
1199 Clouds 8 1033 87 10000 1.5 80 11:36 07.01.2020
1200 Clouds 7 1032 93 10000 1 0 11:18 07.01.2020
1201 Clouds 6 1032 93 10000 1.5 80 10:41 07.01.2020
1202 Clouds 6 1032 93 10000 1.5 80 10:41 07.01.2020
1203 Clouds 5 1032 93 10000 1 0 10:23 07.01.2020
1204 Clouds 6 1032 93 10000 1 0 09:58 07.01.2020
1205 Clouds 5 1032 100 10000 1 0 09:38 07.01.2020
1206 Clouds 3 1031 100 10000 2.77 33 09:20 07.01.2020
1207 Clouds 4 1031 100 10000 2.77 33 08:43 07.01.2020
1208 Clear 5 1031 93 10000 0.5 330 08:25 07.01.2020
1209 Clear 5 1031 100 10000 1 340 07:54 07.01.2020
1210 Clouds 5 1031 100 10000 0.5 80 07:28 07.01.2020
1211 Clear 5 1031 100 10000 1 340 07:28 07.01.2020
1212 Clear 5 1031 100 10000 1 340 07:28 07.01.2020
1213 Clear 5 1031 100 10000 1 340 07:28 07.01.2020
1214 Fog 6 1031 100 10000 1 350 06:53 07.01.2020
1215 Fog 6 1031 100 10000 1 350 06:34 07.01.2020
1216 Clear 5 1031 100 10000 1 340 05:55 07.01.2020
1217 Clouds 6 1031 93 10000 2.76 30 04:41 07.01.2020
1218 Clouds 7 1031 87 10000 1.5 0 03:27 07.01.2020
1219 Clear 8 1031 81 10000 1.5 320 02:22 07.01.2020
1220 Clear 8 1031 81 10000 1.5 320 01:54 07.01.2020
1221 Clear 8 1031 81 10000 1.5 320 01:30 07.01.2020
1222 Clear 8 1031 81 10000 3.1 310 00:37 07.01.2020
1223 Clear 8 1031 81 10000 3.1 310 00:19 07.01.2020
1224 Clear 9 1031 76 10000 3.1 310 23:55 06.01.2020
1225 Clear 9 1031 76 10000 3.1 310 23:36 06.01.2020
1226 Clear 9 1031 87 10000 3.1 310 23:18 06.01.2020
1227 Clear 9 1031 81 10000 3.1 310 22:42 06.01.2020
1228 Clear 10 1031 81 10000 3.1 320 22:22 06.01.2020
1229 Clear 10 1030 87 10000 3.1 310 21:56 06.01.2020
1230 Clear 10 1030 87 10000 3.1 310 21:38 06.01.2020
1231 Clear 10 1030 87 10000 2.6 320 21:20 06.01.2020
1232 Clear 10 1030 87 10000 2.6 320 21:20 06.01.2020
1233 Clear 10 1030 81 10000 3.1 320 20:56 06.01.2020
1234 Clear 10 1030 81 10000 3.1 320 20:37 06.01.2020
1235 Clouds 10 1030 87 10000 2.1 320 20:19 06.01.2020
1236 Clouds 11 1030 93 10000 3.1 10 19:56 06.01.2020
1237 Clouds 11 1030 93 10000 3.1 10 19:56 06.01.2020
1238 Clouds 11 1030 87 10000 1.5 350 19:37 06.01.2020
1239 Clouds 12 1029 81 10000 2.1 40 19:19 06.01.2020
1240 Clouds 12 1029 81 10000 2.1 40 19:19 06.01.2020
1241 Clouds 12 1029 76 10000 2.1 50 18:46 06.01.2020
1242 Clouds 13 1029 71 10000 2.1 70 18:21 06.01.2020
1243 Clouds 13 1029 71 10000 2.6 0 17:57 06.01.2020
1244 Clouds 14 1029 67 10000 1.5 10 17:37 06.01.2020
1245 Clouds 14 1029 67 10000 1.5 10 17:18 06.01.2020
1246 Clouds 14 1028 71 10000 2.1 70 16:44 06.01.2020
1247 Clouds 14 1028 71 10000 2.1 70 16:24 06.01.2020
1248 Clouds 14 1028 71 10000 2.1 70 15:59 06.01.2020
1249 Clouds 14 1029 76 10000 2.6 60 15:38 06.01.2020
1250 Clouds 13 1029 71 10000 2.6 70 15:18 06.01.2020
1251 Clouds 13 1029 71 10000 2.6 70 14:56 06.01.2020
1252 Clouds 13 1029 71 10000 2.6 70 14:37 06.01.2020
1253 Clear 13 1030 71 10000 2.1 60 14:18 06.01.2020
1254 Clear 13 1030 71 10000 2.1 60 14:18 06.01.2020
1255 Clear 13 1030 71 10000 2.1 60 14:18 06.01.2020
1256 Clear 12 1030 76 10000 2.1 50 13:41 06.01.2020
1257 Clouds 11 1030 87 10000 2.1 50 13:22 06.01.2020
1258 Clouds 11 1030 93 10000 2.1 70 12:59 06.01.2020
1259 Clouds 11 1030 93 10000 2.1 70 12:41 06.01.2020
1260 Clouds 10 1030 93 10000 1.5 50 12:20 06.01.2020
1261 Clouds 10 1030 93 10000 1.5 50 12:20 06.01.2020
1262 Clouds 10 1030 76 10000 2.1 80 11:55 06.01.2020
1263 Fog 9 1030 87 10000 2.1 90 11:37 06.01.2020
1264 Fog 8 1030 100 10000 1 0 11:19 06.01.2020
1265 Clouds 7 1030 100 10000 0.5 0 10:42 06.01.2020
1266 Clouds 7 1030 100 10000 0.5 0 10:42 06.01.2020
1267 Fog 7 1030 100 10000 1 0 10:21 06.01.2020
1268 Fog 4 1029 100 400 2.67 37 09:42 06.01.2020
1269 Fog 6 1029 100 300 2.67 37 09:24 06.01.2020
1270 Fog 6 1029 100 300 2.67 37 09:24 06.01.2020
1271 Mist 6 1029 100 5000 1 0 08:58 06.01.2020
1272 Fog 5 1029 100 300 2.67 37 08:58 06.01.2020
1273 Mist 6 1029 100 5000 1 0 08:58 06.01.2020
1274 Mist 6 1029 100 5000 1 0 08:39 06.01.2020
1275 Mist 5 1029 100 5000 0.5 0 08:21 06.01.2020
1276 Mist 5 1029 100 5000 0.5 0 08:21 06.01.2020
1277 Mist 5 1029 100 5000 0.5 0 07:46 06.01.2020
1278 Clear 5 1028 100 10000 2.2 21 07:21 06.01.2020
1279 Clear 6 1028 100 10000 2.2 21 06:41 06.01.2020
1280 Clear 6 1028 100 10000 0.5 0 05:51 06.01.2020
1281 Clear 6 1028 100 10000 0.5 0 05:29 06.01.2020
1282 Clear 7 1028 93 10000 1 0 04:25 06.01.2020
1283 Clear 7 1028 93 10000 1 0 03:53 06.01.2020
1284 Clear 8 1028 87 10000 0.5 0 02:32 06.01.2020
1285 Clear 8 1028 93 10000 1 300 01:56 06.01.2020
1286 Clear 7 1028 93 10000 1 300 01:32 06.01.2020
1287 Clear 9 1028 87 10000 0.5 0 00:57 06.01.2020
1288 Clear 9 1028 87 10000 0.5 0 00:39 06.01.2020
1289 Clear 9 1028 87 10000 0.5 290 00:18 06.01.2020
1290 Clear 9 1028 87 10000 0.5 0 23:40 05.01.2020
1291 Clear 9 1028 81 10000 1 0 23:21 05.01.2020
1292 Clear 9 1028 81 10000 1 0 22:54 05.01.2020
1293 Clear 10 1028 81 10000 1 0 22:36 05.01.2020
1294 Clear 10 1028 87 10000 1 0 22:18 05.01.2020
1295 Clear 10 1028 81 10000 1 0 21:41 05.01.2020
1296 Clear 10 1028 81 10000 1 0 21:21 05.01.2020
1297 Clear 10 1028 81 10000 1.5 340 20:58 05.01.2020
1298 Clear 11 1028 81 10000 1.5 340 20:39 05.01.2020
1299 Clear 11 1028 81 10000 1.5 350 20:20 05.01.2020
1300 Clear 11 1028 81 10000 1.5 350 19:59 05.01.2020
1301 Clear 11 1028 81 10000 1.5 350 19:40 05.01.2020
1302 Clear 12 1028 76 10000 1.5 0 19:21 05.01.2020
1303 Clear 12 1028 76 10000 2.1 50 18:56 05.01.2020
1304 Clear 13 1028 76 10000 2.1 50 18:38 05.01.2020
1305 Clear 13 1027 82 10000 2.1 350 18:19 05.01.2020
1306 Clear 13 1027 82 10000 2.1 350 17:59 05.01.2020
1307 Clear 13 1027 71 10000 2.6 50 17:39 05.01.2020
1308 Clear 13 1027 76 10000 2.6 60 17:20 05.01.2020
1309 Clear 13 1027 76 10000 2.6 60 16:57 05.01.2020
1310 Clear 13 1027 71 10000 3.1 60 16:39 05.01.2020
1311 Clear 13 1027 71 10000 3.1 60 16:39 05.01.2020
1312 Clear 13 1027 71 10000 3.1 50 16:20 05.01.2020
1313 Clear 13 1028 76 10000 3.1 40 15:40 05.01.2020
1314 Clear 13 1028 76 10000 3.6 50 15:22 05.01.2020
1315 Clear 13 1028 76 10000 3.6 50 14:57 05.01.2020
1316 Clear 12 1029 71 10000 3.6 40 14:39 05.01.2020
1317 Clear 12 1029 76 10000 3.6 70 14:21 05.01.2020
1318 Clear 12 1029 76 10000 3.6 70 13:58 05.01.2020
1319 Clear 12 1029 76 10000 4.1 70 13:38 05.01.2020
1320 Clear 11 1030 76 10000 4.6 60 13:20 05.01.2020
1321 Clear 11 1030 76 10000 4.6 60 12:57 05.01.2020
1322 Clear 11 1031 76 10000 4.1 60 12:38 05.01.2020
1323 Clear 11 1031 76 10000 4.1 50 12:19 05.01.2020
1324 Clear 10 1031 81 10000 4.1 60 11:54 05.01.2020
1325 Clear 10 1031 81 10000 4.1 60 11:36 05.01.2020
1326 Clear 10 1031 81 10000 3.6 50 11:18 05.01.2020
1327 Clear 9 1030 75 10000 2.6 40 10:41 05.01.2020
1328 Clear 9 1030 87 10000 2.6 30 10:20 05.01.2020
1329 Clear 8 1030 86 10000 2.1 50 09:55 05.01.2020
1330 Clear 7 1030 86 10000 2.1 50 09:36 05.01.2020
1331 Clear 7 1030 86 10000 2.1 50 09:18 05.01.2020
1332 Clear 8 1030 87 10000 2.6 40 08:44 05.01.2020
1333 Clear 8 1030 87 10000 2.6 40 08:21 05.01.2020
1334 Clear 8 1030 81 10000 2.6 30 07:47 05.01.2020
1335 Clear 8 1030 81 10000 2.6 30 07:29 05.01.2020
1336 Clear 7 1030 87 10000 2.6 50 06:55 05.01.2020
1337 Clear 8 1030 81 10000 3.1 30 05:43 05.01.2020
1338 Clear 8 1031 81 10000 3.6 40 04:56 05.01.2020
1339 Clear 8 1031 75 10000 3.6 40 04:19 05.01.2020
1340 Clear 8 1031 81 10000 3.6 30 03:40 05.01.2020
1341 Clear 10 1031 81 10000 3.6 30 02:36 05.01.2020
1342 Clear 10 1031 81 10000 2.6 10 02:18 05.01.2020
1343 Clear 10 1032 81 10000 2.6 20 01:21 05.01.2020
1344 Clear 10 1032 81 10000 2.6 20 00:58 05.01.2020
1345 Clear 10 1032 81 10000 2.1 20 00:39 05.01.2020
1346 Clear 10 1032 81 10000 2.6 360 00:20 05.01.2020
1347 Clear 11 1032 76 10000 2.1 350 23:58 04.01.2020
1348 Clear 11 1032 76 10000 2.1 350 23:38 04.01.2020
1349 Clear 11 1032 76 10000 3.1 20 23:18 04.01.2020
1350 Clouds 11 1032 76 10000 2.6 40 22:39 04.01.2020
1351 Clouds 11 1032 76 10000 3.1 50 22:20 04.01.2020
1352 Clouds 11 1032 76 10000 3.1 50 21:56 04.01.2020
1353 Clouds 11 1032 76 10000 3.1 360 21:37 04.01.2020
1354 Clouds 12 1032 76 10000 2.6 330 21:19 04.01.2020
1355 Clear 12 1031 76 10000 2.6 340 20:56 04.01.2020
1356 Clear 12 1031 76 10000 2.6 340 20:37 04.01.2020
1357 Clear 12 1031 76 10000 2.6 350 20:18 04.01.2020
1358 Clear 13 1031 76 10000 3.1 20 19:41 04.01.2020
1359 Clear 13 1031 76 10000 3.1 20 19:41 04.01.2020
1360 Clear 13 1031 76 10000 3.1 20 19:41 04.01.2020
1361 Clear 13 1031 76 10000 3.6 40 19:23 04.01.2020
1362 Clear 14 1031 71 10000 3.1 50 18:58 04.01.2020
1363 Clear 14 1031 71 10000 3.1 50 18:39 04.01.2020
1364 Clear 15 1031 62 10000 2.6 60 18:20 04.01.2020
1365 Clear 15 1031 62 10000 2.6 60 17:57 04.01.2020
1366 Clear 15 1031 62 10000 2.6 60 17:57 04.01.2020
1367 Clouds 15 1031 62 10000 3.1 60 17:39 04.01.2020
1368 Clouds 15 1031 62 10000 3.1 50 17:21 04.01.2020
1369 Clouds 16 1031 62 10000 2.6 50 16:42 04.01.2020
1370 Clouds 15 1031 62 10000 3.1 40 16:24 04.01.2020
1371 Clouds 15 1031 71 10000 3.6 50 15:57 04.01.2020
1372 Clouds 15 1031 71 10000 3.6 50 15:39 04.01.2020
1373 Clouds 15 1031 71 10000 3.6 50 15:39 04.01.2020
1374 Clouds 15 1032 71 10000 4.1 60 15:19 04.01.2020
1375 Clouds 15 1032 71 10000 4.1 60 14:57 04.01.2020
1376 Clouds 15 1032 76 10000 4.6 60 14:39 04.01.2020
1377 Clouds 14 1033 71 10000 4.1 50 14:19 04.01.2020
1378 Clouds 14 1034 71 10000 5.7 50 13:55 04.01.2020
1379 Clouds 14 1034 71 10000 5.7 50 13:37 04.01.2020
1380 Clouds 14 1034 71 10000 5.7 50 13:37 04.01.2020
1381 Clouds 14 1034 71 10000 5.1 50 13:18 04.01.2020
1382 Clouds 14 1034 76 10000 4.6 40 12:41 04.01.2020
1383 Clouds 13 1034 76 10000 5.1 40 12:20 04.01.2020
1384 Clouds 13 1034 76 10000 5.1 40 11:59 04.01.2020
1385 Clouds 13 1034 87 10000 4.1 20 11:40 04.01.2020
1386 Clouds 12 1034 100 7000 3.6 10 11:19 04.01.2020
1387 Fog 11 1034 100 350 2.6 50 10:55 04.01.2020
1388 Fog 11 1034 100 350 2.6 50 10:37 04.01.2020
1389 Fog 10 1034 100 250 1.5 20 10:19 04.01.2020
1390 Mist 10 1033 100 4500 1.5 50 09:42 04.01.2020
1391 Fog 10 1033 100 10000 3.1 330 09:23 04.01.2020
1392 Clear 10 1033 100 8000 1.5 10 08:42 04.01.2020
1393 Clear 10 1033 100 7000 1.5 330 08:21 04.01.2020
1394 Clear 11 1033 100 8000 1 0 07:44 04.01.2020
1395 Clear 10 1033 100 7000 1 0 07:26 04.01.2020
1396 Clear 11 1033 100 8000 1 340 06:36 04.01.2020
1397 Clear 12 1033 93 10000 3.6 340 05:45 04.01.2020
1398 Clear 11 1033 87 10000 2.6 310 04:44 04.01.2020
1399 Clear 11 1033 81 10000 3.1 310 04:26 04.01.2020
1400 Clouds 11 1033 81 10000 3.1 320 03:19 04.01.2020
1401 Clouds 12 1034 81 10000 2.6 330 02:36 04.01.2020
1402 Clouds 11 1034 81 10000 2.6 330 01:58 04.01.2020
1403 Clear 11 1034 81 10000 2.6 320 01:32 04.01.2020
1404 Clear 12 1034 81 10000 2.6 300 00:56 04.01.2020
1405 Clear 11 1034 81 10000 2.6 300 00:28 04.01.2020
1406 Clear 12 1034 76 10000 2.6 310 23:52 03.01.2020
1407 Clear 12 1034 76 10000 2.6 310 23:27 03.01.2020
1408 Clear 12 1034 76 10000 2.6 300 22:55 03.01.2020
1409 Clear 12 1034 76 10000 2.6 300 22:37 03.01.2020
1410 Clear 13 1034 76 10000 1.5 320 22:18 03.01.2020
1411 Clouds 12 1034 82 10000 1 0 21:56 03.01.2020
1412 Clouds 13 1034 82 10000 1 0 21:37 03.01.2020
1413 Clouds 13 1034 82 10000 1.5 320 21:18 03.01.2020
1414 Clouds 14 1034 76 10000 1.5 310 20:54 03.01.2020
1415 Clouds 14 1034 76 10000 1.5 310 20:36 03.01.2020
1416 Clouds 14 1034 76 10000 2.6 330 20:18 03.01.2020
1417 Clouds 14 1033 76 10000 0.5 0 19:41 03.01.2020
1418 Clouds 14 1033 67 10000 1 0 19:23 03.01.2020
1419 Clouds 14 1033 67 10000 1 0 18:47 03.01.2020
1420 Clouds 14 1033 67 10000 1 0 18:27 03.01.2020
1421 Clouds 15 1033 72 10000 2.1 80 17:58 03.01.2020
1422 Clouds 15 1033 67 10000 1.5 120 17:40 03.01.2020
1423 Clouds 16 1033 72 10000 2.1 90 17:21 03.01.2020
1424 Clouds 16 1033 72 10000 2.1 90 17:21 03.01.2020
1425 Clouds 16 1033 67 10000 2.1 120 16:44 03.01.2020
1426 Clouds 16 1032 67 10000 2.1 110 16:25 03.01.2020
1427 Clouds 16 1032 67 10000 2.1 110 15:59 03.01.2020
1428 Clouds 16 1033 67 10000 1.5 0 15:41 03.01.2020
1429 Clouds 16 1033 67 10000 1.5 0 15:19 03.01.2020
1430 Clouds 16 1033 77 10000 1.5 0 14:40 03.01.2020
1431 Clouds 15 1034 82 10000 1.5 80 14:20 03.01.2020
1432 Clouds 15 1034 82 10000 1.5 80 13:57 03.01.2020
1433 Clouds 15 1034 82 10000 2.1 0 13:39 03.01.2020
1434 Clouds 15 1034 82 10000 2.1 0 13:39 03.01.2020
1435 Clouds 14 1034 82 10000 2.1 0 13:20 03.01.2020
1436 Clouds 14 1034 82 9000 1.5 0 12:41 03.01.2020
1437 Clouds 14 1034 87 10000 1.5 70 12:22 03.01.2020
1438 Clouds 13 1034 87 10000 1.5 80 11:54 03.01.2020
1439 Clouds 13 1034 87 10000 1.5 80 11:35 03.01.2020
1440 Clouds 11 1033 93 10000 1 0 10:58 03.01.2020
1441 Clouds 11 1033 93 10000 1 0 10:39 03.01.2020
1442 Clouds 11 1033 93 10000 0.5 0 10:21 03.01.2020
1443 Clouds 11 1033 100 9000 1.5 330 09:55 03.01.2020
1444 Clouds 11 1033 100 9000 1.5 330 09:37 03.01.2020
1445 Clouds 11 1032 100 10000 1 0 09:19 03.01.2020
1446 Clouds 11 1032 100 8000 1.5 290 08:45 03.01.2020
1447 Clouds 11 1032 100 10000 2.1 60 08:23 03.01.2020
1448 Clouds 11 1032 100 10000 2.1 60 07:57 03.01.2020
1449 Clouds 11 1032 100 10000 0.5 0 07:38 03.01.2020
1450 Clouds 11 1032 100 10000 1 0 07:18 03.01.2020
1451 Clouds 10 1032 100 10000 1 0 06:42 03.01.2020
1452 Clouds 11 1032 100 10000 1 0 06:22 03.01.2020
1453 Clouds 10 1032 100 10000 1 0 05:20 03.01.2020
1454 Clouds 10 1031 100 8000 1.5 20 03:42 03.01.2020
1455 Clouds 11 1032 100 8000 1.5 10 02:54 03.01.2020
1456 Clouds 11 1032 93 10000 1.5 10 01:51 03.01.2020
1457 Clouds 12 1032 93 10000 1.5 10 01:33 03.01.2020
1458 Clouds 11 1032 93 10000 1 0 00:46 03.01.2020
1459 Clouds 11 1032 93 10000 1 0 00:26 03.01.2020
1460 Clouds 12 1032 93 10000 1.5 40 23:54 02.01.2020
1461 Clouds 12 1032 93 10000 1.5 40 23:36 02.01.2020
1462 Clouds 12 1031 93 10000 2.1 60 23:18 02.01.2020
1463 Clouds 12 1031 93 10000 1.5 340 22:42 02.01.2020
1464 Clouds 12 1031 93 10000 1.5 360 22:20 02.01.2020
1465 Clouds 12 1031 93 10000 1.5 360 21:57 02.01.2020
1466 Clouds 12 1031 93 10000 1.5 10 21:38 02.01.2020
1467 Clouds 12 1031 93 10000 1.5 10 21:20 02.01.2020
1468 Clouds 12 1031 93 10000 1.5 10 20:56 02.01.2020
1469 Clouds 12 1031 93 10000 1.5 340 20:38 02.01.2020
1470 Clouds 12 1031 93 10000 1.5 360 20:20 02.01.2020
1471 Clouds 12 1030 93 10000 1.5 70 19:54 02.01.2020
1472 Clouds 12 1030 93 10000 1.5 70 19:36 02.01.2020
1473 Clouds 12 1030 93 10000 1.5 70 19:18 02.01.2020
1474 Clouds 12 1030 93 10000 2.1 80 18:54 02.01.2020
1475 Clouds 12 1030 93 10000 2.1 80 18:36 02.01.2020
1476 Clouds 12 1030 93 10000 2.1 80 18:18 02.01.2020
1477 Clouds 12 1030 93 10000 2.6 0 17:55 02.01.2020
1478 Clouds 12 1030 93 10000 2.6 0 17:36 02.01.2020
1479 Clouds 12 1030 93 9000 2.6 70 17:18 02.01.2020
1480 Clouds 12 1030 93 8000 2.6 50 16:41 02.01.2020
1481 Clouds 12 1030 93 9000 2.1 30 16:20 02.01.2020
1482 Clouds 12 1030 93 9000 2.1 30 15:58 02.01.2020
1483 Clouds 12 1030 93 9000 2.1 30 15:40 02.01.2020
1484 Clouds 12 1030 93 8000 2.1 20 15:22 02.01.2020
1485 Clouds 12 1031 100 8000 2.1 40 14:57 02.01.2020
1486 Clouds 12 1031 100 8000 2.1 40 14:37 02.01.2020
1487 Clouds 11 1031 100 7000 1.5 0 14:18 02.01.2020
1488 Clouds 11 1031 100 6000 2.1 50 13:51 02.01.2020
1489 Clouds 11 1031 100 6000 2.1 50 13:32 02.01.2020
1490 Mist 11 1032 100 5000 2.1 40 12:47 02.01.2020
1491 Mist 10 1032 100 3000 2.6 40 12:28 02.01.2020
1492 Mist 10 1032 100 3000 2.6 40 11:59 02.01.2020
1493 Mist 9 1032 100 3000 2.6 40 11:41 02.01.2020
1494 Mist 9 1031 100 1500 2.6 0 11:20 02.01.2020
1495 Mist 9 1031 100 1000 2.1 50 10:45 02.01.2020
1496 Mist 9 1031 100 1000 2.1 50 10:26 02.01.2020
1497 Mist 9 1030 100 1800 1.5 0 09:55 02.01.2020
1498 Mist 9 1030 100 1800 1.5 0 09:34 02.01.2020
1499 Mist 9 1030 100 3000 1.5 60 08:50 02.01.2020
1500 Mist 8 1030 100 3000 1.5 60 08:28 02.01.2020
1501 Mist 8 1030 100 3000 1.5 50 07:57 02.01.2020
1502 Mist 8 1029 100 3000 1.5 40 07:31 02.01.2020
1503 Mist 8 1029 100 2500 1 0 06:57 02.01.2020
1504 Mist 8 1029 100 2500 1 0 06:57 02.01.2020
1505 Mist 8 1029 100 3000 1 0 06:39 02.01.2020
1506 Fog 8 1029 100 400 0.5 0 05:38 02.01.2020
1507 Mist 7 1029 100 3000 1.5 90 04:34 02.01.2020
1508 Fog 7 1029 100 6000 0.5 300 03:23 02.01.2020
1509 Fog 7 1030 100 8000 0.5 0 02:20 02.01.2020
1510 Clouds 7 1030 100 9000 0.5 0 01:48 02.01.2020
1511 Clouds 7 1031 100 8000 1 300 01:23 02.01.2020
1512 Clouds 7 1031 100 8000 0.65 112 00:38 02.01.2020
1513 Clouds 7 1031 100 8000 0.5 0 00:20 02.01.2020
1514 Clouds 8 1031 100 9000 0.65 112 23:42 01.01.2020
1515 Clouds 8 1031 100 10000 0.5 0 23:21 01.01.2020
1516 Clouds 8 1031 100 10000 0.5 0 23:21 01.01.2020
1517 Clouds 8 1031 100 10000 1 290 22:39 01.01.2020
1518 Clouds 8 1031 100 10000 1 290 22:20 01.01.2020
1519 Clouds 8 1031 100 10000 1 290 21:58 01.01.2020
1520 Clouds 8 1030 100 10000 0.42 80 21:39 01.01.2020
1521 Clouds 8 1031 100 10000 0.5 0 21:20 01.01.2020
1522 Clouds 8 1031 100 10000 0.5 320 20:56 01.01.2020
1523 Clouds 8 1031 100 10000 0.5 320 20:38 01.01.2020
1524 Clouds 10 1030 100 10000 0.5 320 20:20 01.01.2020
1525 Clouds 10 1030 100 10000 0.5 0 19:56 01.01.2020
1526 Clouds 10 1030 100 10000 0.5 0 19:37 01.01.2020
1527 Clouds 11 1030 93 10000 1 0 19:19 01.01.2020
1528 Clouds 11 1030 93 10000 1 0 18:56 01.01.2020
1529 Clouds 11 1030 87 10000 1.5 0 18:37 01.01.2020
1530 Clouds 12 1030 93 8000 0.64 313 18:19 01.01.2020
1531 Clouds 12 1030 93 8000 0.64 313 17:57 01.01.2020
1532 Clouds 13 1030 87 10000 1.5 0 17:39 01.01.2020
1533 Clouds 13 1030 87 10000 1.5 110 17:19 01.01.2020
1534 Clouds 13 1030 87 10000 1.5 80 16:55 01.01.2020
1535 Clouds 13 1030 87 10000 1.5 80 16:36 01.01.2020
1536 Clouds 14 1030 87 10000 1.5 80 16:36 01.01.2020
1537 Clouds 14 1030 87 10000 1.5 60 16:18 01.01.2020
1538 Clouds 14 1031 93 10000 2.1 80 15:54 01.01.2020
1539 Clouds 13 1031 93 10000 2.1 80 15:36 01.01.2020
1540 Fog 14 1031 100 10000 2.1 70 15:18 01.01.2020
1541 Fog 13 1031 100 10000 1.5 50 14:41 01.01.2020
1542 Fog 12 1032 100 8000 1 0 14:22 01.01.2020
1543 Fog 12 1032 100 1500 1.5 60 13:56 01.01.2020
1544 Fog 12 1032 100 1500 1.5 60 13:56 01.01.2020
1545 Fog 12 1032 100 1500 1.5 60 13:37 01.01.2020
1546 Fog 11 1032 100 900 2.6 40 13:19 01.01.2020
1547 Clouds 11 1032 81 10000 2.6 90 12:57 01.01.2020
1548 Fog 10 1033 100 500 2.6 60 12:39 01.01.2020
1549 Fog 10 1033 100 400 2.1 40 12:19 01.01.2020
1550 Fog 10 1033 100 400 2.1 40 12:19 01.01.2020
1551 Fog 9 1032 100 300 2.1 60 11:56 01.01.2020
1552 Fog 8 1032 100 300 2.1 60 11:37 01.01.2020
1553 Fog 7 1032 100 350 1.5 0 11:18 01.01.2020
1554 Fog 7 1032 100 300 1.5 50 10:41 01.01.2020
1555 Fog 6 1031 100 50 1.5 0 10:21 01.01.2020
1556 Fog 6 1031 100 50 1.5 0 09:59 01.01.2020
1557 Fog 6 1031 100 50 1.5 60 09:38 01.01.2020
1558 Fog 6 1031 100 150 1.5 60 09:19 01.01.2020
1559 Fog 6 1031 100 500 2.6 30 08:56 01.01.2020
1560 Fog 6 1031 100 500 2.6 30 08:37 01.01.2020
1561 Fog 6 1031 100 500 2.6 30 08:37 01.01.2020
1562 Fog 5 1031 100 300 1.5 50 08:19 01.01.2020
1563 Fog 6 1030 100 300 2.1 40 07:54 01.01.2020
1564 Fog 6 1030 100 300 2.1 40 07:36 01.01.2020
1565 Fog 6 1030 100 200 2.1 50 06:45 01.01.2020
1566 Fog 6 1030 100 150 1.5 70 06:22 01.01.2020
1567 Mist 7 1030 100 2500 1 60 05:23 01.01.2020
1568 Fog 8 1030 100 8000 2.6 20 03:47 01.01.2020
1569 Fog 8 1031 100 8000 2.1 10 03:23 01.01.2020
1570 Fog 8 1031 100 8000 2.1 10 03:23 01.01.2020
1571 Fog 8 1031 100 8000 2.1 10 02:57 01.01.2020
1572 Fog 9 1031 100 7000 2.6 20 02:37 01.01.2020
1573 Clouds 9 1031 100 7000 1.5 350 01:59 01.01.2020
1574 Clouds 8 1031 100 8000 1 340 01:38 01.01.2020
1575 Fog 9 1031 93 8000 1.5 350 01:20 01.01.2020
1576 Clouds 8 1031 100 8000 1.5 330 00:44 01.01.2020
1577 Clouds 9 1031 100 9000 1.5 340 00:25 01.01.2020
1578 Clouds 10 1031 93 9000 1.5 320 23:41 31.12.2019
1579 Clouds 10 1031 93 10000 1.5 320 23:22 31.12.2019
1580 Clouds 10 1031 93 10000 1 0 22:58 31.12.2019
1581 Clouds 10 1031 93 10000 1 0 22:39 31.12.2019
1582 Clouds 9 1031 93 10000 1.5 320 22:20 31.12.2019
1583 Clouds 9 1031 93 9000 1 0 21:58 31.12.2019
1584 Clouds 9 1031 93 9000 1 0 21:40 31.12.2019
1585 Clouds 10 1031 100 8000 1.5 330 21:21 31.12.2019
1586 Clouds 9 1031 100 8000 2.19 30 20:56 31.12.2019
1587 Clouds 9 1031 100 8000 2.39 29 20:37 31.12.2019
1588 Clouds 10 1031 100 8000 1 350 20:19 31.12.2019
1589 Clouds 11 1031 100 7000 1.88 3 19:54 31.12.2019
1590 Clouds 10 1031 100 7000 1.88 3 19:36 31.12.2019
1591 Clouds 11 1031 93 6000 1.88 3 19:18 31.12.2019
1592 Clouds 11 1031 93 6000 1.88 3 18:54 31.12.2019
1593 Clouds 11 1031 93 6000 1.88 3 18:54 31.12.2019
1594 Clouds 11 1031 93 6000 1.88 3 18:36 31.12.2019
1595 Clouds 12 1030 93 6000 1.5 0 18:18 31.12.2019
1596 Clouds 13 1030 93 6000 2.1 70 17:54 31.12.2019
1597 Clouds 13 1030 93 6000 2.1 70 17:36 31.12.2019
1598 Clear 13 1030 93 6000 2.1 80 17:18 31.12.2019
1599 Clear 13 1030 93 6000 2.1 80 16:54 31.12.2019
1600 Clear 13 1030 93 6000 2.1 80 16:36 31.12.2019
1601 Mist 13 1030 100 5000 2.1 0 16:18 31.12.2019
1602 Mist 13 1030 100 5000 2.1 0 16:18 31.12.2019
1603 Mist 13 1030 100 3500 2.1 50 15:54 31.12.2019
1604 Mist 13 1030 100 3500 2.1 50 15:36 31.12.2019
1605 Mist 13 1031 100 2500 3.1 50 15:18 31.12.2019
1606 Mist 11 1031 100 2200 3.1 70 14:54 31.12.2019
1607 Mist 12 1031 100 2200 3.1 70 14:36 31.12.2019
1608 Mist 10 1031 100 800 3.6 70 14:18 31.12.2019
1609 Mist 11 1032 100 1500 3.1 60 13:54 31.12.2019
1610 Mist 11 1032 100 1500 3.1 60 13:36 31.12.2019
1611 Mist 10 1032 100 1800 3.1 60 13:18 31.12.2019
1612 Fog 11 1033 100 600 3.1 70 12:40 31.12.2019
1613 Fog 11 1033 100 200 2.6 70 12:20 31.12.2019
1614 Fog 11 1033 100 200 2.6 70 11:57 31.12.2019
1615 Fog 10 1032 100 250 2.6 30 11:39 31.12.2019
1616 Fog 9 1032 100 300 2.6 40 11:20 31.12.2019
1617 Fog 9 1032 100 9000 4.6 10 10:58 31.12.2019
1618 Fog 9 1032 100 200 2.6 60 10:38 31.12.2019
1619 Fog 8 1031 100 300 2.1 50 10:20 31.12.2019
1620 Fog 8 1031 100 300 2.1 50 09:59 31.12.2019
1621 Fog 8 1031 100 1500 3.1 50 09:40 31.12.2019
1622 Mist 8 1031 100 3000 2.1 360 09:21 31.12.2019
1623 Fog 8 1031 100 250 2.6 30 08:57 31.12.2019
1624 Fog 8 1031 100 250 2.6 30 08:39 31.12.2019
1625 Fog 8 1031 100 150 2.6 60 08:20 31.12.2019
1626 Fog 8 1031 100 100 2.6 40 07:43 31.12.2019
1627 Fog 8 1030 100 100 1.5 80 07:22 31.12.2019
1628 Fog 8 1030 100 100 2.6 60 06:50 31.12.2019
1629 Mist 7 1030 100 3000 1.5 50 05:58 31.12.2019
1630 Clouds 8 1031 100 8000 1.5 10 04:30 31.12.2019
1631 Clear 9 1031 93 10000 2.1 340 03:59 31.12.2019
1632 Clear 9 1031 93 10000 2.1 340 03:59 31.12.2019
1633 Clear 10 1031 87 10000 3.1 320 02:56 31.12.2019
1634 Clear 10 1031 87 10000 3.1 320 02:19 31.12.2019
1635 Clear 10 1031 81 10000 3.6 310 01:48 31.12.2019
1636 Clear 10 1031 81 10000 3.6 310 01:28 31.12.2019
1637 Clear 11 1031 81 10000 3.1 320 00:47 31.12.2019
1638 Clear 11 1031 87 10000 3.6 310 00:23 31.12.2019
1639 Clear 11 1031 87 10000 3.6 310 23:57 30.12.2019
1640 Clear 10 1031 87 10000 4.1 310 23:38 30.12.2019
1641 Clear 11 1031 87 10000 4.1 310 23:20 30.12.2019
1642 Clear 11 1031 87 10000 4.1 310 22:58 30.12.2019
1643 Clear 11 1031 81 10000 4.1 320 22:40 30.12.2019
1644 Clear 11 1031 81 10000 3.1 310 22:20 30.12.2019
1645 Clear 12 1031 87 10000 3.1 310 21:57 30.12.2019
1646 Clear 12 1031 87 10000 3.1 310 21:39 30.12.2019
1647 Clear 11 1031 87 10000 3.1 310 21:19 30.12.2019
1648 Clear 11 1031 87 10000 3.1 310 20:57 30.12.2019
1649 Clear 11 1031 93 10000 2.1 320 20:39 30.12.2019
1650 Clear 12 1031 81 10000 1.74 354 20:20 30.12.2019
1651 Clear 12 1031 81 10000 1.74 354 19:58 30.12.2019
1652 Clear 12 1030 87 10000 0.5 0 19:38 30.12.2019
1653 Clear 13 1030 82 10000 0.5 0 19:19 30.12.2019
1654 Clear 14 1030 82 10000 0.5 0 18:58 30.12.2019
1655 Clear 14 1030 72 10000 1.5 0 18:40 30.12.2019
1656 Clear 15 1030 76 10000 1.5 30 18:20 30.12.2019
1657 Clear 15 1030 76 10000 2.6 70 17:56 30.12.2019
1658 Clear 15 1029 67 10000 0.5 0 17:38 30.12.2019
1659 Clear 15 1030 76 10000 2.6 80 17:19 30.12.2019
1660 Clear 16 1030 76 10000 2.6 80 16:58 30.12.2019
1661 Clear 16 1030 76 10000 2.6 70 16:37 30.12.2019
1662 Clear 16 1030 76 10000 2.1 70 16:18 30.12.2019
1663 Clear 16 1030 76 10000 2.6 70 15:55 30.12.2019
1664 Clear 16 1030 76 10000 2.6 70 15:37 30.12.2019
1665 Clear 15 1030 71 10000 2.1 70 15:18 30.12.2019
1666 Clear 15 1031 71 10000 1.5 80 14:43 30.12.2019
1667 Clear 15 1031 71 10000 1.5 80 14:43 30.12.2019
1668 Clear 14 1031 76 10000 1.5 60 14:20 30.12.2019
1669 Clear 14 1031 76 10000 1.5 60 13:58 30.12.2019
1670 Clear 14 1031 81 10000 2.1 70 13:40 30.12.2019
1671 Fog 13 1032 81 10000 2.1 70 13:21 30.12.2019
1672 Fog 13 1032 81 10000 3.1 0 12:56 30.12.2019
1673 Fog 12 1032 81 10000 3.1 0 12:37 30.12.2019
1674 Clear 12 1032 87 10000 2.6 60 12:18 30.12.2019
1675 Fog 11 1031 87 10000 2.6 60 11:42 30.12.2019
1676 Fog 9 1031 93 10000 1.5 0 11:20 30.12.2019
1677 Clear 10 1030 100 10000 1.5 60 10:58 30.12.2019
1678 Clear 10 1030 100 10000 1.5 60 10:40 30.12.2019
1679 Clear 8 1030 100 10000 1 80 10:18 30.12.2019
1680 Clear 7 1030 100 10000 0.5 340 09:42 30.12.2019
1681 Clear 6 1030 93 10000 0.5 0 09:20 30.12.2019
1682 Clear 6 1029 93 10000 1.5 60 08:56 30.12.2019
1683 Clear 6 1029 93 10000 1.5 60 08:37 30.12.2019
1684 Clear 7 1029 100 10000 2.1 20 08:18 30.12.2019
1685 Clear 7 1029 100 10000 2.1 20 07:41 30.12.2019
1686 Clear 8 1029 100 10000 1.5 30 06:58 30.12.2019
1687 Clear 8 1029 100 10000 1 0 06:24 30.12.2019
1688 Clear 9 1028 93 10000 1 0 04:23 30.12.2019
1689 Clear 9 1028 81 10000 1 310 03:42 30.12.2019
1690 Clear 10 1028 81 10000 2.1 20 02:41 30.12.2019
1691 Clear 10 1028 87 10000 2.1 10 02:20 30.12.2019
1692 Clear 10 1029 81 10000 1.5 360 01:26 30.12.2019
1693 Clear 10 1029 81 10000 1.5 10 00:47 30.12.2019
1694 Clear 11 1029 76 10000 1.5 10 00:26 30.12.2019
1695 Clear 12 1029 76 10000 1.5 10 23:40 29.12.2019
1696 Clear 12 1028 76 10000 2.6 20 23:22 29.12.2019
1697 Clear 12 1028 76 10000 1 0 22:57 29.12.2019
1698 Clear 12 1028 76 10000 1 0 22:38 29.12.2019
1699 Clear 12 1028 76 10000 1 0 22:20 29.12.2019
1700 Clear 12 1028 71 10000 2.1 340 21:54 29.12.2019
1701 Clear 13 1028 71 10000 2.1 340 21:36 29.12.2019
1702 Clear 13 1028 76 10000 2.6 350 21:18 29.12.2019
1703 Clear 13 1028 71 10000 1 0 20:40 29.12.2019
1704 Clear 14 1028 67 10000 2.6 360 20:22 29.12.2019
1705 Clear 14 1028 67 10000 2.6 360 20:00 29.12.2019
1706 Clear 14 1027 76 10000 3.1 30 19:40 29.12.2019
1707 Clear 15 1027 72 10000 2.6 0 19:22 29.12.2019
1708 Clear 15 1027 72 10000 2.6 0 18:59 29.12.2019
1709 Clear 15 1027 72 10000 2.6 0 18:59 29.12.2019
1710 Clear 16 1027 72 10000 2.1 50 18:40 29.12.2019
1711 Clear 16 1027 72 10000 1.5 70 18:21 29.12.2019
1712 Clear 16 1027 72 10000 1.5 70 17:58 29.12.2019
1713 Clear 16 1027 67 10000 2.6 0 17:39 29.12.2019
1714 Clear 17 1027 63 10000 2.6 60 17:20 29.12.2019
1715 Clear 17 1026 63 10000 1.5 0 16:57 29.12.2019
1716 Clear 17 1026 63 10000 1.5 0 16:39 29.12.2019
1717 Clear 17 1027 67 10000 1 0 16:21 29.12.2019
1718 Clear 17 1027 67 10000 1 0 15:59 29.12.2019
1719 Clear 18 1027 67 10000 2.1 0 15:40 29.12.2019
1720 Clear 17 1027 67 10000 2.6 90 15:20 29.12.2019
1721 Clear 17 1027 67 10000 2.6 90 14:59 29.12.2019
1722 Clear 17 1027 67 10000 2.6 80 14:41 29.12.2019
1723 Clear 16 1027 67 10000 2.1 0 14:19 29.12.2019
1724 Clear 16 1027 67 10000 2.1 0 13:59 29.12.2019
1725 Clear 16 1028 71 10000 2.6 80 13:40 29.12.2019
1726 Clear 15 1028 76 10000 3.1 60 13:22 29.12.2019
1727 Clear 15 1028 71 10000 4.1 60 12:57 29.12.2019
1728 Clear 14 1028 71 10000 4.1 60 12:38 29.12.2019
1729 Clear 14 1029 76 10000 3.6 70 12:20 29.12.2019
1730 Clear 13 1029 76 10000 3.6 60 11:41 29.12.2019
1731 Clear 13 1028 81 10000 2.6 70 11:22 29.12.2019
1732 Clear 12 1028 76 10000 2.6 50 10:57 29.12.2019
1733 Clear 12 1028 76 10000 2.6 50 10:39 29.12.2019
1734 Clear 11 1028 81 10000 2.6 50 10:18 29.12.2019
1735 Clear 10 1028 81 10000 3.6 60 09:46 29.12.2019
1736 Clear 10 1028 81 10000 3.1 60 09:28 29.12.2019
1737 Clear 10 1027 81 10000 3.1 60 08:56 29.12.2019
1738 Clear 10 1027 81 10000 3.1 60 08:38 29.12.2019
1739 Clear 10 1027 81 10000 3.1 50 08:20 29.12.2019
1740 Clear 10 1027 76 10000 3.1 50 07:44 29.12.2019
1741 Clear 10 1027 76 10000 3.6 50 07:25 29.12.2019
1742 Clear 10 1027 76 10000 2.6 50 06:38 29.12.2019
1743 Clear 10 1027 76 10000 3.1 50 06:18 29.12.2019
1744 Clear 11 1027 71 10000 2.6 50 05:44 29.12.2019
1745 Clear 12 1027 81 10000 2.6 50 04:32 29.12.2019
1746 Clear 12 1027 81 10000 2.6 50 03:35 29.12.2019
1747 Clear 12 1027 81 10000 2.1 350 02:27 29.12.2019
1748 Clear 13 1027 81 10000 2.6 30 01:52 29.12.2019
1749 Clear 13 1027 81 10000 2.6 30 01:29 29.12.2019
1750 Clear 13 1027 76 10000 2.6 40 00:45 29.12.2019
1751 Clear 13 1027 76 10000 2.6 40 00:45 29.12.2019
1752 Clear 14 1027 76 10000 3.1 30 00:25 29.12.2019
1753 Clear 14 1027 76 10000 3.1 30 00:25 29.12.2019
1754 Clear 14 1027 76 10000 3.1 30 23:55 28.12.2019
1755 Clear 14 1027 76 10000 3.1 30 23:37 28.12.2019
1756 Clear 14 1027 76 10000 3.1 30 23:18 28.12.2019
1757 Clear 15 1027 76 10000 3.6 30 22:37 28.12.2019
1758 Clear 15 1026 76 10000 3.6 40 22:18 28.12.2019
1759 Clear 15 1026 76 10000 3.1 10 21:56 28.12.2019
1760 Clear 15 1026 76 10000 3.1 10 21:37 28.12.2019
1761 Clear 15 1026 76 10000 3.1 20 21:19 28.12.2019
1762 Clear 15 1026 82 10000 1.5 40 20:54 28.12.2019
1763 Clear 15 1026 82 10000 1.5 40 20:36 28.12.2019
1764 Clear 15 1026 72 10000 1.5 30 20:18 28.12.2019
1765 Clear 15 1026 82 10000 2.1 10 19:41 28.12.2019
1766 Clear 16 1025 87 10000 2.6 30 19:23 28.12.2019
1767 Clear 16 1025 87 10000 2.6 30 18:59 28.12.2019
1768 Clear 17 1025 77 10000 3.1 30 18:41 28.12.2019
1769 Clear 17 1025 72 10000 2.6 40 18:20 28.12.2019
1770 Clear 17 1025 72 10000 2.6 40 17:59 28.12.2019
1771 Clear 17 1025 72 10000 3.1 50 17:39 28.12.2019
1772 Clear 18 1025 67 10000 3.6 50 17:21 28.12.2019
1773 Clear 18 1025 67 10000 3.1 50 16:50 28.12.2019
1774 Clear 17 1025 72 10000 3.1 40 16:27 28.12.2019
1775 Clear 18 1025 72 10000 3.1 40 15:58 28.12.2019
1776 Clear 18 1026 72 10000 3.6 60 15:39 28.12.2019
1777 Clear 18 1026 72 10000 4.1 50 15:21 28.12.2019
1778 Clear 18 1026 72 10000 4.1 50 15:21 28.12.2019
1779 Clear 17 1026 72 10000 4.1 50 14:47 28.12.2019
1780 Clear 17 1026 72 10000 4.1 50 14:25 28.12.2019
1781 Clear 16 1027 71 10000 5.1 50 13:58 28.12.2019
1782 Clear 16 1027 71 10000 5.1 50 13:39 28.12.2019
1783 Clear 16 1027 67 10000 5.1 60 13:20 28.12.2019
1784 Clear 16 1027 67 10000 5.1 60 13:20 28.12.2019
1785 Clear 15 1028 76 10000 5.7 50 12:56 28.12.2019
1786 Clear 15 1028 76 10000 5.7 50 12:37 28.12.2019
1787 Clear 15 1028 71 10000 4.1 60 12:19 28.12.2019
1788 Clear 14 1028 71 10000 4.6 60 11:40 28.12.2019
1789 Clear 14 1027 76 10000 3.6 60 11:21 28.12.2019
1790 Clear 13 1027 76 10000 3.1 50 10:55 28.12.2019
1791 Clear 13 1027 76 10000 3.1 50 10:36 28.12.2019
1792 Clear 12 1027 81 10000 3.1 50 10:18 28.12.2019
1793 Clear 12 1027 81 10000 3.1 50 09:45 28.12.2019
1794 Clear 12 1026 81 10000 3.1 50 09:24 28.12.2019
1795 Clear 11 1026 81 10000 3.6 50 08:58 28.12.2019
1796 Clear 11 1026 81 10000 3.6 50 08:39 28.12.2019
1797 Clear 11 1026 81 10000 3.1 50 08:20 28.12.2019
1798 Clear 12 1026 76 10000 3.1 50 07:43 28.12.2019
1799 Clear 12 1026 81 10000 2.6 50 07:21 28.12.2019
1800 Clear 12 1026 81 10000 3.6 50 05:45 28.12.2019
1801 Clear 13 1026 76 10000 3.6 50 03:48 28.12.2019
1802 Clear 13 1026 76 10000 3.6 50 02:50 28.12.2019
1803 Clear 12 1027 76 10000 3.6 40 02:20 28.12.2019
1804 Clear 12 1027 76 10000 4.1 40 01:55 28.12.2019
1805 Clear 13 1026 87 10000 4.1 30 01:23 28.12.2019
1806 Clear 13 1027 76 10000 3.1 50 00:48 28.12.2019
1807 Clear 13 1027 76 10000 3.1 50 00:30 28.12.2019
1808 Clear 14 1027 76 10000 3.1 30 23:58 27.12.2019
1809 Clear 13 1027 76 10000 4.1 40 23:39 27.12.2019
1810 Clear 14 1027 87 10000 4.1 20 23:19 27.12.2019
1811 Clear 14 1027 76 10000 3.6 20 22:56 27.12.2019
1812 Clear 14 1027 76 10000 3.6 20 22:37 27.12.2019
1813 Clear 14 1027 82 10000 4.1 30 22:19 27.12.2019
1814 Clear 15 1027 82 10000 3.6 20 21:43 27.12.2019
1815 Clear 15 1027 82 10000 2.6 10 21:25 27.12.2019
1816 Clear 15 1027 82 10000 2.6 10 20:57 27.12.2019
1817 Clear 15 1026 76 10000 3.1 10 20:38 27.12.2019
1818 Clear 15 1026 76 10000 2.6 10 20:20 27.12.2019
1819 Clear 15 1026 76 10000 2.6 10 19:41 27.12.2019
1820 Clear 16 1026 72 10000 2.6 30 19:20 27.12.2019
1821 Clear 16 1026 72 10000 2.6 30 19:20 27.12.2019
1822 Clear 16 1026 72 10000 2.6 30 18:57 27.12.2019
1823 Clear 16 1026 77 10000 3.6 30 18:37 27.12.2019
1824 Clear 17 1026 72 10000 4.1 40 18:19 27.12.2019
1825 Clear 17 1025 72 10000 4.1 50 17:55 27.12.2019
1826 Clear 17 1025 72 10000 4.1 50 17:37 27.12.2019
1827 Clear 17 1025 72 10000 4.1 60 17:18 27.12.2019
1828 Clear 17 1025 72 10000 4.6 50 16:44 27.12.2019
1829 Clear 17 1025 72 10000 4.1 60 16:26 27.12.2019
1830 Clear 17 1025 72 10000 4.1 60 15:59 27.12.2019
1831 Clear 17 1025 72 10000 4.1 60 15:40 27.12.2019
1832 Clear 17 1026 72 10000 5.1 60 15:20 27.12.2019
1833 Clear 16 1026 76 10000 5.1 50 14:56 27.12.2019
1834 Clear 16 1026 76 10000 5.1 50 14:38 27.12.2019
1835 Clouds 16 1026 71 10000 4.1 60 14:20 27.12.2019
1836 Clouds 15 1026 76 10000 4.6 40 13:48 27.12.2019
1837 Clouds 14 1027 82 10000 4.6 40 13:25 27.12.2019
1838 Clouds 14 1027 82 10000 4.6 40 13:25 27.12.2019
1839 Clouds 14 1027 82 10000 4.6 40 12:56 27.12.2019
1840 Clouds 14 1027 81 10000 4.1 50 12:38 27.12.2019
1841 Clouds 13 1027 81 10000 4.1 60 12:20 27.12.2019
1842 Clouds 13 1027 87 10000 3.1 40 11:43 27.12.2019
1843 Clouds 12 1027 93 10000 3.6 30 11:22 27.12.2019
1844 Clouds 12 1026 81 10000 4.1 40 10:55 27.12.2019
1845 Clouds 12 1026 81 10000 4.1 40 10:36 27.12.2019
1846 Clouds 12 1026 87 10000 2.6 40 10:18 27.12.2019
1847 Clouds 11 1026 93 10000 2.6 20 09:42 27.12.2019
1848 Clouds 11 1026 87 10000 2.6 20 09:21 27.12.2019
1849 Clouds 11 1026 87 10000 2.6 20 08:55 27.12.2019
1850 Clouds 11 1026 87 10000 2.1 360 08:35 27.12.2019
1851 Clouds 11 1025 93 10000 2.1 10 07:51 27.12.2019
1852 Clouds 11 1025 93 10000 2.1 10 07:31 27.12.2019
1853 Clouds 11 1025 93 10000 3.1 20 06:37 27.12.2019
1854 Clouds 11 1025 93 10000 2.6 10 05:28 27.12.2019
1855 Clouds 11 1026 93 10000 1.5 50 03:40 27.12.2019
1856 Clouds 11 1027 87 10000 2.1 350 02:20 27.12.2019
1857 Clouds 11 1027 87 10000 1.5 360 01:38 27.12.2019
1858 Clouds 12 1027 81 10000 2.1 10 01:19 27.12.2019
1859 Clouds 12 1027 81 10000 2.6 340 00:43 27.12.2019
1860 Clouds 12 1027 81 10000 2.6 360 00:24 27.12.2019
1861 Clouds 12 1027 87 10000 2.1 20 23:42 26.12.2019
1862 Clouds 12 1027 93 10000 2.6 360 23:22 26.12.2019
1863 Clouds 12 1027 81 10000 2.1 20 22:48 26.12.2019
1864 Clouds 12 1027 81 10000 2.6 360 22:23 26.12.2019
1865 Clouds 12 1027 81 10000 2.6 360 21:59 26.12.2019
1866 Clouds 12 1027 81 10000 2.6 350 21:39 26.12.2019
1867 Clouds 12 1027 81 10000 2.6 350 21:20 26.12.2019
1868 Clouds 12 1027 87 10000 1.5 10 20:46 26.12.2019
1869 Clouds 13 1027 87 10000 2.1 360 20:23 26.12.2019
1870 Clouds 12 1027 87 10000 2.1 360 19:59 26.12.2019
1871 Clouds 13 1026 82 10000 3.1 30 19:40 26.12.2019
1872 Clouds 13 1026 87 10000 2.1 50 19:22 26.12.2019
1873 Clouds 13 1026 87 10000 2.1 50 18:58 26.12.2019
1874 Clouds 14 1026 82 10000 2.6 50 18:39 26.12.2019
1875 Clouds 14 1026 82 10000 2.6 50 18:19 26.12.2019
1876 Clouds 15 1026 82 10000 3.6 70 17:57 26.12.2019
1877 Clouds 15 1026 82 10000 3.6 70 17:38 26.12.2019
1878 Clouds 15 1026 82 10000 3.6 70 17:38 26.12.2019
1879 Clouds 15 1026 77 10000 3.1 60 17:18 26.12.2019
1880 Clouds 16 1026 77 10000 3.1 80 16:43 26.12.2019
1881 Clouds 16 1026 87 10000 2.6 0 16:23 26.12.2019
1882 Clouds 16 1027 82 10000 3.1 80 15:56 26.12.2019
1883 Clouds 16 1027 82 10000 3.1 80 15:56 26.12.2019
1884 Clouds 16 1027 82 10000 3.1 80 15:38 26.12.2019
1885 Clouds 15 1027 76 10000 3.1 60 15:18 26.12.2019
1886 Clouds 15 1028 76 10000 3.6 10 14:40 26.12.2019
1887 Clouds 15 1028 76 10000 3.1 360 14:22 26.12.2019
1888 Clouds 14 1028 76 10000 3.6 10 13:44 26.12.2019
1889 Clouds 14 1028 76 10000 3.6 10 13:44 26.12.2019
1890 Clouds 14 1029 82 10000 3.6 10 13:22 26.12.2019
1891 Clouds 14 1029 82 10000 3.6 10 12:58 26.12.2019
1892 Clouds 14 1029 82 10000 3.6 10 12:58 26.12.2019
1893 Clouds 14 1029 87 10000 3.6 10 12:39 26.12.2019
1894 Clouds 14 1029 87 10000 3.1 360 12:21 26.12.2019
1895 Clouds 13 1029 87 10000 5.1 330 11:57 26.12.2019
1896 Clouds 13 1029 87 10000 5.1 330 11:39 26.12.2019
1897 Clouds 13 1028 87 10000 4.6 330 11:20 26.12.2019
1898 Clouds 13 1028 93 10000 4.6 320 10:49 26.12.2019
1899 Clouds 12 1028 100 10000 5.1 10 10:19 26.12.2019
1900 Clouds 12 1027 87 10000 3.6 330 09:53 26.12.2019
1901 Clouds 12 1027 87 10000 3.6 330 09:32 26.12.2019
1902 Clouds 12 1027 87 10000 2.6 320 08:55 26.12.2019
1903 Clouds 12 1027 87 10000 2.6 320 08:37 26.12.2019
1904 Clouds 12 1027 93 10000 3.6 330 08:18 26.12.2019
1905 Clouds 12 1026 93 10000 3.1 330 07:31 26.12.2019
1906 Clouds 12 1026 93 10000 2.6 330 06:56 26.12.2019
1907 Clouds 12 1026 93 10000 2.6 330 06:33 26.12.2019
1908 Clouds 12 1027 93 10000 2.1 360 05:49 26.12.2019
1909 Clouds 12 1026 93 10000 3.1 360 04:59 26.12.2019
1910 Clouds 12 1027 93 10000 2.1 10 04:32 26.12.2019
1911 Clouds 13 1027 87 10000 3.1 360 03:20 26.12.2019
1912 Clouds 14 1027 82 10000 4.6 340 02:40 26.12.2019
1913 Clouds 14 1027 82 10000 4.6 340 02:20 26.12.2019
1914 Clouds 14 1027 82 10000 4.1 320 01:42 26.12.2019
1915 Clouds 14 1027 82 10000 5.7 320 01:24 26.12.2019
1916 Clouds 15 1026 87 10000 4.1 330 00:42 26.12.2019
1917 Clouds 15 1026 93 10000 3.6 330 00:22 26.12.2019
1918 Clouds 15 1026 93 10000 3.6 330 00:22 26.12.2019
1919 Clouds 15 1026 93 10000 2.1 310 23:56 25.12.2019
1920 Clouds 15 1026 93 10000 2.1 310 23:36 25.12.2019
1921 Clouds 16 1026 93 10000 2.1 330 23:18 25.12.2019
1922 Clouds 16 1026 100 10000 1.82 304 22:55 25.12.2019
1923 Clouds 16 1026 100 10000 1.82 304 22:37 25.12.2019
1924 Clouds 16 1025 93 10000 1 0 22:18 25.12.2019
1925 Clouds 16 1025 93 10000 1 0 21:40 25.12.2019
1926 Clouds 16 1025 93 10000 1 0 21:22 25.12.2019
1927 Clouds 16 1025 93 10000 1 0 20:59 25.12.2019
1928 Clouds 16 1025 93 10000 3.1 220 20:40 25.12.2019
1929 Clouds 16 1025 87 10000 3.6 230 20:19 25.12.2019
1930 Clouds 16 1025 87 10000 3.6 230 19:57 25.12.2019
1931 Clouds 16 1024 87 10000 3.6 230 19:39 25.12.2019
1932 Clouds 16 1024 82 10000 2.6 230 19:21 25.12.2019
1933 Clouds 16 1024 82 10000 3.6 220 18:39 25.12.2019
1934 Clouds 16 1023 77 10000 4.6 210 18:20 25.12.2019
1935 Clouds 17 1023 68 10000 4.6 210 17:57 25.12.2019
1936 Clouds 17 1023 68 10000 4.6 210 17:39 25.12.2019
1937 Clouds 17 1023 68 10000 4.1 210 17:18 25.12.2019
1938 Clouds 17 1023 63 10000 4.6 210 16:39 25.12.2019
1939 Clouds 17 1023 68 10000 1 0 16:20 25.12.2019
1940 Clouds 17 1023 68 10000 1 0 15:59 25.12.2019
1941 Clouds 18 1023 68 10000 0.5 0 15:40 25.12.2019
1942 Clouds 18 1023 72 10000 1 0 15:22 25.12.2019
1943 Clouds 17 1023 72 10000 1 0 14:59 25.12.2019
1944 Clouds 17 1023 77 10000 1.5 50 14:41 25.12.2019
1945 Clouds 17 1024 82 10000 1.5 30 14:23 25.12.2019
1946 Clouds 17 1024 82 10000 1.5 30 13:58 25.12.2019
1947 Clouds 17 1024 82 10000 2.6 60 13:39 25.12.2019
1948 Clouds 16 1024 82 10000 2.6 60 13:19 25.12.2019
1949 Clouds 15 1024 82 10000 2.6 80 12:43 25.12.2019
1950 Clouds 15 1024 82 10000 1.5 40 12:21 25.12.2019
1951 Clouds 15 1024 82 10000 1.5 40 12:21 25.12.2019
1952 Clouds 14 1024 82 10000 1.5 40 11:57 25.12.2019
1953 Clouds 14 1024 82 10000 2.6 70 11:39 25.12.2019
1954 Clouds 14 1024 87 10000 2.6 60 11:20 25.12.2019
1955 Clouds 13 1023 93 10000 2.6 50 10:39 25.12.2019
1956 Clouds 12 1023 100 10000 1.5 70 10:21 25.12.2019
1957 Clouds 12 1023 93 10000 1.5 50 09:51 25.12.2019
1958 Clouds 11 1023 93 10000 1.5 50 09:33 25.12.2019
1959 Clouds 11 1022 93 10000 2.1 70 08:56 25.12.2019
1960 Clouds 11 1022 93 10000 2.1 70 08:38 25.12.2019
1961 Clouds 12 1022 93 10000 1.5 70 08:19 25.12.2019
1962 Clouds 12 1022 93 10000 2.1 60 07:40 25.12.2019
1963 Clouds 12 1022 93 10000 2.1 50 07:21 25.12.2019
1964 Clouds 12 1021 93 10000 3.6 40 06:24 25.12.2019
1965 Clouds 12 1022 93 10000 2.1 50 05:44 25.12.2019
1966 Clouds 12 1022 100 10000 3.1 70 04:42 25.12.2019
1967 Clouds 12 1022 100 10000 2.1 60 04:24 25.12.2019
1968 Clouds 12 1023 93 10000 2.1 30 03:43 25.12.2019
1969 Clouds 12 1023 100 10000 2.1 50 02:57 25.12.2019
1970 Clouds 13 1023 93 10000 2.1 50 02:29 25.12.2019
1971 Clouds 13 1023 93 10000 2.6 60 01:42 25.12.2019
1972 Clouds 13 1023 93 10000 2.6 50 01:18 25.12.2019
1973 Clouds 13 1023 93 10000 1.5 40 00:41 25.12.2019
1974 Clouds 13 1023 93 10000 2.1 40 00:23 25.12.2019
1975 Clouds 13 1023 93 10000 2.1 40 00:23 25.12.2019
1976 Clouds 14 1023 87 10000 2.1 60 23:39 24.12.2019
1977 Clouds 14 1023 93 10000 2.6 60 23:20 24.12.2019
1978 Clouds 14 1023 87 10000 3.1 60 22:42 24.12.2019
1979 Clouds 14 1023 87 10000 3.1 60 22:24 24.12.2019
1980 Clouds 15 1023 87 10000 3.1 60 21:59 24.12.2019
1981 Clouds 15 1023 82 10000 3.1 50 21:41 24.12.2019
1982 Clouds 15 1023 82 10000 3.1 50 21:41 24.12.2019
1983 Clouds 15 1023 77 10000 3.1 60 21:20 24.12.2019
1984 Clouds 16 1023 77 10000 3.1 50 20:42 24.12.2019
1985 Clouds 16 1023 77 10000 2.6 40 20:23 24.12.2019
1986 Clouds 16 1023 77 10000 2.6 50 19:56 24.12.2019
1987 Clouds 16 1023 77 10000 2.6 50 19:37 24.12.2019
1988 Clouds 16 1023 77 10000 2.6 50 19:18 24.12.2019
1989 Clouds 16 1023 82 10000 3.1 40 18:42 24.12.2019
1990 Clouds 17 1023 77 10000 3.6 60 18:19 24.12.2019
1991 Clouds 18 1023 77 10000 3.1 60 17:44 24.12.2019
1992 Clouds 18 1023 77 10000 2.6 60 17:23 24.12.2019
1993 Clouds 18 1023 77 10000 2.6 60 16:58 24.12.2019
1994 Clouds 18 1023 77 10000 2.6 60 16:58 24.12.2019
1995 Clouds 18 1023 82 10000 2.6 50 16:40 24.12.2019
1996 Clouds 18 1023 82 10000 2.6 50 16:40 24.12.2019
1997 Clouds 18 1023 63 10000 2.6 80 16:21 24.12.2019
1998 Clouds 18 1024 82 10000 4.1 60 15:58 24.12.2019
1999 Clouds 17 1024 82 10000 4.1 60 15:38 24.12.2019
2000 Clouds 17 1024 77 10000 4.6 70 15:19 24.12.2019
2001 Clouds 17 1024 77 10000 4.6 70 14:58 24.12.2019
2002 Clouds 17 1025 77 10000 4.1 80 14:40 24.12.2019
2003 Clouds 16 1025 82 10000 4.6 60 14:22 24.12.2019
2004 Clouds 16 1025 82 10000 4.6 60 13:56 24.12.2019
2005 Clouds 16 1026 82 10000 4.1 70 13:38 24.12.2019
2006 Clouds 15 1026 82 10000 4.6 60 13:20 24.12.2019
2007 Clouds 15 1026 82 10000 4.6 60 12:57 24.12.2019
2008 Clouds 14 1026 82 10000 4.6 60 12:38 24.12.2019
2009 Clouds 14 1027 81 10000 5.1 50 12:19 24.12.2019
2010 Clouds 14 1027 87 10000 4.6 50 11:57 24.12.2019
2011 Clouds 14 1027 87 10000 4.6 50 11:38 24.12.2019
2012 Clouds 13 1027 87 10000 4.6 50 11:20 24.12.2019
2013 Clouds 12 1027 87 10000 4.6 50 10:57 24.12.2019
2014 Clouds 12 1027 87 10000 4.6 50 10:57 24.12.2019
2015 Clouds 12 1027 87 10000 4.6 50 10:38 24.12.2019
2016 Clouds 11 1027 93 10000 4.1 50 10:20 24.12.2019
2017 Clouds 11 1027 93 10000 4.1 50 09:58 24.12.2019
2018 Clouds 11 1027 93 10000 4.1 50 09:58 24.12.2019
2019 Clouds 11 1026 93 10000 4.1 50 09:39 24.12.2019
2020 Clouds 11 1026 93 10000 4.1 50 09:39 24.12.2019
2021 Clouds 11 1027 100 10000 4.1 40 09:21 24.12.2019
2022 Clouds 11 1026 100 10000 4.1 40 08:47 24.12.2019
2023 Clouds 11 1026 100 10000 4.6 50 08:24 24.12.2019
2024 Clouds 10 1026 100 10000 4.6 50 07:59 24.12.2019
2025 Clouds 10 1026 100 10000 5.1 50 07:39 24.12.2019
2026 Clouds 10 1026 100 10000 6.2 50 07:21 24.12.2019
2027 Mist 10 1026 100 1200 5.7 50 06:40 24.12.2019
2028 Mist 10 1026 100 1500 6.2 50 06:19 24.12.2019
2029 Mist 10 1026 100 3500 6.2 50 05:53 24.12.2019
2030 Fog 11 1026 100 400 5.7 40 05:19 24.12.2019
2031 Fog 11 1026 100 200 5.1 50 04:21 24.12.2019
2032 Fog 11 1026 100 300 4.1 40 03:48 24.12.2019
2033 Fog 11 1027 100 200 4.6 50 02:29 24.12.2019
2034 Fog 12 1027 100 200 3.6 50 01:57 24.12.2019
2035 Fog 12 1027 100 150 4.1 50 01:26 24.12.2019
2036 Fog 12 1027 100 150 4.1 50 00:58 24.12.2019
2037 Fog 12 1027 100 500 3.6 60 00:40 24.12.2019
2038 Clouds 12 1028 100 10000 3.1 60 00:20 24.12.2019
2039 Clouds 12 1028 100 10000 3.1 50 23:43 23.12.2019
2040 Clouds 13 1028 100 9000 2.6 50 23:24 23.12.2019
2041 Clouds 13 1028 100 6000 3.6 50 22:57 23.12.2019
2042 Clouds 13 1028 100 6000 3.6 50 22:38 23.12.2019
2043 Mist 13 1028 100 4000 3.1 40 22:20 23.12.2019
2044 Mist 13 1028 100 4000 3.1 40 21:57 23.12.2019
2045 Mist 13 1028 100 3000 3.6 40 21:37 23.12.2019
2046 Mist 13 1028 100 1200 3.1 40 21:19 23.12.2019
2047 Mist 13 1028 100 1200 3.1 40 20:59 23.12.2019
2048 Fog 13 1028 100 500 3.1 50 20:41 23.12.2019
2049 Mist 13 1028 100 1200 2.6 50 20:19 23.12.2019
2050 Mist 13 1028 100 1200 2.6 50 19:59 23.12.2019
2051 Fog 14 1028 100 150 1.5 50 19:41 23.12.2019
2052 Fog 14 1028 100 100 2.1 60 19:22 23.12.2019
2053 Fog 14 1028 100 100 2.1 60 18:58 23.12.2019
2054 Fog 14 1028 100 100 2.1 60 18:58 23.12.2019
2055 Fog 14 1028 100 100 2.1 60 18:39 23.12.2019
2056 Fog 15 1027 100 500 2.6 60 18:21 23.12.2019
2057 Mist 15 1027 100 2000 2.6 80 17:59 23.12.2019
2058 Mist 15 1027 100 2000 2.6 80 17:41 23.12.2019
2059 Mist 15 1027 100 2500 3.1 90 17:20 23.12.2019
2060 Clouds 15 1027 93 10000 1.5 160 16:59 23.12.2019
2061 Clouds 15 1027 100 6000 2.6 0 16:40 23.12.2019
2062 Clouds 15 1027 100 7000 1.5 310 16:19 23.12.2019
2063 Clouds 15 1027 100 7000 1.5 310 15:58 23.12.2019
2064 Clouds 15 1027 100 7000 2.1 290 15:37 23.12.2019
2065 Clouds 15 1027 100 7000 1 0 15:19 23.12.2019
2066 Fog 15 1028 100 6000 1 0 14:57 23.12.2019
2067 Fog 15 1028 100 6000 1 0 14:39 23.12.2019
2068 Fog 15 1028 100 6000 1 0 14:39 23.12.2019
2069 Fog 14 1028 100 400 1.5 120 14:19 23.12.2019
2070 Fog 14 1028 100 400 1.5 120 14:19 23.12.2019
2071 Fog 14 1028 100 400 1.5 120 13:57 23.12.2019
2072 Fog 14 1029 100 300 1.5 50 13:39 23.12.2019
2073 Fog 14 1029 100 250 2.6 60 13:20 23.12.2019
2074 Fog 14 1029 100 200 3.1 60 12:55 23.12.2019
2075 Fog 14 1029 100 200 3.1 60 12:37 23.12.2019
2076 Fog 14 1029 100 200 3.1 60 12:37 23.12.2019
2077 Fog 14 1029 100 200 3.1 70 12:18 23.12.2019
2078 Fog 13 1029 100 200 2.6 80 11:43 23.12.2019
2079 Fog 13 1029 100 300 2.1 50 11:25 23.12.2019
2080 Fog 13 1028 100 250 1 0 10:56 23.12.2019
2081 Fog 13 1028 100 250 1 0 10:38 23.12.2019
2082 Fog 12 1028 100 250 2.1 0 10:20 23.12.2019
2083 Fog 12 1028 100 250 2.1 0 09:59 23.12.2019
2084 Fog 12 1028 100 300 1.5 70 09:39 23.12.2019
2085 Fog 12 1028 100 350 1 0 09:20 23.12.2019
2086 Fog 12 1028 100 350 1.5 40 08:55 23.12.2019
2087 Fog 12 1028 100 350 1.5 40 08:37 23.12.2019
2088 Drizzle 12 1028 100 300 1.5 50 08:18 23.12.2019
2089 Fog 11 1027 100 300 1 0 07:43 23.12.2019
2090 Clouds 11 1027 100 200 0.5 0 07:20 23.12.2019
2091 Fog 11 1027 100 200 1 0 06:51 23.12.2019
2092 Fog 11 1027 100 200 1.5 230 06:24 23.12.2019
2093 Fog 11 1027 100 200 0.5 0 05:49 23.12.2019
2094 Fog 11 1027 100 900 0.5 0 05:22 23.12.2019
2095 Fog 12 1027 100 200 1 0 04:27 23.12.2019
2096 Fog 12 1027 100 300 1.5 210 02:56 23.12.2019
2097 Mist 12 1027 100 500 1.5 250 02:28 23.12.2019
2098 Fog 12 1027 100 5000 2.1 220 01:56 23.12.2019
2099 Fog 12 1027 100 9000 1.5 240 01:38 23.12.2019
2100 Fog 12 1027 100 10000 1.5 270 01:19 23.12.2019
2101 Fog 12 1027 100 10000 1.5 270 00:41 23.12.2019
2102 Clouds 13 1027 93 10000 2.1 200 00:19 23.12.2019
2103 Clouds 13 1027 93 10000 2.1 260 23:39 22.12.2019
2104 Clouds 13 1026 100 10000 1.5 250 23:20 22.12.2019
2105 Clouds 13 1026 100 10000 1.5 250 22:58 22.12.2019
2106 Clouds 14 1026 93 10000 2.6 280 22:39 22.12.2019
2107 Clouds 14 1026 93 10000 1.5 270 22:19 22.12.2019
2108 Clouds 14 1026 93 10000 1.5 280 21:57 22.12.2019
2109 Clouds 14 1026 93 10000 1.5 280 21:39 22.12.2019
2110 Clouds 15 1026 93 10000 2.1 260 21:20 22.12.2019
2111 Clouds 15 1026 93 10000 2.1 260 20:56 22.12.2019
2112 Clouds 15 1025 87 10000 2.1 260 20:38 22.12.2019
2113 Clouds 15 1025 93 10000 2.1 280 20:18 22.12.2019
2114 Clouds 15 1025 87 10000 2.6 290 19:55 22.12.2019
2115 Clouds 15 1025 87 10000 2.6 290 19:37 22.12.2019
2116 Clouds 15 1025 87 10000 3.1 280 19:18 22.12.2019
2117 Clouds 16 1024 87 10000 3.6 290 18:40 22.12.2019
2118 Clouds 16 1024 82 10000 3.6 300 18:22 22.12.2019
2119 Clouds 16 1024 82 10000 3.6 280 17:55 22.12.2019
2120 Clouds 16 1024 82 10000 3.6 280 17:37 22.12.2019
2121 Clouds 16 1024 82 10000 2.6 280 17:18 22.12.2019
2122 Clouds 17 1024 82 10000 2.6 280 16:56 22.12.2019
2123 Clouds 16 1023 82 10000 4.1 280 16:37 22.12.2019
2124 Clouds 17 1023 82 10000 4.1 270 16:19 22.12.2019
2125 Clouds 17 1023 82 8000 4.6 280 15:56 22.12.2019
2126 Clouds 17 1023 82 8000 4.6 280 15:36 22.12.2019
2127 Clouds 17 1023 82 8000 4.6 280 15:36 22.12.2019
2128 Clouds 17 1023 82 10000 5.1 270 15:18 22.12.2019
2129 Clouds 17 1023 82 10000 3.6 270 14:54 22.12.2019
2130 Clouds 17 1023 82 10000 3.6 270 14:36 22.12.2019
2131 Clouds 17 1023 82 10000 3.6 270 14:36 22.12.2019
2132 Clouds 17 1023 82 10000 5.1 240 14:18 22.12.2019
2133 Clouds 17 1023 82 10000 5.7 240 13:55 22.12.2019
2134 Clouds 17 1023 82 10000 5.7 240 13:36 22.12.2019
2135 Clouds 17 1023 88 10000 5.7 240 13:18 22.12.2019
2136 Clouds 17 1023 88 10000 5.7 240 13:18 22.12.2019
2137 Clouds 17 1023 88 10000 5.7 240 13:18 22.12.2019
2138 Clouds 17 1023 82 10000 6.2 230 12:54 22.12.2019
2139 Clouds 17 1023 82 10000 6.2 230 12:54 22.12.2019
2140 Clouds 17 1023 82 10000 6.2 230 12:54 22.12.2019
2141 Clouds 17 1023 82 10000 6.2 230 12:36 22.12.2019
2142 Clouds 16 1023 87 7000 3.6 220 12:18 22.12.2019
2143 Clouds 16 1022 87 7000 4.1 210 11:39 22.12.2019
2144 Clouds 16 1022 100 6000 4.1 220 11:20 22.12.2019
2145 Clouds 16 1022 100 6000 4.1 220 10:58 22.12.2019
2146 Clouds 15 1022 93 6000 4.1 220 10:40 22.12.2019
2147 Clouds 15 1021 93 8000 4.1 220 10:21 22.12.2019
2148 Clouds 15 1021 93 8000 4.1 220 09:58 22.12.2019
2149 Clouds 15 1021 93 8000 3.6 220 09:40 22.12.2019
2150 Clouds 15 1021 93 8000 4.1 230 09:21 22.12.2019
2151 Clouds 15 1021 93 8000 4.1 230 08:59 22.12.2019
2152 Clouds 15 1021 93 9000 4.1 230 08:37 22.12.2019
2153 Clouds 15 1020 93 9000 4.6 230 08:18 22.12.2019
2154 Clouds 15 1020 93 8000 3.6 230 07:38 22.12.2019
2155 Clouds 15 1020 93 8000 3.6 230 07:19 22.12.2019
2156 Clouds 15 1020 87 9000 4.6 220 06:40 22.12.2019
2157 Clouds 14 1020 93 9000 2.1 210 05:53 22.12.2019
2158 Clouds 15 1020 87 8000 3.6 220 05:21 22.12.2019
2159 Clouds 15 1020 93 8000 4.1 230 04:29 22.12.2019
2160 Clouds 15 1020 87 8000 3.6 230 03:52 22.12.2019
2161 Clouds 15 1019 93 9000 5.1 230 02:38 22.12.2019
2162 Clouds 15 1020 93 9000 6.7 240 01:42 22.12.2019
2163 Clouds 15 1020 87 9000 6.7 240 01:22 22.12.2019
2164 Clouds 15 1019 87 9000 6.7 240 00:45 22.12.2019
2165 Clouds 15 1019 87 9000 6.2 240 00:22 22.12.2019
2166 Clouds 15 1018 87 9000 6.7 240 23:56 21.12.2019
2167 Clouds 15 1018 87 9000 6.7 240 23:38 21.12.2019
2168 Clouds 15 1018 87 10000 7.2 240 23:19 21.12.2019
2169 Clouds 15 1018 87 10000 6.7 240 22:41 21.12.2019
2170 Clouds 15 1017 87 10000 7.2 240 22:19 21.12.2019
2171 Clouds 15 1017 87 10000 7.2 240 21:57 21.12.2019
2172 Clouds 15 1017 82 10000 8.2 240 21:38 21.12.2019
2173 Clouds 15 1017 87 10000 7.7 240 21:19 21.12.2019
2174 Clouds 15 1017 87 10000 7.7 240 20:58 21.12.2019
2175 Clouds 16 1016 87 10000 7.2 230 20:39 21.12.2019
2176 Clouds 16 1016 77 10000 7.2 230 20:21 21.12.2019
2177 Clouds 16 1016 77 10000 7.2 230 19:58 21.12.2019
2178 Clouds 16 1015 82 10000 7.7 230 19:40 21.12.2019
2179 Clouds 16 1015 82 6000 8.2 240 19:19 21.12.2019
2180 Clouds 16 1015 82 7000 7.7 230 18:45 21.12.2019
2181 Clouds 16 1014 77 8000 6.7 240 18:24 21.12.2019
2182 Rain 16 1014 72 10000 6.2 250 17:57 21.12.2019
2183 Rain 16 1014 72 10000 6.2 250 17:57 21.12.2019
2184 Rain 16 1014 72 10000 6.2 250 17:39 21.12.2019
2185 Clouds 16 1013 72 10000 8.7 260 17:21 21.12.2019
2186 Clouds 17 1013 72 10000 8.7 260 16:59 21.12.2019
2187 Clouds 17 1012 82 10000 7.2 250 16:41 21.12.2019
2188 Clouds 17 1012 82 10000 11.3 250 16:19 21.12.2019
2189 Clouds 17 1012 82 10000 11.3 250 15:57 21.12.2019
2190 Rain 17 1011 93 7000 9.8 250 15:38 21.12.2019
2191 Rain 17 1011 82 10000 10.3 250 15:19 21.12.2019
2192 Clouds 17 1011 82 10000 10.8 250 14:57 21.12.2019
2193 Clouds 17 1011 82 10000 10.8 250 14:38 21.12.2019
2194 Clouds 17 1011 88 10000 10.3 240 14:18 21.12.2019
2195 Clouds 17 1011 93 10000 10.8 240 13:55 21.12.2019
2196 Clouds 17 1011 93 10000 10.8 240 13:37 21.12.2019
2197 Clouds 17 1011 93 8000 10.8 240 13:18 21.12.2019
2198 Drizzle 17 1011 93 7000 10.3 230 12:54 21.12.2019
2199 Drizzle 17 1011 93 7000 10.3 230 12:36 21.12.2019
2200 Clouds 17 1010 93 8000 9.8 230 12:18 21.12.2019
2201 Clouds 17 1010 100 10000 8.7 240 11:42 21.12.2019
2202 Drizzle 17 1010 100 3000 8.7 240 11:24 21.12.2019
2203 Clouds 17 1009 100 8000 8.2 240 10:56 21.12.2019
2204 Clouds 17 1009 100 8000 8.2 240 10:37 21.12.2019
2205 Drizzle 17 1009 100 6000 8.2 250 10:19 21.12.2019
2206 Drizzle 17 1009 100 6000 8.2 250 10:19 21.12.2019
2207 Clouds 17 1009 100 9000 9.8 240 09:42 21.12.2019
2208 Drizzle 17 1008 100 2500 9.3 230 09:21 21.12.2019
2209 Drizzle 17 1008 100 2500 9.3 230 08:57 21.12.2019
2210 Drizzle 16 1008 100 3000 8.7 240 08:37 21.12.2019
2211 Drizzle 17 1008 100 2000 9.8 230 08:19 21.12.2019
2212 Drizzle 17 1008 100 2000 9.3 240 07:44 21.12.2019
2213 Drizzle 17 1007 93 2500 8.7 240 07:22 21.12.2019
2214 Drizzle 17 1007 93 2500 8.7 230 06:44 21.12.2019
2215 Drizzle 17 1007 93 2500 9.3 230 06:25 21.12.2019
2216 Drizzle 17 1007 93 3000 9.3 240 05:49 21.12.2019
2217 Drizzle 17 1007 100 2500 9.3 240 04:58 21.12.2019
2218 Drizzle 16 1006 100 2500 8.7 230 03:57 21.12.2019
2219 Drizzle 16 1007 93 2500 9.8 240 02:52 21.12.2019
2220 Drizzle 16 1007 93 4000 10.3 240 01:59 21.12.2019
2221 Drizzle 16 1007 100 2500 7.7 230 01:28 21.12.2019
2222 Drizzle 16 1007 100 3000 5.1 240 00:55 21.12.2019
2223 Drizzle 16 1007 100 3000 4.6 250 00:37 21.12.2019
2224 Drizzle 16 1006 100 3000 4.6 240 00:18 21.12.2019
2225 Drizzle 16 1006 100 3000 6.7 240 23:38 20.12.2019
2226 Clouds 16 1006 93 7000 8.2 240 23:19 20.12.2019
2227 Clouds 16 1006 93 7000 8.2 240 23:19 20.12.2019
2228 Rain 16 1006 93 6000 7.2 240 22:43 20.12.2019
2229 Drizzle 17 1006 93 4000 8.2 240 22:21 20.12.2019
2230 Drizzle 17 1006 93 4000 8.2 240 21:59 20.12.2019
2231 Drizzle 17 1006 93 6000 8.2 240 21:40 20.12.2019
2232 Drizzle 17 1006 93 4200 10.3 240 21:20 20.12.2019
2233 Drizzle 17 1006 93 4200 10.3 240 21:20 20.12.2019
2234 Drizzle 17 1005 93 7000 9.8 250 20:41 20.12.2019
2235 Drizzle 17 1005 93 6000 10.3 250 20:22 20.12.2019
2236 Drizzle 17 1005 93 6000 10.3 250 19:59 20.12.2019
2237 Drizzle 17 1005 93 7000 10.8 250 19:40 20.12.2019
2238 Rain 17 1004 93 7000 12.3 250 19:20 20.12.2019
2239 Rain 17 1004 93 7000 9.8 250 18:56 20.12.2019
2240 Rain 17 1004 93 7000 9.8 250 18:56 20.12.2019
2241 Rain 17 1004 93 7000 9.8 250 18:56 20.12.2019
2242 Rain 17 1004 93 7000 9.8 250 18:38 20.12.2019
2243 Drizzle 17 1003 93 5000 11.8 240 18:20 20.12.2019
2244 Drizzle 17 1003 93 2000 12.9 230 17:54 20.12.2019
2245 Drizzle 17 1003 93 2000 12.9 230 17:36 20.12.2019
2246 Drizzle 17 1003 93 2000 12.9 230 17:18 20.12.2019
2247 Mist 17 1003 93 5000 13.4 230 16:40 20.12.2019
2248 Mist 17 1003 93 5000 13.4 230 16:20 20.12.2019
2249 Clouds 17 1003 93 7000 12.3 230 15:57 20.12.2019
2250 Rain 17 1003 93 7000 13.9 230 15:39 20.12.2019
2251 Rain 17 1003 93 7000 13.9 230 15:20 20.12.2019
2252 Rain 17 1003 93 6000 12.3 220 14:58 20.12.2019
2253 Rain 17 1003 93 6000 12.3 220 14:39 20.12.2019
2254 Rain 17 1003 100 6000 13.4 220 14:21 20.12.2019
2255 Clouds 17 1003 93 6000 12.9 220 13:55 20.12.2019
2256 Clouds 17 1003 93 6000 13.4 220 13:36 20.12.2019
2257 Clouds 17 1003 93 6000 13.4 220 13:18 20.12.2019
2258 Drizzle 16 1004 100 6000 10.3 220 12:41 20.12.2019
2259 Drizzle 16 1005 100 8000 8.2 230 12:19 20.12.2019
2260 Drizzle 16 1006 100 7000 9.3 230 11:59 20.12.2019
2261 Rain 16 1005 100 10000 7.7 230 11:40 20.12.2019
2262 Rain 16 1005 100 10000 7.7 230 11:21 20.12.2019
2263 Drizzle 15 1005 100 6000 5.7 230 10:59 20.12.2019
2264 Drizzle 15 1005 100 2500 4.6 230 10:41 20.12.2019
2265 Drizzle 15 1005 100 2500 4.6 230 10:20 20.12.2019
2266 Drizzle 15 1005 100 3000 5.1 240 09:56 20.12.2019
2267 Drizzle 15 1004 100 2500 4.1 240 09:38 20.12.2019
2268 Drizzle 15 1004 100 2500 4.1 240 09:19 20.12.2019
2269 Drizzle 15 1005 100 10000 5.1 240 08:43 20.12.2019
2270 Drizzle 15 1004 100 8000 5.7 240 08:25 20.12.2019
2271 Drizzle 15 1004 100 10000 5.1 230 07:59 20.12.2019
2272 Drizzle 15 1004 93 10000 4.6 240 07:40 20.12.2019
2273 Drizzle 15 1004 93 10000 4.6 240 07:19 20.12.2019
2274 Drizzle 15 1004 93 10000 6.7 250 06:52 20.12.2019
2275 Drizzle 15 1003 100 10000 7.2 240 06:32 20.12.2019
2276 Drizzle 15 1003 100 10000 6.2 240 05:55 20.12.2019
2277 Drizzle 15 1003 100 10000 6.7 240 05:36 20.12.2019
2278 Drizzle 16 1001 93 7000 10.3 250 04:33 20.12.2019
2279 Clouds 16 1001 93 8000 11.3 240 03:30 20.12.2019
2280 Clouds 17 1001 93 10000 11.8 230 02:44 20.12.2019
2281 Clouds 17 1001 93 8000 12.3 230 01:52 20.12.2019
2282 Drizzle 17 1001 93 8000 12.3 230 01:33 20.12.2019
2283 Drizzle 16 1001 100 8000 10.3 220 00:44 20.12.2019
2284 Rain 16 1001 93 10000 7.7 230 00:25 20.12.2019
2285 Rain 15 1000 93 10000 9.8 220 23:44 19.12.2019
2286 Drizzle 15 1000 93 10000 9.3 230 23:26 19.12.2019
2287 Drizzle 15 1000 100 4000 14.9 210 22:59 19.12.2019
2288 Drizzle 16 1000 93 4500 14.9 220 22:37 19.12.2019
2289 Drizzle 17 1000 93 4500 14.9 220 22:19 19.12.2019
2290 Rain 16 999 100 2500 13.9 210 21:55 19.12.2019
2291 Drizzle 17 1000 93 6000 16.5 220 21:37 19.12.2019
2292 Drizzle 17 1000 93 6000 16.5 220 21:18 19.12.2019
2293 Drizzle 17 1000 93 6000 13.4 220 20:55 19.12.2019
2294 Clouds 17 1000 93 9000 15.9 210 20:36 19.12.2019
2295 Clouds 17 1000 93 9000 15.9 210 20:18 19.12.2019
2296 Drizzle 17 1000 93 8000 14.9 210 19:56 19.12.2019
2297 Drizzle 17 1001 93 7000 15.4 210 19:37 19.12.2019
2298 Drizzle 17 1001 93 7000 15.4 210 19:19 19.12.2019
2299 Drizzle 16 1000 100 3500 14.9 210 18:41 19.12.2019
2300 Drizzle 16 1000 100 2500 15.9 210 18:23 19.12.2019
2301 Drizzle 16 1001 100 4500 15.9 200 17:58 19.12.2019
2302 Drizzle 16 1002 100 5000 15.9 210 17:40 19.12.2019
2303 Drizzle 16 1002 100 5000 15.9 210 17:19 19.12.2019
2304 Drizzle 16 1002 93 6000 15.4 200 16:59 19.12.2019
2305 Drizzle 16 1002 93 6000 15.4 200 16:41 19.12.2019
2306 Clouds 16 1002 93 8000 13.4 200 16:22 19.12.2019
2307 Rain 16 1003 100 7000 12.9 200 15:59 19.12.2019
2308 Drizzle 16 1004 93 6000 11.8 220 15:40 19.12.2019
2309 Drizzle 16 1004 93 6000 11.8 220 15:20 19.12.2019
2310 Clouds 16 1004 93 9000 13.4 210 14:59 19.12.2019
2311 Drizzle 16 1005 93 3500 10.8 210 14:41 19.12.2019
2312 Drizzle 16 1005 93 3500 10.8 210 14:41 19.12.2019
2313 Drizzle 16 1005 93 3500 10.8 210 14:19 19.12.2019
2314 Rain 16 1006 93 7000 12.3 200 13:57 19.12.2019
2315 Drizzle 16 1006 100 4000 11.8 200 13:38 19.12.2019
2316 Drizzle 16 1006 100 4000 11.8 200 13:19 19.12.2019
2317 Rain 16 1007 93 5000 11.3 200 12:55 19.12.2019
2318 Rain 16 1008 93 8000 11.3 210 12:37 19.12.2019
2319 Rain 16 1008 93 8000 11.3 210 12:18 19.12.2019
2320 Clouds 16 1007 93 9000 11.8 210 11:57 19.12.2019
2321 Clouds 16 1007 93 9000 11.3 210 11:39 19.12.2019
2322 Clouds 16 1007 93 9000 11.3 210 11:18 19.12.2019
2323 Rain 16 1006 93 8000 11.3 210 10:55 19.12.2019
2324 Clouds 16 1007 100 6000 7.7 200 10:37 19.12.2019
2325 Clouds 16 1007 93 9000 10.8 210 10:18 19.12.2019
2326 Rain 16 1007 93 9000 8.7 220 09:40 19.12.2019
2327 Rain 16 1007 93 9000 8.7 220 09:21 19.12.2019
2328 Clouds 16 1008 93 10000 9.8 210 08:58 19.12.2019
2329 Clouds 16 1008 100 10000 9.3 210 08:40 19.12.2019
2330 Clouds 16 1008 100 10000 9.3 210 08:19 19.12.2019
2331 Clouds 16 1008 100 10000 7.7 210 07:57 19.12.2019
2332 Clouds 16 1008 100 10000 8.7 220 07:38 19.12.2019
2333 Clouds 16 1008 100 10000 8.7 220 07:19 19.12.2019
2334 Clouds 16 1008 100 10000 8.7 210 06:49 19.12.2019
2335 Clouds 16 1008 93 10000 8.2 220 06:29 19.12.2019
2336 Clouds 16 1009 93 10000 10.3 210 05:55 19.12.2019
2337 Clouds 16 1009 100 10000 9.8 210 05:34 19.12.2019
2338 Clouds 16 1009 100 10000 12.9 210 04:51 19.12.2019
2339 Clouds 16 1008 100 10000 10.8 200 02:54 19.12.2019
2340 Rain 16 1009 100 10000 13.9 190 02:22 19.12.2019
2341 Rain 16 1010 100 5000 12.3 200 01:22 19.12.2019
2342 Rain 16 1011 100 8000 13.9 190 00:41 19.12.2019
2343 Rain 16 1011 100 8000 13.9 190 00:22 19.12.2019
2344 Clouds 16 1011 100 10000 10.8 200 23:57 18.12.2019
2345 Clouds 16 1011 93 10000 12.9 190 23:38 18.12.2019
2346 Clouds 16 1011 93 10000 12.9 190 23:18 18.12.2019
2347 Clouds 16 1011 93 10000 13.4 190 22:55 18.12.2019
2348 Clouds 16 1011 93 10000 11.3 190 22:36 18.12.2019
2349 Clouds 16 1011 93 10000 11.3 190 22:18 18.12.2019
2350 Drizzle 16 1011 93 7000 11.8 190 21:56 18.12.2019
2351 Drizzle 16 1011 93 7000 11.8 190 21:56 18.12.2019
2352 Clouds 16 1011 93 10000 11.3 190 21:37 18.12.2019
2353 Clouds 16 1011 93 10000 11.3 190 21:19 18.12.2019
2354 Drizzle 16 1011 93 10000 10.8 200 20:55 18.12.2019
2355 Clouds 16 1011 100 10000 11.3 200 20:37 18.12.2019
2356 Clouds 16 1011 100 10000 11.3 200 20:18 18.12.2019
2357 Drizzle 16 1012 93 10000 11.8 200 19:55 18.12.2019
2358 Clouds 16 1012 93 10000 11.3 200 19:37 18.12.2019
2359 Clouds 16 1012 93 10000 11.3 200 19:18 18.12.2019
2360 Clouds 16 1012 93 10000 11.3 190 18:44 18.12.2019
2361 Clouds 16 1012 93 10000 10.8 190 18:25 18.12.2019
2362 Clouds 16 1012 93 10000 11.8 190 17:57 18.12.2019
2363 Clouds 16 1012 88 10000 12.3 190 17:39 18.12.2019
2364 Clouds 16 1012 88 10000 12.3 190 17:19 18.12.2019
2365 Clouds 16 1012 88 10000 10.8 190 16:55 18.12.2019
2366 Clouds 16 1012 88 10000 10.3 180 16:37 18.12.2019
2367 Clouds 16 1012 88 10000 9.3 180 16:18 18.12.2019
2368 Clouds 16 1012 88 10000 9.8 180 15:55 18.12.2019
2369 Clouds 16 1012 88 10000 9.8 180 15:37 18.12.2019
2370 Clouds 16 1012 88 10000 10.8 190 15:18 18.12.2019
2371 Clouds 16 1013 88 10000 9.8 180 14:40 18.12.2019
2372 Clouds 16 1014 93 10000 8.7 180 14:21 18.12.2019
2373 Clouds 16 1014 93 10000 8.7 180 13:57 18.12.2019
2374 Clouds 16 1014 93 10000 7.7 180 13:57 18.12.2019
2375 Clouds 16 1014 93 10000 7.7 180 13:38 18.12.2019
2376 Clouds 16 1015 93 10000 7.2 170 13:19 18.12.2019
2377 Clouds 16 1015 93 10000 7.2 170 12:57 18.12.2019
2378 Clouds 16 1015 93 10000 8.2 180 12:38 18.12.2019
2379 Clouds 16 1015 93 10000 8.7 190 12:19 18.12.2019
2380 Clouds 16 1015 93 10000 8.7 190 11:55 18.12.2019
2381 Clouds 16 1015 93 10000 8.7 190 11:55 18.12.2019
2382 Clouds 16 1015 93 10000 8.7 190 11:37 18.12.2019
2383 Clouds 16 1015 93 10000 9.8 180 11:19 18.12.2019
2384 Rain 15 1014 100 8000 7.7 200 10:55 18.12.2019
2385 Rain 15 1014 100 8000 7.7 200 10:37 18.12.2019
2386 Clouds 15 1014 100 10000 6.7 190 10:19 18.12.2019
2387 Clouds 15 1014 93 10000 7.2 180 09:50 18.12.2019
2388 Clouds 15 1014 93 10000 7.2 180 09:50 18.12.2019
2389 Clouds 15 1014 100 10000 8.7 190 09:18 18.12.2019
2390 Drizzle 15 1014 100 10000 8.2 190 08:41 18.12.2019
2391 Drizzle 14 1013 100 7000 7.2 190 08:22 18.12.2019
2392 Drizzle 14 1013 100 4000 7.7 180 07:43 18.12.2019
2393 Drizzle 14 1013 100 3000 7.7 180 07:23 18.12.2019
2394 Drizzle 14 1013 100 3000 7.7 180 06:56 18.12.2019
2395 Drizzle 14 1013 100 4000 7.2 180 06:27 18.12.2019
2396 Drizzle 14 1013 100 4000 7.7 180 05:54 18.12.2019
2397 Drizzle 13 1014 100 3000 6.2 180 04:57 18.12.2019
2398 Rain 13 1014 93 10000 4.6 180 02:55 18.12.2019
2399 Rain 13 1014 93 10000 4.6 180 02:37 18.12.2019
2400 Clouds 13 1014 93 10000 5.1 180 02:18 18.12.2019
2401 Clouds 13 1014 93 10000 5.1 180 01:41 18.12.2019
2402 Clouds 13 1014 93 10000 5.7 180 01:22 18.12.2019
2403 Rain 13 1015 93 10000 5.1 180 00:41 18.12.2019
2404 Rain 13 1015 82 10000 4.1 180 00:23 18.12.2019
2405 Rain 13 1015 82 10000 4.1 180 23:57 17.12.2019
2406 Rain 13 1015 82 10000 4.1 180 23:38 17.12.2019
2407 Rain 12 1014 87 10000 4.1 190 23:19 17.12.2019
2408 Clouds 12 1014 87 10000 4.6 190 22:56 17.12.2019
2409 Clouds 12 1014 87 10000 4.6 190 22:38 17.12.2019
2410 Rain 12 1014 81 10000 4.1 200 22:18 17.12.2019
2411 Rain 12 1014 81 10000 2.6 210 21:55 17.12.2019
2412 Rain 12 1014 81 10000 2.6 210 21:37 17.12.2019
2413 Rain 12 1014 81 10000 2.6 210 21:37 17.12.2019
2414 Clouds 12 1014 81 10000 2.6 200 21:19 17.12.2019
2415 Rain 12 1014 81 10000 3.1 210 20:57 17.12.2019
2416 Rain 13 1014 81 10000 3.1 210 20:38 17.12.2019
2417 Rain 13 1014 76 10000 2.1 190 20:18 17.12.2019
2418 Rain 13 1013 66 10000 3.6 220 19:55 17.12.2019
2419 Rain 13 1013 66 10000 3.6 220 19:37 17.12.2019
2420 Clouds 13 1013 66 10000 4.1 220 19:18 17.12.2019
2421 Clouds 13 1013 71 10000 3.6 210 18:43 17.12.2019
2422 Clouds 13 1013 71 10000 3.6 210 18:43 17.12.2019
2423 Clouds 13 1013 71 10000 3.6 210 18:23 17.12.2019
2424 Clouds 13 1012 66 10000 3.6 230 17:59 17.12.2019
2425 Clouds 13 1012 66 10000 3.6 230 17:41 17.12.2019
2426 Clouds 14 1012 58 10000 3.1 250 17:20 17.12.2019
2427 Clouds 14 1011 58 10000 4.6 240 16:56 17.12.2019
2428 Clouds 14 1011 58 10000 4.6 240 16:38 17.12.2019
2429 Clouds 14 1011 58 10000 3.1 260 16:19 17.12.2019
2430 Clouds 14 1011 58 10000 3.1 260 15:58 17.12.2019
2431 Clouds 14 1011 54 10000 4.1 260 15:37 17.12.2019
2432 Clouds 14 1011 54 10000 4.1 260 15:37 17.12.2019
2433 Clouds 14 1011 54 10000 3.6 290 15:19 17.12.2019
2434 Clouds 14 1010 54 10000 4.1 260 14:56 17.12.2019
2435 Clouds 14 1010 54 10000 4.1 260 14:37 17.12.2019
2436 Clouds 14 1010 62 10000 2.6 270 14:18 17.12.2019
2437 Clouds 14 1010 62 10000 2.6 270 14:18 17.12.2019
2438 Clouds 14 1010 62 10000 2.6 270 14:18 17.12.2019
2439 Clouds 14 1010 62 10000 2.6 270 13:56 17.12.2019
2440 Clouds 14 1010 62 10000 3.6 270 13:37 17.12.2019
2441 Clouds 13 1010 62 10000 1.5 320 13:18 17.12.2019
2442 Clouds 13 1010 62 10000 1.5 320 12:55 17.12.2019
2443 Clouds 13 1010 62 10000 1.5 320 12:37 17.12.2019
2444 Clouds 13 1010 62 10000 1.5 0 12:18 17.12.2019
2445 Clouds 13 1010 66 10000 1.5 300 11:54 17.12.2019
2446 Clouds 12 1010 66 10000 1.5 300 11:36 17.12.2019
2447 Clouds 12 1009 66 10000 2.1 280 11:18 17.12.2019
2448 Clouds 12 1009 66 10000 2.1 280 11:18 17.12.2019
2449 Clouds 11 1008 76 10000 1.5 250 10:54 17.12.2019
2450 Clouds 11 1008 76 10000 1.5 250 10:36 17.12.2019
2451 Clouds 10 1008 76 10000 2.1 270 10:18 17.12.2019
2452 Clouds 9 1007 81 10000 1 300 09:42 17.12.2019
2453 Clouds 9 1007 87 10000 2.6 310 09:21 17.12.2019
2454 Clear 9 1006 81 10000 2.1 310 08:58 17.12.2019
2455 Clear 9 1006 81 10000 2.1 310 08:39 17.12.2019
2456 Clouds 9 1006 81 10000 2.1 310 08:21 17.12.2019
2457 Clouds 9 1005 81 10000 2.6 320 07:56 17.12.2019
2458 Clouds 9 1005 81 10000 2.6 320 07:38 17.12.2019
2459 Clouds 9 1005 81 10000 3.6 320 07:18 17.12.2019
2460 Clouds 9 1005 81 10000 3.6 320 06:36 17.12.2019
2461 Clouds 10 1004 87 10000 2.1 340 06:18 17.12.2019
2462 Clouds 9 1004 87 10000 2.6 330 05:38 17.12.2019
2463 Clouds 9 1003 87 10000 4.1 320 04:46 17.12.2019
2464 Clouds 10 1001 81 10000 2.6 310 02:47 17.12.2019
2465 Clouds 10 1001 81 10000 2.6 320 01:56 17.12.2019
2466 Clouds 10 1000 76 10000 4.1 320 01:21 17.12.2019
2467 Clouds 10 999 81 10000 4.1 320 00:39 17.12.2019
2468 Clouds 11 999 81 10000 4.1 320 00:21 17.12.2019
2469 Clouds 11 999 81 10000 5.7 330 23:43 16.12.2019
2470 Clouds 11 999 87 10000 4.6 320 23:19 16.12.2019
2471 Clouds 11 998 81 10000 5.1 330 22:58 16.12.2019
2472 Clouds 11 998 81 10000 5.1 330 22:38 16.12.2019
2473 Clouds 11 998 81 10000 6.2 340 22:20 16.12.2019
2474 Clouds 11 998 81 10000 6.2 340 21:56 16.12.2019
2475 Clouds 11 997 87 10000 5.7 340 21:38 16.12.2019
2476 Clouds 11 997 93 10000 4.6 340 21:20 16.12.2019
2477 Clouds 10 996 93 10000 2.6 340 20:58 16.12.2019
2478 Clouds 10 996 93 10000 2.6 340 20:39 16.12.2019
2479 Rain 10 996 93 10000 4.1 330 20:19 16.12.2019
2480 Rain 10 996 93 10000 4.1 330 19:56 16.12.2019
2481 Rain 10 995 100 10000 4.6 330 19:37 16.12.2019
2482 Rain 10 995 100 10000 4.6 330 19:19 16.12.2019
2483 Rain 10 995 100 10000 4.6 330 18:58 16.12.2019
2484 Rain 10 995 100 10000 4.6 330 18:58 16.12.2019
2485 Rain 10 995 100 10000 4.6 330 18:40 16.12.2019
2486 Rain 10 995 100 10000 4.6 330 18:40 16.12.2019
2487 Rain 11 995 93 10000 5.1 350 18:20 16.12.2019
2488 Rain 11 995 93 10000 1.5 270 17:57 16.12.2019
2489 Rain 11 995 93 10000 1.5 270 17:39 16.12.2019
2490 Rain 11 994 93 10000 1.5 270 17:21 16.12.2019
2491 Rain 12 994 93 10000 3.1 330 16:57 16.12.2019
2492 Rain 12 994 93 10000 3.1 330 16:38 16.12.2019
2493 Rain 12 994 87 10000 2.1 300 16:19 16.12.2019
2494 Rain 12 994 87 10000 2.1 300 15:58 16.12.2019
2495 Rain 12 994 87 10000 3.1 330 15:38 16.12.2019
2496 Rain 12 994 87 10000 3.1 310 15:20 16.12.2019
2497 Rain 12 995 87 10000 3.6 320 14:57 16.12.2019
2498 Rain 12 995 87 10000 3.6 320 14:37 16.12.2019
2499 Rain 12 995 93 10000 3.6 330 14:19 16.12.2019
2500 Rain 12 995 93 10000 3.6 330 14:19 16.12.2019
2501 Rain 12 995 93 10000 3.6 330 14:19 16.12.2019
2502 Rain 12 995 93 10000 3.6 330 14:19 16.12.2019
2503 Rain 12 995 93 10000 3.6 330 14:19 16.12.2019
2504 Rain 12 996 87 10000 3.6 320 13:56 16.12.2019
2505 Rain 12 996 87 10000 3.6 320 13:37 16.12.2019
2506 Clouds 12 996 93 9000 4.1 320 13:19 16.12.2019
2507 Clouds 12 996 93 9000 4.1 320 12:57 16.12.2019
2508 Clouds 12 996 93 9000 4.1 320 12:39 16.12.2019
2509 Rain 12 996 93 6000 4.1 290 12:19 16.12.2019
2510 Drizzle 12 996 100 4500 4.1 290 11:58 16.12.2019
2511 Drizzle 12 996 100 4500 4.1 290 11:40 16.12.2019
2512 Drizzle 12 996 100 3500 4.1 300 11:20 16.12.2019
2513 Drizzle 11 996 100 1300 3.6 310 10:56 16.12.2019
2514 Drizzle 11 996 100 1300 3.6 310 10:38 16.12.2019
2515 Drizzle 11 997 100 4000 1 0 10:19 16.12.2019
2516 Rain 12 996 100 4000 2.1 50 09:45 16.12.2019
2517 Rain 12 996 100 4000 2.1 50 09:27 16.12.2019
2518 Rain 12 997 100 5000 0.5 0 08:55 16.12.2019
2519 Rain 12 997 100 5000 0.5 0 08:37 16.12.2019
2520 Clouds 12 998 100 10000 1 0 08:18 16.12.2019
2521 Rain 12 998 100 5000 1 0 07:42 16.12.2019
2522 Clouds 12 998 100 8000 1 0 07:21 16.12.2019
2523 Clouds 12 998 100 8000 1 0 06:45 16.12.2019
2524 Rain 13 999 100 7000 1.5 340 06:22 16.12.2019
2525 Clouds 13 1000 100 8000 2.27 172 05:49 16.12.2019
2526 Drizzle 13 1000 100 7000 1 0 05:30 16.12.2019
2527 Clouds 13 1001 100 10000 1.5 120 04:21 16.12.2019
2528 Rain 13 1003 100 10000 2.6 190 02:19 16.12.2019
2529 Clouds 13 1004 100 10000 3.1 210 01:44 16.12.2019
2530 Rain 14 1004 100 8000 3.1 200 00:42 16.12.2019
2531 Drizzle 14 1005 93 6000 4.6 210 00:24 16.12.2019
2532 Drizzle 14 1005 93 4000 6.7 230 23:58 15.12.2019
2533 Drizzle 14 1005 93 4000 6.7 230 23:38 15.12.2019
2534 Rain 14 1005 100 8000 7.7 180 23:20 15.12.2019
2535 Clouds 14 1006 100 10000 7.2 180 22:56 15.12.2019
2536 Clouds 14 1006 100 10000 7.2 180 22:37 15.12.2019
2537 Clouds 14 1006 93 10000 7.7 180 22:18 15.12.2019
2538 Rain 15 1007 93 10000 6.7 180 21:56 15.12.2019
2539 Rain 15 1007 93 10000 6.7 180 21:56 15.12.2019
2540 Rain 15 1007 93 10000 6.7 180 21:37 15.12.2019
2541 Rain 15 1007 93 10000 6.7 180 21:37 15.12.2019
2542 Clouds 14 1007 100 10000 6.7 170 21:19 15.12.2019
2543 Clouds 14 1007 100 10000 7.7 180 20:56 15.12.2019
2544 Clouds 15 1007 100 10000 7.7 180 20:37 15.12.2019
2545 Drizzle 15 1007 100 10000 7.2 180 20:18 15.12.2019
2546 Drizzle 14 1008 100 5000 6.2 180 19:57 15.12.2019
2547 Drizzle 14 1008 100 5000 6.2 180 19:57 15.12.2019
2548 Drizzle 14 1008 100 5000 6.2 180 19:38 15.12.2019
2549 Drizzle 14 1008 100 5000 6.2 180 19:18 15.12.2019
2550 Drizzle 15 1008 100 5000 6.2 180 18:56 15.12.2019
2551 Drizzle 15 1008 100 5000 6.2 180 18:56 15.12.2019
2552 Drizzle 15 1008 100 5000 6.2 180 18:38 15.12.2019
2553 Clouds 15 1009 93 10000 7.2 190 18:18 15.12.2019
2554 Clouds 15 1009 93 10000 7.2 190 18:18 15.12.2019
2555 Clouds 15 1009 87 10000 8.2 190 17:56 15.12.2019
2556 Clouds 15 1009 87 10000 8.2 190 17:37 15.12.2019
2557 Drizzle 15 1009 100 9000 8.2 180 17:18 15.12.2019
2558 Clouds 15 1010 93 10000 7.2 200 16:54 15.12.2019
2559 Clouds 15 1010 93 10000 7.2 200 16:36 15.12.2019
2560 Clouds 15 1010 82 10000 8.2 210 16:18 15.12.2019
2561 Drizzle 15 1011 87 10000 8.7 200 15:54 15.12.2019
2562 Drizzle 15 1011 87 10000 8.7 200 15:36 15.12.2019
2563 Drizzle 15 1011 82 10000 8.7 200 15:18 15.12.2019
2564 Clouds 15 1012 82 10000 8.7 200 14:54 15.12.2019
2565 Clouds 15 1012 82 10000 8.7 200 14:36 15.12.2019
2566 Clouds 15 1013 82 10000 9.3 200 14:18 15.12.2019
2567 Clouds 16 1013 82 10000 9.3 200 13:54 15.12.2019
2568 Clouds 15 1013 82 10000 9.3 200 13:36 15.12.2019
2569 Clouds 16 1014 82 10000 8.2 200 13:18 15.12.2019
2570 Clouds 16 1014 82 10000 8.2 200 12:55 15.12.2019
2571 Clouds 15 1014 82 10000 8.2 200 12:37 15.12.2019
2572 Clouds 15 1014 87 10000 7.2 200 12:19 15.12.2019
2573 Clouds 14 1014 93 10000 6.7 200 11:38 15.12.2019
2574 Clouds 14 1014 93 10000 6.2 190 11:19 15.12.2019
2575 Clouds 14 1015 100 10000 4.6 210 10:56 15.12.2019
2576 Clouds 14 1015 100 10000 4.6 210 10:38 15.12.2019
2577 Clouds 14 1015 93 10000 3.6 210 10:19 15.12.2019
2578 Clouds 14 1015 93 10000 3.6 210 09:58 15.12.2019
2579 Drizzle 14 1014 93 10000 3.6 220 09:37 15.12.2019
2580 Drizzle 13 1015 100 4500 4.6 190 09:19 15.12.2019
2581 Clouds 13 1015 100 10000 2.6 200 08:55 15.12.2019
2582 Clouds 13 1015 100 10000 2.6 200 08:36 15.12.2019
2583 Clouds 13 1015 100 10000 4.1 200 08:18 15.12.2019
2584 Clouds 13 1015 100 10000 4.1 200 07:47 15.12.2019
2585 Clouds 13 1015 100 10000 4.1 200 07:28 15.12.2019
2586 Clouds 13 1015 100 10000 1 0 06:26 15.12.2019
2587 Clouds 13 1016 93 10000 2.1 220 05:49 15.12.2019
2588 Clouds 13 1016 100 10000 2.1 230 05:22 15.12.2019
2589 Clouds 13 1017 100 10000 3.1 190 04:22 15.12.2019
2590 Drizzle 13 1018 100 9000 4.1 210 02:55 15.12.2019
2591 Drizzle 13 1018 100 9000 4.1 210 02:32 15.12.2019
2592 Clouds 13 1018 100 10000 2.1 240 01:41 15.12.2019
2593 Clouds 13 1019 93 10000 2.1 250 01:19 15.12.2019
2594 Clouds 13 1019 93 10000 2.1 250 00:51 15.12.2019
2595 Clouds 13 1019 93 10000 2.1 250 00:32 15.12.2019
2596 Drizzle 13 1019 100 9000 1 210 23:55 14.12.2019
2597 Drizzle 13 1019 100 9000 1 210 23:37 14.12.2019
2598 Clouds 13 1019 93 10000 3.1 200 23:18 14.12.2019
2599 Clouds 13 1019 93 10000 3.1 200 23:18 14.12.2019
2600 Drizzle 13 1019 93 9000 2.6 240 22:56 14.12.2019
2601 Drizzle 13 1019 93 9000 2.6 240 22:37 14.12.2019
2602 Clouds 13 1020 93 10000 4.1 200 22:18 14.12.2019
2603 Clouds 13 1020 93 10000 3.6 210 21:55 14.12.2019
2604 Clouds 13 1020 93 10000 3.6 210 21:36 14.12.2019
2605 Drizzle 14 1020 93 10000 3.1 200 21:18 14.12.2019
2606 Clouds 14 1020 93 10000 3.6 210 20:42 14.12.2019
2607 Clouds 14 1020 93 10000 4.1 210 20:20 14.12.2019
2608 Clouds 14 1020 87 10000 4.6 220 19:59 14.12.2019
2609 Clouds 14 1020 87 10000 4.6 220 19:39 14.12.2019
2610 Rain 14 1020 87 10000 5.1 210 19:21 14.12.2019
2611 Rain 14 1020 87 10000 5.1 210 18:56 14.12.2019
2612 Rain 14 1020 87 10000 5.1 210 18:38 14.12.2019
2613 Clouds 14 1020 82 10000 4.6 220 18:20 14.12.2019
2614 Clouds 15 1020 77 10000 4.6 230 17:54 14.12.2019
2615 Clouds 15 1020 77 10000 4.6 230 17:36 14.12.2019
2616 Clouds 15 1020 72 10000 4.6 220 17:18 14.12.2019
2617 Clouds 15 1020 72 10000 4.6 240 16:41 14.12.2019
2618 Clouds 15 1020 72 10000 5.7 240 16:19 14.12.2019
2619 Clouds 15 1020 67 10000 5.7 230 15:55 14.12.2019
2620 Clouds 16 1020 67 10000 5.7 230 15:36 14.12.2019
2621 Clouds 16 1020 72 10000 4.1 250 15:18 14.12.2019
2622 Clouds 16 1021 72 10000 4.6 250 14:40 14.12.2019
2623 Clouds 16 1021 82 10000 3.1 230 14:22 14.12.2019
2624 Clouds 16 1021 82 10000 3.1 230 13:59 14.12.2019
2625 Clouds 16 1022 87 10000 4.6 230 13:41 14.12.2019
2626 Clouds 16 1022 87 10000 4.6 230 13:41 14.12.2019
2627 Clouds 15 1022 87 10000 5.7 230 13:19 14.12.2019
2628 Clouds 15 1022 87 10000 5.7 230 12:57 14.12.2019
2629 Clouds 15 1022 87 10000 5.7 230 12:38 14.12.2019
2630 Clouds 15 1023 87 10000 4.1 230 12:20 14.12.2019
2631 Clouds 15 1023 87 10000 3.6 230 11:56 14.12.2019
2632 Clouds 14 1022 93 10000 3.1 230 11:38 14.12.2019
2633 Clouds 14 1022 93 10000 3.1 230 11:19 14.12.2019
2634 Clouds 13 1022 100 10000 2.6 250 10:56 14.12.2019
2635 Clouds 13 1022 100 10000 2.6 250 10:38 14.12.2019
2636 Clouds 13 1022 100 10000 1 0 10:19 14.12.2019
2637 Clouds 12 1022 93 10000 3.1 230 09:43 14.12.2019
2638 Clouds 12 1022 100 10000 2.6 220 09:23 14.12.2019
2639 Clouds 12 1022 100 10000 2.6 220 08:59 14.12.2019
2640 Clouds 12 1022 100 10000 2.6 250 08:40 14.12.2019
2641 Clouds 12 1022 100 10000 1.5 240 08:19 14.12.2019
2642 Clouds 13 1022 100 10000 2.6 240 07:40 14.12.2019
2643 Clouds 13 1022 100 10000 2.6 230 07:22 14.12.2019
2644 Clouds 12 1022 100 10000 2.6 230 06:55 14.12.2019
2645 Clouds 13 1022 100 10000 2.6 230 06:36 14.12.2019
2646 Clouds 13 1022 100 10000 2.1 260 05:52 14.12.2019
2647 Clouds 13 1023 93 10000 2.1 230 04:34 14.12.2019
2648 Clouds 13 1023 87 10000 1.5 280 02:25 14.12.2019
2649 Clouds 13 1023 93 10000 2.6 250 01:44 14.12.2019
2650 Clouds 13 1023 87 10000 1.5 240 01:22 14.12.2019
2651 Clouds 13 1024 93 10000 2.6 230 00:43 14.12.2019
2652 Clouds 13 1024 93 10000 2.6 240 00:24 14.12.2019
2653 Clouds 14 1024 82 10000 2.1 270 23:43 13.12.2019
2654 Clouds 14 1024 87 10000 3.1 260 23:22 13.12.2019
2655 Clouds 14 1024 87 10000 2.1 250 22:59 13.12.2019
2656 Clouds 14 1024 87 10000 2.1 250 22:40 13.12.2019
2657 Clouds 14 1024 87 10000 1.5 260 22:19 13.12.2019
2658 Clouds 15 1024 82 10000 2.1 280 21:55 13.12.2019
2659 Clouds 15 1024 82 10000 2.1 280 21:36 13.12.2019
2660 Clouds 14 1024 87 10000 2.6 280 21:18 13.12.2019
2661 Clouds 14 1024 87 10000 2.6 270 20:40 13.12.2019
2662 Clouds 15 1024 82 10000 3.1 280 20:21 13.12.2019
2663 Clouds 15 1024 82 10000 3.1 280 19:58 13.12.2019
2664 Clouds 15 1024 82 10000 3.1 280 19:40 13.12.2019
2665 Clouds 15 1024 82 10000 3.1 280 19:21 13.12.2019
2666 Clouds 15 1024 82 10000 3.1 290 18:58 13.12.2019
2667 Clouds 15 1024 82 10000 3.1 300 18:40 13.12.2019
2668 Clouds 15 1024 82 10000 3.1 300 18:19 13.12.2019
2669 Clouds 15 1024 82 10000 3.1 300 18:19 13.12.2019
2670 Clouds 15 1024 82 10000 4.1 290 17:42 13.12.2019
2671 Clouds 16 1024 82 10000 4.1 290 17:19 13.12.2019
2672 Clouds 16 1024 82 10000 4.6 300 16:59 13.12.2019
2673 Rain 16 1024 82 10000 4.6 300 16:39 13.12.2019
2674 Rain 16 1024 82 10000 4.6 300 16:20 13.12.2019
2675 Rain 16 1024 77 10000 4.6 280 15:43 13.12.2019
2676 Clouds 16 1024 77 10000 5.1 300 15:23 13.12.2019
2677 Clouds 16 1024 77 10000 5.1 300 15:23 13.12.2019
2678 Clouds 16 1024 82 10000 4.6 290 14:59 13.12.2019
2679 Clouds 16 1024 72 10000 5.1 290 14:41 13.12.2019
2680 Clouds 16 1024 72 10000 5.1 290 14:20 13.12.2019
2681 Clouds 16 1025 77 10000 5.1 300 13:57 13.12.2019
2682 Clouds 16 1025 82 10000 4.6 290 13:37 13.12.2019
2683 Clouds 16 1025 82 10000 4.6 290 13:19 13.12.2019
2684 Clouds 16 1026 82 10000 4.6 300 12:42 13.12.2019
2685 Clouds 16 1026 82 10000 4.6 300 12:20 13.12.2019
2686 Clouds 15 1025 87 10000 4.6 300 11:57 13.12.2019
2687 Clouds 15 1025 93 10000 4.6 290 11:39 13.12.2019
2688 Clouds 15 1025 93 10000 4.6 290 11:21 13.12.2019
2689 Drizzle 14 1025 93 4500 4.6 280 10:42 13.12.2019
2690 Clouds 14 1025 93 10000 4.6 260 10:23 13.12.2019
2691 Clouds 14 1025 93 10000 4.6 270 09:56 13.12.2019
2692 Clouds 14 1024 93 10000 4.1 260 09:38 13.12.2019
2693 Clouds 14 1024 93 10000 4.1 260 09:18 13.12.2019
2694 Clouds 14 1024 87 10000 3.1 270 08:41 13.12.2019
2695 Clouds 14 1024 87 10000 3.1 270 08:23 13.12.2019
2696 Clouds 14 1024 87 10000 3.6 290 07:45 13.12.2019
2697 Clouds 14 1024 87 10000 3.6 280 07:21 13.12.2019
2698 Clouds 14 1023 87 10000 4.1 300 06:54 13.12.2019
2699 Clouds 14 1024 87 10000 5.1 280 06:28 13.12.2019
2700 Clouds 14 1024 82 10000 5.7 290 05:46 13.12.2019
2701 Clouds 14 1024 87 10000 5.1 300 05:26 13.12.2019
2702 Clouds 14 1024 87 10000 5.1 290 04:35 13.12.2019
2703 Clouds 14 1024 87 10000 7.2 290 03:46 13.12.2019
2704 Drizzle 14 1024 93 9000 5.7 290 02:34 13.12.2019
2705 Drizzle 14 1024 100 6000 5.1 300 01:44 13.12.2019
2706 Clouds 14 1024 87 10000 6.7 300 00:56 13.12.2019
2707 Drizzle 14 1024 87 8000 7.2 300 00:37 13.12.2019
2708 Drizzle 14 1024 100 6000 4.1 290 23:57 12.12.2019
2709 Drizzle 14 1024 93 6000 6.2 300 23:39 12.12.2019
2710 Drizzle 14 1024 93 6000 6.2 300 23:20 12.12.2019
2711 Drizzle 15 1024 93 9000 6.2 300 22:55 12.12.2019
2712 Drizzle 15 1023 93 4000 6.2 300 22:37 12.12.2019
2713 Drizzle 15 1023 93 4000 6.2 300 22:18 12.12.2019
2714 Drizzle 14 1024 100 5000 4.6 290 21:54 12.12.2019
2715 Drizzle 14 1023 87 5000 5.7 280 21:36 12.12.2019
2716 Drizzle 14 1023 87 5000 5.7 280 21:18 12.12.2019
2717 Clouds 14 1024 93 10000 4.6 280 20:55 12.12.2019
2718 Drizzle 14 1024 87 6000 6.7 270 20:37 12.12.2019
2719 Drizzle 14 1024 87 6000 6.7 270 20:19 12.12.2019
2720 Clouds 14 1024 93 10000 5.7 280 19:42 12.12.2019
2721 Drizzle 14 1024 93 4500 5.7 260 19:22 12.12.2019
2722 Drizzle 14 1024 93 9000 6.2 260 18:58 12.12.2019
2723 Drizzle 14 1024 93 9000 6.2 250 18:40 12.12.2019
2724 Drizzle 14 1024 93 9000 6.2 250 18:20 12.12.2019
2725 Drizzle 14 1024 93 3500 6.2 260 17:57 12.12.2019
2726 Drizzle 14 1024 93 3500 6.2 260 17:57 12.12.2019
2727 Rain 14 1024 93 8000 6.2 260 17:39 12.12.2019
2728 Rain 14 1024 93 8000 6.2 260 17:20 12.12.2019
2729 Rain 14 1024 82 9000 7.7 260 16:57 12.12.2019
2730 Rain 14 1024 87 10000 6.2 270 16:39 12.12.2019
2731 Rain 14 1024 87 10000 6.2 270 16:20 12.12.2019
2732 Rain 14 1025 82 10000 6.2 260 15:56 12.12.2019
2733 Rain 14 1025 82 10000 6.2 260 15:56 12.12.2019
2734 Rain 15 1025 82 8000 6.2 270 15:38 12.12.2019
2735 Rain 15 1025 82 8000 6.2 270 15:18 12.12.2019
2736 Clouds 15 1026 77 10000 7.2 260 14:38 12.12.2019
2737 Clouds 15 1026 77 10000 7.2 260 14:38 12.12.2019
2738 Clouds 15 1026 77 10000 7.2 260 14:20 12.12.2019
2739 Rain 15 1027 77 10000 6.7 260 13:58 12.12.2019
2740 Clouds 15 1027 77 10000 5.1 270 13:40 12.12.2019
2741 Clouds 15 1027 77 10000 5.1 270 13:21 12.12.2019
2742 Clouds 14 1027 82 10000 4.6 280 12:59 12.12.2019
2743 Rain 14 1027 87 10000 4.1 280 12:40 12.12.2019
2744 Rain 14 1027 87 10000 4.1 280 12:21 12.12.2019
2745 Rain 14 1027 82 10000 5.1 260 11:57 12.12.2019
2746 Rain 14 1028 87 10000 4.1 250 11:38 12.12.2019
2747 Rain 13 1028 87 10000 4.1 250 11:19 12.12.2019
2748 Rain 13 1028 82 10000 4.6 260 10:56 12.12.2019
2749 Clouds 13 1028 76 10000 3.6 260 10:38 12.12.2019
2750 Clouds 13 1028 76 10000 3.6 260 10:20 12.12.2019
2751 Clouds 13 1027 81 10000 3.6 250 09:55 12.12.2019
2752 Clouds 13 1027 87 10000 3.6 250 09:37 12.12.2019
2753 Clouds 12 1027 87 10000 3.6 250 09:18 12.12.2019
2754 Clouds 12 1028 87 10000 3.6 250 08:43 12.12.2019
2755 Clouds 12 1028 87 10000 3.6 250 08:43 12.12.2019
2756 Clouds 12 1028 87 10000 3.6 260 08:25 12.12.2019
2757 Clouds 12 1028 81 10000 2.6 270 07:49 12.12.2019
2758 Clouds 12 1028 81 10000 4.1 270 07:27 12.12.2019
2759 Clouds 12 1028 87 10000 3.1 290 06:55 12.12.2019
2760 Clouds 12 1028 93 10000 4.1 260 06:35 12.12.2019
2761 Clouds 12 1028 93 10000 4.1 270 05:42 12.12.2019
2762 Clouds 12 1029 87 10000 3.6 300 04:55 12.12.2019
2763 Clouds 11 1029 87 10000 3.1 300 04:23 12.12.2019
2764 Clouds 11 1030 87 10000 2.6 260 02:40 12.12.2019
2765 Clouds 11 1030 93 10000 2.1 240 02:22 12.12.2019
2766 Clouds 11 1031 87 10000 2.6 250 01:54 12.12.2019
2767 Clouds 11 1031 87 10000 2.6 250 01:32 12.12.2019
2768 Clouds 11 1031 81 10000 2.1 260 00:47 12.12.2019
2769 Clouds 10 1031 87 10000 2.6 250 00:21 12.12.2019
2770 Clouds 10 1031 81 10000 2.6 230 23:45 11.12.2019
2771 Clouds 10 1031 87 10000 2.1 230 23:21 11.12.2019
2772 Clouds 10 1031 81 10000 1.5 240 22:59 11.12.2019
2773 Clear 10 1031 87 10000 2.1 240 22:39 11.12.2019
2774 Clear 9 1031 87 10000 2.1 240 22:20 11.12.2019
2775 Clear 10 1031 81 10000 1.5 270 21:59 11.12.2019
2776 Clouds 10 1031 81 10000 1 0 21:39 11.12.2019
2777 Clouds 10 1031 81 10000 1 0 21:20 11.12.2019
2778 Clouds 11 1031 76 10000 1.5 310 20:57 11.12.2019
2779 Clear 11 1031 76 10000 1.5 340 20:39 11.12.2019
2780 Clouds 11 1031 76 10000 1.5 340 20:19 11.12.2019
2781 Clouds 11 1031 71 10000 2.6 340 19:58 11.12.2019
2782 Clouds 11 1031 71 10000 3.1 350 19:40 11.12.2019
2783 Clouds 11 1031 71 10000 3.1 350 19:20 11.12.2019
2784 Clouds 12 1030 66 10000 4.6 350 18:55 11.12.2019
2785 Clouds 12 1030 66 10000 5.1 350 18:37 11.12.2019
2786 Clouds 12 1030 66 10000 5.1 350 18:18 11.12.2019
2787 Clouds 13 1030 62 10000 5.7 10 17:55 11.12.2019
2788 Clouds 13 1030 58 10000 6.7 360 17:36 11.12.2019
2789 Clouds 13 1030 58 10000 6.7 360 17:18 11.12.2019
2790 Clouds 14 1030 62 10000 7.2 350 16:55 11.12.2019
2791 Clouds 14 1030 62 10000 7.2 350 16:55 11.12.2019
2792 Clouds 14 1030 58 10000 7.2 340 16:36 11.12.2019
2793 Clouds 14 1030 58 10000 7.2 340 16:18 11.12.2019
2794 Clouds 14 1029 54 10000 8.2 350 15:41 11.12.2019
2795 Clouds 14 1029 54 10000 8.2 350 15:41 11.12.2019
2796 Clouds 14 1029 62 10000 8.2 360 15:23 11.12.2019
2797 Clouds 14 1029 62 10000 8.2 360 15:23 11.12.2019
2798 Clouds 14 1030 62 10000 8.7 340 14:57 11.12.2019
2799 Clouds 14 1030 62 10000 7.7 350 14:39 11.12.2019
2800 Clouds 14 1030 62 10000 7.7 350 14:20 11.12.2019
2801 Clouds 14 1030 58 10000 7.2 350 13:58 11.12.2019
2802 Clouds 14 1030 62 10000 8.7 350 13:39 11.12.2019
2803 Clouds 14 1030 62 10000 8.7 350 13:21 11.12.2019
2804 Clouds 14 1030 71 10000 6.2 350 12:57 11.12.2019
2805 Clouds 14 1030 76 10000 7.2 360 12:38 11.12.2019
2806 Clouds 14 1030 76 10000 7.2 360 12:38 11.12.2019
2807 Clouds 14 1030 76 10000 7.2 360 12:20 11.12.2019
2808 Clouds 13 1030 81 10000 7.7 350 11:58 11.12.2019
2809 Clouds 13 1029 87 10000 6.2 360 11:38 11.12.2019
2810 Clouds 13 1029 87 10000 6.2 360 11:18 11.12.2019
2811 Clouds 12 1029 87 10000 5.1 360 10:57 11.12.2019
2812 Clouds 12 1029 93 10000 6.7 360 10:38 11.12.2019
2813 Clouds 12 1029 93 10000 6.7 360 10:19 11.12.2019
2814 Drizzle 12 1028 93 8000 8.7 350 09:43 11.12.2019
2815 Drizzle 12 1028 93 8000 8.7 350 09:21 11.12.2019
2816 Drizzle 12 1028 93 8000 8.7 350 09:21 11.12.2019
2817 Clouds 12 1027 93 10000 8.2 340 08:58 11.12.2019
2818 Clouds 12 1027 93 10000 8.2 340 08:58 11.12.2019
2819 Clouds 12 1027 93 10000 8.2 350 08:39 11.12.2019
2820 Clouds 12 1027 93 10000 8.2 350 08:19 11.12.2019
2821 Clouds 12 1027 93 10000 8.2 350 08:19 11.12.2019
2822 Drizzle 12 1025 100 7000 3.6 220 07:58 11.12.2019
2823 Drizzle 13 1025 100 8000 3.6 230 07:39 11.12.2019
2824 Drizzle 13 1025 100 8000 3.6 230 07:21 11.12.2019
2825 Drizzle 14 1025 93 10000 3.6 250 06:44 11.12.2019
2826 Clouds 13 1026 100 10000 3.1 250 06:22 11.12.2019
2827 Clouds 13 1025 93 10000 2.1 230 05:45 11.12.2019
2828 Clouds 12 1026 100 10000 2.6 250 05:27 11.12.2019
2829 Clouds 12 1026 93 10000 2.6 240 04:41 11.12.2019
2830 Clouds 11 1026 93 10000 1.52 278 02:49 11.12.2019
2831 Clouds 10 1027 93 10000 1.5 230 01:26 11.12.2019
2832 Clear 10 1027 100 10000 1.5 180 00:49 11.12.2019
2833 Clouds 10 1027 93 10000 2.1 260 00:25 11.12.2019
2834 Clouds 10 1027 93 10000 2.1 260 00:25 11.12.2019
2835 Clouds 10 1027 100 10000 2.1 0 23:59 10.12.2019
2836 Clouds 10 1027 87 10000 2.1 310 23:40 10.12.2019
2837 Clouds 10 1027 87 10000 2.1 310 23:21 10.12.2019
2838 Clear 10 1027 93 10000 1 0 22:41 10.12.2019
2839 Clear 10 1027 93 10000 1 0 22:22 10.12.2019
2840 Clear 11 1027 81 10000 0.5 0 21:58 10.12.2019
2841 Clear 10 1027 81 10000 1 270 21:39 10.12.2019
2842 Clear 10 1027 81 10000 1 270 21:21 10.12.2019
2843 Clear 11 1027 87 10000 1 0 20:58 10.12.2019
2844 Clear 11 1027 76 10000 1 300 20:38 10.12.2019
2845 Clouds 11 1027 76 10000 1 300 20:19 10.12.2019
2846 Clouds 11 1027 76 10000 1 300 20:19 10.12.2019
2847 Clouds 11 1027 76 10000 1 300 20:19 10.12.2019
2848 Clouds 11 1027 76 10000 1 300 20:19 10.12.2019
2849 Clouds 11 1027 87 10000 2.1 320 19:56 10.12.2019
2850 Clouds 11 1027 81 10000 1 340 19:38 10.12.2019
2851 Clouds 12 1027 81 10000 1 340 19:20 10.12.2019
2852 Clouds 12 1027 81 10000 1.5 320 18:55 10.12.2019
2853 Clouds 13 1026 76 10000 1 0 18:36 10.12.2019
2854 Clouds 13 1026 76 10000 1 0 18:18 10.12.2019
2855 Clouds 14 1027 76 10000 0.5 0 17:41 10.12.2019
2856 Clouds 15 1027 76 10000 1 0 17:22 10.12.2019
2857 Clouds 15 1027 81 10000 1.5 90 16:58 10.12.2019
2858 Clouds 15 1027 76 10000 2.1 100 16:39 10.12.2019
2859 Clouds 15 1027 76 10000 2.1 100 16:19 10.12.2019
2860 Clouds 15 1027 76 10000 2.1 100 16:19 10.12.2019
2861 Clouds 15 1028 82 10000 1.5 60 15:39 10.12.2019
2862 Clouds 15 1028 82 10000 1.5 60 15:18 10.12.2019
2863 Clouds 15 1028 82 10000 1.5 70 14:56 10.12.2019
2864 Clouds 14 1029 87 10000 2.6 70 14:38 10.12.2019
2865 Clouds 15 1029 87 10000 2.6 70 14:38 10.12.2019
2866 Clouds 14 1029 87 10000 2.6 70 14:20 10.12.2019
2867 Clouds 14 1029 81 10000 3.1 70 13:58 10.12.2019
2868 Clouds 14 1029 81 10000 3.1 70 13:40 10.12.2019
2869 Clouds 13 1029 87 9000 2.6 60 13:20 10.12.2019
2870 Clouds 13 1029 87 9000 2.6 60 13:20 10.12.2019
2871 Fog 13 1030 93 9000 2.6 50 12:49 10.12.2019
2872 Fog 12 1030 93 9000 2.6 70 12:28 10.12.2019
2873 Fog 11 1030 100 8000 1.5 30 11:58 10.12.2019
2874 Fog 10 1030 100 8000 1.5 30 11:40 10.12.2019
2875 Mist 9 1030 100 4000 1.5 60 11:21 10.12.2019
2876 Mist 8 1030 100 3500 1.5 50 10:43 10.12.2019
2877 Fog 8 1030 100 9000 2.1 80 10:24 10.12.2019
2878 Fog 7 1030 100 9000 0.5 0 09:57 10.12.2019
2879 Fog 7 1030 100 9000 0.5 0 09:57 10.12.2019
2880 Fog 7 1030 100 9000 0.5 0 09:57 10.12.2019
2881 Fog 7 1029 100 6000 2.26 15 09:39 10.12.2019
2882 Fog 7 1029 100 6000 2.26 15 09:20 10.12.2019
2883 Fog 6 1029 100 300 1.5 360 08:58 10.12.2019
2884 Fog 6 1029 87 10000 1.5 30 08:39 10.12.2019
2885 Fog 6 1029 87 10000 1.5 30 08:20 10.12.2019
2886 Clouds 7 1029 87 10000 0.5 0 07:45 10.12.2019
2887 Clouds 7 1029 93 10000 1.5 330 07:27 10.12.2019
2888 Clouds 6 1029 93 10000 1 280 06:55 10.12.2019
2889 Clouds 7 1029 100 9000 1.5 340 06:37 10.12.2019
2890 Clouds 7 1029 100 9000 1.5 340 06:19 10.12.2019
2891 Clouds 6 1029 93 10000 1.5 30 05:47 10.12.2019
2892 Clouds 8 1029 81 10000 1 0 04:23 10.12.2019
2893 Clear 8 1029 66 10000 1 0 03:25 10.12.2019
2894 Clear 10 1030 53 10000 0.5 0 01:57 10.12.2019
2895 Clear 10 1031 54 10000 1 0 01:38 10.12.2019
2896 Clear 10 1031 54 10000 1 0 01:18 10.12.2019
2897 Clear 11 1031 71 10000 4.1 310 00:29 10.12.2019
2898 Clear 11 1030 66 10000 1 0 23:59 09.12.2019
2899 Clear 10 1031 71 10000 2.6 330 23:39 09.12.2019
2900 Clear 11 1031 71 10000 2.6 330 23:20 09.12.2019
2901 Clear 11 1031 66 10000 3.6 320 22:57 09.12.2019
2902 Clear 12 1031 71 10000 3.6 310 22:38 09.12.2019
2903 Clear 12 1031 71 10000 3.6 310 22:18 09.12.2019
2904 Clear 12 1031 71 10000 3.6 310 22:18 09.12.2019
2905 Clear 11 1031 71 10000 2.6 320 21:56 09.12.2019
2906 Clear 11 1031 76 10000 3.6 320 21:38 09.12.2019
2907 Clear 11 1031 76 10000 3.6 320 21:18 09.12.2019
2908 Clear 12 1031 81 10000 3.6 320 20:55 09.12.2019
2909 Clear 12 1031 81 10000 4.6 320 20:37 09.12.2019
2910 Clouds 12 1031 81 10000 4.6 320 20:19 09.12.2019
2911 Clear 12 1030 82 10000 4.1 320 19:55 09.12.2019
2912 Clear 12 1030 82 10000 4.1 320 19:55 09.12.2019
2913 Clear 13 1030 82 10000 2.1 310 19:37 09.12.2019
2914 Clear 13 1030 82 10000 2.1 310 19:18 09.12.2019
2915 Clear 13 1030 82 10000 3.1 300 18:55 09.12.2019
2916 Clear 14 1030 77 10000 3.1 330 18:36 09.12.2019
2917 Clear 14 1030 77 10000 3.1 330 18:18 09.12.2019
2918 Clear 14 1030 77 10000 3.1 330 18:18 09.12.2019
2919 -273 0 0 0 0 0 17:56 09.12.2019
2920 Clear 16 1030 67 10000 1.5 100 17:37 09.12.2019
2921 Clear 16 1030 67 10000 1.5 100 17:19 09.12.2019
2922 Clear 16 1030 67 10000 1.5 100 16:54 09.12.2019
2923 Clear 16 1030 67 10000 1.5 100 16:36 09.12.2019
2924 Clear 16 1030 67 10000 1.5 100 16:18 09.12.2019
2925 Clear 17 1030 67 10000 1 0 15:55 09.12.2019
2926 Clear 16 1030 72 10000 2.1 0 15:36 09.12.2019
2927 Clear 16 1030 72 10000 2.1 0 15:36 09.12.2019
2928 Clear 16 1030 72 10000 2.1 0 15:18 09.12.2019
2929 Clear 16 1031 72 10000 1.5 100 14:42 09.12.2019
2930 Clouds 16 1031 72 10000 1.5 100 14:19 09.12.2019
2931 Clouds 15 1031 72 10000 2.6 20 13:57 09.12.2019
2932 Clouds 15 1032 77 10000 2.6 360 13:38 09.12.2019
2933 Clouds 15 1032 77 10000 2.6 360 13:38 09.12.2019
2934 Clouds 15 1032 77 10000 2.6 360 13:19 09.12.2019
2935 Clouds 15 1032 77 10000 2.6 360 13:19 09.12.2019
2936 Clouds 15 1032 77 10000 2.1 360 12:56 09.12.2019
2937 Clouds 15 1032 82 10000 3.1 350 12:37 09.12.2019
2938 Clouds 14 1032 82 10000 3.1 350 12:19 09.12.2019
2939 Clouds 14 1032 82 10000 2.6 340 11:55 09.12.2019
2940 Clouds 14 1031 87 10000 4.1 330 11:37 09.12.2019
2941 Clouds 13 1031 87 10000 4.1 330 11:18 09.12.2019
2942 Clouds 12 1031 93 10000 5.7 360 10:41 09.12.2019
2943 Clouds 12 1031 93 10000 3.1 320 10:20 09.12.2019
2944 Clouds 12 1031 93 10000 3.6 330 09:59 09.12.2019
2945 Clouds 12 1030 93 10000 3.6 330 09:40 09.12.2019
2946 Clouds 11 1030 93 10000 3.6 330 09:21 09.12.2019
2947 Clouds 12 1030 87 10000 3.6 320 08:44 09.12.2019
2948 Clouds 12 1030 87 10000 1.5 310 08:26 09.12.2019
2949 Clouds 12 1030 87 10000 1.5 310 08:26 09.12.2019
2950 Clouds 12 1029 87 10000 3.6 350 07:57 09.12.2019
2951 Clouds 12 1029 87 10000 2.1 320 07:38 09.12.2019
2952 Clouds 12 1029 87 10000 2.1 320 07:20 09.12.2019
2953 Clouds 12 1029 87 10000 3.6 330 06:43 09.12.2019
2954 Clouds 12 1029 87 10000 3.6 330 06:24 09.12.2019
2955 Clouds 13 1029 93 10000 2.6 330 05:26 09.12.2019
2956 Clouds 13 1029 100 10000 3.6 350 04:33 09.12.2019
2957 Clouds 13 1029 93 10000 4.6 320 03:19 09.12.2019
2958 Clouds 14 1029 93 10000 6.2 330 02:24 09.12.2019
2959 Clouds 14 1029 100 10000 3.6 330 01:42 09.12.2019
2960 Clouds 14 1029 93 10000 3.6 340 00:46 09.12.2019
2961 Clouds 14 1029 93 10000 4.1 340 00:26 09.12.2019
2962 Clouds 15 1029 93 10000 3.6 10 23:41 08.12.2019
2963 Clouds 15 1028 100 10000 5.1 350 23:23 08.12.2019
2964 Clouds 15 1028 93 10000 3.6 340 22:57 08.12.2019
2965 Clouds 15 1028 93 10000 3.6 320 22:38 08.12.2019
2966 Clouds 15 1028 93 10000 3.6 320 22:19 08.12.2019
2967 Clouds 15 1028 93 10000 2.6 330 21:58 08.12.2019
2968 Clouds 15 1028 93 10000 2.6 330 21:40 08.12.2019
2969 Clouds 15 1028 93 10000 2.1 330 21:20 08.12.2019
2970 Clouds 16 1028 100 10000 2.1 300 20:57 08.12.2019
2971 Clouds 16 1027 93 10000 1.5 290 20:38 08.12.2019
2972 Clouds 16 1027 93 10000 1.5 290 20:20 08.12.2019
2973 Clouds 16 1027 100 10000 2.1 300 19:58 08.12.2019
2974 Clouds 16 1027 100 10000 2.1 310 19:40 08.12.2019
2975 Clouds 16 1027 100 10000 2.1 310 19:22 08.12.2019
2976 Clouds 16 1027 100 10000 2.6 270 18:55 08.12.2019
2977 Clouds 16 1026 100 10000 1.5 240 18:37 08.12.2019
2978 Clouds 16 1026 100 10000 1.5 240 18:18 08.12.2019
2979 Clouds 16 1026 100 10000 2.1 230 17:56 08.12.2019
2980 Clouds 16 1026 100 10000 2.6 220 17:38 08.12.2019
2981 Clouds 16 1026 100 10000 2.6 220 17:19 08.12.2019
2982 Mist 16 1026 100 5000 2.6 230 16:56 08.12.2019
2983 Mist 16 1026 100 2500 3.1 230 16:38 08.12.2019
2984 Mist 16 1026 100 2500 3.1 230 16:20 08.12.2019
2985 Mist 16 1026 100 2500 3.1 240 15:54 08.12.2019
2986 Mist 16 1026 100 2500 3.1 230 15:36 08.12.2019
2987 Mist 16 1026 100 2500 3.1 230 15:18 08.12.2019
2988 Clouds 16 1027 93 6000 2.6 250 14:41 08.12.2019
2989 Clouds 16 1027 93 6000 2.6 250 14:22 08.12.2019
2990 Clouds 16 1027 93 9000 3.1 240 13:57 08.12.2019
2991 Clouds 16 1027 100 10000 2.6 230 13:39 08.12.2019
2992 Clouds 16 1027 100 10000 2.6 230 13:21 08.12.2019
2993 Clouds 15 1028 100 10000 2.6 250 12:55 08.12.2019
2994 Clouds 15 1028 100 10000 3.1 240 12:37 08.12.2019
2995 Clouds 15 1028 100 10000 3.1 240 12:18 08.12.2019
2996 Clouds 15 1028 100 10000 2.6 230 11:55 08.12.2019
2997 Clouds 15 1027 100 7000 2.6 230 11:37 08.12.2019
2998 Clouds 15 1027 100 7000 2.6 230 11:18 08.12.2019
2999 Mist 14 1027 100 4000 2.6 260 10:39 08.12.2019
3000 Mist 14 1027 100 4000 2.6 260 10:21 08.12.2019
3001 Fog 14 1027 100 800 1.5 240 09:58 08.12.2019
3002 Mist 13 1027 100 1200 1.5 240 09:39 08.12.2019
3003 Mist 13 1027 100 1200 1.5 240 09:20 08.12.2019
3004 Mist 13 1026 100 10000 1.5 220 08:59 08.12.2019
3005 Mist 13 1026 100 2500 1 0 08:39 08.12.2019
3006 Mist 13 1026 100 2500 1 0 08:21 08.12.2019
3007 Mist 13 1026 100 2500 2.1 240 07:45 08.12.2019
3008 Mist 13 1026 100 2000 1.5 230 07:20 08.12.2019
3009 Drizzle 13 1026 100 1500 1 230 06:52 08.12.2019
3010 Mist 13 1026 100 2400 1.5 200 06:23 08.12.2019
3011 Clouds 13 1026 93 10000 1 210 05:52 08.12.2019
3012 Clouds 12 1026 93 10000 1 190 05:19 08.12.2019
3013 Clouds 12 1026 93 10000 1 200 03:55 08.12.2019
3014 Clouds 13 1026 93 10000 0.5 0 03:37 08.12.2019
3015 Clouds 12 1026 93 10000 1 300 02:40 08.12.2019
3016 Clouds 12 1026 87 10000 1.5 0 01:57 08.12.2019
3017 Clouds 12 1027 87 10000 1 0 01:33 08.12.2019
3018 Clouds 12 1026 87 10000 1.5 310 00:43 08.12.2019
3019 Clouds 12 1027 87 10000 2.1 330 00:21 08.12.2019
3020 Clouds 13 1026 82 10000 1 0 23:55 07.12.2019
3021 Clouds 12 1026 82 10000 1 0 23:36 07.12.2019
3022 Clear 12 1026 82 10000 1 0 23:18 07.12.2019
3023 Clear 12 1026 82 10000 1 0 22:54 07.12.2019
3024 Clear 12 1026 82 10000 1 0 22:36 07.12.2019
3025 Clear 12 1026 82 10000 1 0 22:18 07.12.2019
3026 Clear 12 1026 82 10000 4.6 310 21:54 07.12.2019
3027 Clear 12 1026 82 10000 3.1 330 21:36 07.12.2019
3028 Clear 13 1026 82 10000 3.1 330 21:18 07.12.2019
3029 Clear 13 1025 82 10000 2.6 330 20:37 07.12.2019
3030 Clouds 13 1025 82 10000 2.6 330 20:19 07.12.2019
3031 Clouds 13 1025 76 10000 3.1 310 19:57 07.12.2019
3032 Clouds 13 1025 76 10000 3.1 310 19:57 07.12.2019
3033 Clouds 13 1025 76 10000 4.1 330 19:39 07.12.2019
3034 Clouds 14 1025 76 10000 4.1 330 19:21 07.12.2019
3035 Clouds 14 1025 76 10000 2.6 330 18:58 07.12.2019
3036 Clouds 14 1025 72 10000 2.1 310 18:39 07.12.2019
3037 Clouds 14 1025 72 10000 2.1 310 18:18 07.12.2019
3038 Clouds 15 1024 77 10000 3.1 310 17:55 07.12.2019
3039 Clouds 15 1024 67 10000 3.1 330 17:37 07.12.2019
3040 Clouds 15 1024 67 10000 3.1 330 17:18 07.12.2019
3041 Clouds 16 1024 67 10000 4.1 330 16:55 07.12.2019
3042 Clouds 16 1024 63 10000 3.1 330 16:36 07.12.2019
3043 Clouds 16 1024 63 10000 3.1 330 16:18 07.12.2019
3044 Clouds 16 1024 67 10000 2.6 100 15:40 07.12.2019
3045 Clouds 16 1024 67 10000 2.6 100 15:22 07.12.2019
3046 Clouds 16 1024 67 10000 1.5 0 14:43 07.12.2019
3047 Clouds 15 1025 67 10000 1.5 30 14:20 07.12.2019
3048 Clouds 15 1025 72 10000 2.1 60 13:59 07.12.2019
3049 Clouds 15 1025 76 10000 1.5 80 13:39 07.12.2019
3050 Clouds 15 1025 76 10000 1.5 80 13:20 07.12.2019
3051 Clouds 14 1026 82 10000 2.1 90 12:55 07.12.2019
3052 Clouds 14 1026 76 10000 3.1 60 12:36 07.12.2019
3053 Clouds 13 1026 76 10000 3.1 60 12:18 07.12.2019
3054 Clouds 12 1026 76 10000 3.1 50 11:41 07.12.2019
3055 Clouds 12 1025 76 10000 2.6 340 11:23 07.12.2019
3056 Clouds 11 1025 81 10000 2.1 340 10:56 07.12.2019
3057 Clouds 11 1025 87 10000 1.5 10 10:36 07.12.2019
3058 Clouds 11 1025 87 10000 1.5 10 10:18 07.12.2019
3059 Clouds 10 1024 87 10000 1.5 350 09:39 07.12.2019
3060 Clouds 10 1024 87 10000 1.5 350 09:21 07.12.2019
3061 Clouds 9 1024 87 10000 2.6 330 08:46 07.12.2019
3062 Clouds 9 1024 87 10000 2.6 330 08:46 07.12.2019
3063 Clouds 9 1024 93 10000 1.5 360 08:25 07.12.2019
3064 Clouds 9 1024 93 10000 1.5 360 08:25 07.12.2019
3065 Clouds 9 1024 93 10000 1.5 360 08:25 07.12.2019
3066 Clouds 9 1023 87 10000 2.1 50 07:53 07.12.2019
3067 Clouds 9 1023 87 10000 2.1 50 07:53 07.12.2019
3068 Clouds 9 1023 87 10000 2.6 320 07:29 07.12.2019
3069 Clouds 9 1023 87 10000 2.1 320 06:53 07.12.2019
3070 Clouds 9 1023 87 10000 3.6 310 06:28 07.12.2019
3071 Clouds 9 1023 87 10000 3.1 320 05:50 07.12.2019
3072 Clear 10 1023 81 10000 3.6 320 04:48 07.12.2019
3073 Clear 9 1023 76 10000 3.6 320 03:52 07.12.2019
3074 Clear 10 1023 81 10000 3.1 310 02:47 07.12.2019
3075 Clear 10 1023 81 10000 3.1 320 02:18 07.12.2019
3076 Clear 10 1023 81 10000 2.6 320 01:30 07.12.2019
3077 Clear 11 1023 81 10000 1 0 00:43 07.12.2019
3078 Clear 10 1023 81 10000 3.1 310 00:19 07.12.2019
3079 Clear 11 1023 71 10000 2.6 320 23:45 06.12.2019
3080 Clear 11 1023 71 10000 3.6 320 23:23 06.12.2019
3081 Clear 11 1023 71 10000 3.6 310 22:58 06.12.2019
3082 Clear 12 1023 71 10000 3.6 310 22:37 06.12.2019
3083 Clear 12 1023 71 10000 3.6 310 22:18 06.12.2019
3084 Clear 12 1023 71 10000 2.6 300 21:56 06.12.2019
3085 Clear 12 1023 66 10000 4.1 330 21:37 06.12.2019
3086 Clear 12 1023 66 10000 4.1 330 21:19 06.12.2019
3087 Clear 13 1022 71 10000 4.1 330 20:42 06.12.2019
3088 Clouds 13 1022 71 10000 4.1 330 20:22 06.12.2019
3089 Clouds 13 1022 71 10000 4.1 330 19:57 06.12.2019
3090 Clouds 14 1021 67 10000 3.1 340 19:39 06.12.2019
3091 Clouds 14 1021 67 10000 3.1 340 19:20 06.12.2019
3092 Clouds 15 1021 67 10000 3.1 360 18:44 06.12.2019
3093 -273 0 0 0 0 0 18:23 06.12.2019
3094 Clouds 16 1021 59 10000 4.6 360 17:58 06.12.2019
3095 Clouds 17 1021 59 10000 4.6 360 17:40 06.12.2019
3096 Clouds 17 1021 55 10000 5.1 20 17:22 06.12.2019
3097 Clouds 17 1020 59 10000 5.1 40 16:59 06.12.2019
3098 Clouds 17 1021 59 10000 5.1 40 16:40 06.12.2019
3099 Clouds 17 1021 59 10000 5.1 40 16:21 06.12.2019
3100 Clouds 17 1021 59 10000 5.1 60 15:56 06.12.2019
3101 Clouds 17 1021 59 10000 6.2 50 15:38 06.12.2019
3102 Clouds 17 1021 59 10000 6.2 50 15:18 06.12.2019
3103 Clouds 17 1021 63 10000 5.7 50 14:41 06.12.2019
3104 Clouds 15 1022 62 10000 5.7 60 14:20 06.12.2019
3105 Clouds 15 1022 62 10000 5.7 60 13:58 06.12.2019
3106 Clouds 15 1022 62 10000 5.1 40 13:40 06.12.2019
3107 Clouds 15 1022 62 10000 5.1 40 13:22 06.12.2019
3108 Clouds 15 1023 67 10000 5.7 40 12:41 06.12.2019
3109 Clouds 15 1023 67 10000 5.7 40 12:22 06.12.2019
3110 Clouds 15 1023 67 10000 5.7 40 11:56 06.12.2019
3111 Clouds 14 1023 66 10000 6.2 40 11:37 06.12.2019
3112 Clear 14 1023 66 10000 6.2 40 11:19 06.12.2019
3113 Clear 13 1022 71 10000 5.1 30 10:42 06.12.2019
3114 Clear 12 1022 71 10000 5.1 30 10:21 06.12.2019
3115 Clear 11 1021 76 10000 5.7 30 09:57 06.12.2019
3116 Clear 11 1021 71 10000 5.7 50 09:37 06.12.2019
3117 Clear 11 1021 71 10000 5.7 50 09:37 06.12.2019
3118 Clear 11 1021 71 10000 5.7 50 09:19 06.12.2019
3119 Clear 11 1021 71 10000 5.7 40 08:45 06.12.2019
3120 Clear 11 1021 71 10000 5.7 30 08:26 06.12.2019
3121 Clear 11 1020 66 10000 6.7 40 07:44 06.12.2019
3122 Clear 11 1020 66 10000 6.7 30 07:24 06.12.2019
3123 Clear 11 1020 71 10000 6.2 30 06:59 06.12.2019
3124 Clear 11 1020 66 10000 6.2 40 06:28 06.12.2019
3125 Clear 11 1020 66 10000 5.7 40 05:53 06.12.2019
3126 Clear 11 1020 66 10000 5.7 40 05:21 06.12.2019
3127 Clear 12 1019 62 10000 6.2 40 02:19 06.12.2019
3128 Clear 13 1020 66 10000 6.2 40 01:22 06.12.2019
3129 Clear 13 1020 66 10000 5.7 30 00:39 06.12.2019
3130 Clear 13 1020 66 10000 5.7 30 00:20 06.12.2019
3131 Clear 12 1019 71 10000 4.6 30 23:41 05.12.2019
3132 Clear 13 1019 71 10000 4.6 30 23:18 05.12.2019
3133 Clear 13 1019 71 10000 3.1 360 22:56 05.12.2019
3134 Clear 12 1019 71 10000 4.1 10 22:37 05.12.2019
3135 Clear 12 1019 71 10000 4.1 10 22:18 05.12.2019
3136 Clear 12 1019 71 10000 3.6 360 21:43 05.12.2019
3137 Clear 12 1018 66 10000 3.6 350 21:24 05.12.2019
3138 Clear 12 1018 62 10000 4.1 30 20:59 05.12.2019
3139 Clear 13 1018 62 10000 5.7 30 20:40 05.12.2019
3140 Clouds 13 1017 62 10000 6.2 30 20:20 05.12.2019
3141 Clouds 13 1017 62 10000 6.2 30 19:56 05.12.2019
3142 Clouds 14 1017 62 10000 5.1 30 19:38 05.12.2019
3143 Clouds 14 1017 62 10000 4.6 10 19:19 05.12.2019
3144 Clouds 14 1016 58 10000 5.1 20 18:54 05.12.2019
3145 Clouds 15 1016 58 10000 5.1 20 18:36 05.12.2019
3146 Clouds 15 1016 62 10000 5.1 20 18:18 05.12.2019
3147 Clouds 16 1016 59 10000 6.2 30 17:39 05.12.2019
3148 Clouds 16 1016 55 10000 6.2 40 17:19 05.12.2019
3149 Clouds 16 1016 55 10000 6.2 40 16:57 05.12.2019
3150 Clouds 16 1016 55 10000 5.7 50 16:38 05.12.2019
3151 Clouds 16 1016 55 10000 5.7 50 16:38 05.12.2019
3152 Clouds 16 1016 55 10000 5.7 40 16:20 05.12.2019
3153 Clouds 16 1016 55 10000 5.7 40 15:56 05.12.2019
3154 Clouds 16 1016 58 10000 6.7 40 15:37 05.12.2019
3155 Clouds 16 1016 58 10000 6.2 40 15:19 05.12.2019
3156 Clouds 16 1016 58 10000 6.7 50 14:55 05.12.2019
3157 Clouds 16 1016 58 10000 6.7 50 14:36 05.12.2019
3158 Clear 15 1017 58 10000 7.2 50 14:18 05.12.2019
3159 Clear 15 1017 58 10000 7.2 50 13:56 05.12.2019
3160 Clear 15 1017 58 10000 6.2 50 13:37 05.12.2019
3161 Clouds 15 1017 54 10000 8.2 40 13:18 05.12.2019
3162 Clouds 15 1017 58 10000 5.7 30 12:43 05.12.2019
3163 Clouds 14 1017 71 10000 3.6 40 12:24 05.12.2019
3164 Clouds 14 1017 71 10000 3.6 40 11:59 05.12.2019
3165 Clouds 13 1017 76 10000 2.6 40 11:38 05.12.2019
3166 Clear 13 1016 76 10000 2.1 50 11:20 05.12.2019
3167 Clear 13 1016 76 10000 2.1 50 11:20 05.12.2019
3168 Clear 12 1016 76 10000 2.1 50 10:57 05.12.2019
3169 Clear 12 1016 71 10000 2.1 50 10:38 05.12.2019
3170 Clear 10 1016 76 10000 2.6 10 10:18 05.12.2019
3171 Clear 9 1015 71 10000 1 0 09:46 05.12.2019
3172 Clear 8 1015 76 10000 1.5 320 09:24 05.12.2019
3173 Clear 8 1015 76 10000 1.5 320 08:59 05.12.2019
3174 Clear 8 1015 76 10000 2.1 20 08:39 05.12.2019
3175 Clouds 9 1015 76 10000 1.5 350 08:20 05.12.2019
3176 Clouds 9 1014 81 10000 3.1 340 07:54 05.12.2019
3177 Clouds 9 1014 81 10000 3.1 340 07:36 05.12.2019
3178 Clouds 10 1014 71 10000 2.6 330 07:18 05.12.2019
3179 Clouds 11 1014 71 10000 3.1 310 06:41 05.12.2019
3180 Clouds 10 1014 71 10000 4.1 320 06:20 05.12.2019
3181 Clouds 10 1014 71 10000 3.1 320 05:47 05.12.2019
3182 Clouds 10 1014 66 10000 3.6 320 05:23 05.12.2019
3183 Clouds 11 1013 76 10000 4.1 330 04:25 05.12.2019
3184 Clouds 11 1013 71 10000 4.1 340 02:54 05.12.2019
3185 Clouds 11 1013 76 10000 5.7 340 02:25 05.12.2019
3186 Clouds 11 1013 71 10000 5.7 340 01:53 05.12.2019
3187 Clouds 11 1013 71 10000 5.7 340 01:27 05.12.2019
3188 Clouds 11 1013 76 10000 5.7 340 01:27 05.12.2019
3189 Clouds 11 1013 76 10000 4.6 330 00:54 05.12.2019
3190 Clouds 11 1013 76 10000 4.6 330 00:36 05.12.2019
3191 Clouds 11 1013 71 10000 6.2 330 00:18 05.12.2019
3192 Clouds 11 1013 71 10000 4.1 330 23:40 04.12.2019
3193 Clear 11 1013 71 10000 5.1 330 23:22 04.12.2019
3194 Clear 11 1013 76 10000 4.6 320 22:57 04.12.2019
3195 Clear 11 1013 76 10000 4.6 320 22:36 04.12.2019
3196 Clear 11 1012 81 10000 4.1 330 22:18 04.12.2019
3197 Clear 11 1012 81 10000 4.1 320 21:55 04.12.2019
3198 Clear 11 1012 81 10000 4.1 320 21:37 04.12.2019
3199 Clear 11 1012 76 10000 3.1 320 21:18 04.12.2019
3200 Clouds 11 1011 76 10000 2.6 310 20:56 04.12.2019
3201 Clouds 11 1011 76 10000 2.6 310 20:37 04.12.2019
3202 Clouds 11 1011 76 10000 2.6 310 20:19 04.12.2019
3203 Clouds 11 1011 76 10000 1.5 330 19:40 04.12.2019
3204 Clouds 11 1010 76 10000 2.1 10 19:22 04.12.2019
3205 Clouds 12 1010 76 10000 2.1 10 18:58 04.12.2019
3206 Clouds 12 1010 71 10000 2.1 50 18:40 04.12.2019
3207 Clouds 12 1010 71 10000 3.1 30 18:22 04.12.2019
3208 Clouds 12 1010 71 10000 3.1 30 17:57 04.12.2019
3209 Clouds 13 1010 71 10000 2.6 30 17:38 04.12.2019
3210 Clouds 13 1010 76 10000 2.6 50 17:18 04.12.2019
3211 Clouds 13 1010 71 10000 2.6 60 16:40 04.12.2019
3212 Clouds 13 1010 71 10000 2.6 60 16:40 04.12.2019
3213 Clouds 13 1010 76 10000 4.6 70 16:20 04.12.2019
3214 Clouds 13 1010 62 10000 3.1 20 15:58 04.12.2019
3215 Clouds 14 1010 62 10000 3.1 20 15:40 04.12.2019
3216 Clouds 13 1010 71 10000 3.6 0 15:20 04.12.2019
3217 Clouds 13 1010 71 10000 3.6 0 14:59 04.12.2019
3218 Clouds 12 1010 71 10000 3.6 60 14:40 04.12.2019
3219 Clouds 12 1011 76 10000 4.1 60 14:21 04.12.2019
3220 Clouds 12 1011 71 10000 2.6 60 13:56 04.12.2019
3221 Clouds 12 1011 71 10000 2.6 60 13:36 04.12.2019
3222 Clouds 12 1011 76 10000 3.1 70 13:18 04.12.2019
3223 Clouds 12 1011 81 10000 2.6 50 12:41 04.12.2019
3224 Clouds 11 1011 87 10000 2.1 0 12:23 04.12.2019
3225 Clouds 11 1011 87 10000 1.5 110 11:44 04.12.2019
3226 Clouds 10 1011 87 10000 2.1 60 11:26 04.12.2019
3227 Clouds 9 1011 87 10000 2.1 60 10:58 04.12.2019
3228 Clouds 9 1011 87 10000 3.1 330 10:40 04.12.2019
3229 Clouds 8 1011 87 10000 2.6 310 10:22 04.12.2019
3230 Clouds 7 1011 93 10000 2.6 270 09:44 04.12.2019
3231 Clouds 7 1011 100 10000 1 300 09:24 04.12.2019
3232 Clouds 7 1011 100 10000 0.5 0 08:54 04.12.2019
3233 Clouds 6 1011 100 10000 0.5 0 08:36 04.12.2019
3234 Clouds 6 1011 93 10000 2.07 19 08:18 04.12.2019
3235 Clouds 6 1010 93 10000 0.5 0 07:41 04.12.2019
3236 Clouds 6 1011 100 10000 1.5 280 07:22 04.12.2019
3237 Clouds 6 1011 87 10000 2.1 60 06:33 04.12.2019
3238 Clouds 7 1011 87 10000 2.1 270 05:47 04.12.2019
3239 Clear 8 1012 81 10000 3.1 300 04:43 04.12.2019
3240 Clear 8 1012 87 10000 2.1 310 03:54 04.12.2019
3241 Clear 8 1013 81 10000 3.1 310 02:21 04.12.2019
3242 Clear 9 1014 76 10000 4.1 300 00:50 04.12.2019
3243 Clear 9 1014 81 10000 3.6 320 00:23 04.12.2019
3244 Clear 9 1014 76 10000 4.1 300 23:56 03.12.2019
3245 Clear 9 1014 76 10000 4.1 300 23:38 03.12.2019
3246 Clear 9 1014 81 10000 3.6 300 23:18 03.12.2019
3247 Clear 10 1014 81 10000 3.1 310 22:40 03.12.2019
3248 Clear 10 1014 76 10000 3.6 320 22:19 03.12.2019
3249 Clear 10 1013 76 10000 3.6 310 21:58 03.12.2019
3250 Clear 10 1013 76 10000 3.6 310 21:37 03.12.2019
3251 Clear 10 1013 76 10000 4.6 310 21:19 03.12.2019
3252 Clear 11 1013 71 10000 4.6 300 20:57 03.12.2019
3253 Clear 11 1013 71 10000 4.6 300 20:38 03.12.2019
3254 Clear 11 1013 66 10000 3.6 310 20:18 03.12.2019
3255 Clear 11 1013 66 10000 3.1 310 19:55 03.12.2019
3256 Clear 11 1013 66 10000 3.1 310 19:37 03.12.2019
3257 Clear 12 1013 62 10000 3.6 320 19:18 03.12.2019
3258 Clear 12 1013 62 10000 3.1 320 18:55 03.12.2019
3259 Clear 12 1013 62 10000 3.1 320 18:37 03.12.2019
3260 Clear 13 1013 58 10000 3.1 310 18:19 03.12.2019
3261 Clear 13 1013 58 10000 3.1 310 18:19 03.12.2019
3262 Clear 14 1012 48 10000 3.6 360 17:40 03.12.2019
3263 Clear 15 1013 55 10000 3.1 20 17:19 03.12.2019
3264 Clear 15 1013 55 10000 3.1 20 16:59 03.12.2019
3265 Clear 15 1013 55 10000 3.1 40 16:40 03.12.2019
3266 Clear 15 1013 48 10000 4.1 40 16:21 03.12.2019
3267 Clear 16 1013 48 10000 4.1 40 15:59 03.12.2019
3268 Clear 15 1013 54 10000 3.6 40 15:40 03.12.2019
3269 Clear 15 1013 58 10000 3.6 60 15:20 03.12.2019
3270 Clear 15 1013 58 10000 3.6 60 14:58 03.12.2019
3271 -273 0 0 0 0 0 14:40 03.12.2019
3272 Clear 14 1014 54 10000 5.7 50 14:19 03.12.2019
3273 Clear 14 1015 58 10000 6.7 40 13:39 03.12.2019
3274 Clear 13 1015 58 10000 5.1 50 13:21 03.12.2019
3275 Clear 13 1016 58 10000 4.6 50 12:59 03.12.2019
3276 Clear 13 1016 58 10000 4.6 50 12:38 03.12.2019
3277 Clear 13 1016 58 10000 4.6 50 12:38 03.12.2019
3278 Clear 13 1016 58 10000 7.2 40 12:18 03.12.2019
3279 Clear 13 1016 57 10000 6.2 40 11:58 03.12.2019
3280 Clear 13 1016 57 10000 6.2 40 11:58 03.12.2019
3281 Clear 12 1016 57 10000 6.2 40 11:38 03.12.2019
3282 Clear 12 1016 57 10000 5.7 40 11:20 03.12.2019
3283 Clear 12 1016 57 10000 5.7 40 11:20 03.12.2019
3284 Clear 11 1016 61 10000 5.7 30 10:56 03.12.2019
3285 Clear 11 1016 61 10000 5.7 30 10:38 03.12.2019
3286 Clear 11 1016 61 10000 5.7 30 10:38 03.12.2019
3287 Clear 10 1015 66 10000 5.1 40 10:19 03.12.2019
3288 Clear 9 1015 70 10000 4.1 40 09:45 03.12.2019
3289 Clear 10 1015 70 10000 5.1 40 09:25 03.12.2019
3290 Clear 10 1015 70 10000 5.1 40 08:59 03.12.2019
3291 Clear 10 1015 70 10000 5.1 40 08:39 03.12.2019
3292 Clear 9 1015 66 10000 5.1 40 08:21 03.12.2019
3293 Clear 8 1015 66 10000 5.1 30 07:53 03.12.2019
3294 Clear 9 1015 66 10000 5.1 30 07:29 03.12.2019
3295 Clear 9 1015 66 10000 5.1 30 07:29 03.12.2019
3296 Clear 9 1015 66 10000 4.6 30 06:56 03.12.2019
3297 Clear 9 1015 66 10000 5.7 30 06:21 03.12.2019
3298 Clear 9 1015 71 10000 5.1 30 05:55 03.12.2019
3299 Clear 9 1015 66 10000 6.2 40 03:44 03.12.2019
3300 Clear 9 1015 66 10000 6.2 30 03:23 03.12.2019
3301 Clear 10 1015 62 10000 6.2 40 02:57 03.12.2019
3302 Clear 10 1015 62 10000 6.2 40 02:39 03.12.2019
3303 Clear 11 1015 62 10000 7.2 30 02:21 03.12.2019
3304 Clear 11 1015 62 10000 7.2 40 01:40 03.12.2019
3305 Clear 11 1015 62 10000 7.2 40 01:21 03.12.2019
3306 Clear 10 1015 62 10000 6.7 30 00:43 03.12.2019
3307 Clear 11 1015 58 10000 8.2 30 00:25 03.12.2019
3308 Clear 11 1015 58 10000 7.2 30 23:44 02.12.2019
3309 Clear 12 1015 62 10000 6.7 30 23:23 02.12.2019
3310 Clear 12 1015 62 10000 6.7 30 22:59 02.12.2019
3311 Clear 12 1015 58 10000 5.7 30 22:39 02.12.2019
3312 Clear 12 1015 58 10000 7.2 30 22:21 02.12.2019
3313 Clear 12 1015 58 10000 6.7 20 21:57 02.12.2019
3314 Clear 12 1015 58 10000 6.7 20 21:36 02.12.2019
3315 Clear 13 1014 58 10000 6.7 20 21:18 02.12.2019
3316 Clear 13 1014 58 10000 6.2 10 20:55 02.12.2019
3317 Clear 13 1014 58 10000 6.2 10 20:55 02.12.2019
3318 Clear 13 1014 58 10000 6.2 10 20:55 02.12.2019
3319 Clear 13 1014 58 10000 6.2 10 20:37 02.12.2019
3320 Clear 13 1014 54 10000 6.7 20 20:18 02.12.2019
3321 Clouds 13 1013 54 10000 7.2 20 19:42 02.12.2019
3322 Clouds 14 1013 54 10000 6.7 20 19:21 02.12.2019
3323 Clouds 14 1013 54 10000 6.7 20 19:21 02.12.2019
3324 Clouds 14 1013 58 10000 7.2 30 18:57 02.12.2019
3325 Clouds 14 1013 54 10000 6.7 20 18:57 02.12.2019
3326 Clouds 14 1013 58 10000 7.2 30 18:57 02.12.2019
3327 Clouds 14 1013 58 10000 7.2 30 18:38 02.12.2019
3328 Clouds 14 1013 54 10000 8.7 40 18:18 02.12.2019
3329 Clouds 15 1013 54 10000 9.3 40 17:57 02.12.2019
3330 Clouds 15 1013 54 10000 9.3 40 17:57 02.12.2019
3331 Clouds 15 1013 54 10000 9.3 40 17:38 02.12.2019
3332 Clouds 15 1012 54 10000 8.7 40 17:18 02.12.2019
3333 Clouds 16 1013 54 10000 8.2 40 16:40 02.12.2019
3334 Clouds 15 1013 58 10000 8.7 30 16:19 02.12.2019
3335 Clouds 15 1013 58 10000 8.7 30 15:58 02.12.2019
3336 Clouds 15 1013 58 10000 8.7 30 15:39 02.12.2019
3337 Clouds 15 1013 58 10000 8.7 40 15:21 02.12.2019
3338 Clouds 15 1013 58 10000 8.7 40 14:59 02.12.2019
3339 Clouds 15 1013 54 10000 9.3 30 14:38 02.12.2019
3340 Clouds 15 1013 58 10000 10.3 40 14:19 02.12.2019
3341 Clouds 15 1014 58 10000 9.3 40 13:57 02.12.2019
3342 Clouds 15 1014 58 10000 9.3 40 13:39 02.12.2019
3343 Clouds 14 1014 58 10000 9.3 30 13:19 02.12.2019
3344 Clouds 14 1014 58 10000 8.7 40 12:54 02.12.2019
3345 Clouds 14 1014 58 10000 8.7 40 12:54 02.12.2019
3346 Clouds 14 1014 58 10000 8.7 40 12:36 02.12.2019
3347 Clouds 13 1014 62 10000 8.2 20 12:18 02.12.2019
3348 Clouds 13 1014 66 10000 6.2 360 11:38 02.12.2019
3349 Clouds 12 1014 66 10000 6.2 350 11:20 02.12.2019
3350 Clouds 12 1014 66 10000 6.2 350 11:20 02.12.2019
3351 Clouds 11 1014 71 10000 6.7 350 10:58 02.12.2019
3352 Clouds 11 1014 71 10000 6.7 350 10:40 02.12.2019
3353 Clouds 10 1013 71 10000 6.2 350 10:21 02.12.2019
3354 Clouds 10 1013 71 10000 6.2 350 09:56 02.12.2019
3355 Clouds 10 1013 71 10000 7.2 350 09:38 02.12.2019
3356 Clouds 9 1013 71 10000 7.2 350 09:18 02.12.2019
3357 Clouds 9 1013 71 10000 7.2 350 09:18 02.12.2019
3358 Clouds 10 1013 76 10000 7.2 350 08:55 02.12.2019
3359 Clouds 9 1013 76 10000 7.2 350 08:37 02.12.2019
3360 Clouds 10 1012 76 10000 6.7 350 08:18 02.12.2019
3361 Clouds 10 1012 76 10000 8.2 340 07:39 02.12.2019
3362 Clear 10 1012 76 10000 7.7 340 07:20 02.12.2019
3363 Clear 10 1012 76 10000 7.7 340 06:43 02.12.2019
3364 Clear 10 1012 71 10000 8.2 340 06:20 02.12.2019
3365 Clear 10 1012 76 10000 7.7 340 05:19 02.12.2019
3366 Clear 11 1012 76 10000 8.2 350 04:19 02.12.2019
3367 Clear 12 1012 76 10000 7.2 340 02:51 02.12.2019
3368 Clear 12 1013 81 10000 7.2 350 01:50 02.12.2019
3369 Clear 12 1012 81 10000 6.2 330 01:21 02.12.2019
3370 Clouds 12 1013 81 10000 6.7 350 00:41 02.12.2019
3371 Clouds 12 1013 87 10000 7.7 340 00:22 02.12.2019
3372 Clouds 12 1013 81 10000 6.7 340 23:43 01.12.2019
3373 Clouds 13 1012 82 10000 8.2 340 23:22 01.12.2019
3374 Clouds 13 1012 82 10000 7.7 340 22:57 01.12.2019
3375 Clouds 13 1012 82 10000 7.7 340 22:57 01.12.2019
3376 Clouds 13 1012 82 10000 7.7 340 22:38 01.12.2019
3377 Clouds 13 1012 76 10000 8.7 340 22:19 01.12.2019
3378 Clouds 13 1012 76 10000 8.7 340 21:57 01.12.2019
3379 Clouds 13 1012 76 10000 8.2 340 21:39 01.12.2019
3380 Clouds 13 1012 82 10000 8.7 340 21:20 01.12.2019
3381 Clouds 13 1012 82 10000 8.7 340 20:58 01.12.2019
3382 Clouds 13 1012 76 10000 7.2 330 20:39 01.12.2019
3383 Clouds 13 1012 76 10000 7.2 340 20:21 01.12.2019
3384 Clouds 13 1012 76 10000 6.2 340 19:58 01.12.2019
3385 Clouds 13 1012 76 10000 6.2 340 19:39 01.12.2019
3386 Clouds 13 1011 82 10000 5.1 340 19:20 01.12.2019
3387 Clouds 13 1011 82 10000 5.1 340 18:56 01.12.2019
3388 Clouds 14 1011 76 10000 6.7 330 18:38 01.12.2019
3389 Clouds 14 1011 76 10000 6.7 330 18:38 01.12.2019
3390 Clouds 14 1011 71 10000 5.7 340 18:19 01.12.2019
3391 Clouds 14 1011 76 10000 6.7 310 17:56 01.12.2019
3392 Clouds 14 1011 76 10000 6.7 310 17:38 01.12.2019
3393 Rain 14 1011 76 10000 7.2 320 17:20 01.12.2019
3394 Rain 14 1011 76 10000 7.2 320 17:20 01.12.2019
3395 Clouds 14 1011 76 10000 5.7 310 16:54 01.12.2019
3396 Clouds 14 1011 76 10000 5.7 310 16:36 01.12.2019
3397 Clouds 15 1011 72 10000 6.7 330 16:18 01.12.2019
3398 Rain 15 1011 77 10000 7.7 310 15:44 01.12.2019
3399 Rain 15 1011 77 10000 7.7 310 15:44 01.12.2019
3400 Rain 15 1011 77 10000 5.7 310 15:26 01.12.2019
3401 Rain 15 1011 77 10000 5.7 310 15:26 01.12.2019
3402 Rain 15 1011 77 10000 5.7 310 15:26 01.12.2019
3403 Rain 15 1011 77 10000 5.7 310 15:26 01.12.2019
3404 Rain 14 1012 87 10000 6.2 320 14:39 01.12.2019
3405 Clouds 14 1012 87 10000 5.7 290 14:19 01.12.2019
3406 Rain 14 1013 82 10000 5.1 300 13:56 01.12.2019
3407 Rain 14 1013 82 10000 5.1 300 13:37 01.12.2019
3408 Rain 14 1013 77 10000 6.2 300 13:18 01.12.2019
3409 Clouds 14 1013 72 10000 4.6 300 12:41 01.12.2019
3410 Clouds 14 1013 82 10000 5.1 300 11:55 01.12.2019
3411 Clouds 14 1013 82 10000 5.1 300 11:37 01.12.2019
3412 Rain 14 1013 87 10000 4.6 300 11:18 01.12.2019
3413 Clouds 13 1013 87 10000 3.1 300 10:43 01.12.2019
3414 Clouds 13 1013 87 10000 4.1 300 10:20 01.12.2019
3415 Clouds 13 1013 87 10000 3.1 290 09:42 01.12.2019
3416 Rain 13 1013 87 10000 3.6 280 09:23 01.12.2019
3417 Rain 13 1013 87 10000 3.6 280 08:58 01.12.2019
3418 Clouds 13 1013 87 10000 3.6 280 08:38 01.12.2019
3419 Clouds 13 1013 87 10000 5.1 270 08:19 01.12.2019
3420 Clouds 13 1013 87 10000 5.1 260 07:49 01.12.2019
3421 Clouds 13 1013 87 10000 5.1 260 07:29 01.12.2019
3422 Clouds 13 1013 87 10000 4.1 250 06:53 01.12.2019
3423 Clouds 12 1014 87 10000 5.1 250 06:19 01.12.2019
3424 Clouds 13 1014 82 10000 4.6 260 05:42 01.12.2019
3425 Clouds 13 1015 87 10000 4.6 230 04:30 01.12.2019
3426 Clouds 13 1016 93 10000 3.6 240 02:47 01.12.2019
3427 Clouds 13 1016 93 10000 3.6 240 02:28 01.12.2019
3428 Clouds 13 1017 87 10000 4.6 240 01:55 01.12.2019
3429 Clouds 13 1017 87 10000 4.6 240 01:37 01.12.2019
3430 Clear 13 1018 87 10000 3.6 250 00:50 01.12.2019
3431 Clear 13 1018 87 10000 3.6 250 00:28 01.12.2019
3432 Clear 13 1018 82 10000 3.6 250 23:59 30.11.2019
3433 Clouds 13 1018 93 10000 3.1 250 23:40 30.11.2019
3434 Clouds 13 1018 87 10000 3.1 270 23:21 30.11.2019
3435 Clouds 14 1019 93 10000 3.1 240 22:47 30.11.2019
3436 Clouds 14 1019 87 10000 3.1 240 22:29 30.11.2019
3437 Clouds 14 1019 87 10000 3.1 250 21:55 30.11.2019
3438 Clouds 14 1019 87 10000 3.1 250 21:37 30.11.2019
3439 Clouds 14 1019 87 10000 3.1 260 21:19 30.11.2019
3440 Clouds 14 1019 93 10000 3.1 260 20:55 30.11.2019
3441 Clouds 14 1019 93 10000 3.1 260 20:36 30.11.2019
3442 Clouds 14 1019 93 10000 2.6 270 20:18 30.11.2019
3443 Clouds 14 1019 87 10000 2.1 280 19:54 30.11.2019
3444 Clouds 14 1019 87 10000 2.1 280 19:36 30.11.2019
3445 Clouds 15 1019 87 10000 3.1 290 19:18 30.11.2019
3446 Clouds 15 1019 87 10000 3.6 280 18:54 30.11.2019
3447 Clouds 15 1019 87 10000 3.6 280 18:54 30.11.2019
3448 Clouds 15 1019 87 10000 3.6 280 18:36 30.11.2019
3449 Clouds 15 1019 82 10000 3.1 290 18:18 30.11.2019
3450 Clouds 15 1019 82 10000 3.1 270 17:55 30.11.2019
3451 Clouds 16 1019 82 10000 3.1 270 17:36 30.11.2019
3452 Clouds 16 1019 82 10000 3.1 290 17:18 30.11.2019
3453 Clouds 16 1018 87 10000 3.1 290 16:42 30.11.2019
3454 Clouds 16 1019 100 10000 4.6 310 16:22 30.11.2019
3455 Drizzle 15 1019 100 4000 5.1 220 15:55 30.11.2019
3456 Drizzle 15 1019 100 4000 5.1 220 15:37 30.11.2019
3457 Clouds 16 1019 93 10000 5.1 230 15:18 30.11.2019
3458 Clouds 16 1020 93 10000 5.1 230 14:55 30.11.2019
3459 Clouds 16 1020 93 10000 5.1 230 14:37 30.11.2019
3460 Clouds 16 1020 100 10000 5.7 220 14:18 30.11.2019
3461 Clouds 16 1020 100 10000 6.2 220 13:45 30.11.2019
3462 Drizzle 16 1021 100 7000 6.2 230 13:26 30.11.2019
3463 Drizzle 16 1021 93 10000 5.7 220 12:58 30.11.2019
3464 Drizzle 16 1021 93 10000 5.7 220 12:40 30.11.2019
3465 Clouds 16 1021 93 10000 5.7 220 12:21 30.11.2019
3466 Drizzle 16 1021 93 10000 6.2 220 11:42 30.11.2019
3467 Clouds 17 1021 93 10000 5.7 230 11:19 30.11.2019
3468 Clouds 17 1021 93 10000 5.7 230 10:56 30.11.2019
3469 Clouds 16 1021 93 10000 4.1 220 10:37 30.11.2019
3470 Clouds 16 1021 100 10000 4.1 220 10:19 30.11.2019
3471 Clouds 16 1021 100 10000 4.6 220 09:46 30.11.2019
3472 Clouds 16 1021 100 10000 3.6 220 09:24 30.11.2019
3473 Clouds 16 1021 100 10000 3.6 210 08:44 30.11.2019
3474 Clouds 16 1021 100 10000 3.6 210 08:22 30.11.2019
3475 Clouds 16 1021 100 10000 3.6 210 07:58 30.11.2019
3476 Clouds 16 1021 100 10000 3.6 210 07:39 30.11.2019
3477 Clouds 16 1021 93 10000 3.1 220 06:59 30.11.2019
3478 Clouds 16 1021 100 10000 3.1 230 06:29 30.11.2019
3479 Clouds 16 1021 100 10000 3.1 230 05:52 30.11.2019
3480 Clouds 16 1022 100 10000 3.1 220 03:53 30.11.2019
3481 Clouds 16 1022 100 10000 3.6 230 02:47 30.11.2019
3482 Clouds 16 1022 100 10000 3.6 220 02:22 30.11.2019
3483 Clouds 16 1022 100 10000 4.1 200 01:25 30.11.2019
3484 Clouds 16 1022 100 10000 3.6 210 00:51 30.11.2019
3485 Clouds 16 1022 100 10000 3.6 210 00:32 30.11.2019
3486 Clouds 16 1022 100 10000 4.1 210 23:59 29.11.2019
3487 Clouds 16 1022 100 10000 4.1 220 23:41 29.11.2019
3488 Clouds 16 1022 100 10000 4.6 220 23:23 29.11.2019
3489 Clouds 16 1022 100 10000 4.6 220 22:46 29.11.2019
3490 Clouds 16 1022 100 10000 4.6 220 22:46 29.11.2019
3491 Clouds 16 1022 100 10000 3.6 230 22:26 29.11.2019
3492 Clouds 16 1022 100 10000 3.1 230 21:45 29.11.2019
3493 Clouds 16 1022 93 10000 3.1 230 21:25 29.11.2019
3494 Clouds 16 1022 100 10000 3.6 220 20:59 29.11.2019
3495 Clouds 16 1022 100 10000 3.6 220 20:39 29.11.2019
3496 Clouds 16 1021 93 10000 4.1 230 20:21 29.11.2019
3497 Clouds 16 1021 93 10000 4.1 230 19:58 29.11.2019
3498 Clouds 17 1021 93 10000 4.1 220 19:39 29.11.2019
3499 Clouds 17 1021 93 10000 4.6 220 19:20 29.11.2019
3500 Clouds 17 1021 93 10000 4.6 220 18:58 29.11.2019
3501 Clouds 17 1021 93 10000 4.1 230 18:40 29.11.2019
3502 Clouds 17 1021 88 10000 5.1 220 18:21 29.11.2019
3503 Clouds 17 1021 88 10000 4.6 220 17:44 29.11.2019
3504 Clouds 18 1021 88 10000 5.1 210 17:26 29.11.2019
3505 Clouds 18 1021 88 10000 5.1 210 16:59 29.11.2019
3506 Clouds 18 1021 82 10000 5.1 220 16:41 29.11.2019
3507 Clouds 18 1021 88 10000 4.6 220 16:19 29.11.2019
3508 Clouds 18 1021 88 10000 4.6 220 16:19 29.11.2019
3509 Clouds 18 1021 93 10000 4.6 220 15:42 29.11.2019
3510 Clouds 18 1021 88 10000 5.1 230 15:24 29.11.2019
3511 Clouds 18 1021 93 10000 4.6 220 14:58 29.11.2019
3512 Clouds 18 1021 93 10000 4.6 220 14:39 29.11.2019
3513 Clouds 18 1022 93 10000 5.1 230 14:21 29.11.2019
3514 Clouds 18 1022 93 10000 4.1 220 13:55 29.11.2019
3515 Clouds 18 1022 93 10000 4.1 220 13:37 29.11.2019
3516 Clouds 17 1022 100 10000 5.1 220 13:19 29.11.2019
3517 Clouds 17 1022 93 10000 4.6 220 12:40 29.11.2019
3518 Clouds 17 1022 100 10000 3.6 230 12:22 29.11.2019
3519 Clouds 17 1022 93 10000 4.1 210 11:55 29.11.2019
3520 Clouds 17 1022 93 10000 4.1 210 11:55 29.11.2019
3521 Clouds 17 1022 93 10000 4.1 210 11:36 29.11.2019
3522 Clouds 17 1022 93 10000 4.1 230 11:18 29.11.2019
3523 Clouds 17 1021 93 10000 3.6 240 10:56 29.11.2019
3524 Clouds 17 1021 93 10000 3.6 240 10:38 29.11.2019
3525 Rain 17 1021 93 10000 4.1 230 10:19 29.11.2019
3526 Rain 16 1020 93 10000 3.6 230 09:56 29.11.2019
3527 Rain 16 1020 93 10000 3.6 230 09:37 29.11.2019
3528 Clouds 16 1020 100 10000 3.1 230 09:19 29.11.2019
3529 Clouds 16 1020 100 10000 3.1 240 08:40 29.11.2019
3530 Clouds 16 1020 93 10000 3.6 240 08:22 29.11.2019
3531 Clouds 16 1020 93 10000 3.6 240 07:59 29.11.2019
3532 Clouds 16 1020 93 10000 3.1 240 07:40 29.11.2019
3533 Clouds 16 1019 100 10000 3.1 240 07:22 29.11.2019
3534 Clouds 16 1019 93 10000 4.1 240 06:46 29.11.2019
3535 Clouds 16 1019 93 10000 4.1 230 05:48 29.11.2019
3536 Clouds 16 1019 100 10000 3.6 230 05:26 29.11.2019
3537 Clouds 16 1019 100 10000 4.6 230 04:35 29.11.2019
3538 Clouds 16 1019 93 10000 4.1 230 03:23 29.11.2019
3539 Clouds 16 1019 93 10000 4.6 230 02:32 29.11.2019
3540 Clouds 16 1019 93 10000 5.1 230 01:57 29.11.2019
3541 Clouds 16 1019 93 10000 4.6 220 01:27 29.11.2019
3542 Clouds 16 1019 100 10000 4.1 230 00:50 29.11.2019
3543 Clouds 16 1019 93 10000 5.1 230 00:22 29.11.2019
3544 Clouds 16 1019 93 10000 5.1 230 23:57 28.11.2019
3545 Clouds 16 1019 93 10000 5.1 230 23:57 28.11.2019
3546 Clouds 16 1019 93 10000 4.1 230 23:39 28.11.2019
3547 Clouds 16 1019 100 10000 4.6 220 23:20 28.11.2019
3548 Clouds 16 1019 93 10000 5.1 230 22:55 28.11.2019
3549 Clouds 16 1019 93 10000 5.1 230 22:36 28.11.2019
3550 Rain 16 1019 100 10000 4.6 220 22:18 28.11.2019
3551 Clouds 16 1018 93 10000 4.6 220 21:42 28.11.2019
3552 Clouds 16 1018 100 10000 5.1 220 21:21 28.11.2019
3553 Clouds 16 1018 100 10000 5.1 220 20:58 28.11.2019
3554 Clouds 16 1018 100 10000 5.1 210 20:40 28.11.2019
3555 Clouds 16 1018 100 10000 4.1 220 20:21 28.11.2019
3556 Clouds 16 1018 93 10000 4.6 220 19:57 28.11.2019
3557 Clouds 16 1018 93 10000 4.6 220 19:37 28.11.2019
3558 Drizzle 16 1018 93 9000 5.1 230 19:19 28.11.2019
3559 Drizzle 16 1018 93 9000 5.1 230 18:57 28.11.2019
3560 Clouds 16 1018 88 10000 5.1 220 18:38 28.11.2019
3561 Clouds 17 1017 88 10000 5.7 230 18:18 28.11.2019
3562 Clouds 17 1018 88 10000 6.2 230 17:43 28.11.2019
3563 Clouds 17 1017 82 10000 6.7 230 17:25 28.11.2019
3564 Clouds 17 1018 82 10000 6.7 240 16:59 28.11.2019
3565 Clouds 17 1018 82 10000 6.7 240 16:40 28.11.2019
3566 Clouds 18 1017 82 10000 7.2 230 16:19 28.11.2019
3567 Clouds 18 1017 82 10000 7.2 230 15:57 28.11.2019
3568 Clouds 18 1017 82 10000 6.7 230 15:39 28.11.2019
3569 Clouds 18 1018 82 10000 6.7 230 15:19 28.11.2019
3570 Clouds 18 1018 82 10000 6.7 230 14:57 28.11.2019
3571 Clouds 18 1018 88 10000 5.1 220 14:39 28.11.2019
3572 Clouds 18 1018 88 10000 5.1 220 14:39 28.11.2019
3573 Clouds 18 1018 88 10000 5.1 220 14:19 28.11.2019
3574 Clouds 18 1018 88 10000 6.2 220 13:42 28.11.2019
3575 Clouds 17 1019 88 10000 6.2 220 13:23 28.11.2019
3576 Clouds 17 1019 88 10000 6.2 220 12:56 28.11.2019
3577 Clouds 17 1019 88 10000 4.6 220 12:37 28.11.2019
3578 Clouds 17 1019 88 10000 4.6 230 12:19 28.11.2019
3579 Clouds 17 1019 93 10000 5.1 220 11:55 28.11.2019
3580 Clouds 16 1019 93 10000 5.1 220 11:36 28.11.2019
3581 Clouds 16 1019 93 10000 5.1 220 11:36 28.11.2019
3582 Clouds 16 1018 93 10000 4.1 210 11:18 28.11.2019
3583 Clouds 16 1018 93 10000 4.1 210 10:42 28.11.2019
3584 Clouds 15 1018 100 10000 3.1 220 10:21 28.11.2019
3585 Clouds 15 1018 100 10000 3.1 220 09:56 28.11.2019
3586 Clouds 15 1017 100 10000 4.6 210 09:38 28.11.2019
3587 Clouds 15 1017 100 10000 4.1 220 09:19 28.11.2019
3588 Clouds 15 1017 100 10000 4.6 210 08:41 28.11.2019
3589 Clouds 15 1017 100 10000 3.6 210 08:22 28.11.2019
3590 Clouds 15 1017 100 10000 3.1 220 07:56 28.11.2019
3591 Clouds 15 1017 100 10000 3.1 220 07:38 28.11.2019
3592 Clouds 15 1016 100 10000 3.1 220 07:18 28.11.2019
3593 Clouds 15 1016 93 10000 3.6 210 06:40 28.11.2019
3594 Clouds 15 1017 93 10000 2.1 250 05:53 28.11.2019
3595 Clouds 15 1017 93 10000 2.1 250 05:34 28.11.2019
3596 Clouds 15 1016 93 10000 2.6 200 04:51 28.11.2019
3597 Clouds 14 1017 93 10000 2.6 230 02:32 28.11.2019
3598 Clouds 14 1017 93 10000 2.1 210 01:25 28.11.2019
3599 Clouds 14 1017 93 10000 1.5 210 00:39 28.11.2019
3600 Clouds 14 1017 93 10000 2.1 220 00:18 28.11.2019
3601 Clouds 14 1017 100 10000 2.1 220 23:39 27.11.2019
3602 Clouds 14 1017 93 10000 2.6 240 23:20 27.11.2019
3603 Clouds 14 1017 93 10000 2.6 240 22:56 27.11.2019
3604 Clouds 14 1017 100 10000 2.6 230 22:38 27.11.2019
3605 Clouds 14 1017 100 10000 2.1 260 22:18 27.11.2019
3606 Clouds 14 1016 93 10000 1.5 220 21:55 27.11.2019
3607 Clouds 14 1016 93 10000 1.5 220 21:36 27.11.2019
3608 Clouds 14 1016 93 10000 2.6 210 21:18 27.11.2019
3609 Clouds 14 1016 87 10000 3.1 200 20:56 27.11.2019
3610 Clouds 14 1016 87 10000 3.1 200 20:56 27.11.2019
3611 Clouds 14 1016 82 10000 2.6 230 20:37 27.11.2019
3612 Clouds 14 1016 82 10000 2.6 230 20:18 27.11.2019
3613 Clouds 14 1016 82 10000 2.6 220 19:55 27.11.2019
3614 Clouds 15 1016 82 10000 2.6 220 19:37 27.11.2019
3615 Clouds 15 1016 82 10000 3.1 240 19:18 27.11.2019
3616 Clouds 15 1015 72 10000 3.1 260 18:54 27.11.2019
3617 Clouds 15 1015 72 10000 3.1 260 18:36 27.11.2019
3618 Clouds 16 1015 67 10000 5.1 250 18:18 27.11.2019
3619 Clouds 16 1015 67 10000 4.6 240 17:41 27.11.2019
3620 Clouds 16 1015 67 10000 5.1 240 17:23 27.11.2019
3621 Clouds 16 1015 67 10000 5.1 240 17:23 27.11.2019
3622 Clouds 16 1015 67 10000 5.1 240 17:23 27.11.2019
3623 Clouds 16 1015 67 10000 5.1 240 16:58 27.11.2019
3624 -273 0 0 0 0 0 16:40 27.11.2019
3625 Clouds 17 1015 63 10000 4.6 250 16:21 27.11.2019
3626 Clouds 17 1015 59 10000 5.7 240 15:59 27.11.2019
3627 Clouds 17 1015 59 10000 5.7 240 15:41 27.11.2019
3628 Clouds 17 1015 72 10000 5.1 240 15:21 27.11.2019
3629 Clouds 17 1015 72 10000 6.2 230 14:59 27.11.2019
3630 Clouds 17 1015 72 10000 6.2 230 14:41 27.11.2019
3631 Clouds 16 1016 72 10000 5.1 250 14:23 27.11.2019
3632 Clouds 16 1016 72 10000 5.1 250 13:58 27.11.2019
3633 Clouds 16 1016 72 10000 5.1 250 13:40 27.11.2019
3634 Clouds 16 1016 72 10000 4.1 240 13:19 27.11.2019
3635 Clouds 16 1016 87 10000 5.1 210 12:59 27.11.2019
3636 Clouds 16 1016 87 10000 5.1 210 12:40 27.11.2019
3637 Clouds 16 1017 82 10000 5.1 220 12:20 27.11.2019
3638 Clouds 15 1017 87 10000 3.6 220 11:54 27.11.2019
3639 Rain 15 1016 87 7000 3.6 220 11:36 27.11.2019
3640 Rain 15 1016 87 7000 3.6 220 11:18 27.11.2019
3641 Clouds 14 1016 93 10000 2.6 220 10:41 27.11.2019
3642 Clouds 14 1015 93 10000 3.1 210 10:23 27.11.2019
3643 Clouds 14 1015 100 10000 2.6 220 09:48 27.11.2019
3644 Clouds 13 1015 93 10000 2.6 220 09:26 27.11.2019
3645 Clouds 13 1015 93 10000 2.6 220 08:59 27.11.2019
3646 Clouds 12 1014 100 10000 2.6 210 08:41 27.11.2019
3647 Clouds 13 1014 93 10000 2.6 220 08:22 27.11.2019
3648 Clouds 13 1014 93 10000 2.6 220 07:47 27.11.2019
3649 Clouds 13 1014 93 10000 3.1 220 07:28 27.11.2019
3650 Clouds 13 1014 93 10000 2.6 220 06:49 27.11.2019
3651 Clouds 13 1014 93 10000 2.6 240 06:30 27.11.2019
3652 Clouds 13 1014 93 10000 3.1 240 05:43 27.11.2019
3653 Clouds 13 1014 93 10000 2.6 260 05:19 27.11.2019
3654 Clouds 14 1014 93 10000 4.1 240 04:43 27.11.2019
3655 Clouds 14 1014 93 10000 2.1 270 03:55 27.11.2019
3656 Clouds 14 1014 93 10000 2.1 270 03:36 27.11.2019
3657 Clouds 14 1014 93 10000 3.1 230 03:18 27.11.2019
3658 Clouds 15 1014 93 10000 3.6 250 01:48 27.11.2019
3659 Clouds 15 1014 93 10000 3.1 250 00:46 27.11.2019
3660 Clouds 15 1014 93 10000 3.6 260 00:27 27.11.2019
3661 Clouds 15 1014 93 10000 3.6 260 23:54 26.11.2019
3662 Clouds 15 1014 93 10000 3.6 260 23:36 26.11.2019
3663 Clouds 15 1014 93 10000 3.1 240 23:18 26.11.2019
3664 Clouds 15 1013 93 10000 3.1 240 22:39 26.11.2019
3665 Rain 15 1013 100 4000 4.6 270 22:19 26.11.2019
3666 Rain 15 1013 100 4000 4.6 270 21:59 26.11.2019
3667 Clouds 15 1012 93 10000 5.1 220 21:38 26.11.2019
3668 Clouds 15 1013 93 10000 5.1 230 21:20 26.11.2019
3669 Clouds 16 1012 93 10000 5.1 230 20:57 26.11.2019
3670 Clouds 16 1012 93 10000 5.1 230 20:57 26.11.2019
3671 Clouds 15 1012 93 10000 5.1 230 20:37 26.11.2019
3672 Clouds 16 1012 93 10000 5.1 240 20:19 26.11.2019
3673 Clouds 16 1012 93 10000 5.1 240 19:55 26.11.2019
3674 Clouds 16 1012 93 10000 5.1 240 19:37 26.11.2019
3675 Clouds 16 1012 88 10000 5.1 240 19:19 26.11.2019
3676 Clouds 16 1012 88 10000 5.1 240 19:19 26.11.2019
3677 Clouds 16 1012 88 10000 5.7 230 18:56 26.11.2019
3678 Clouds 16 1012 88 10000 5.7 230 18:38 26.11.2019
3679 Clouds 16 1012 88 10000 5.7 230 18:38 26.11.2019
3680 Clouds 16 1012 88 10000 4.6 250 18:20 26.11.2019
3681 Clouds 17 1012 93 10000 4.6 250 17:57 26.11.2019
3682 Clouds 17 1012 93 10000 4.6 250 17:38 26.11.2019
3683 Clouds 17 1011 88 10000 5.7 240 17:20 26.11.2019
3684 Clouds 17 1011 88 10000 6.2 240 16:56 26.11.2019
3685 Clouds 17 1011 88 10000 6.2 240 16:37 26.11.2019
3686 Clouds 17 1011 93 10000 5.7 240 16:18 26.11.2019
3687 Clouds 17 1011 93 10000 5.7 240 15:57 26.11.2019
3688 Drizzle 17 1011 100 6000 7.2 240 15:37 26.11.2019
3689 Drizzle 17 1011 100 10000 7.7 230 15:19 26.11.2019
3690 Drizzle 17 1012 100 2000 9.8 220 14:45 26.11.2019
3691 Drizzle 17 1012 100 2000 10.8 210 14:24 26.11.2019
3692 Drizzle 17 1012 100 1800 10.3 210 13:45 26.11.2019
3693 Drizzle 17 1012 100 1800 10.3 210 13:25 26.11.2019
3694 Drizzle 17 1012 100 1500 10.8 210 12:58 26.11.2019
3695 Drizzle 17 1012 100 1500 10.8 210 12:38 26.11.2019
3696 Drizzle 17 1013 100 1800 9.3 200 12:19 26.11.2019
3697 Drizzle 17 1013 100 4500 9.8 200 11:56 26.11.2019
3698 Drizzle 17 1013 100 4500 9.8 200 11:38 26.11.2019
3699 Drizzle 17 1013 100 4500 9.8 200 11:38 26.11.2019
3700 Drizzle 16 1013 100 2500 8.7 200 11:19 26.11.2019
3701 Drizzle 16 1014 100 2400 8.2 200 10:57 26.11.2019
3702 Drizzle 16 1014 100 2400 8.2 200 10:39 26.11.2019
3703 Drizzle 16 1014 100 3000 8.7 200 10:20 26.11.2019
3704 Rain 16 1014 93 10000 8.7 200 09:44 26.11.2019
3705 Rain 16 1014 93 10000 8.7 210 09:25 26.11.2019
3706 Clouds 16 1013 93 10000 8.7 210 08:59 26.11.2019
3707 Clouds 16 1013 93 10000 8.7 210 08:38 26.11.2019
3708 Clouds 16 1013 93 10000 7.2 220 08:20 26.11.2019
3709 Clouds 16 1013 93 10000 7.2 220 07:43 26.11.2019
3710 Clouds 17 1014 93 10000 7.2 220 07:24 26.11.2019
3711 Clouds 17 1014 93 10000 7.7 220 06:54 26.11.2019
3712 Clouds 17 1014 93 10000 7.7 230 06:22 26.11.2019
3713 Clouds 17 1014 93 10000 7.7 220 05:39 26.11.2019
3714 Clouds 16 1015 93 10000 7.2 220 03:58 26.11.2019
3715 Clouds 16 1016 100 10000 5.7 230 01:55 26.11.2019
3716 Clouds 17 1016 100 10000 5.7 230 01:29 26.11.2019
3717 Clouds 17 1016 100 10000 5.7 220 00:48 26.11.2019
3718 Drizzle 17 1017 100 8000 6.2 230 00:25 26.11.2019
3719 Drizzle 17 1017 100 5000 4.6 230 23:40 25.11.2019
3720 Drizzle 17 1017 100 6000 5.1 230 23:20 25.11.2019
3721 Drizzle 17 1017 100 4000 4.1 220 22:58 25.11.2019
3722 Drizzle 17 1017 100 4000 4.1 220 22:38 25.11.2019
3723 Drizzle 17 1017 100 3000 3.6 210 22:18 25.11.2019
3724 Drizzle 17 1017 100 4000 3.6 210 21:58 25.11.2019
3725 Drizzle 17 1017 100 4000 3.6 210 21:39 25.11.2019
3726 Drizzle 17 1017 100 6000 3.6 210 21:19 25.11.2019
3727 Drizzle 17 1017 93 10000 2.6 220 20:56 25.11.2019
3728 Drizzle 17 1017 93 10000 2.6 220 20:37 25.11.2019
3729 Clouds 17 1017 93 10000 3.6 220 20:19 25.11.2019
3730 Clouds 17 1017 93 10000 3.6 220 19:55 25.11.2019
3731 Clouds 17 1017 93 10000 3.6 220 19:37 25.11.2019
3732 Clouds 17 1017 93 10000 3.1 220 19:18 25.11.2019
3733 Clouds 17 1017 93 10000 3.1 220 19:18 25.11.2019
3734 Clouds 17 1017 88 10000 3.6 230 18:56 25.11.2019
3735 Clouds 17 1017 88 10000 3.6 230 18:38 25.11.2019
3736 Clouds 17 1017 88 10000 4.6 230 18:19 25.11.2019
3737 Clouds 17 1017 82 10000 4.1 230 17:56 25.11.2019
3738 Clouds 17 1017 82 10000 4.1 230 17:37 25.11.2019
3739 Clouds 17 1016 77 10000 4.6 230 17:18 25.11.2019
3740 Clouds 18 1016 77 10000 4.1 240 16:55 25.11.2019
3741 Clouds 18 1016 77 10000 4.1 240 16:37 25.11.2019
3742 Clouds 18 1016 77 10000 4.1 250 16:18 25.11.2019
3743 Clouds 18 1017 72 10000 5.1 240 15:41 25.11.2019
3744 Clouds 18 1017 77 10000 4.6 240 15:21 25.11.2019
3745 Clouds 18 1017 72 10000 3.1 280 14:57 25.11.2019
3746 Clouds 18 1017 72 10000 3.1 280 14:39 25.11.2019
3747 Clouds 18 1017 82 10000 3.6 260 14:20 25.11.2019
3748 Clouds 18 1017 82 10000 3.6 260 13:40 25.11.2019
3749 Clouds 18 1017 82 10000 3.1 260 13:21 25.11.2019
3750 Clouds 18 1018 93 10000 3.6 220 12:59 25.11.2019
3751 Clouds 18 1018 88 10000 3.6 230 12:40 25.11.2019
3752 Clouds 17 1018 88 10000 2.6 260 12:21 25.11.2019
3753 Clouds 17 1018 88 10000 2.1 260 11:58 25.11.2019
3754 Clouds 17 1018 88 10000 2.1 260 11:39 25.11.2019
3755 Rain 16 1018 93 10000 2.1 270 11:20 25.11.2019
3756 Clouds 16 1017 93 10000 3.1 220 10:46 25.11.2019
3757 Drizzle 16 1017 93 9000 1.5 240 10:27 25.11.2019
3758 Clouds 16 1017 100 10000 3.1 240 09:59 25.11.2019
3759 Clouds 16 1016 93 10000 3.1 260 09:40 25.11.2019
3760 Clouds 16 1016 93 10000 3.1 250 09:22 25.11.2019
3761 Clouds 16 1016 93 10000 2.6 270 08:41 25.11.2019
3762 Clouds 16 1016 93 10000 2.6 270 08:22 25.11.2019
3763 Clouds 15 1016 93 10000 2.6 270 07:45 25.11.2019
3764 Clouds 16 1015 93 10000 3.6 270 07:25 25.11.2019
3765 Clouds 16 1015 93 10000 3.6 270 07:25 25.11.2019
3766 Clouds 16 1015 93 10000 4.1 280 06:51 25.11.2019
3767 Clouds 16 1015 93 10000 4.1 270 06:22 25.11.2019
3768 Clouds 16 1015 93 10000 4.1 270 05:50 25.11.2019
3769 Drizzle 16 1015 100 8000 7.2 270 05:29 25.11.2019
3770 Drizzle 16 1015 100 4000 6.2 240 03:49 25.11.2019
3771 Drizzle 17 1015 100 4500 7.7 220 02:32 25.11.2019
3772 Drizzle 16 1016 100 4700 6.7 230 01:42 25.11.2019
3773 Rain 16 1016 100 5000 5.1 230 01:23 25.11.2019
3774 Drizzle 16 1016 100 3000 7.7 230 00:39 25.11.2019
3775 Drizzle 16 1016 100 5000 7.7 220 00:18 25.11.2019
3776 Drizzle 16 1016 100 7000 7.2 230 23:43 24.11.2019
3777 Drizzle 16 1016 100 7000 7.2 230 23:20 24.11.2019
3778 Drizzle 16 1016 100 5000 8.2 220 22:57 24.11.2019
3779 Drizzle 16 1016 100 5000 8.2 220 22:38 24.11.2019
3780 Drizzle 16 1016 100 8000 6.7 220 22:19 24.11.2019
3781 Drizzle 16 1016 100 6000 6.2 220 21:56 24.11.2019
3782 Drizzle 16 1016 100 6000 6.2 220 21:37 24.11.2019
3783 Drizzle 16 1016 93 6000 4.1 230 21:19 24.11.2019
3784 Clouds 15 1016 100 10000 5.1 220 20:56 24.11.2019
3785 Clouds 15 1016 100 10000 5.1 220 20:37 24.11.2019
3786 Clouds 15 1016 100 10000 5.1 220 20:37 24.11.2019
3787 Rain 15 1016 100 10000 5.7 210 20:18 24.11.2019
3788 Clouds 15 1016 100 6000 5.1 200 19:55 24.11.2019
3789 Clouds 15 1016 100 6000 5.1 200 19:55 24.11.2019
3790 Clouds 15 1016 100 6000 5.1 200 19:37 24.11.2019
3791 Clouds 15 1016 93 10000 7.7 210 19:19 24.11.2019
3792 Clouds 15 1016 93 10000 7.7 210 19:19 24.11.2019
3793 Drizzle 15 1016 93 8000 7.2 210 18:56 24.11.2019
3794 Drizzle 15 1016 93 8000 7.2 210 18:36 24.11.2019
3795 Drizzle 15 1016 100 2500 6.2 210 18:18 24.11.2019
3796 Drizzle 15 1016 100 2500 6.2 210 18:18 24.11.2019
3797 Drizzle 15 1016 100 2500 6.2 210 18:18 24.11.2019
3798 Drizzle 15 1016 93 2500 6.2 200 17:55 24.11.2019
3799 Drizzle 15 1016 93 2500 6.2 200 17:36 24.11.2019
3800 Drizzle 15 1016 93 2500 6.2 200 17:36 24.11.2019
3801 Drizzle 15 1016 93 3000 5.7 220 17:18 24.11.2019
3802 Clouds 15 1017 87 10000 6.2 220 16:54 24.11.2019
3803 Clouds 15 1017 87 10000 6.2 220 16:36 24.11.2019
3804 Clouds 15 1017 82 10000 5.7 220 16:18 24.11.2019
3805 Clouds 15 1017 77 10000 5.1 210 15:42 24.11.2019
3806 Clouds 16 1017 77 10000 5.7 210 15:24 24.11.2019
3807 Clouds 16 1017 77 10000 5.7 210 15:24 24.11.2019
3808 Clouds 16 1017 72 10000 6.7 210 14:56 24.11.2019
3809 Clouds 16 1017 72 10000 6.7 210 14:38 24.11.2019
3810 Clouds 16 1017 77 10000 5.7 220 14:18 24.11.2019
3811 Clouds 16 1018 72 10000 5.1 220 13:39 24.11.2019
3812 Clouds 16 1018 72 10000 5.1 220 13:21 24.11.2019
3813 Clouds 16 1018 77 10000 4.6 210 12:57 24.11.2019
3814 Clouds 16 1018 77 10000 4.6 210 12:39 24.11.2019
3815 Clouds 16 1018 82 10000 3.6 200 12:18 24.11.2019
3816 Clouds 15 1018 82 10000 3.6 200 11:55 24.11.2019
3817 Clouds 15 1018 82 10000 3.6 200 11:36 24.11.2019
3818 Clouds 15 1018 87 10000 2.6 210 11:18 24.11.2019
3819 Clouds 13 1018 93 10000 2.1 210 10:45 24.11.2019
3820 Clouds 12 1018 100 10000 2.6 240 10:27 24.11.2019
3821 Clouds 11 1017 93 10000 2.1 230 09:55 24.11.2019
3822 Clouds 11 1017 93 10000 2.1 230 09:36 24.11.2019
3823 Clouds 11 1017 100 10000 2.6 220 09:18 24.11.2019
3824 Clouds 10 1017 100 10000 2.6 230 08:43 24.11.2019
3825 Clouds 10 1017 93 10000 2.6 240 08:21 24.11.2019
3826 Clouds 10 1017 93 10000 2.6 240 07:55 24.11.2019
3827 Clouds 10 1017 93 10000 2.6 240 07:36 24.11.2019
3828 Clouds 10 1017 93 10000 2.1 240 07:18 24.11.2019
3829 Clouds 10 1017 100 10000 2.1 260 06:19 24.11.2019
3830 Clouds 11 1017 87 10000 3.1 240 04:47 24.11.2019
3831 Clouds 10 1017 93 10000 2.1 260 03:25 24.11.2019
3832 Clouds 11 1017 87 10000 2.6 280 01:58 24.11.2019
3833 Clouds 11 1017 87 10000 2.6 280 01:39 24.11.2019
3834 Clouds 11 1017 87 10000 2.6 280 01:20 24.11.2019
3835 Clouds 11 1017 87 10000 2.1 270 00:47 24.11.2019
3836 Clouds 11 1017 87 10000 2.1 260 00:23 24.11.2019
3837 Clouds 11 1017 93 10000 1.5 250 23:45 23.11.2019
3838 Clouds 11 1017 93 10000 1.5 240 23:22 23.11.2019
3839 Clouds 11 1017 93 10000 0.5 0 22:59 23.11.2019
3840 Clouds 11 1017 93 10000 0.5 0 22:40 23.11.2019
3841 Clouds 12 1017 87 10000 1.5 300 22:22 23.11.2019
3842 Clouds 12 1017 87 10000 1.5 300 21:58 23.11.2019
3843 Clouds 12 1016 87 10000 1 0 21:40 23.11.2019
3844 Clouds 12 1016 87 10000 1 240 21:21 23.11.2019
3845 Clouds 12 1016 76 10000 2.46 317 20:55 23.11.2019
3846 Clouds 12 1016 76 10000 2.46 317 20:36 23.11.2019
3847 Clouds 13 1015 76 10000 2.1 290 20:18 23.11.2019
3848 Clouds 13 1015 76 10000 2.1 290 19:54 23.11.2019
3849 Clouds 13 1015 76 10000 2.1 290 19:36 23.11.2019
3850 Clouds 13 1014 76 10000 2.1 300 19:18 23.11.2019
3851 Clouds 14 1014 76 10000 3.1 300 18:39 23.11.2019
3852 Clouds 14 1014 71 10000 3.1 300 18:20 23.11.2019
3853 Clouds 14 1014 71 10000 3.1 300 18:20 23.11.2019
3854 Clouds 14 1014 76 10000 3.1 300 17:54 23.11.2019
3855 Clouds 15 1013 76 10000 3.6 310 17:36 23.11.2019
3856 Clouds 15 1013 76 10000 3.6 310 17:36 23.11.2019
3857 Clouds 15 1013 76 10000 3.6 310 17:18 23.11.2019
3858 Clouds 15 1013 62 10000 3.6 310 16:54 23.11.2019
3859 Clouds 15 1013 62 10000 3.6 310 16:36 23.11.2019
3860 Clouds 15 1013 62 10000 3.6 310 16:36 23.11.2019
3861 Clouds 16 1013 67 10000 4.6 310 16:18 23.11.2019
3862 Rain 16 1012 63 10000 5.1 330 15:54 23.11.2019
3863 Rain 16 1012 63 10000 5.1 330 15:36 23.11.2019
3864 Clouds 15 1012 63 10000 4.6 320 15:18 23.11.2019
3865 Clouds 16 1012 62 10000 5.7 330 14:42 23.11.2019
3866 Clouds 16 1012 63 10000 4.6 310 14:21 23.11.2019
3867 Clouds 16 1012 63 10000 4.6 310 14:21 23.11.2019
3868 Clouds 15 1012 67 10000 4.6 320 13:57 23.11.2019
3869 Clouds 15 1012 67 10000 4.6 320 13:38 23.11.2019
3870 Clouds 15 1012 67 10000 4.6 320 13:18 23.11.2019
3871 Clouds 15 1013 67 10000 5.1 330 12:42 23.11.2019
3872 Rain 15 1012 62 10000 4.6 300 12:24 23.11.2019
3873 Clouds 15 1012 76 10000 4.6 320 11:45 23.11.2019
3874 Clouds 14 1011 71 10000 3.6 310 11:24 23.11.2019
3875 Clouds 14 1010 71 10000 4.1 320 10:57 23.11.2019
3876 Rain 14 1010 87 10000 2.6 320 10:39 23.11.2019
3877 Rain 13 1010 87 10000 3.1 320 10:18 23.11.2019
3878 Clouds 13 1009 81 10000 2.6 280 09:41 23.11.2019
3879 Rain 13 1008 81 10000 2.6 290 09:18 23.11.2019
3880 Clouds 12 1008 81 10000 2.6 300 08:41 23.11.2019
3881 Clouds 12 1008 81 10000 2.6 300 08:41 23.11.2019
3882 Clouds 12 1008 81 10000 2.6 300 08:41 23.11.2019
3883 Clouds 12 1008 81 10000 2.6 300 08:19 23.11.2019
3884 Clouds 12 1007 81 10000 2.6 280 07:42 23.11.2019
3885 Clouds 12 1007 81 10000 1 0 07:21 23.11.2019
3886 Clouds 12 1006 87 10000 3.1 310 06:42 23.11.2019
3887 Clouds 12 1006 81 10000 3.1 290 06:19 23.11.2019
3888 Clouds 12 1006 87 10000 3.1 280 05:45 23.11.2019
3889 Clouds 12 1006 87 10000 4.1 290 05:27 23.11.2019
3890 Rain 13 1005 71 10000 4.6 290 04:40 23.11.2019
3891 Clouds 13 1004 76 10000 4.1 290 04:21 23.11.2019
3892 Clouds 13 1004 82 10000 5.1 290 02:39 23.11.2019
3893 Clouds 13 1003 76 10000 6.2 270 01:42 23.11.2019
3894 Clouds 14 1003 76 10000 6.2 270 00:54 23.11.2019
3895 Clouds 14 1003 76 10000 6.2 270 00:54 23.11.2019
3896 Clouds 14 1003 76 10000 6.2 270 00:36 23.11.2019
3897 Rain 14 1002 82 9000 5.7 270 00:18 23.11.2019
3898 Rain 14 1002 82 9000 5.7 270 00:18 23.11.2019
3899 Clouds 14 1002 82 10000 5.1 280 23:38 22.11.2019
3900 Clouds 14 1002 72 10000 6.2 280 23:20 22.11.2019
3901 Clouds 14 1001 72 10000 7.2 270 22:57 22.11.2019
3902 Clouds 14 1001 72 10000 7.2 270 22:57 22.11.2019
3903 Clouds 14 1001 72 10000 7.2 270 22:38 22.11.2019
3904 Rain 14 1001 77 10000 7.7 260 22:19 22.11.2019
3905 Rain 15 1001 77 10000 7.7 260 21:57 22.11.2019
3906 Clouds 14 1001 72 10000 5.7 240 21:38 22.11.2019
3907 Clouds 15 1001 72 10000 5.7 240 21:19 22.11.2019
3908 Clouds 15 1000 72 10000 5.7 240 20:42 22.11.2019
3909 Clouds 15 1000 72 10000 4.6 270 20:22 22.11.2019
3910 Clouds 15 1000 72 10000 4.6 260 19:55 22.11.2019
3911 Clouds 15 1000 72 10000 4.6 260 19:37 22.11.2019
3912 Clouds 15 999 72 10000 6.2 270 19:18 22.11.2019
3913 Clouds 16 998 77 10000 6.2 270 18:39 22.11.2019
3914 Clouds 16 998 77 10000 7.7 270 18:21 22.11.2019
3915 Clouds 16 997 72 10000 8.7 260 17:55 22.11.2019
3916 Clouds 16 997 72 10000 8.7 260 17:37 22.11.2019
3917 Clouds 16 997 67 10000 6.7 260 17:19 22.11.2019
3918 Clouds 16 997 63 10000 7.7 270 16:40 22.11.2019
3919 Clouds 17 997 67 10000 8.2 270 16:22 22.11.2019
3920 Clouds 17 997 59 10000 6.7 280 15:41 22.11.2019
3921 Clouds 17 997 63 10000 8.2 270 15:23 22.11.2019
3922 Clouds 17 996 72 10000 7.7 280 14:56 22.11.2019
3923 Clouds 17 996 72 10000 7.7 280 14:37 22.11.2019
3924 Clouds 17 996 82 10000 7.7 280 14:19 22.11.2019
3925 Clouds 17 996 82 10000 8.2 270 13:56 22.11.2019
3926 Clouds 17 996 82 10000 8.2 270 13:36 22.11.2019
3927 Clouds 17 996 88 10000 7.7 270 13:18 22.11.2019
3928 Drizzle 17 997 100 8000 9.3 260 12:55 22.11.2019
3929 Drizzle 17 997 100 8000 9.3 260 12:36 22.11.2019
3930 Drizzle 17 996 100 3000 9.8 240 12:18 22.11.2019
3931 Drizzle 17 996 100 3000 11.8 230 11:40 22.11.2019
3932 Drizzle 17 996 100 4000 11.3 230 11:21 22.11.2019
3933 Drizzle 17 996 100 4000 11.3 230 10:59 22.11.2019
3934 Drizzle 16 997 93 3000 9.8 230 10:39 22.11.2019
3935 Drizzle 16 997 100 2000 10.3 230 10:21 22.11.2019
3936 Drizzle 16 997 100 2000 9.3 230 09:55 22.11.2019
3937 Drizzle 16 997 100 2000 9.3 230 09:37 22.11.2019
3938 Drizzle 16 998 93 1800 9.3 230 09:18 22.11.2019
3939 Drizzle 16 998 93 4000 10.8 230 08:45 22.11.2019
3940 Drizzle 15 998 100 4000 10.3 220 08:26 22.11.2019
3941 Drizzle 15 998 100 7000 11.8 220 07:45 22.11.2019
3942 Drizzle 15 999 100 2500 11.3 210 07:23 22.11.2019
3943 Drizzle 15 999 93 6000 10.8 210 06:49 22.11.2019
3944 Drizzle 15 999 93 6000 10.8 210 06:30 22.11.2019
3945 Clouds 15 1000 93 10000 9.3 210 05:49 22.11.2019
3946 Drizzle 14 1002 100 8000 7.7 210 04:50 22.11.2019
3947 Rain 14 1004 93 10000 5.7 200 02:53 22.11.2019
3948 Rain 14 1004 93 10000 5.7 200 02:31 22.11.2019
3949 Rain 14 1005 93 10000 3.6 200 01:45 22.11.2019
3950 Clouds 14 1005 93 10000 4.1 200 01:20 22.11.2019
3951 Clouds 14 1005 93 10000 4.1 180 00:51 22.11.2019
3952 Clouds 13 1006 93 10000 4.1 180 00:24 22.11.2019
3953 Clouds 13 1006 93 10000 2.6 200 23:49 21.11.2019
3954 Clouds 13 1006 93 10000 2.6 200 23:31 21.11.2019
3955 Clouds 13 1006 93 10000 2.1 210 22:59 21.11.2019
3956 Clouds 13 1006 93 10000 2.6 190 22:39 21.11.2019
3957 Clouds 13 1007 93 10000 2.6 200 22:21 21.11.2019
3958 Clouds 13 1007 93 10000 2.6 220 21:57 21.11.2019
3959 Clouds 13 1007 93 10000 2.6 220 21:38 21.11.2019
3960 Clouds 12 1007 93 10000 2.6 210 21:19 21.11.2019
3961 Clouds 12 1007 93 10000 2.6 210 20:58 21.11.2019
3962 Clouds 13 1007 87 10000 2.1 210 20:39 21.11.2019
3963 Clouds 13 1007 82 10000 2.1 210 20:19 21.11.2019
3964 Clouds 13 1007 82 10000 2.1 210 19:59 21.11.2019
3965 Clouds 13 1007 82 10000 2.6 240 19:41 21.11.2019
3966 Clouds 14 1007 77 10000 2.1 280 19:22 21.11.2019
3967 Clouds 14 1007 72 10000 2.6 290 18:57 21.11.2019
3968 Clouds 15 1007 72 10000 2.6 290 18:38 21.11.2019
3969 Clouds 15 1006 72 10000 3.1 250 18:19 21.11.2019
3970 Clouds 15 1006 77 10000 3.6 240 17:57 21.11.2019
3971 Clouds 15 1006 77 10000 3.6 240 17:38 21.11.2019
3972 Clouds 16 1006 77 10000 2.6 250 17:19 21.11.2019
3973 Clouds 16 1007 67 10000 4.1 250 16:41 21.11.2019
3974 Clouds 16 1007 67 10000 4.6 250 16:21 21.11.2019
3975 Clouds 16 1007 67 10000 4.6 240 15:57 21.11.2019
3976 Clouds 16 1007 67 10000 4.6 240 15:39 21.11.2019
3977 Clouds 16 1007 72 10000 4.6 240 15:19 21.11.2019
3978 Clouds 16 1007 72 10000 4.6 240 14:56 21.11.2019
3979 Clouds 16 1007 72 10000 4.6 240 14:56 21.11.2019
3980 Clouds 16 1007 77 10000 4.1 220 14:36 21.11.2019
3981 Clouds 16 1007 82 10000 3.1 230 14:18 21.11.2019
3982 Clouds 16 1008 82 10000 3.6 230 13:39 21.11.2019
3983 Clouds 16 1008 82 10000 3.6 230 13:39 21.11.2019
3984 Clouds 16 1008 82 10000 3.1 220 13:20 21.11.2019
3985 Clouds 16 1008 82 10000 3.1 220 12:59 21.11.2019
3986 Clouds 15 1008 87 10000 2.1 230 12:38 21.11.2019
3987 Clouds 15 1008 93 10000 2.6 220 12:20 21.11.2019
3988 Clouds 14 1008 93 10000 2.6 220 11:41 21.11.2019
3989 Clouds 14 1008 93 10000 1.5 0 11:22 21.11.2019
3990 Clouds 13 1008 93 10000 1.5 220 10:59 21.11.2019
3991 Clouds 13 1008 93 10000 1.5 220 10:41 21.11.2019
3992 Clouds 13 1008 93 10000 1 0 10:22 21.11.2019
3993 Clouds 13 1007 100 10000 2.1 210 09:57 21.11.2019
3994 Clouds 13 1007 100 10000 2.1 210 09:38 21.11.2019
3995 Clouds 12 1007 100 10000 1.5 220 09:19 21.11.2019
3996 Rain 12 1007 93 10000 2.6 250 08:42 21.11.2019
3997 Rain 12 1007 100 10000 2.6 230 08:20 21.11.2019
3998 Clouds 12 1007 100 10000 2.6 210 07:43 21.11.2019
3999 Clouds 12 1007 100 10000 1 0 07:18 21.11.2019
4000 Clouds 12 1007 100 10000 1 0 06:57 21.11.2019
4001 Rain 12 1007 100 10000 2.6 200 06:34 21.11.2019
4002 Clouds 13 1007 100 10000 2.1 240 05:38 21.11.2019
4003 Clouds 12 1007 100 10000 1.5 220 03:34 21.11.2019
4004 Clouds 13 1008 93 10000 2.6 240 02:42 21.11.2019
4005 Clouds 12 1008 93 10000 2.1 220 02:21 21.11.2019
4006 Clouds 12 1008 93 10000 2.1 240 01:42 21.11.2019
4007 Clouds 12 1009 93 10000 1.5 250 01:19 21.11.2019
4008 Clouds 12 1008 93 10000 2.6 240 00:37 21.11.2019
4009 Clouds 12 1008 93 10000 2.1 240 00:18 21.11.2019
4010 Clouds 12 1009 93 10000 2.1 240 23:41 20.11.2019
4011 Clouds 12 1009 93 10000 2.6 240 23:21 20.11.2019
4012 Clouds 12 1008 93 10000 2.1 240 22:56 20.11.2019
4013 Clouds 12 1008 93 10000 2.1 240 22:37 20.11.2019
4014 Clouds 12 1008 93 10000 2.6 240 22:19 20.11.2019
4015 Clouds 12 1008 93 10000 1.5 250 21:57 20.11.2019
4016 Clouds 12 1008 93 10000 1.5 250 21:38 20.11.2019
4017 Clouds 12 1008 87 10000 2.6 250 21:19 20.11.2019
4018 Clouds 12 1008 87 10000 3.1 250 20:55 20.11.2019
4019 Clouds 12 1008 87 10000 3.1 250 20:55 20.11.2019
4020 Clouds 13 1008 87 10000 3.1 250 20:37 20.11.2019
4021 Clouds 13 1008 87 10000 3.1 250 20:37 20.11.2019
4022 Clouds 13 1008 100 10000 2.6 230 20:19 20.11.2019
4023 Clouds 13 1008 93 10000 2.6 210 19:55 20.11.2019
4024 Clouds 13 1008 93 10000 2.6 210 19:36 20.11.2019
4025 Clouds 14 1008 82 10000 3.1 240 19:18 20.11.2019
4026 Clouds 14 1008 82 10000 3.1 240 18:57 20.11.2019
4027 Clouds 14 1007 87 10000 3.6 270 18:38 20.11.2019
4028 Rain 14 1007 82 10000 4.1 240 18:20 20.11.2019
4029 Clouds 14 1007 77 10000 4.1 240 17:55 20.11.2019
4030 Clouds 14 1007 77 10000 4.1 240 17:37 20.11.2019
4031 Rain 14 1007 82 10000 5.7 230 17:18 20.11.2019
4032 Rain 14 1007 87 10000 6.2 210 16:41 20.11.2019
4033 Clouds 15 1007 72 10000 6.2 230 16:20 20.11.2019
4034 Clouds 15 1007 77 10000 5.7 220 15:58 20.11.2019
4035 Clouds 15 1007 77 10000 5.7 220 15:40 20.11.2019
4036 Clouds 15 1008 77 10000 6.2 230 15:20 20.11.2019
4037 Clouds 15 1008 77 10000 6.2 230 14:57 20.11.2019
4038 Clouds 15 1008 77 10000 6.2 230 14:57 20.11.2019
4039 Clouds 15 1008 77 10000 5.7 230 14:38 20.11.2019
4040 Clouds 15 1008 77 10000 5.7 220 14:20 20.11.2019
4041 Clouds 15 1009 82 10000 5.1 220 13:56 20.11.2019
4042 Clouds 15 1009 82 10000 5.1 220 13:37 20.11.2019
4043 Clouds 15 1009 82 10000 3.6 240 13:18 20.11.2019
4044 Clouds 15 1009 82 10000 3.1 250 12:42 20.11.2019
4045 Clouds 14 1009 87 10000 2.1 260 12:23 20.11.2019
4046 Clouds 14 1009 87 10000 2.1 260 11:57 20.11.2019
4047 Rain 14 1009 87 10000 1.5 220 11:37 20.11.2019
4048 Clouds 13 1009 93 10000 2.6 240 11:18 20.11.2019
4049 Clouds 13 1009 93 10000 2.6 240 11:18 20.11.2019
4050 Clouds 13 1009 93 10000 2.1 270 10:55 20.11.2019
4051 Clouds 13 1009 93 10000 2.1 270 10:36 20.11.2019
4052 Clouds 12 1009 93 10000 2.1 290 10:18 20.11.2019
4053 Clouds 12 1009 93 10000 2.6 290 09:42 20.11.2019
4054 Clouds 11 1008 100 10000 2.1 290 09:21 20.11.2019
4055 Clouds 12 1008 100 10000 1.5 280 08:54 20.11.2019
4056 Clouds 12 1008 100 10000 1.5 280 08:36 20.11.2019
4057 Clouds 11 1008 100 9000 2.6 270 08:18 20.11.2019
4058 Fog 12 1008 100 9000 2.6 290 07:40 20.11.2019
4059 Rain 12 1008 100 10000 1.5 0 07:21 20.11.2019
4060 Clouds 12 1008 100 10000 4.1 150 06:46 20.11.2019
4061 Clouds 12 1008 100 7000 3.1 120 06:19 20.11.2019
4062 Rain 12 1009 100 3000 4.1 140 04:51 20.11.2019
4063 Rain 12 1010 100 8000 5.1 150 02:48 20.11.2019
4064 Rain 13 1012 100 6000 5.1 170 01:52 20.11.2019
4065 Rain 13 1013 100 9000 3.6 160 01:21 20.11.2019
4066 Rain 13 1013 93 7000 0.5 0 00:35 20.11.2019
4067 Drizzle 12 1014 87 10000 4.1 180 23:46 19.11.2019
4068 Clouds 13 1013 93 10000 3.6 150 23:25 19.11.2019
4069 Clouds 12 1014 87 10000 4.6 180 22:57 19.11.2019
4070 Clouds 12 1014 87 10000 4.6 180 22:38 19.11.2019
4071 Clouds 12 1013 93 10000 5.1 180 22:19 19.11.2019
4072 Clouds 12 1014 87 10000 4.1 170 21:55 19.11.2019
4073 Clouds 12 1014 87 10000 4.1 170 21:37 19.11.2019
4074 Clouds 12 1014 87 10000 2.6 160 21:19 19.11.2019
4075 Clouds 12 1014 87 10000 2.6 160 21:19 19.11.2019
4076 Clouds 12 1014 87 10000 3.1 160 20:55 19.11.2019
4077 Clouds 12 1014 87 10000 3.1 160 20:36 19.11.2019
4078 Clouds 12 1014 87 10000 3.1 160 20:36 19.11.2019
4079 Clouds 12 1014 87 10000 3.1 160 20:36 19.11.2019
4080 Clouds 12 1014 87 10000 3.1 160 20:36 19.11.2019
4081 Clouds 12 1014 87 10000 3.1 160 20:36 19.11.2019
4082 Clouds 12 1015 87 10000 2.6 150 20:18 19.11.2019
4083 Clouds 12 1015 87 10000 3.1 180 19:55 19.11.2019
4084 Clouds 12 1015 87 10000 3.1 180 19:36 19.11.2019
4085 Clouds 12 1015 87 10000 2.6 150 19:18 19.11.2019
4086 Clouds 12 1015 87 10000 3.6 160 18:41 19.11.2019
4087 Clouds 12 1015 87 10000 3.6 160 18:41 19.11.2019
4088 Clouds 12 1015 87 10000 3.6 160 18:41 19.11.2019
4089 Clouds 12 1015 87 10000 3.1 170 18:21 19.11.2019
4090 Clouds 12 1015 93 10000 3.1 150 17:59 19.11.2019
4091 Clouds 12 1015 93 10000 3.1 150 17:41 19.11.2019
4092 Clouds 12 1015 93 10000 3.1 150 17:41 19.11.2019
4093 Clouds 12 1015 93 7000 2.1 160 17:21 19.11.2019
4094 Clouds 12 1015 93 7000 2.1 160 16:59 19.11.2019
4095 Clouds 12 1016 93 6000 2.1 140 16:40 19.11.2019
4096 Clouds 12 1016 93 10000 2.1 140 16:21 19.11.2019
4097 Clouds 12 1016 93 10000 2.1 140 16:21 19.11.2019
4098 Clouds 12 1016 93 10000 2.1 140 15:47 19.11.2019
4099 Clouds 12 1016 93 10000 2.1 140 15:27 19.11.2019
4100 Clouds 12 1016 93 10000 1.5 0 14:58 19.11.2019
4101 Clouds 12 1017 87 10000 2.1 130 14:39 19.11.2019
4102 Rain 11 1017 87 10000 2.6 160 14:21 19.11.2019
4103 Rain 12 1018 87 10000 2.6 170 13:57 19.11.2019
4104 Rain 11 1018 87 10000 2.6 170 13:38 19.11.2019
4105 Clouds 11 1018 87 10000 2.1 120 13:18 19.11.2019
4106 Rain 11 1018 93 10000 2.6 160 12:40 19.11.2019
4107 Rain 11 1019 87 10000 2.1 150 12:21 19.11.2019
4108 Rain 10 1019 93 10000 1.5 130 11:56 19.11.2019
4109 Rain 11 1019 93 10000 1.5 130 11:37 19.11.2019
4110 Rain 11 1019 93 10000 1.5 130 11:37 19.11.2019
4111 Rain 10 1019 93 10000 1.5 210 11:19 19.11.2019
4112 Rain 10 1019 93 10000 1 0 10:44 19.11.2019
4113 Rain 10 1019 87 10000 2.1 240 10:21 19.11.2019
4114 Rain 9 1019 87 10000 1.5 280 09:56 19.11.2019
4115 Rain 9 1019 87 10000 1.5 280 09:38 19.11.2019
4116 Drizzle 9 1018 81 10000 1.5 280 09:18 19.11.2019
4117 Clouds 9 1018 81 10000 1 270 08:40 19.11.2019
4118 Clouds 9 1018 81 10000 1.5 260 08:22 19.11.2019
4119 Clouds 9 1018 81 10000 1.5 260 07:56 19.11.2019
4120 Clouds 9 1018 81 10000 2.1 270 07:37 19.11.2019
4121 Clouds 9 1018 81 10000 2.1 270 07:37 19.11.2019
4122 Clouds 8 1018 87 10000 2.1 270 07:19 19.11.2019
4123 Clouds 8 1018 87 10000 2.1 270 06:44 19.11.2019
4124 Clouds 8 1018 87 10000 2.1 260 06:24 19.11.2019
4125 Clouds 9 1018 87 10000 2.1 270 05:20 19.11.2019
4126 Clouds 8 1019 93 10000 1.5 250 03:45 19.11.2019
4127 Clouds 9 1019 93 10000 1.5 270 03:22 19.11.2019
4128 Clouds 8 1019 93 10000 0.5 260 02:51 19.11.2019
4129 Clouds 8 1019 87 10000 1 210 01:58 19.11.2019
4130 Clouds 8 1020 81 10000 1.5 110 00:51 19.11.2019
4131 Clouds 9 1020 81 10000 2.1 310 00:21 19.11.2019
4132 Clouds 9 1020 81 10000 2.1 310 00:21 19.11.2019
4133 Clouds 9 1020 81 10000 2.1 320 23:56 18.11.2019
4134 Clouds 9 1020 81 10000 2.1 320 23:37 18.11.2019
4135 Clouds 10 1020 81 10000 3.6 330 23:18 18.11.2019
4136 Clouds 11 1020 76 10000 3.1 320 22:41 18.11.2019
4137 Clouds 10 1020 76 10000 2.6 350 22:23 18.11.2019
4138 Clouds 11 1020 71 10000 1.5 350 21:54 18.11.2019
4139 Clouds 11 1020 71 10000 1.5 350 21:36 18.11.2019
4140 Clouds 11 1020 71 10000 1.5 340 21:18 18.11.2019
4141 Clouds 11 1020 66 10000 1 0 20:42 18.11.2019
4142 Clear 11 1019 66 10000 4.1 340 20:20 18.11.2019
4143 Clear 11 1019 66 10000 4.1 320 19:58 18.11.2019
4144 Clear 11 1019 66 10000 4.1 320 19:39 18.11.2019
4145 Clear 12 1018 62 10000 4.1 350 19:21 18.11.2019
4146 Clear 12 1018 58 10000 3.6 360 18:57 18.11.2019
4147 Clear 12 1018 58 10000 3.6 360 18:38 18.11.2019
4148 Clear 12 1018 58 10000 3.6 360 18:38 18.11.2019
4149 Clear 13 1018 54 10000 6.7 340 18:20 18.11.2019
4150 Clouds 13 1018 58 10000 7.2 340 17:59 18.11.2019
4151 Clouds 14 1018 58 10000 7.2 340 17:38 18.11.2019
4152 Clouds 14 1018 58 10000 6.7 330 17:19 18.11.2019
4153 Clouds 14 1018 58 10000 7.2 340 16:43 18.11.2019
4154 Clouds 14 1018 58 10000 7.2 340 16:43 18.11.2019
4155 Clouds 15 1018 54 10000 6.2 350 16:25 18.11.2019
4156 Clouds 15 1018 54 10000 6.2 350 15:59 18.11.2019
4157 Clouds 15 1018 54 10000 6.2 350 15:59 18.11.2019
4158 Clouds 15 1018 54 10000 6.2 350 15:59 18.11.2019
4159 Clouds 15 1018 58 10000 5.1 360 15:41 18.11.2019
4160 Clouds 15 1019 54 10000 6.2 350 15:22 18.11.2019
4161 Clouds 15 1019 54 10000 6.2 350 14:58 18.11.2019
4162 Clouds 15 1019 54 10000 6.2 350 14:58 18.11.2019
4163 Clouds 15 1019 54 10000 8.2 340 14:40 18.11.2019
4164 Clouds 15 1019 54 10000 7.2 340 14:22 18.11.2019
4165 Clouds 15 1019 62 10000 6.7 340 13:44 18.11.2019
4166 Clouds 15 1019 62 10000 7.7 350 13:26 18.11.2019
4167 Clouds 15 1019 67 10000 6.7 340 12:57 18.11.2019
4168 Clouds 15 1019 67 10000 6.7 340 12:57 18.11.2019
4169 Clouds 15 1019 67 10000 6.7 340 12:37 18.11.2019
4170 Clouds 14 1019 67 10000 3.1 350 12:18 18.11.2019
4171 Clouds 14 1019 76 10000 2.6 10 11:42 18.11.2019
4172 Clouds 13 1019 76 10000 4.1 350 11:24 18.11.2019
4173 Clouds 13 1019 81 10000 2.1 20 10:45 18.11.2019
4174 Clouds 12 1018 87 10000 3.1 360 10:26 18.11.2019
4175 Clouds 12 1018 81 10000 7.2 350 09:59 18.11.2019
4176 Clouds 12 1018 87 10000 4.6 330 09:39 18.11.2019
4177 Clouds 12 1018 87 10000 4.6 330 09:39 18.11.2019
4178 Clouds 11 1017 81 10000 5.1 310 09:21 18.11.2019
4179 Clouds 11 1017 81 10000 5.1 310 08:59 18.11.2019
4180 Clouds 11 1017 87 10000 5.7 310 08:41 18.11.2019
4181 Clouds 11 1017 81 10000 3.6 320 08:19 18.11.2019
4182 Clouds 11 1017 100 10000 1 0 07:47 18.11.2019
4183 Clouds 11 1017 100 10000 1 0 07:47 18.11.2019
4184 Clear 11 1017 81 10000 3.6 340 07:27 18.11.2019
4185 Clouds 11 1017 87 10000 1 0 06:49 18.11.2019
4186 Clouds 11 1017 87 10000 2.1 350 06:29 18.11.2019
4187 Clouds 11 1017 87 10000 2.6 340 05:46 18.11.2019
4188 Clouds 11 1017 87 0 3.1 330 04:39 18.11.2019
4189 Clouds 11 1017 87 10000 2.1 300 01:49 18.11.2019
4190 Clouds 11 1017 87 10000 2.1 300 01:31 18.11.2019
4191 Clouds 11 1017 87 10000 5.1 340 00:23 18.11.2019
4192 Clouds 12 1016 87 10000 5.7 340 23:43 17.11.2019
4193 Clouds 12 1016 87 10000 4.6 340 23:24 17.11.2019
4194 Clouds 12 1016 87 10000 4.6 340 22:58 17.11.2019
4195 Clouds 12 1016 87 10000 5.7 340 22:40 17.11.2019
4196 Clouds 12 1015 93 10000 7.2 340 22:22 17.11.2019
4197 Clouds 12 1015 93 10000 7.2 340 21:58 17.11.2019
4198 Clouds 12 1015 93 10000 7.2 340 21:40 17.11.2019
4199 Rain 13 1014 93 10000 6.2 340 21:19 17.11.2019
4200 Rain 13 1014 100 5000 5.1 350 20:56 17.11.2019
4201 Rain 13 1014 100 5000 5.1 350 20:38 17.11.2019
4202 Drizzle 14 1014 93 5000 4.1 230 20:19 17.11.2019
4203 Rain 15 1014 93 10000 3.6 240 19:56 17.11.2019
4204 Rain 15 1014 93 10000 3.6 240 19:56 17.11.2019
4205 Rain 15 1014 93 10000 3.6 240 19:37 17.11.2019
4206 Rain 14 1014 93 10000 3.6 240 19:37 17.11.2019
4207 Rain 15 1015 93 8000 4.1 270 19:19 17.11.2019
4208 Clouds 15 1015 93 10000 3.6 290 18:55 17.11.2019
4209 Clouds 15 1015 93 10000 3.6 290 18:37 17.11.2019
4210 Rain 15 1015 87 10000 4.6 260 18:18 17.11.2019
4211 Rain 15 1015 87 10000 4.6 260 17:57 17.11.2019
4212 Clouds 15 1015 87 10000 5.7 260 17:38 17.11.2019
4213 Rain 15 1016 93 10000 4.6 270 17:19 17.11.2019
4214 Rain 15 1016 93 10000 4.6 270 16:57 17.11.2019
4215 Rain 15 1016 93 6000 5.1 270 16:39 17.11.2019
4216 Rain 15 1016 87 10000 5.7 270 16:21 17.11.2019
4217 Rain 16 1016 82 10000 7.7 260 15:55 17.11.2019
4218 Rain 16 1016 82 10000 7.7 260 15:36 17.11.2019
4219 Clouds 16 1016 82 10000 5.7 270 15:18 17.11.2019
4220 Clouds 16 1017 87 10000 5.7 270 14:55 17.11.2019
4221 Clouds 16 1017 87 10000 5.7 270 14:37 17.11.2019
4222 Clouds 16 1017 87 10000 5.1 270 14:18 17.11.2019
4223 Rain 16 1018 87 10000 3.6 280 13:54 17.11.2019
4224 Rain 16 1018 87 10000 3.6 280 13:36 17.11.2019
4225 Drizzle 16 1018 100 8000 3.6 270 13:18 17.11.2019
4226 Rain 15 1018 93 10000 3.1 290 12:39 17.11.2019
4227 Drizzle 15 1018 93 10000 4.1 270 12:21 17.11.2019
4228 Drizzle 15 1018 93 10000 4.1 270 12:21 17.11.2019
4229 Drizzle 15 1018 100 2800 5.7 300 11:56 17.11.2019
4230 Drizzle 15 1018 93 8000 3.1 280 11:38 17.11.2019
4231 Drizzle 15 1018 93 7000 5.1 250 11:19 17.11.2019
4232 Drizzle 15 1018 93 7000 5.1 250 11:19 17.11.2019
4233 Rain 15 1018 93 10000 5.7 260 10:43 17.11.2019
4234 Drizzle 15 1018 87 10000 4.1 270 10:23 17.11.2019
4235 Clouds 15 1017 87 10000 4.6 250 09:57 17.11.2019
4236 Clouds 15 1017 87 10000 4.6 250 09:39 17.11.2019
4237 Clouds 15 1017 87 10000 4.6 250 09:19 17.11.2019
4238 Clouds 14 1017 87 10000 4.1 260 08:38 17.11.2019
4239 Clouds 14 1017 87 10000 4.1 260 08:19 17.11.2019
4240 Clouds 14 1017 87 10000 3.1 270 07:45 17.11.2019
4241 Clouds 15 1017 87 10000 3.6 280 07:22 17.11.2019
4242 Clouds 15 1017 87 10000 3.6 270 06:56 17.11.2019
4243 Clouds 15 1017 87 10000 3.6 270 06:31 17.11.2019
4244 Clouds 15 1017 93 10000 3.1 280 05:39 17.11.2019
4245 Clouds 14 1017 100 10000 2.6 250 04:23 17.11.2019
4246 Drizzle 14 1017 100 6000 1.5 240 03:43 17.11.2019
4247 Rain 13 1017 100 4000 3.6 230 03:23 17.11.2019
4248 Drizzle 12 1019 100 6000 4.6 210 02:25 17.11.2019
4249 Rain 11 1019 87 8000 3.1 230 01:25 17.11.2019
4250 -273 0 0 0 0 0 00:53 17.11.2019
4251 Rain 11 1020 81 10000 2.1 220 00:22 17.11.2019
4252 Rain 11 1020 81 10000 2.1 230 23:44 16.11.2019
4253 Clouds 11 1020 76 10000 2.6 240 23:20 16.11.2019
4254 Clouds 11 1020 76 10000 2.6 240 22:59 16.11.2019
4255 Clouds 10 1020 81 10000 3.1 240 22:40 16.11.2019
4256 Clouds 10 1020 81 10000 3.1 240 22:40 16.11.2019
4257 Clouds 10 1020 81 10000 2.6 240 22:18 16.11.2019
4258 Clouds 10 1020 81 10000 1.5 260 21:42 16.11.2019
4259 Clouds 10 1020 76 10000 1.5 240 21:23 16.11.2019
4260 Clouds 10 1020 76 10000 1.5 240 20:59 16.11.2019
4261 Clouds 10 1020 76 10000 2.1 250 20:41 16.11.2019
4262 Clouds 10 1020 71 10000 2.1 260 20:20 16.11.2019
4263 Clouds 11 1020 71 10000 1.5 280 19:57 16.11.2019
4264 Clouds 11 1020 71 10000 1.5 280 19:39 16.11.2019
4265 Clouds 11 1020 66 10000 2.1 310 19:20 16.11.2019
4266 Clouds 12 1020 62 10000 3.1 310 18:45 16.11.2019
4267 Clouds 12 1020 58 10000 4.1 330 18:27 16.11.2019
4268 Clouds 12 1020 58 10000 5.7 340 17:56 16.11.2019
4269 Clouds 13 1020 58 10000 5.7 340 17:38 16.11.2019
4270 Clouds 13 1019 50 10000 5.7 340 17:19 16.11.2019
4271 Clouds 14 1019 54 10000 4.6 340 16:47 16.11.2019
4272 Clouds 14 1019 54 10000 4.6 340 16:29 16.11.2019
4273 Clouds 14 1019 54 10000 5.1 320 15:58 16.11.2019
4274 Clouds 14 1019 54 10000 4.6 310 15:39 16.11.2019
4275 Clouds 14 1019 54 10000 4.6 340 15:20 16.11.2019
4276 Clouds 14 1019 58 10000 3.6 330 14:57 16.11.2019
4277 Clouds 14 1019 58 10000 3.6 330 14:38 16.11.2019
4278 Clouds 14 1020 58 10000 5.1 350 14:19 16.11.2019
4279 Clouds 14 1020 54 10000 5.7 340 13:54 16.11.2019
4280 Clouds 14 1020 54 10000 5.7 340 13:36 16.11.2019
4281 Clouds 14 1020 58 10000 5.7 350 13:18 16.11.2019
4282 Clouds 13 1020 62 10000 5.1 340 12:42 16.11.2019
4283 Clouds 13 1020 62 10000 5.1 340 12:22 16.11.2019
4284 Clouds 12 1020 66 10000 4.6 360 11:56 16.11.2019
4285 Clouds 12 1020 66 10000 4.6 360 11:38 16.11.2019
4286 Clouds 12 1019 71 10000 6.2 340 11:19 16.11.2019
4287 Clouds 11 1019 76 10000 4.6 330 10:43 16.11.2019
4288 Clouds 10 1018 76 10000 4.6 340 10:25 16.11.2019
4289 Clouds 10 1018 76 10000 4.6 340 09:59 16.11.2019
4290 Clouds 9 1018 76 10000 6.2 340 09:40 16.11.2019
4291 Clouds 9 1018 81 10000 4.6 340 09:20 16.11.2019
4292 Clear 9 1017 81 10000 4.1 340 08:41 16.11.2019
4293 Clear 9 1017 81 10000 4.1 340 08:41 16.11.2019
4294 Clouds 8 1017 76 10000 5.7 330 08:21 16.11.2019
4295 Clouds 8 1017 81 10000 2.1 320 07:46 16.11.2019
4296 Clouds 8 1016 81 10000 1 0 07:22 16.11.2019
4297 Clouds 8 1016 81 10000 1 0 06:59 16.11.2019
4298 Clouds 8 1016 81 10000 1 0 06:59 16.11.2019
4299 Clouds 8 1016 81 10000 1 0 06:59 16.11.2019
4300 Clouds 8 1016 75 10000 3.6 320 06:41 16.11.2019
4301 Clouds 8 1016 81 10000 1 0 06:20 16.11.2019
4302 Clouds 8 1015 75 10000 4.1 320 04:34 16.11.2019
4303 Clouds 8 1015 75 10000 2.6 10 03:26 16.11.2019
4304 Clouds 8 1015 75 10000 2.6 10 03:26 16.11.2019
4305 Clouds 8 1015 75 10000 2.6 10 03:26 16.11.2019
4306 Clouds 9 1015 81 10000 2.1 300 02:36 16.11.2019
4307 Clouds 9 1015 76 10000 3.1 320 01:38 16.11.2019
4308 Clouds 9 1014 76 10000 2.1 300 00:49 16.11.2019
4309 Clouds 9 1014 76 10000 2.1 300 00:30 16.11.2019
4310 Clouds 9 1014 75 10000 1.5 290 23:56 15.11.2019
4311 Clouds 9 1014 75 10000 1.5 290 23:38 15.11.2019
4312 Clouds 9 1014 75 10000 1.5 250 23:20 15.11.2019
4313 Rain 9 1014 76 10000 3.6 340 22:40 15.11.2019
4314 Clouds 9 1013 75 10000 1.5 300 22:20 15.11.2019
4315 Clouds 9 1013 75 10000 1.5 300 22:20 15.11.2019
4316 Clouds 9 1013 75 10000 1 0 21:57 15.11.2019
4317 Clouds 9 1013 75 10000 1 0 21:38 15.11.2019
4318 Clouds 9 1013 75 10000 1.5 320 21:20 15.11.2019
4319 Clouds 9 1013 75 10000 1.5 320 20:56 15.11.2019
4320 Clouds 9 1013 75 10000 1.5 0 20:38 15.11.2019
4321 Clouds 9 1013 75 10000 1.5 340 20:20 15.11.2019
4322 Clouds 9 1013 75 10000 2.1 330 19:57 15.11.2019
4323 Clouds 9 1013 75 10000 2.1 330 19:38 15.11.2019
4324 Clouds 9 1013 81 10000 2.6 320 19:19 15.11.2019
4325 Rain 10 1013 76 8000 9.3 350 18:55 15.11.2019
4326 Rain 10 1013 76 8000 9.3 350 18:37 15.11.2019
4327 Rain 10 1012 54 10000 5.7 350 18:19 15.11.2019
4328 Clouds 11 1012 54 10000 8.2 350 17:41 15.11.2019
4329 Clouds 11 1012 58 10000 5.1 320 17:23 15.11.2019
4330 Clouds 12 1012 62 10000 7.7 330 16:56 15.11.2019
4331 Clouds 12 1012 62 10000 7.7 330 16:37 15.11.2019
4332 Clouds 12 1012 54 10000 6.7 340 16:19 15.11.2019
4333 Clouds 13 1012 54 10000 8.7 340 15:38 15.11.2019
4334 Clouds 12 1012 58 10000 8.2 350 15:20 15.11.2019
4335 Clouds 13 1012 62 10000 7.2 330 14:57 15.11.2019
4336 Clouds 13 1012 62 10000 7.2 330 14:38 15.11.2019
4337 Clouds 12 1013 71 10000 4.6 310 14:19 15.11.2019
4338 Rain 12 1013 62 10000 7.2 330 13:57 15.11.2019
4339 Rain 12 1013 62 10000 7.2 330 13:39 15.11.2019
4340 Rain 12 1013 62 10000 7.2 330 13:39 15.11.2019
4341 Clouds 12 1014 66 10000 4.6 330 13:20 15.11.2019
4342 Clouds 12 1014 66 10000 4.6 330 12:57 15.11.2019
4343 Rain 11 1014 66 10000 8.2 330 12:39 15.11.2019
4344 Clouds 11 1014 66 10000 6.2 340 12:20 15.11.2019
4345 Clouds 11 1014 76 10000 2.1 310 11:57 15.11.2019
4346 Clouds 10 1014 76 10000 2.1 310 11:38 15.11.2019
4347 Rain 11 1014 76 10000 2.1 20 11:19 15.11.2019
4348 Clouds 11 1014 70 10000 3.1 340 10:41 15.11.2019
4349 Clouds 10 1013 76 10000 4.6 330 10:22 15.11.2019
4350 Clouds 10 1013 81 10000 2.6 290 09:58 15.11.2019
4351 Clouds 10 1013 81 10000 2.6 290 09:40 15.11.2019
4352 Clouds 9 1013 81 10000 2.6 300 09:19 15.11.2019
4353 Clouds 9 1013 87 10000 2.1 290 08:44 15.11.2019
4354 Clouds 9 1013 87 10000 1.5 300 08:23 15.11.2019
4355 Clouds 8 1013 81 10000 2.6 330 07:48 15.11.2019
4356 Clouds 8 1013 81 10000 2.6 330 07:28 15.11.2019
4357 Rain 8 1013 87 10000 4.6 350 06:50 15.11.2019
4358 Rain 8 1013 87 10000 4.6 350 06:31 15.11.2019
4359 Clouds 9 1012 87 10000 2.6 360 05:40 15.11.2019
4360 Clouds 9 1012 81 10000 3.1 350 05:22 15.11.2019
4361 Clouds 10 1013 81 10000 1 0 03:53 15.11.2019
4362 Clouds 11 1013 71 10000 1.5 310 03:23 15.11.2019
4363 Clouds 10 1013 87 10000 1.5 0 02:19 15.11.2019
4364 Clouds 10 1013 87 10000 1 0 01:33 15.11.2019
4365 Clouds 10 1013 87 10000 1 0 01:33 15.11.2019
4366 Clouds 10 1013 81 10000 1 0 00:54 15.11.2019
4367 Clouds 10 1013 76 10000 1 0 00:33 15.11.2019
4368 Clouds 10 1013 76 10000 1 0 23:53 14.11.2019
4369 Clouds 10 1014 76 10000 2.6 330 23:29 14.11.2019
4370 Rain 10 1013 71 10000 5.1 340 22:59 14.11.2019
4371 Rain 11 1013 71 10000 5.1 340 22:40 14.11.2019
4372 Clouds 11 1013 66 10000 5.1 320 22:21 14.11.2019
4373 Clouds 11 1013 66 10000 5.1 320 22:21 14.11.2019
4374 Clouds 11 1012 71 10000 4.1 320 21:56 14.11.2019
4375 Clouds 11 1012 71 10000 4.1 320 21:56 14.11.2019
4376 Clouds 12 1012 71 10000 4.1 320 21:38 14.11.2019
4377 Clouds 12 1012 71 10000 5.1 320 21:19 14.11.2019
4378 Thunderstorm 13 1012 76 10000 4.1 330 20:42 14.11.2019
4379 Thunderstorm 13 1012 76 10000 4.1 330 20:42 14.11.2019
4380 Rain 13 1012 76 10000 5.1 300 20:24 14.11.2019
4381 Rain 13 1012 76 10000 5.1 300 19:59 14.11.2019
4382 Rain 13 1012 76 10000 5.1 300 19:41 14.11.2019
4383 Clouds 13 1012 76 10000 4.6 310 19:18 14.11.2019
4384 Rain 13 1012 81 5000 6.2 300 18:56 14.11.2019
4385 Rain 13 1012 81 5000 6.2 300 18:38 14.11.2019
4386 Rain 14 1011 76 10000 5.7 310 18:20 14.11.2019
4387 Rain 14 1011 76 10000 5.7 310 17:55 14.11.2019
4388 Rain 14 1011 76 10000 5.1 300 17:37 14.11.2019
4389 Rain 14 1011 76 10000 5.1 300 17:18 14.11.2019
4390 Clouds 14 1011 82 10000 3.6 320 16:57 14.11.2019
4391 Clouds 14 1011 82 10000 3.6 320 16:36 14.11.2019
4392 Rain 14 1011 76 7000 6.7 320 16:18 14.11.2019
4393 Rain 13 1012 76 10000 7.2 320 15:54 14.11.2019
4394 Rain 13 1012 76 10000 7.2 320 15:36 14.11.2019
4395 Clouds 14 1012 71 10000 8.7 310 15:18 14.11.2019
4396 Rain 13 1012 71 10000 7.7 320 14:43 14.11.2019
4397 Rain 14 1012 58 10000 8.2 310 14:22 14.11.2019
4398 Clouds 14 1013 58 10000 8.2 300 13:56 14.11.2019
4399 Clouds 15 1013 58 10000 8.2 300 13:37 14.11.2019
4400 Clouds 15 1013 67 10000 7.2 310 13:19 14.11.2019
4401 Clouds 15 1013 67 10000 8.2 320 12:46 14.11.2019
4402 Rain 14 1013 76 10000 5.1 310 12:26 14.11.2019
4403 Rain 13 1013 76 10000 5.1 310 11:58 14.11.2019
4404 Rain 13 1013 76 10000 5.1 310 11:58 14.11.2019
4405 Rain 13 1013 87 10000 5.1 310 11:38 14.11.2019
4406 Rain 13 1014 87 7000 6.2 310 11:19 14.11.2019
4407 Rain 13 1014 87 7000 6.2 310 10:57 14.11.2019
4408 Rain 12 1013 81 10000 5.1 300 10:38 14.11.2019
4409 Rain 13 1013 82 10000 4.1 290 10:19 14.11.2019
4410 Rain 12 1013 82 10000 4.1 290 09:56 14.11.2019
4411 Rain 12 1013 82 10000 4.1 290 09:37 14.11.2019
4412 Rain 13 1013 87 10000 5.1 300 09:18 14.11.2019
4413 Rain 13 1013 87 10000 5.1 300 08:46 14.11.2019
4414 Rain 13 1013 87 10000 5.1 300 08:46 14.11.2019
4415 Rain 14 1013 87 6000 6.7 300 08:25 14.11.2019
4416 Rain 15 1013 82 10000 4.1 290 07:43 14.11.2019
4417 Rain 15 1013 82 10000 5.7 300 07:25 14.11.2019
4418 Rain 15 1013 82 10000 3.6 270 06:55 14.11.2019
4419 Rain 15 1013 82 10000 3.6 270 06:37 14.11.2019
4420 Clouds 14 1013 87 10000 4.1 270 06:18 14.11.2019
4421 Clouds 15 1014 82 10000 4.1 250 04:40 14.11.2019
4422 Clouds 13 1016 93 10000 3.1 270 03:52 14.11.2019
4423 Rain 14 1017 87 9000 3.6 270 02:41 14.11.2019
4424 Clouds 15 1017 82 10000 2.6 290 01:41 14.11.2019
4425 Clouds 15 1018 82 10000 3.1 290 01:20 14.11.2019
4426 Clouds 15 1017 82 10000 3.1 300 00:43 14.11.2019
4427 Clouds 15 1017 82 10000 3.1 300 00:43 14.11.2019
4428 Clouds 15 1018 87 10000 3.6 300 00:25 14.11.2019
4429 Clouds 15 1018 87 10000 2.6 300 23:40 13.11.2019
4430 Clouds 14 1018 82 10000 2.6 290 23:21 13.11.2019
4431 Clouds 14 1018 87 10000 2.1 290 22:56 13.11.2019
4432 Clouds 14 1018 87 10000 2.1 290 22:38 13.11.2019
4433 Clouds 14 1018 82 10000 2.1 280 22:20 13.11.2019
4434 Clear 14 1018 82 10000 2.1 310 21:55 13.11.2019
4435 Clear 13 1018 82 10000 2.1 310 21:37 13.11.2019
4436 Clear 14 1018 87 10000 1.5 0 21:19 13.11.2019
4437 Clouds 14 1018 82 10000 3.1 330 20:56 13.11.2019
4438 Clouds 14 1018 82 10000 3.1 330 20:37 13.11.2019
4439 Clouds 14 1018 82 10000 1.5 0 20:18 13.11.2019
4440 Clouds 14 1018 82 10000 1.5 340 19:44 13.11.2019
4441 Clouds 15 1017 77 10000 3.6 320 19:20 13.11.2019
4442 Clouds 15 1017 72 10000 3.1 310 18:58 13.11.2019
4443 Clouds 15 1017 72 10000 3.1 310 18:39 13.11.2019
4444 Clouds 16 1017 77 10000 5.7 350 18:21 13.11.2019
4445 Clouds 16 1017 77 10000 5.7 340 17:58 13.11.2019
4446 Clouds 16 1017 77 10000 5.7 340 17:40 13.11.2019
4447 Clouds 16 1017 77 10000 4.1 340 17:21 13.11.2019
4448 Clouds 16 1017 77 10000 7.2 340 16:58 13.11.2019
4449 Clouds 16 1017 77 10000 7.2 340 16:39 13.11.2019
4450 Clouds 17 1017 82 10000 4.6 320 16:21 13.11.2019
4451 Clouds 17 1017 82 10000 4.6 320 15:58 13.11.2019
4452 Clouds 17 1017 82 10000 4.6 320 15:39 13.11.2019
4453 Clouds 17 1017 82 10000 4.6 320 15:20 13.11.2019
4454 Clouds 17 1017 82 10000 4.1 290 14:43 13.11.2019
4455 Clouds 17 1017 77 10000 3.1 270 14:22 13.11.2019
4456 Clouds 17 1017 82 10000 3.6 300 13:58 13.11.2019
4457 Clouds 17 1017 82 10000 3.6 300 13:36 13.11.2019
4458 Clouds 17 1018 93 10000 2.6 300 13:18 13.11.2019
4459 Rain 17 1018 87 8000 2.6 300 12:55 13.11.2019
4460 Rain 17 1018 87 8000 2.6 300 12:37 13.11.2019
4461 Rain 17 1017 82 10000 3.6 310 12:19 13.11.2019
4462 Clouds 17 1017 82 10000 4.1 310 11:40 13.11.2019
4463 Clouds 16 1017 87 10000 4.6 310 11:21 13.11.2019
4464 Clouds 16 1016 87 10000 3.6 310 10:58 13.11.2019
4465 Clouds 16 1016 87 10000 3.6 310 10:40 13.11.2019
4466 Rain 16 1016 93 10000 2.6 290 10:20 13.11.2019
4467 Rain 16 1015 93 4000 3.6 320 09:56 13.11.2019
4468 Rain 16 1015 93 4000 3.6 320 09:38 13.11.2019
4469 Rain 16 1015 93 4000 3.6 320 09:38 13.11.2019
4470 Rain 16 1015 93 4000 3.6 320 09:20 13.11.2019
4471 Clouds 16 1014 93 10000 4.1 300 08:39 13.11.2019
4472 Clouds 15 1014 87 10000 5.1 300 08:20 13.11.2019
4473 Clouds 16 1014 87 10000 4.6 300 07:42 13.11.2019
4474 Drizzle 15 1014 100 6000 3.6 300 07:21 13.11.2019
4475 Clouds 15 1013 93 10000 6.2 270 06:46 13.11.2019
4476 Clouds 15 1013 93 10000 5.7 260 06:19 13.11.2019
4477 Clouds 15 1013 93 10000 5.7 260 06:19 13.11.2019
4478 Clouds 15 1013 93 10000 5.7 260 06:19 13.11.2019
4479 Drizzle 15 1014 100 4000 5.7 240 05:57 13.11.2019
4480 Drizzle 15 1014 100 4000 5.7 240 05:38 13.11.2019
4481 Drizzle 16 1014 87 6000 6.7 260 04:44 13.11.2019
4482 Clouds 16 1015 82 10000 5.7 260 02:28 13.11.2019
4483 Clouds 16 1016 82 10000 5.1 270 01:46 13.11.2019
4484 Clouds 16 1016 82 10000 5.1 270 00:57 13.11.2019
4485 Clouds 16 1016 93 10000 5.7 260 00:36 13.11.2019
4486 Clouds 16 1017 100 10000 3.1 280 23:42 12.11.2019
4487 Clouds 15 1017 100 10000 3.1 250 23:22 12.11.2019
4488 Clouds 15 1017 100 10000 4.1 250 22:58 12.11.2019
4489 Clouds 15 1017 100 10000 4.1 250 22:40 12.11.2019
4490 Clouds 15 1017 100 10000 4.1 250 22:40 12.11.2019
4491 Clouds 15 1017 93 10000 4.1 250 22:18 12.11.2019
4492 Clouds 15 1017 93 10000 4.1 250 21:44 12.11.2019
4493 Clouds 15 1017 93 10000 3.1 260 21:25 12.11.2019
4494 Clouds 14 1017 93 10000 3.1 260 20:58 12.11.2019
4495 Clouds 14 1018 93 10000 2.1 270 20:38 12.11.2019
4496 Clouds 14 1018 93 10000 2.1 270 20:19 12.11.2019
4497 Drizzle 14 1018 100 6000 3.1 310 19:58 12.11.2019
4498 Drizzle 14 1018 100 6000 3.1 310 19:40 12.11.2019
4499 Drizzle 15 1018 93 6000 2.1 300 19:20 12.11.2019
4500 Drizzle 15 1018 93 6000 2.1 300 18:59 12.11.2019
4501 Drizzle 15 1018 87 7000 2.6 280 18:41 12.11.2019
4502 Clouds 16 1018 77 10000 4.6 280 18:23 12.11.2019
4503 Clouds 16 1018 77 10000 4.6 280 17:58 12.11.2019
4504 Clouds 16 1018 77 10000 4.6 280 17:40 12.11.2019
4505 Clouds 16 1019 77 10000 3.6 290 17:21 12.11.2019
4506 Clouds 16 1019 77 10000 3.6 290 16:59 12.11.2019
4507 Clouds 16 1019 77 10000 4.1 290 16:40 12.11.2019
4508 Clouds 16 1019 72 10000 4.1 310 16:22 12.11.2019
4509 Clouds 16 1019 72 10000 3.6 310 15:42 12.11.2019
4510 Clouds 16 1019 67 10000 2.6 320 15:23 12.11.2019
4511 Clouds 16 1020 72 10000 4.1 310 14:57 12.11.2019
4512 Clouds 16 1020 72 10000 4.1 310 14:39 12.11.2019
4513 Clouds 16 1021 67 10000 5.7 330 14:19 12.11.2019
4514 Clouds 16 1021 72 10000 6.2 340 13:57 12.11.2019
4515 Clouds 16 1021 72 10000 6.2 340 13:39 12.11.2019
4516 Clouds 16 1022 77 10000 4.6 330 13:19 12.11.2019
4517 Clouds 16 1022 72 10000 6.2 350 12:43 12.11.2019
4518 Clouds 16 1022 72 10000 6.2 350 12:43 12.11.2019
4519 Clouds 15 1021 72 10000 6.2 350 12:20 12.11.2019
4520 Clouds 15 1021 72 10000 6.2 350 12:20 12.11.2019
4521 Clouds 15 1021 72 10000 6.2 350 11:59 12.11.2019
4522 Clouds 15 1021 72 10000 6.2 350 11:41 12.11.2019
4523 Clouds 15 1021 72 10000 6.2 340 11:22 12.11.2019
4524 Clouds 14 1022 67 10000 4.6 340 10:57 12.11.2019
4525 Clouds 14 1022 67 10000 4.6 340 10:39 12.11.2019
4526 Clouds 14 1022 67 10000 4.6 340 10:39 12.11.2019
4527 Clouds 14 1022 67 10000 4.6 340 10:39 12.11.2019
4528 Clear 14 1021 76 10000 3.6 340 10:21 12.11.2019
4529 Clouds 13 1021 81 10000 1 0 09:56 12.11.2019
4530 Clouds 13 1021 81 10000 1 0 09:38 12.11.2019
4531 Clouds 12 1021 81 10000 1 0 09:18 12.11.2019
4532 Clouds 12 1020 81 10000 1.5 0 08:46 12.11.2019
4533 Clear 12 1020 76 10000 4.1 330 08:27 12.11.2019
4534 Clouds 12 1020 76 10000 4.1 330 07:42 12.11.2019
4535 Clouds 12 1020 76 10000 3.6 330 07:23 12.11.2019
4536 Clouds 12 1020 81 10000 6.7 340 06:48 12.11.2019
4537 Clouds 12 1020 81 10000 7.7 330 06:24 12.11.2019
4538 Clouds 12 1020 81 10000 7.7 330 05:52 12.11.2019
4539 Clouds 12 1020 81 10000 7.7 330 04:50 12.11.2019
4540 Clouds 13 1020 76 10000 8.7 330 03:53 12.11.2019
4541 Clouds 13 1020 82 10000 8.2 330 01:50 12.11.2019
4542 Clouds 13 1021 82 10000 9.3 330 01:23 12.11.2019
4543 Clouds 13 1021 82 10000 8.7 330 00:52 12.11.2019
4544 Clouds 13 1021 82 10000 8.7 330 00:32 12.11.2019
4545 Clouds 13 1021 76 10000 8.2 330 23:49 11.11.2019
4546 Clouds 13 1021 76 10000 8.2 340 23:26 11.11.2019
4547 Clouds 13 1021 76 10000 8.2 340 22:59 11.11.2019
4548 Clouds 13 1021 76 10000 7.2 330 22:38 11.11.2019
4549 Clouds 13 1020 76 10000 9.3 330 22:19 11.11.2019
4550 Clouds 13 1020 76 10000 9.3 330 21:58 11.11.2019
4551 Clouds 13 1020 76 10000 10.8 340 21:39 11.11.2019
4552 Clouds 13 1020 76 10000 10.8 340 21:20 11.11.2019
4553 Clouds 14 1020 71 10000 11.3 340 20:55 11.11.2019
4554 Clouds 14 1020 71 10000 11.3 340 20:37 11.11.2019
4555 Clouds 14 1020 76 10000 11.8 340 20:19 11.11.2019
4556 Clouds 14 1020 76 10000 9.3 340 19:42 11.11.2019
4557 Clouds 14 1020 72 10000 10.8 330 19:19 11.11.2019
4558 Clouds 14 1020 72 10000 10.8 330 18:58 11.11.2019
4559 Clouds 14 1019 77 10000 10.3 330 18:40 11.11.2019
4560 Clouds 15 1019 72 10000 9.3 350 18:20 11.11.2019
4561 Clouds 16 1019 72 10000 8.2 340 17:45 11.11.2019
4562 Clouds 16 1019 67 10000 5.7 350 17:27 11.11.2019
4563 Clouds 16 1019 72 10000 8.2 330 16:58 11.11.2019
4564 Clouds 17 1020 77 10000 9.3 340 16:38 11.11.2019
4565 Clouds 17 1020 82 10000 8.7 340 16:20 11.11.2019
4566 Clouds 17 1020 77 10000 7.2 330 15:41 11.11.2019
4567 Clouds 18 1019 77 10000 8.7 330 15:20 11.11.2019
4568 Clouds 17 1019 77 10000 8.7 330 14:55 11.11.2019
4569 Clouds 17 1020 82 10000 6.2 320 14:37 11.11.2019
4570 Clouds 17 1020 82 10000 6.7 320 14:19 11.11.2019
4571 Clouds 17 1020 82 10000 6.7 320 13:56 11.11.2019
4572 Rain 17 1020 88 10000 7.2 330 13:36 11.11.2019
4573 Clouds 17 1021 88 10000 7.7 330 13:18 11.11.2019
4574 Drizzle 17 1021 93 10000 5.7 330 12:55 11.11.2019
4575 Drizzle 17 1021 93 10000 5.7 330 12:37 11.11.2019
4576 Rain 17 1021 93 10000 4.6 320 12:19 11.11.2019
4577 Rain 17 1021 93 10000 4.6 310 11:41 11.11.2019
4578 Rain 16 1021 100 10000 3.6 310 11:21 11.11.2019
4579 Drizzle 16 1022 93 10000 3.6 310 10:44 11.11.2019
4580 Rain 16 1021 93 10000 4.1 310 10:20 11.11.2019
4581 Rain 16 1021 93 10000 4.1 310 09:59 11.11.2019
4582 Rain 16 1021 93 10000 4.6 320 09:41 11.11.2019
4583 Clouds 16 1021 93 8000 4.6 330 09:20 11.11.2019
4584 Clouds 16 1021 87 10000 1.5 320 08:42 11.11.2019
4585 Clouds 16 1021 87 10000 3.1 350 08:23 11.11.2019
4586 Clouds 16 1021 87 10000 4.6 350 07:57 11.11.2019
4587 Clouds 16 1021 87 10000 4.6 350 07:38 11.11.2019
4588 Clouds 15 1021 93 10000 4.1 340 07:19 11.11.2019
4589 Clouds 15 1021 93 10000 4.1 340 06:55 11.11.2019
4590 Clouds 15 1021 93 10000 5.7 340 06:37 11.11.2019
4591 Clouds 15 1021 93 10000 6.7 340 06:18 11.11.2019
4592 Drizzle 16 1021 93 6000 3.1 310 05:42 11.11.2019
4593 Drizzle 16 1021 93 10000 3.6 300 03:26 11.11.2019
4594 Clouds 16 1022 93 10000 4.6 310 02:30 11.11.2019
4595 Clouds 16 1022 87 10000 5.1 300 01:58 11.11.2019
4596 Clouds 16 1022 87 10000 5.7 310 01:36 11.11.2019
4597 Clouds 15 1023 93 10000 4.1 300 00:54 11.11.2019
4598 Clouds 15 1023 93 10000 4.1 300 00:33 11.11.2019
4599 Drizzle 15 1023 93 7000 3.6 280 23:58 10.11.2019
4600 Drizzle 15 1023 93 5000 2.6 260 23:37 10.11.2019
4601 Drizzle 15 1023 93 6000 2.6 260 23:19 10.11.2019
4602 Drizzle 14 1024 87 9000 3.1 300 22:55 10.11.2019
4603 Drizzle 14 1024 87 9000 3.1 300 22:37 10.11.2019
4604 Drizzle 14 1024 87 9000 3.1 300 22:37 10.11.2019
4605 Clouds 14 1023 87 10000 2.6 290 22:18 10.11.2019
4606 Clouds 14 1024 87 10000 2.6 320 21:55 10.11.2019
4607 Clouds 14 1024 87 10000 2.6 320 21:36 10.11.2019
4608 Clouds 14 1024 93 10000 3.1 320 21:18 10.11.2019
4609 Drizzle 14 1024 87 6000 2.6 310 20:41 10.11.2019
4610 Clouds 14 1024 82 10000 3.1 320 20:22 10.11.2019
4611 Clouds 14 1024 82 10000 3.1 320 19:56 10.11.2019
4612 Drizzle 14 1024 87 9000 5.1 310 19:37 10.11.2019
4613 Drizzle 13 1024 87 7000 4.1 300 19:18 10.11.2019
4614 Rain 13 1024 87 10000 5.1 290 18:57 10.11.2019
4615 Rain 13 1024 93 8000 6.7 330 18:57 10.11.2019
4616 -273 0 0 0 0 0 18:38 10.11.2019
4617 Clouds 14 1024 67 10000 4.6 320 18:19 10.11.2019
4618 Clouds 14 1024 67 10000 4.6 320 17:56 10.11.2019
4619 Clouds 15 1024 67 10000 4.6 320 17:38 10.11.2019
4620 Clouds 15 1024 77 10000 5.7 310 17:19 10.11.2019
4621 Clouds 15 1024 82 10000 4.6 320 16:57 10.11.2019
4622 Clouds 16 1024 82 10000 4.6 320 16:38 10.11.2019
4623 Rain 15 1024 87 10000 4.6 300 16:19 10.11.2019
4624 Rain 15 1024 87 10000 4.6 300 15:55 10.11.2019
4625 Rain 15 1024 87 10000 5.1 340 15:36 10.11.2019
4626 Clouds 16 1024 67 10000 5.7 310 15:18 10.11.2019
4627 Clouds 16 1024 67 10000 5.7 310 15:18 10.11.2019
4628 Clouds 16 1025 72 10000 4.6 320 14:41 10.11.2019
4629 Clouds 16 1025 72 10000 6.2 320 14:22 10.11.2019
4630 Clouds 16 1025 72 10000 6.2 320 13:58 10.11.2019
4631 Clouds 16 1025 63 10000 7.2 330 13:40 10.11.2019
4632 Clouds 16 1025 63 10000 5.7 320 13:20 10.11.2019
4633 Clouds 16 1026 63 10000 6.2 330 12:43 10.11.2019
4634 Clouds 16 1025 67 10000 4.6 330 12:21 10.11.2019
4635 Clouds 15 1026 67 10000 5.1 330 11:57 10.11.2019
4636 Clouds 15 1026 67 10000 5.1 330 11:39 10.11.2019
4637 Clouds 15 1026 71 10000 3.1 340 11:20 10.11.2019
4638 Clouds 15 1026 71 10000 3.1 340 10:59 10.11.2019
4639 Clouds 15 1025 71 10000 3.1 320 10:40 10.11.2019
4640 Clouds 15 1025 71 10000 3.1 320 10:40 10.11.2019
4641 Rain 14 1026 76 10000 3.6 350 10:20 10.11.2019
4642 Rain 14 1026 76 10000 3.6 350 10:20 10.11.2019
4643 Clouds 14 1025 76 10000 3.6 320 09:43 10.11.2019
4644 Clouds 14 1025 76 10000 3.6 320 09:43 10.11.2019
4645 Clouds 13 1025 76 10000 3.6 330 09:23 10.11.2019
4646 Clouds 13 1024 76 10000 3.6 320 08:43 10.11.2019
4647 Clouds 13 1024 76 10000 4.1 330 08:21 10.11.2019
4648 Clouds 14 1024 76 10000 4.1 330 07:59 10.11.2019
4649 Clouds 14 1024 76 10000 4.1 330 07:40 10.11.2019
4650 Clouds 13 1024 76 10000 6.2 330 07:21 10.11.2019
4651 Clouds 14 1024 82 10000 5.7 330 06:31 10.11.2019
4652 Clouds 14 1024 76 10000 3.6 330 05:32 10.11.2019
4653 Clouds 14 1025 82 10000 3.1 310 03:22 10.11.2019
4654 Clouds 14 1025 82 10000 2.6 300 01:47 10.11.2019
4655 Clouds 14 1025 82 10000 3.1 320 01:19 10.11.2019
4656 Clouds 14 1025 82 10000 3.6 320 00:40 10.11.2019
4657 Clouds 13 1025 82 10000 6.2 330 23:48 09.11.2019
4658 Clouds 13 1025 82 10000 3.6 330 23:21 09.11.2019
4659 Clouds 13 1025 82 10000 3.6 330 22:59 09.11.2019
4660 Clouds 13 1024 82 10000 3.1 320 22:41 09.11.2019
4661 Clouds 13 1024 76 10000 4.6 330 22:20 09.11.2019
4662 Clouds 14 1024 76 10000 4.6 330 21:56 09.11.2019
4663 Clouds 14 1024 82 10000 5.1 330 21:56 09.11.2019
4664 Clouds 14 1024 82 10000 5.1 330 21:37 09.11.2019
4665 Clouds 14 1024 76 10000 5.7 340 21:19 09.11.2019
4666 Clouds 14 1024 82 10000 6.2 330 20:42 09.11.2019
4667 Clouds 14 1023 82 10000 7.2 330 20:22 09.11.2019
4668 Clouds 14 1023 82 10000 7.2 330 19:58 09.11.2019
4669 Clouds 14 1023 87 10000 7.2 340 19:39 09.11.2019
4670 Clouds 14 1022 87 10000 8.2 340 19:21 09.11.2019
4671 Drizzle 14 1022 100 5000 8.7 340 18:55 09.11.2019
4672 Drizzle 15 1022 100 5000 8.7 340 18:36 09.11.2019
4673 Drizzle 15 1022 93 4000 5.1 320 18:18 09.11.2019
4674 Drizzle 16 1021 93 5000 4.6 270 17:41 09.11.2019
4675 Drizzle 16 1021 93 6000 5.7 260 17:22 09.11.2019
4676 Clouds 16 1022 93 10000 4.6 230 16:44 09.11.2019
4677 Drizzle 16 1022 93 6000 5.1 240 16:23 09.11.2019
4678 Drizzle 16 1022 93 6000 5.1 240 15:59 09.11.2019
4679 Drizzle 16 1022 93 7000 4.6 230 15:41 09.11.2019
4680 Drizzle 15 1023 87 6000 5.7 230 15:23 09.11.2019
4681 Clouds 16 1023 77 10000 6.2 260 14:45 09.11.2019
4682 Clouds 16 1024 77 10000 5.7 230 14:22 09.11.2019
4683 Clouds 16 1024 77 10000 5.7 230 13:58 09.11.2019
4684 Clouds 16 1024 77 10000 6.2 240 13:39 09.11.2019
4685 Clouds 16 1025 72 10000 6.2 240 13:21 09.11.2019
4686 Clouds 16 1025 72 10000 6.2 240 12:56 09.11.2019
4687 Clouds 16 1025 72 10000 6.2 240 12:56 09.11.2019
4688 Clouds 16 1025 77 10000 5.7 250 12:38 09.11.2019
4689 Clouds 16 1025 72 10000 4.1 240 12:20 09.11.2019
4690 Clouds 15 1025 77 10000 3.6 230 11:48 09.11.2019
4691 Clouds 15 1025 71 10000 2.1 220 11:22 09.11.2019
4692 Clouds 14 1025 81 10000 3.1 220 10:57 09.11.2019
4693 Clouds 13 1025 81 10000 3.1 220 10:39 09.11.2019
4694 Clouds 12 1026 81 10000 2.1 260 10:18 09.11.2019
4695 Clouds 11 1025 81 10000 1.5 260 09:44 09.11.2019
4696 Clouds 10 1025 87 10000 1 0 09:21 09.11.2019
4697 Clouds 10 1025 87 10000 2.6 260 08:56 09.11.2019
4698 Clouds 10 1025 87 10000 2.6 260 08:37 09.11.2019
4699 Clouds 9 1025 81 10000 1 290 08:18 09.11.2019
4700 Clouds 9 1025 81 10000 1.5 300 07:42 09.11.2019
4701 Clouds 10 1025 81 10000 2.6 300 07:22 09.11.2019
4702 Clouds 9 1025 87 10000 2.6 270 06:47 09.11.2019
4703 Clouds 10 1025 81 10000 2.6 270 06:28 09.11.2019
4704 Clouds 10 1024 81 10000 2.6 260 05:42 09.11.2019
4705 Clouds 10 1025 87 10000 2.1 270 04:51 09.11.2019
4706 Clouds 10 1025 76 10000 2.1 260 02:57 09.11.2019
4707 Clouds 10 1025 76 10000 2.1 260 02:39 09.11.2019
4708 Clouds 10 1026 81 10000 1.5 270 01:43 09.11.2019
4709 Clouds 10 1026 81 10000 1.5 260 00:49 09.11.2019
4710 Clouds 10 1026 81 10000 1.5 260 00:29 09.11.2019
4711 Clouds 11 1026 81 10000 2.1 270 23:43 08.11.2019
4712 Clear 11 1026 81 10000 1 280 23:23 08.11.2019
4713 Clear 11 1026 81 10000 1 280 22:59 08.11.2019
4714 Clear 11 1025 76 10000 1 300 22:41 08.11.2019
4715 Clear 11 1025 76 10000 1.5 310 22:21 08.11.2019
4716 Clear 11 1025 71 10000 1.5 310 21:55 08.11.2019
4717 Clear 11 1025 71 10000 1.5 310 21:36 08.11.2019
4718 Clear 11 1025 71 10000 3.1 330 21:18 08.11.2019
4719 Clear 12 1025 71 10000 3.1 320 20:41 08.11.2019
4720 Clear 12 1025 71 10000 3.6 340 20:20 08.11.2019
4721 Clouds 12 1024 71 10000 3.1 330 19:56 08.11.2019
4722 Clouds 12 1024 71 10000 3.1 330 19:37 08.11.2019
4723 Clouds 14 1024 66 10000 3.6 320 19:18 08.11.2019
4724 Clouds 14 1024 62 10000 4.1 320 18:55 08.11.2019
4725 Clouds 14 1024 62 10000 4.1 320 18:55 08.11.2019
4726 Clouds 14 1024 62 10000 4.1 320 18:37 08.11.2019
4727 Clouds 15 1024 58 10000 3.6 320 18:18 08.11.2019
4728 Clouds 15 1023 54 10000 3.6 320 17:55 08.11.2019
4729 Clouds 15 1023 54 10000 3.6 320 17:36 08.11.2019
4730 Clouds 16 1023 54 10000 5.7 340 17:18 08.11.2019
4731 Clouds 16 1023 55 10000 3.6 300 16:57 08.11.2019
4732 Clouds 16 1023 55 10000 3.6 300 16:39 08.11.2019
4733 Clouds 16 1023 55 10000 4.6 330 16:19 08.11.2019
4734 Clouds 16 1023 51 10000 4.1 320 15:56 08.11.2019
4735 Clouds 16 1023 51 10000 4.1 320 15:38 08.11.2019
4736 Clouds 16 1023 54 10000 5.7 350 15:19 08.11.2019
4737 Clouds 16 1023 51 10000 5.7 340 14:55 08.11.2019
4738 Clouds 16 1023 51 10000 5.7 340 14:36 08.11.2019
4739 Clouds 16 1023 54 10000 5.1 340 14:18 08.11.2019
4740 Clouds 15 1023 58 10000 5.7 350 13:42 08.11.2019
4741 Clouds 15 1023 58 10000 5.7 350 13:22 08.11.2019
4742 Clouds 15 1023 58 10000 5.7 350 12:57 08.11.2019
4743 Clouds 15 1024 67 10000 5.7 340 12:39 08.11.2019
4744 Clouds 15 1023 71 10000 3.6 340 12:21 08.11.2019
4745 Clouds 14 1023 71 10000 2.1 360 11:55 08.11.2019
4746 Clouds 13 1023 71 10000 2.1 360 11:37 08.11.2019
4747 Clouds 13 1023 71 10000 1.5 90 11:18 08.11.2019
4748 Rain 12 1023 76 10000 2.1 350 10:42 08.11.2019
4749 Rain 12 1023 76 10000 2.6 340 10:22 08.11.2019
4750 Clouds 11 1022 81 10000 1.5 310 09:58 08.11.2019
4751 Clouds 11 1022 81 10000 1.5 310 09:39 08.11.2019
4752 Clouds 11 1021 87 10000 1 0 09:19 08.11.2019
4753 Clouds 11 1021 87 10000 1.5 280 08:46 08.11.2019
4754 Clouds 12 1020 81 10000 2.1 300 08:23 08.11.2019
4755 Rain 12 1020 87 10000 2.6 310 07:57 08.11.2019
4756 Rain 12 1020 87 10000 2.6 310 07:38 08.11.2019
4757 Clouds 11 1020 93 10000 5.74 339 07:19 08.11.2019
4758 Clouds 11 1020 93 10000 1 0 06:38 08.11.2019
4759 Clouds 12 1020 87 10000 4.1 340 06:20 08.11.2019
4760 Clouds 13 1019 81 10000 1.5 310 05:39 08.11.2019
4761 Clouds 13 1019 87 10000 1.5 290 04:43 08.11.2019
4762 Clouds 11 1019 93 10000 1.5 320 03:43 08.11.2019
4763 Rain 12 1019 87 7000 3.1 360 03:20 08.11.2019
4764 Clouds 13 1019 81 10000 2.6 310 02:26 08.11.2019
4765 Rain 13 1019 81 10000 1.5 310 01:46 08.11.2019
4766 Clouds 13 1019 76 10000 3.1 310 01:18 08.11.2019
4767 Clouds 13 1019 76 10000 2.1 300 00:24 08.11.2019
4768 Clouds 13 1019 76 10000 2.1 300 23:57 07.11.2019
4769 Clouds 13 1019 76 10000 2.6 310 23:39 07.11.2019
4770 Clouds 13 1019 76 10000 2.6 290 23:20 07.11.2019
4771 Clouds 13 1019 82 10000 2.6 290 22:42 07.11.2019
4772 Rain 13 1019 71 10000 3.6 310 22:21 07.11.2019
4773 Clouds 13 1019 71 10000 2.6 280 21:56 07.11.2019
4774 Clouds 13 1019 71 10000 2.6 280 21:37 07.11.2019
4775 Clouds 13 1019 76 10000 2.1 300 21:19 07.11.2019
4776 Clouds 13 1019 76 10000 5.7 340 20:56 07.11.2019
4777 Clouds 13 1019 76 10000 5.7 340 20:38 07.11.2019
4778 Rain 14 1019 62 10000 3.6 300 20:20 07.11.2019
4779 Clouds 14 1018 62 10000 3.6 290 19:54 07.11.2019
4780 Clouds 14 1018 62 10000 3.6 290 19:36 07.11.2019
4781 Clouds 15 1018 58 10000 3.1 290 19:18 07.11.2019
4782 Clouds 15 1018 58 10000 4.1 310 18:55 07.11.2019
4783 Clouds 15 1018 58 10000 4.1 310 18:36 07.11.2019
4784 Clouds 15 1018 51 10000 4.6 300 18:18 07.11.2019
4785 Clouds 16 1018 55 10000 4.1 310 17:40 07.11.2019
4786 Clouds 16 1018 55 10000 4.1 310 17:40 07.11.2019
4787 Clouds 16 1018 55 10000 4.1 310 17:21 07.11.2019
4788 Clouds 16 1018 59 10000 6.2 320 16:58 07.11.2019
4789 Clouds 16 1018 51 10000 5.7 310 16:40 07.11.2019
4790 Clouds 16 1018 51 10000 5.7 310 16:20 07.11.2019
4791 Clouds 17 1018 55 10000 4.6 300 15:57 07.11.2019
4792 Clouds 17 1019 59 10000 6.7 320 15:38 07.11.2019
4793 Clouds 16 1019 59 10000 6.7 320 15:19 07.11.2019
4794 Clouds 17 1019 48 10000 5.7 320 14:45 07.11.2019
4795 Clouds 17 1019 48 10000 5.7 320 14:27 07.11.2019
4796 Clouds 17 1019 59 10000 7.7 330 13:57 07.11.2019
4797 Clouds 17 1019 55 10000 7.7 330 13:38 07.11.2019
4798 Clouds 17 1019 55 10000 7.7 330 13:20 07.11.2019
4799 Clouds 17 1019 51 10000 7.2 330 12:58 07.11.2019
4800 Clouds 17 1020 55 10000 8.2 340 12:40 07.11.2019
4801 Clouds 16 1020 55 10000 8.2 340 12:21 07.11.2019
4802 Clouds 16 1020 55 10000 8.2 340 12:21 07.11.2019
4803 Clouds 16 1019 63 10000 6.2 340 11:58 07.11.2019
4804 Clouds 16 1019 72 10000 5.7 350 11:39 07.11.2019
4805 Clouds 16 1019 72 10000 5.7 350 11:20 07.11.2019
4806 Clouds 15 1019 82 10000 3.6 330 10:40 07.11.2019
4807 Clouds 14 1019 82 10000 3.6 330 10:19 07.11.2019
4808 Clouds 14 1018 76 10000 2.1 300 09:43 07.11.2019
4809 Clouds 13 1017 82 10000 2.1 330 09:23 07.11.2019
4810 Clouds 13 1018 82 10000 1.5 290 09:23 07.11.2019
4811 Clouds 13 1018 82 10000 1.5 290 09:23 07.11.2019
4812 Clouds 13 1017 82 10000 2.1 330 08:57 07.11.2019
4813 Clouds 13 1017 87 10000 2.1 320 08:39 07.11.2019
4814 -273 0 0 0 0 0 08:21 07.11.2019
4815 Clouds 13 1017 87 10000 2.1 320 08:20 07.11.2019
4816 Clouds 13 1016 87 10000 2.6 330 07:42 07.11.2019
4817 Clouds 13 1016 87 10000 2.6 320 07:23 07.11.2019
4818 Clouds 13 1016 87 10000 2.6 320 07:21 07.11.2019
4819 Clouds 13 1016 93 10000 4.6 340 06:46 07.11.2019
4820 -273 0 0 0 0 0 06:27 07.11.2019
4821 Clouds 14 1016 87 10000 5.1 330 06:27 07.11.2019
4822 Clouds 14 1016 93 7000 7.2 340 05:51 07.11.2019
4823 Drizzle 14 1016 100 10000 6.7 340 05:32 07.11.2019
4824 Drizzle 14 1016 100 10000 6.7 340 05:32 07.11.2019
4825 Drizzle 14 1016 93 10000 7.2 340 04:53 07.11.2019
4826 Clouds 15 1015 100 10000 5.1 330 04:31 07.11.2019
4827 Clouds 15 1015 100 10000 5.1 330 04:30 07.11.2019
4828 Drizzle 16 1016 93 6000 4.6 270 01:49 07.11.2019
4829 Clouds 16 1016 93 10000 4.6 260 00:46 07.11.2019
4830 -273 0 0 0 0 0 00:18 07.11.2019
4831 Drizzle 16 1017 100 4500 4.6 240 23:45 06.11.2019
4832 Drizzle 16 1017 100 4500 4.6 240 23:21 06.11.2019
4833 Drizzle 16 1017 93 8000 4.6 240 22:55 06.11.2019
4834 Drizzle 16 1017 93 9000 3.6 230 22:37 06.11.2019
4835 Drizzle 16 1017 93 9000 3.6 230 22:18 06.11.2019
4836 Clouds 16 1018 93 10000 4.1 240 21:42 06.11.2019
4837 Clouds 16 1018 93 10000 4.1 240 21:20 06.11.2019
4838 Clouds 16 1018 87 10000 3.6 240 20:58 06.11.2019
4839 Clouds 16 1018 87 10000 3.6 240 20:40 06.11.2019
4840 Clouds 16 1018 87 10000 3.6 240 20:21 06.11.2019
4841 Clouds 16 1018 87 10000 3.1 270 19:58 06.11.2019
4842 Clouds 16 1018 82 10000 4.1 270 19:39 06.11.2019
4843 Clouds 16 1018 82 10000 4.1 270 19:21 06.11.2019
4844 Clouds 16 1018 82 10000 2.1 280 18:57 06.11.2019
4845 Clouds 16 1018 82 10000 2.1 280 18:38 06.11.2019
4846 Clouds 16 1018 72 10000 4.1 290 18:19 06.11.2019
4847 Clouds 17 1018 72 10000 4.6 280 17:56 06.11.2019
4848 Clouds 17 1018 72 10000 4.6 280 17:37 06.11.2019
4849 Clouds 16 1019 77 10000 3.1 290 17:18 06.11.2019
4850 Clouds 17 1019 77 10000 4.1 270 16:54 06.11.2019
4851 Clouds 17 1019 77 10000 4.1 270 16:36 06.11.2019
4852 Clouds 17 1019 72 10000 4.1 280 16:18 06.11.2019
4853 Clouds 17 1019 72 10000 3.6 300 15:54 06.11.2019
4854 Clouds 17 1019 72 10000 3.6 300 15:36 06.11.2019
4855 Clouds 17 1019 63 10000 4.1 310 15:18 06.11.2019
4856 Clouds 17 1019 63 10000 4.1 310 14:55 06.11.2019
4857 Clouds 17 1019 63 10000 4.1 310 14:37 06.11.2019
4858 Clouds 18 1020 68 10000 5.1 280 14:18 06.11.2019
4859 Clouds 18 1020 68 10000 5.1 280 14:18 06.11.2019
4860 Clouds 18 1020 68 10000 4.1 290 13:39 06.11.2019
4861 Clouds 17 1021 72 10000 3.1 290 13:21 06.11.2019
4862 Clouds 17 1021 72 10000 2.1 290 12:58 06.11.2019
4863 Clouds 17 1021 72 10000 2.1 290 12:39 06.11.2019
4864 Clouds 17 1021 77 10000 3.6 320 12:20 06.11.2019
4865 Clouds 16 1021 77 10000 3.6 320 11:58 06.11.2019
4866 Clouds 16 1021 77 10000 2.1 310 11:37 06.11.2019
4867 Clouds 16 1021 82 10000 2.1 260 11:18 06.11.2019
4868 Clouds 16 1021 87 10000 2.1 220 10:56 06.11.2019
4869 Clouds 16 1021 87 10000 2.1 220 10:38 06.11.2019
4870 Clouds 15 1021 82 10000 1 0 10:19 06.11.2019
4871 Clouds 15 1021 87 10000 1.5 270 09:44 06.11.2019
4872 Clouds 14 1021 93 10000 1 0 09:23 06.11.2019
4873 Clouds 14 1021 93 10000 1 0 08:59 06.11.2019
4874 Clouds 13 1020 87 10000 1.5 220 08:39 06.11.2019
4875 Clouds 13 1021 87 10000 2.1 240 08:20 06.11.2019
4876 Clouds 13 1021 87 10000 2.1 240 07:59 06.11.2019
4877 Clouds 13 1020 87 10000 0.5 0 07:40 06.11.2019
4878 Clouds 13 1020 82 10000 1 0 07:20 06.11.2019
4879 Clouds 13 1020 82 10000 1.5 310 06:44 06.11.2019
4880 Clouds 13 1020 82 10000 1.5 290 06:24 06.11.2019
4881 Clouds 13 1021 82 10000 2.6 310 04:32 06.11.2019
4882 Clouds 13 1021 87 10000 1.5 310 02:20 06.11.2019
4883 Clouds 13 1022 87 10000 0.5 0 01:31 06.11.2019
4884 Clouds 14 1021 82 10000 1 0 00:39 06.11.2019
4885 Clouds 14 1021 87 10000 1 0 23:58 05.11.2019
4886 Clouds 14 1021 87 10000 1 0 23:38 05.11.2019
4887 Clouds 14 1021 82 10000 2.1 270 23:20 05.11.2019
4888 Clouds 14 1021 82 10000 2.1 290 22:45 05.11.2019
4889 Clouds 15 1021 82 10000 2.1 290 22:20 05.11.2019
4890 Clouds 15 1021 82 10000 2.1 290 21:59 05.11.2019
4891 Clouds 15 1021 82 10000 2.1 290 21:59 05.11.2019
4892 Clouds 14 1021 82 10000 3.6 320 21:41 05.11.2019
4893 Clouds 14 1021 82 10000 3.6 320 21:41 05.11.2019
4894 Clouds 14 1020 82 10000 3.6 320 21:21 05.11.2019
4895 Clouds 14 1020 82 10000 3.6 320 20:57 05.11.2019
4896 Clouds 14 1020 82 10000 3.6 320 20:38 05.11.2019
4897 Rain 15 1020 87 10000 4.6 330 20:20 05.11.2019
4898 Rain 15 1020 87 10000 4.6 330 19:57 05.11.2019
4899 Clouds 15 1020 82 10000 4.1 320 19:38 05.11.2019
4900 Clouds 16 1020 72 10000 5.1 320 19:20 05.11.2019
4901 Clouds 16 1020 72 10000 5.1 320 18:57 05.11.2019
4902 Clouds 16 1019 77 10000 5.1 330 18:38 05.11.2019
4903 Rain 17 1019 72 10000 6.2 320 18:19 05.11.2019
4904 Clouds 17 1019 63 10000 6.7 330 17:57 05.11.2019
4905 Clouds 17 1019 63 10000 6.7 330 17:38 05.11.2019
4906 Clouds 17 1019 67 10000 5.7 330 17:18 05.11.2019
4907 Clouds 18 1019 63 10000 6.2 320 16:42 05.11.2019
4908 Clouds 18 1019 67 10000 6.2 310 16:22 05.11.2019
4909 Clouds 18 1019 67 10000 7.7 330 15:59 05.11.2019
4910 Clouds 18 1019 67 10000 7.7 330 15:37 05.11.2019
4911 Clouds 18 1019 67 10000 7.7 330 15:37 05.11.2019
4912 Clouds 18 1018 67 10000 6.2 340 15:19 05.11.2019
4913 Rain 18 1018 68 10000 5.1 310 14:57 05.11.2019
4914 Rain 18 1018 68 10000 5.1 310 14:38 05.11.2019
4915 Clouds 18 1018 68 10000 5.1 310 14:19 05.11.2019
4916 Clouds 18 1018 68 10000 5.1 310 14:19 05.11.2019
4917 Clouds 17 1018 72 10000 5.1 310 13:43 05.11.2019
4918 Rain 17 1019 77 10000 4.6 300 13:24 05.11.2019
4919 Rain 17 1019 77 10000 4.6 300 12:59 05.11.2019
4920 Clouds 17 1019 72 10000 5.7 310 12:39 05.11.2019
4921 Clouds 17 1019 72 10000 6.2 300 12:19 05.11.2019
4922 Clouds 17 1018 72 10000 5.1 300 11:54 05.11.2019
4923 Clouds 17 1018 72 10000 5.1 300 11:36 05.11.2019
4924 Clouds 17 1018 72 10000 5.1 300 11:36 05.11.2019
4925 Clouds 16 1018 77 10000 4.6 290 11:18 05.11.2019
4926 Clouds 16 1018 77 10000 4.6 290 11:18 05.11.2019
4927 Clouds 16 1018 77 10000 4.6 300 10:41 05.11.2019
4928 Clouds 15 1018 77 10000 4.1 290 10:23 05.11.2019
4929 Clouds 15 1018 77 10000 4.1 290 10:23 05.11.2019
4930 Rain 15 1017 82 10000 4.1 280 09:57 05.11.2019
4931 Rain 15 1017 82 10000 4.1 280 09:38 05.11.2019
4932 Clouds 15 1017 77 10000 2.6 270 09:19 05.11.2019
4933 Clouds 14 1017 87 10000 3.6 260 08:41 05.11.2019
4934 Clouds 15 1016 82 10000 2.6 270 08:21 05.11.2019
4935 Clouds 15 1016 82 10000 3.6 240 07:59 05.11.2019
4936 Clouds 15 1016 82 10000 3.6 240 07:41 05.11.2019
4937 Clouds 15 1016 82 10000 3.1 280 07:23 05.11.2019
4938 Rain 15 1016 77 10000 4.1 270 06:51 05.11.2019
4939 Clouds 14 1015 76 10000 3.1 290 05:52 05.11.2019
4940 Clouds 15 1015 76 10000 3.1 290 05:34 05.11.2019
4941 Clouds 15 1015 71 10000 4.1 300 04:47 05.11.2019
4942 Rain 14 1016 82 8000 4.1 290 03:58 05.11.2019
4943 Clouds 15 1015 76 10000 3.1 290 03:23 05.11.2019
4944 Clouds 14 1015 67 10000 4.1 300 02:41 05.11.2019
4945 Clouds 14 1015 76 10000 4.1 300 01:27 05.11.2019
4946 Clouds 14 1015 82 10000 4.6 300 00:39 05.11.2019
4947 Clouds 15 1015 82 10000 4.6 300 23:59 04.11.2019
4948 Clouds 15 1015 72 10000 3.1 280 23:41 04.11.2019
4949 Clouds 15 1015 77 10000 3.1 280 23:18 04.11.2019
4950 Clouds 15 1015 82 10000 3.1 270 22:55 04.11.2019
4951 Clouds 15 1015 82 10000 3.1 270 22:36 04.11.2019
4952 Clouds 15 1015 82 10000 4.6 290 22:18 04.11.2019
4953 Clouds 15 1014 82 10000 3.1 280 21:54 04.11.2019
4954 Clouds 15 1014 82 10000 3.1 280 21:36 04.11.2019
4955 Clouds 16 1014 82 10000 4.1 300 21:18 04.11.2019
4956 Clouds 16 1014 82 10000 5.7 300 20:54 04.11.2019
4957 Clouds 16 1014 82 10000 5.7 300 20:36 04.11.2019
4958 Clouds 16 1014 82 10000 5.7 300 20:18 04.11.2019
4959 Clouds 16 1013 82 10000 4.6 280 19:42 04.11.2019
4960 Clouds 17 1013 82 10000 5.1 270 19:23 04.11.2019
4961 Clouds 17 1013 82 10000 4.1 250 18:58 04.11.2019
4962 Clouds 17 1013 82 10000 4.1 250 18:39 04.11.2019
4963 Clouds 17 1013 82 10000 4.1 250 18:39 04.11.2019
4964 Clouds 17 1013 88 10000 4.1 250 18:21 04.11.2019
4965 Clouds 16 1013 93 10000 4.1 250 17:56 04.11.2019
4966 Clouds 17 1013 93 10000 4.1 250 17:36 04.11.2019
4967 Clouds 17 1014 87 9000 5.1 270 17:18 04.11.2019
4968 Clouds 17 1014 82 10000 4.6 270 16:43 04.11.2019
4969 Rain 17 1013 88 6000 6.2 260 16:24 04.11.2019
4970 Drizzle 17 1014 93 3000 8.2 250 15:59 04.11.2019
4971 Drizzle 17 1014 93 3000 8.2 250 15:41 04.11.2019
4972 Clouds 17 1014 72 10000 9.3 250 15:21 04.11.2019
4973 Clouds 18 1014 72 10000 9.3 250 14:58 04.11.2019
4974 Clouds 18 1014 68 10000 8.7 250 14:39 04.11.2019
4975 Clouds 19 1014 68 10000 8.7 240 14:20 04.11.2019
4976 Clouds 19 1015 68 10000 7.7 250 13:58 04.11.2019
4977 Clouds 19 1015 68 10000 7.7 250 13:39 04.11.2019
4978 Clouds 19 1015 64 10000 8.2 240 13:21 04.11.2019
4979 Clouds 19 1015 64 10000 8.2 250 12:55 04.11.2019
4980 Clouds 19 1015 64 10000 8.2 250 12:37 04.11.2019
4981 Clouds 19 1015 68 10000 7.2 240 12:18 04.11.2019
4982 Clouds 19 1015 72 10000 6.2 240 11:42 04.11.2019
4983 Clouds 19 1016 72 10000 4.6 260 11:23 04.11.2019
4984 Clouds 19 1016 72 10000 4.6 260 11:23 04.11.2019
4985 Clouds 18 1016 72 10000 5.1 250 10:58 04.11.2019
4986 Clouds 18 1016 72 10000 5.1 250 10:58 04.11.2019
4987 Clouds 18 1016 72 10000 5.1 250 10:39 04.11.2019
4988 Clouds 18 1016 77 10000 5.1 250 10:20 04.11.2019
4989 Clouds 18 1016 82 10000 4.1 240 09:45 04.11.2019
4990 Clouds 18 1016 82 10000 4.1 240 09:27 04.11.2019
4991 Clouds 18 1015 72 10000 4.1 240 08:57 04.11.2019
4992 Clouds 17 1015 68 10000 5.1 240 08:37 04.11.2019
4993 Clouds 17 1015 72 10000 5.1 240 08:18 04.11.2019
4994 Clouds 18 1016 77 10000 4.6 260 07:43 04.11.2019
4995 Clouds 17 1016 82 10000 3.6 250 07:21 04.11.2019
4996 Clouds 17 1016 82 10000 4.1 240 06:56 04.11.2019
4997 Clouds 17 1016 82 10000 3.6 240 06:18 04.11.2019
4998 Clouds 17 1016 88 10000 3.6 250 05:46 04.11.2019
4999 Clouds 17 1016 82 10000 4.1 240 04:43 04.11.2019
5000 Clouds 17 1016 87 10000 4.1 240 04:21 04.11.2019
5001 Clouds 16 1017 93 10000 3.1 250 02:25 04.11.2019
5002 Clouds 17 1017 93 10000 3.6 250 01:21 04.11.2019
5003 Drizzle 16 1017 93 10000 4.1 240 00:40 04.11.2019
5004 Rain 16 1018 100 10000 3.6 240 00:20 04.11.2019
5005 Clouds 16 1018 93 10000 3.6 240 23:41 03.11.2019
5006 Clouds 16 1017 93 10000 1.5 230 23:21 03.11.2019
5007 Clouds 16 1017 93 10000 1.5 230 23:21 03.11.2019
5008 Clouds 16 1017 93 10000 1.5 230 23:21 03.11.2019
5009 Clouds 16 1018 100 10000 3.1 270 22:58 03.11.2019
5010 Clouds 16 1018 100 10000 3.1 270 22:40 03.11.2019
5011 Clouds 17 1018 93 10000 2.6 230 22:20 03.11.2019
5012 Clouds 16 1018 93 10000 2.6 230 21:57 03.11.2019
5013 Clouds 16 1018 93 10000 2.6 230 21:57 03.11.2019
5014 Clouds 16 1018 88 10000 2.6 240 21:38 03.11.2019
5015 Clouds 16 1017 88 10000 3.6 230 21:20 03.11.2019
5016 Clouds 16 1017 88 10000 3.6 250 20:55 03.11.2019
5017 Clouds 16 1017 88 10000 3.6 250 20:36 03.11.2019
5018 Clouds 16 1017 88 10000 3.1 250 20:18 03.11.2019
5019 Clouds 16 1017 88 10000 2.6 240 19:55 03.11.2019
5020 Clouds 16 1017 88 10000 2.6 240 19:37 03.11.2019
5021 Clouds 16 1017 88 10000 3.1 280 19:18 03.11.2019
5022 Clouds 17 1017 82 10000 3.6 290 18:38 03.11.2019
5023 Rain 17 1016 77 10000 4.1 270 18:18 03.11.2019
5024 Clouds 18 1016 77 10000 4.6 290 17:58 03.11.2019
5025 Clouds 18 1016 77 10000 4.6 290 17:40 03.11.2019
5026 Clouds 18 1016 72 10000 5.1 280 17:19 03.11.2019
5027 Clouds 18 1016 72 10000 5.1 300 16:55 03.11.2019
5028 Clouds 18 1016 72 10000 5.1 300 16:37 03.11.2019
5029 Clouds 18 1016 77 10000 5.1 300 16:18 03.11.2019
5030 Clouds 19 1016 77 10000 5.1 300 15:56 03.11.2019
5031 Rain 19 1016 77 10000 4.6 300 15:38 03.11.2019
5032 Clouds 18 1016 88 10000 3.6 300 15:20 03.11.2019
5033 Clouds 18 1016 88 10000 3.1 300 14:40 03.11.2019
5034 Drizzle 18 1016 93 6000 4.1 320 14:19 03.11.2019
5035 Clouds 19 1016 82 10000 4.1 310 13:56 03.11.2019
5036 Clouds 19 1016 82 10000 4.1 310 13:37 03.11.2019
5037 Drizzle 18 1016 82 8000 4.6 310 13:18 03.11.2019
5038 Clouds 18 1016 93 10000 5.7 310 12:38 03.11.2019
5039 Clouds 19 1015 82 10000 4.1 300 12:19 03.11.2019
5040 Clouds 18 1015 88 10000 4.1 300 11:56 03.11.2019
5041 Clouds 18 1015 88 10000 4.1 300 11:56 03.11.2019
5042 Clouds 18 1015 88 10000 4.1 300 11:38 03.11.2019
5043 Clouds 18 1015 93 10000 4.1 310 11:19 03.11.2019
5044 Drizzle 17 1015 93 4000 4.6 300 10:42 03.11.2019
5045 Clouds 17 1014 88 10000 4.1 300 10:22 03.11.2019
5046 Clouds 17 1014 88 10000 4.1 300 10:22 03.11.2019
5047 Clouds 17 1014 88 10000 4.1 300 09:58 03.11.2019
5048 Clouds 17 1014 88 10000 4.6 290 09:40 03.11.2019
5049 Drizzle 17 1013 93 3900 3.6 270 09:22 03.11.2019
5050 Drizzle 17 1013 88 10000 5.1 290 08:53 03.11.2019
5051 Clouds 17 1013 88 10000 5.7 280 08:25 03.11.2019
5052 Clouds 17 1013 93 10000 5.1 270 07:55 03.11.2019
5053 Clouds 17 1013 93 10000 5.1 270 07:37 03.11.2019
5054 Clouds 17 1012 93 10000 5.7 260 07:18 03.11.2019
5055 Clouds 17 1012 93 10000 5.7 250 06:38 03.11.2019
5056 Clouds 17 1012 88 10000 5.1 260 05:41 03.11.2019
5057 Drizzle 16 1012 100 4500 4.1 270 05:18 03.11.2019
5058 Clouds 17 1012 88 10000 5.7 250 04:47 03.11.2019
5059 Clouds 17 1013 88 10000 5.1 280 03:50 03.11.2019
5060 Clouds 17 1013 88 10000 4.6 290 02:46 03.11.2019
5061 Clouds 17 1013 82 10000 6.2 280 02:21 03.11.2019
5062 Clouds 17 1013 82 10000 6.2 280 02:21 03.11.2019
5063 Clouds 17 1013 88 10000 5.7 270 01:45 03.11.2019
5064 Clouds 17 1013 88 10000 5.1 270 01:22 03.11.2019
5065 Clouds 17 1013 88 10000 5.1 260 00:57 03.11.2019
5066 Clouds 17 1013 88 10000 5.1 260 00:37 03.11.2019
5067 Clouds 17 1013 88 10000 4.1 260 00:18 03.11.2019
5068 Clouds 17 1013 88 10000 5.1 260 23:39 02.11.2019
5069 Clouds 17 1013 88 10000 4.1 270 23:20 02.11.2019
5070 Clouds 17 1013 88 10000 3.6 270 22:56 02.11.2019
5071 Clouds 17 1013 88 10000 3.6 270 22:38 02.11.2019
5072 Clouds 17 1013 88 10000 3.6 260 22:19 02.11.2019
5073 Clouds 17 1013 88 10000 3.6 260 21:57 02.11.2019
5074 Clouds 17 1013 88 10000 4.1 250 21:38 02.11.2019
5075 Clouds 17 1013 88 10000 4.1 240 21:19 02.11.2019
5076 Clouds 17 1013 88 10000 4.1 240 21:19 02.11.2019
5077 Clouds 17 1013 88 10000 4.1 240 21:19 02.11.2019
5078 Clouds 17 1013 88 10000 4.1 240 21:19 02.11.2019
5079 Clouds 17 1013 88 10000 4.1 240 20:59 02.11.2019
5080 Clouds 17 1013 88 10000 4.1 260 20:41 02.11.2019
5081 Clouds 17 1013 82 10000 4.1 260 20:21 02.11.2019
5082 Clouds 17 1013 82 10000 3.6 280 19:58 02.11.2019
5083 Clouds 17 1013 82 10000 3.6 280 19:36 02.11.2019
5084 Clouds 17 1013 82 10000 4.6 260 19:18 02.11.2019
5085 Clouds 18 1013 82 10000 4.6 280 18:54 02.11.2019
5086 Clouds 18 1013 82 10000 4.6 280 18:36 02.11.2019
5087 Clouds 18 1013 82 10000 4.6 270 18:18 02.11.2019
5088 Clouds 18 1013 77 10000 5.1 280 17:43 02.11.2019
5089 Clouds 18 1013 77 10000 5.1 280 17:25 02.11.2019
5090 Clouds 18 1013 77 10000 5.1 280 16:59 02.11.2019
5091 Clouds 18 1013 82 10000 4.1 280 16:39 02.11.2019
5092 Clouds 18 1013 93 10000 4.1 280 16:20 02.11.2019
5093 Clouds 18 1013 82 10000 6.2 270 15:43 02.11.2019
5094 Clouds 19 1013 82 10000 5.1 280 15:21 02.11.2019
5095 Clouds 19 1014 77 10000 6.7 260 14:57 02.11.2019
5096 Clouds 19 1014 77 10000 6.7 260 14:39 02.11.2019
5097 Clouds 19 1014 82 10000 5.1 250 14:21 02.11.2019
5098 Clouds 18 1014 88 10000 6.2 260 13:40 02.11.2019
5099 Rain 19 1014 88 10000 6.7 260 13:20 02.11.2019
5100 Rain 18 1014 88 10000 6.7 260 12:59 02.11.2019
5101 Rain 19 1014 82 10000 7.2 250 12:40 02.11.2019
5102 Clouds 19 1015 82 10000 6.7 260 12:21 02.11.2019
5103 Clouds 18 1015 82 10000 6.7 250 11:55 02.11.2019
5104 Clouds 19 1015 82 10000 6.7 250 11:37 02.11.2019
5105 Clouds 19 1015 82 10000 6.7 250 11:37 02.11.2019
5106 Clouds 19 1015 88 10000 6.2 250 11:19 02.11.2019
5107 Rain 18 1015 88 10000 4.6 250 10:43 02.11.2019
5108 Rain 18 1015 88 10000 4.1 240 10:24 02.11.2019
5109 Clouds 18 1015 93 10000 4.1 240 09:43 02.11.2019
5110 Rain 18 1015 93 10000 3.6 230 09:22 02.11.2019
5111 Rain 18 1015 93 10000 3.6 230 08:57 02.11.2019
5112 Clouds 18 1015 93 10000 4.1 250 08:38 02.11.2019
5113 Clouds 18 1015 93 10000 5.1 230 08:18 02.11.2019
5114 Clouds 18 1015 93 10000 4.1 230 07:45 02.11.2019
5115 Clouds 18 1016 88 10000 3.6 250 07:26 02.11.2019
5116 Clouds 18 1016 88 10000 3.6 250 07:26 02.11.2019
5117 Clouds 18 1016 93 10000 4.6 260 06:52 02.11.2019
5118 Clouds 18 1016 93 10000 5.1 260 06:25 02.11.2019
5119 Clouds 18 1016 93 10000 6.2 260 05:50 02.11.2019
5120 Clouds 18 1017 93 10000 4.6 250 04:46 02.11.2019
5121 Clouds 18 1017 93 10000 4.1 240 04:18 02.11.2019
5122 Clouds 18 1017 93 10000 4.1 230 03:33 02.11.2019
5123 Clouds 18 1017 93 10000 4.1 230 03:33 02.11.2019
5124 Rain 19 1018 93 10000 3.1 220 02:32 02.11.2019
5125 Rain 19 1019 100 10000 5.7 230 01:41 02.11.2019
5126 Rain 19 1019 94 7000 5.7 230 01:19 02.11.2019
5127 Drizzle 19 1020 100 10000 6.2 220 00:42 02.11.2019
5128 Clouds 19 1020 94 10000 6.2 230 00:24 02.11.2019
5129 Clouds 19 1020 93 10000 5.7 230 23:42 01.11.2019
5130 Clouds 18 1020 93 10000 5.7 230 23:20 01.11.2019
5131 Clouds 19 1020 93 10000 5.7 220 22:55 01.11.2019
5132 Clouds 19 1020 93 10000 5.7 220 22:37 01.11.2019
5133 Clouds 19 1020 93 10000 5.7 220 22:18 01.11.2019
5134 Clouds 19 1021 93 10000 4.6 220 21:38 01.11.2019
5135 Clouds 19 1021 93 10000 5.1 230 21:20 01.11.2019
5136 Clouds 19 1021 93 10000 5.1 220 20:56 01.11.2019
5137 Clouds 19 1021 93 10000 5.1 220 20:38 01.11.2019
5138 Clouds 19 1021 100 10000 5.1 220 20:18 01.11.2019
5139 Clouds 19 1021 100 6000 5.1 220 19:42 01.11.2019
5140 Clouds 19 1022 100 7000 5.7 210 19:22 01.11.2019
5141 Mist 19 1022 100 3000 3.1 210 18:59 01.11.2019
5142 Clouds 19 1022 94 9000 4.1 210 18:39 01.11.2019
5143 Rain 20 1022 88 3500 4.6 230 18:19 01.11.2019
5144 Clouds 20 1022 83 10000 4.1 260 17:55 01.11.2019
5145 Clouds 20 1022 83 10000 4.1 260 17:36 01.11.2019
5146 Clouds 20 1022 83 10000 6.2 270 17:18 01.11.2019
5147 Clouds 20 1022 94 10000 5.1 240 16:37 01.11.2019
5148 Clouds 20 1023 73 10000 5.1 250 16:18 01.11.2019
5149 Clouds 20 1023 78 10000 4.1 270 15:41 01.11.2019
5150 Clouds 20 1023 73 10000 4.6 260 15:22 01.11.2019
5151 Clouds 21 1023 73 10000 4.6 260 14:58 01.11.2019
5152 Clouds 21 1024 73 10000 4.1 260 14:40 01.11.2019
5153 Clouds 21 1024 78 10000 5.7 270 14:22 01.11.2019
5154 Clouds 20 1025 78 10000 5.7 270 13:56 01.11.2019
5155 Clouds 20 1025 78 10000 5.7 270 13:37 01.11.2019
5156 Clouds 20 1025 83 10000 4.6 240 13:18 01.11.2019
5157 Clouds 20 1025 83 10000 4.6 250 12:43 01.11.2019
5158 Clouds 20 1025 88 10000 5.7 250 12:25 01.11.2019
5159 Clouds 19 1025 94 10000 6.2 240 11:44 01.11.2019
5160 Clouds 19 1025 100 10000 4.1 240 11:25 01.11.2019
5161 Clouds 19 1025 100 10000 4.1 240 10:59 01.11.2019
5162 Clouds 18 1025 100 10000 4.6 240 10:40 01.11.2019
5163 Clouds 18 1025 93 10000 4.6 260 10:21 01.11.2019
5164 Clouds 19 1025 93 10000 4.1 260 09:56 01.11.2019
5165 Clouds 19 1025 93 10000 4.1 260 09:37 01.11.2019
5166 Clouds 18 1025 93 10000 4.6 260 09:19 01.11.2019
5167 Clouds 18 1025 93 10000 3.6 250 08:42 01.11.2019
5168 Clouds 18 1025 93 10000 3.1 260 08:22 01.11.2019
5169 Clouds 18 1025 100 10000 4.1 260 07:54 01.11.2019
5170 Clouds 18 1025 100 10000 4.1 260 07:36 01.11.2019
5171 Clouds 18 1025 93 10000 2.6 260 07:18 01.11.2019
5172 Clouds 18 1024 93 10000 2.1 250 06:40 01.11.2019
5173 Clouds 18 1024 93 10000 2.1 270 06:21 01.11.2019
5174 Clouds 19 1025 100 10000 2.6 250 05:43 01.11.2019
5175 Clouds 19 1026 100 10000 2.6 290 03:34 01.11.2019
5176 Clouds 19 1026 100 10000 3.6 260 01:56 01.11.2019
5177 Clouds 19 1026 100 8000 2.6 260 01:28 01.11.2019
5178 Clouds 19 1027 100 10000 3.1 270 00:22 01.11.2019
5179 Drizzle 19 1026 100 6000 2.1 230 23:59 31.10.2019
5180 Drizzle 19 1026 100 6000 2.1 230 23:41 31.10.2019
5181 Clouds 19 1027 100 10000 2.1 240 23:22 31.10.2019
5182 Rain 19 1027 94 10000 2.6 260 22:42 31.10.2019
5183 Clouds 19 1026 94 10000 2.6 270 22:24 31.10.2019
5184 Clouds 19 1026 94 10000 2.6 270 21:59 31.10.2019
5185 Clouds 19 1026 88 10000 2.1 280 21:41 31.10.2019
5186 Clouds 19 1026 94 10000 3.1 290 21:19 31.10.2019
5187 Clouds 19 1026 94 10000 3.1 280 20:55 31.10.2019
5188 Clouds 19 1026 94 10000 3.1 280 20:37 31.10.2019
5189 Clouds 20 1026 94 10000 3.1 290 20:19 31.10.2019
5190 Clouds 20 1026 94 10000 3.1 290 19:40 31.10.2019
5191 Clouds 20 1026 94 10000 3.1 290 19:40 31.10.2019
5192 Clouds 20 1026 94 10000 3.1 290 19:40 31.10.2019
5193 Clouds 19 1026 94 10000 3.6 290 19:21 31.10.2019
5194 Clouds 19 1026 94 10000 3.6 290 19:21 31.10.2019
5195 Rain 19 1026 94 10000 4.1 290 18:56 31.10.2019
5196 Rain 19 1026 94 10000 4.1 290 18:37 31.10.2019
5197 Clouds 20 1026 94 10000 4.1 300 18:18 31.10.2019
5198 Clouds 20 1026 88 10000 5.1 300 17:41 31.10.2019
5199 Clouds 20 1026 94 10000 4.6 290 17:22 31.10.2019
5200 Clouds 20 1025 94 10000 5.1 300 16:58 31.10.2019
5201 Clouds 20 1025 94 10000 5.1 300 16:40 31.10.2019
5202 Clouds 20 1025 94 10000 4.1 290 16:20 31.10.2019
5203 Clouds 20 1025 94 10000 4.1 270 15:54 31.10.2019
5204 Clouds 20 1025 94 10000 4.1 270 15:36 31.10.2019
5205 Clouds 20 1025 94 10000 4.1 280 15:18 31.10.2019
5206 Clouds 20 1026 94 10000 4.1 280 14:41 31.10.2019
5207 Clouds 20 1026 94 10000 3.6 280 14:23 31.10.2019
5208 Clouds 20 1026 94 10000 3.6 280 13:59 31.10.2019
5209 Drizzle 20 1026 94 6000 3.6 280 13:39 31.10.2019
5210 Clouds 20 1026 94 10000 4.1 260 13:20 31.10.2019
5211 Clouds 20 1026 94 10000 3.6 260 12:58 31.10.2019
5212 Clouds 20 1026 94 10000 3.6 260 12:40 31.10.2019
5213 Fog 20 1026 100 800 3.1 280 12:22 31.10.2019
5214 Drizzle 20 1026 100 6000 2.1 240 11:47 31.10.2019
5215 Drizzle 20 1026 100 5000 2.6 250 11:21 31.10.2019
5216 Drizzle 20 1026 100 5000 2.6 250 10:59 31.10.2019
5217 Drizzle 20 1026 100 5000 2.6 250 10:59 31.10.2019
5218 Clouds 20 1026 100 8000 3.6 230 10:40 31.10.2019
5219 Drizzle 19 1025 100 1000 2.6 240 10:21 31.10.2019
5220 Fog 19 1025 100 900 2.1 210 09:57 31.10.2019
5221 Fog 19 1025 100 900 2.1 210 09:39 31.10.2019
5222 Clouds 19 1025 100 8000 3.1 250 09:18 31.10.2019
5223 Clouds 19 1024 100 10000 3.1 240 08:46 31.10.2019
5224 Clouds 19 1024 100 10000 3.6 240 08:26 31.10.2019
5225 Clouds 19 1024 100 10000 2.1 230 07:49 31.10.2019
5226 Clouds 18 1024 100 10000 2.1 230 07:28 31.10.2019
5227 Clouds 18 1024 100 10000 2.1 230 06:55 31.10.2019
5228 Clouds 19 1024 100 10000 2.1 230 06:33 31.10.2019
5229 Clouds 19 1024 100 10000 1.5 230 05:32 31.10.2019
5230 Clouds 19 1024 100 10000 1.5 200 03:22 31.10.2019
5231 Clouds 19 1024 100 10000 1.07 288 02:38 31.10.2019
5232 Clouds 19 1024 100 10000 0.5 0 01:43 31.10.2019
5233 Clouds 19 1024 100 10000 2.1 260 00:35 31.10.2019
5234 Clouds 19 1024 100 10000 2.6 260 23:56 30.10.2019
5235 Clouds 19 1024 100 10000 2.6 270 23:28 30.10.2019
5236 Clouds 19 1024 100 10000 3.1 250 22:43 30.10.2019
5237 Clouds 19 1024 100 8000 3.1 260 22:23 30.10.2019
5238 Clouds 19 1024 100 7000 3.1 260 21:56 30.10.2019
5239 Clouds 19 1024 100 7000 3.1 260 21:37 30.10.2019
5240 Clouds 19 1024 100 10000 3.1 250 21:18 30.10.2019
5241 Clouds 19 1024 100 10000 3.1 250 20:59 30.10.2019
5242 Clouds 19 1023 100 10000 3.1 240 20:41 30.10.2019
5243 Clouds 19 1023 100 10000 3.1 240 20:41 30.10.2019
5244 Clouds 19 1023 100 10000 3.1 240 20:41 30.10.2019
5245 Clouds 20 1023 100 9000 3.6 240 20:22 30.10.2019
5246 Clouds 20 1023 100 9000 3.6 240 19:58 30.10.2019
5247 Clouds 19 1023 100 7000 4.1 230 19:38 30.10.2019
5248 Drizzle 20 1023 100 6000 4.1 230 19:20 30.10.2019
5249 Drizzle 20 1023 100 6000 4.1 230 18:57 30.10.2019
5250 Drizzle 20 1022 100 7000 4.6 230 18:37 30.10.2019
5251 Drizzle 20 1022 100 7000 5.1 230 18:18 30.10.2019
5252 Drizzle 20 1022 100 6000 5.7 220 17:41 30.10.2019
5253 Clouds 20 1022 100 10000 5.7 220 17:19 30.10.2019
5254 Clouds 20 1022 100 10000 5.7 220 17:19 30.10.2019
5255 Clouds 20 1022 100 10000 6.2 220 16:56 30.10.2019
5256 Clouds 20 1022 100 10000 6.2 220 16:38 30.10.2019
5257 Drizzle 20 1022 100 8000 5.1 220 16:20 30.10.2019
5258 Mist 20 1022 100 2000 5.1 200 15:57 30.10.2019
5259 Drizzle 20 1022 94 7000 5.7 210 15:38 30.10.2019
5260 Clouds 20 1022 100 10000 5.7 210 15:19 30.10.2019
5261 Clouds 20 1022 94 10000 6.2 200 14:56 30.10.2019
5262 Clouds 20 1022 94 10000 6.2 200 14:56 30.10.2019
5263 Clouds 20 1022 94 10000 6.2 200 14:38 30.10.2019
5264 Rain 20 1023 94 10000 5.7 200 14:18 30.10.2019
5265 Rain 20 1023 94 10000 5.1 210 13:42 30.10.2019
5266 Clouds 20 1023 94 10000 6.2 200 13:21 30.10.2019
5267 Clouds 20 1023 94 10000 6.2 200 12:59 30.10.2019
5268 Clouds 20 1023 94 10000 6.2 210 12:41 30.10.2019
5269 Clouds 20 1023 94 10000 5.7 210 12:22 30.10.2019
5270 Clouds 20 1023 94 9000 4.1 180 11:43 30.10.2019
5271 Clouds 19 1023 100 8000 4.1 180 11:25 30.10.2019
5272 Clouds 19 1023 100 8000 4.1 180 10:58 30.10.2019
5273 Clouds 19 1023 100 7000 4.1 190 10:39 30.10.2019
5274 Clouds 19 1022 100 6000 3.6 190 10:20 30.10.2019
5275 Mist 18 1022 100 3500 4.1 180 09:40 30.10.2019
5276 Mist 18 1021 100 3000 3.6 180 09:22 30.10.2019
5277 Mist 18 1021 100 2500 3.6 160 08:55 30.10.2019
5278 Mist 18 1021 100 2500 3.6 160 08:37 30.10.2019
5279 Mist 18 1021 100 1500 4.1 170 08:18 30.10.2019
5280 Mist 18 1021 100 2500 3.1 160 07:43 30.10.2019
5281 Clouds 18 1021 100 6000 1.5 140 06:59 30.10.2019
5282 Clouds 18 1021 100 6000 1.5 140 06:40 30.10.2019
5283 Clouds 18 1021 100 6000 3.1 160 05:56 30.10.2019
5284 Clouds 18 1021 100 6000 3.1 160 05:56 30.10.2019
5285 Clouds 18 1021 100 10000 2.1 160 05:56 30.10.2019
5286 Clouds 18 1021 100 10000 2.1 160 05:56 30.10.2019
5287 Clouds 18 1021 100 6000 3.1 160 05:38 30.10.2019
5288 Mist 18 1021 100 2000 3.6 180 03:54 30.10.2019
5289 Mist 18 1021 100 1500 2.6 170 03:23 30.10.2019
5290 Fog 18 1021 100 200 2.6 170 02:49 30.10.2019
5291 Fog 18 1021 100 8000 2.6 210 01:49 30.10.2019
5292 Clouds 18 1021 93 8000 2.1 200 00:38 30.10.2019
5293 Clouds 18 1021 93 10000 3.6 210 00:19 30.10.2019
5294 Clouds 18 1021 93 10000 2.6 210 23:41 29.10.2019
5295 Clouds 18 1021 93 10000 3.1 220 23:22 29.10.2019
5296 Clouds 18 1021 100 10000 2.1 230 22:45 29.10.2019
5297 Clouds 19 1020 93 10000 2.6 230 22:20 29.10.2019
5298 Clouds 19 1020 100 10000 2.6 220 21:55 29.10.2019
5299 Clouds 19 1020 100 10000 2.6 220 21:37 29.10.2019
5300 Clouds 19 1020 100 10000 3.1 220 21:19 29.10.2019
5301 Clouds 19 1019 93 10000 2.6 220 20:42 29.10.2019
5302 Clouds 19 1019 93 10000 3.6 210 20:23 29.10.2019
5303 Clouds 19 1019 93 10000 3.6 210 19:59 29.10.2019
5304 Clouds 19 1019 93 10000 3.6 220 19:40 29.10.2019
5305 Clouds 19 1019 93 10000 3.6 220 19:22 29.10.2019
5306 Clouds 19 1019 88 10000 2.6 220 18:59 29.10.2019
5307 Clouds 19 1019 88 10000 2.6 220 18:40 29.10.2019
5308 Clouds 20 1019 88 10000 3.6 210 18:21 29.10.2019
5309 Clouds 20 1019 88 10000 3.6 210 17:59 29.10.2019
5310 Clouds 20 1019 88 10000 4.1 240 17:40 29.10.2019
5311 Clouds 21 1019 83 10000 4.6 230 17:21 29.10.2019
5312 Clouds 21 1019 83 10000 4.6 230 16:58 29.10.2019
5313 Clouds 21 1019 83 10000 4.6 230 16:38 29.10.2019
5314 Clouds 21 1018 83 10000 4.6 220 16:19 29.10.2019
5315 Clouds 21 1019 83 10000 5.1 220 15:54 29.10.2019
5316 Clouds 21 1019 83 10000 5.1 220 15:36 29.10.2019
5317 Clouds 21 1019 88 10000 5.7 220 15:18 29.10.2019
5318 Clouds 21 1019 83 10000 5.1 220 14:42 29.10.2019
5319 Clouds 21 1019 83 10000 5.1 220 14:42 29.10.2019
5320 Clouds 20 1019 88 10000 5.7 210 14:23 29.10.2019
5321 Clouds 20 1019 88 10000 5.7 210 13:58 29.10.2019
5322 Clouds 20 1019 88 10000 4.1 200 13:39 29.10.2019
5323 Clouds 20 1019 100 10000 2.6 130 13:21 29.10.2019
5324 Clouds 20 1019 100 10000 2.6 130 13:21 29.10.2019
5325 Clouds 19 1019 100 8000 2.6 120 12:43 29.10.2019
5326 Mist 19 1019 100 5000 2.6 140 12:25 29.10.2019
5327 Mist 19 1019 100 2000 2.1 150 11:56 29.10.2019
5328 Mist 19 1019 100 2000 2.1 150 11:38 29.10.2019
5329 Mist 19 1019 100 1500 2.6 130 11:18 29.10.2019
5330 Fog 19 1019 100 800 3.1 160 10:57 29.10.2019
5331 Fog 18 1019 100 800 3.1 160 10:38 29.10.2019
5332 Mist 18 1018 100 1500 2.6 160 10:19 29.10.2019
5333 Mist 18 1018 100 3000 2.6 160 09:43 29.10.2019
5334 Mist 17 1018 100 1000 2.1 140 09:23 29.10.2019
5335 Mist 17 1018 100 1000 2.1 140 09:23 29.10.2019
5336 Mist 17 1018 100 1000 2.1 140 08:58 29.10.2019
5337 Fog 17 1017 100 400 1 0 08:39 29.10.2019
5338 Fog 17 1017 100 150 1.5 0 08:21 29.10.2019
5339 Fog 17 1017 100 250 1 0 07:48 29.10.2019
5340 Fog 17 1017 100 400 1.5 80 07:21 29.10.2019
5341 Fog 17 1017 100 150 1.5 80 06:55 29.10.2019
5342 Fog 17 1017 100 150 1.5 80 06:36 29.10.2019
5343 Mist 17 1017 100 600 1 30 06:18 29.10.2019
5344 Fog 17 1017 100 10000 1.34 156 05:48 29.10.2019
5345 Clouds 17 1017 100 7000 1.38 185 05:18 29.10.2019
5346 Clouds 18 1017 100 7000 1.5 190 03:34 29.10.2019
5347 Clouds 18 1017 100 10000 2.1 230 02:32 29.10.2019
5348 Clouds 18 1017 100 10000 2.6 210 01:42 29.10.2019
5349 Rain 18 1018 100 10000 2.1 220 00:57 29.10.2019
5350 Rain 18 1018 100 10000 2.1 220 00:30 29.10.2019
5351 Clouds 18 1017 100 10000 1.5 220 23:41 28.10.2019
5352 Clouds 18 1017 100 10000 1.5 230 23:20 28.10.2019
5353 Clouds 18 1017 93 10000 3.1 230 22:57 28.10.2019
5354 Clouds 19 1017 93 10000 3.1 230 22:37 28.10.2019
5355 Clouds 19 1017 93 10000 2.6 220 22:18 28.10.2019
5356 Rain 19 1017 93 10000 4.1 230 21:54 28.10.2019
5357 Rain 19 1017 93 10000 4.1 230 21:36 28.10.2019
5358 Clouds 19 1017 93 10000 3.6 220 21:18 28.10.2019
5359 Clouds 19 1017 100 10000 4.6 230 20:42 28.10.2019
5360 Clouds 19 1017 93 10000 3.6 220 20:24 28.10.2019
5361 Clouds 19 1017 93 10000 3.6 220 20:24 28.10.2019
5362 Clouds 19 1017 93 10000 3.6 230 19:58 28.10.2019
5363 Clouds 19 1017 93 10000 3.6 230 19:39 28.10.2019
5364 Rain 20 1016 88 10000 4.6 230 19:20 28.10.2019
5365 Clouds 20 1016 94 10000 5.1 240 18:58 28.10.2019
5366 Clouds 20 1016 94 10000 5.1 240 18:39 28.10.2019
5367 Clouds 20 1016 94 10000 4.6 230 18:21 28.10.2019
5368 Clouds 20 1016 94 10000 4.6 230 17:56 28.10.2019
5369 Clouds 20 1016 94 10000 4.6 230 17:38 28.10.2019
5370 Rain 20 1017 100 9000 4.6 230 17:19 28.10.2019
5371 Rain 20 1017 100 9000 5.1 230 16:55 28.10.2019
5372 Rain 20 1017 100 9000 5.1 230 16:37 28.10.2019
5373 Clouds 20 1017 94 8000 4.6 230 16:19 28.10.2019
5374 Clouds 20 1017 100 6000 3.1 230 15:56 28.10.2019
5375 Clouds 20 1017 100 6000 3.1 230 15:37 28.10.2019
5376 Drizzle 20 1017 100 1500 3.6 180 15:18 28.10.2019
5377 Drizzle 20 1017 100 3000 3.6 150 14:55 28.10.2019
5378 Drizzle 20 1017 100 3000 3.6 150 14:37 28.10.2019
5379 Mist 19 1017 100 3500 3.1 150 14:18 28.10.2019
5380 Mist 19 1017 100 3500 3.1 150 14:18 28.10.2019
5381 Drizzle 19 1018 100 4500 2.1 130 13:54 28.10.2019
5382 Drizzle 19 1018 100 4500 2.1 130 13:36 28.10.2019
5383 Mist 19 1018 100 4500 1.5 90 13:18 28.10.2019
5384 Mist 19 1018 100 1800 2.1 70 12:40 28.10.2019
5385 Mist 18 1018 100 1500 2.1 120 12:20 28.10.2019
5386 Drizzle 18 1018 100 3000 1.5 110 11:39 28.10.2019
5387 Mist 18 1018 100 4000 1.5 120 11:20 28.10.2019
5388 Mist 18 1018 100 4000 1.5 120 10:56 28.10.2019
5389 Mist 18 1018 100 4000 1.5 120 10:56 28.10.2019
5390 Drizzle 17 1018 100 3500 1.5 110 10:38 28.10.2019
5391 Drizzle 17 1018 100 3000 1.5 70 10:19 28.10.2019
5392 Drizzle 17 1017 93 2000 1.5 140 09:54 28.10.2019
5393 Drizzle 17 1017 93 2000 1.5 140 09:36 28.10.2019
5394 Drizzle 17 1017 93 3500 2.1 140 09:18 28.10.2019
5395 Drizzle 17 1017 100 7000 1.5 120 08:56 28.10.2019
5396 Drizzle 17 1017 100 7000 1.5 120 08:37 28.10.2019
5397 Clouds 17 1017 100 10000 2.1 0 08:18 28.10.2019
5398 Drizzle 17 1017 100 7000 2.1 120 07:43 28.10.2019
5399 Clouds 17 1017 100 8000 1.5 120 07:21 28.10.2019
5400 Clouds 17 1017 100 8000 1.5 120 06:59 28.10.2019
5401 Clouds 17 1017 100 8000 2.1 80 06:37 28.10.2019
5402 Clouds 17 1017 100 10000 1 0 05:19 28.10.2019
5403 Mist 17 1017 93 5000 1 70 03:44 28.10.2019
5404 Clouds 17 1017 100 8000 1.5 100 02:45 28.10.2019
5405 Clouds 17 1018 93 10000 2.6 80 01:52 28.10.2019
5406 Clouds 17 1018 88 10000 2.1 110 00:47 28.10.2019
5407 Clouds 17 1018 88 10000 1.5 130 00:25 28.10.2019
5408 Clouds 17 1018 93 10000 3.6 190 23:44 27.10.2019
5409 Clouds 17 1018 93 10000 2.6 210 23:22 27.10.2019
5410 Clouds 17 1018 93 10000 2.6 210 22:57 27.10.2019
5411 Clouds 17 1018 93 10000 3.1 200 22:37 27.10.2019
5412 Clouds 18 1018 88 10000 3.6 210 22:19 27.10.2019
5413 Clouds 18 1018 88 10000 4.1 210 21:56 27.10.2019
5414 Clouds 18 1018 88 10000 4.1 210 21:38 27.10.2019
5415 Clouds 18 1018 93 10000 3.1 210 21:20 27.10.2019
5416 Clouds 18 1018 88 10000 4.1 210 20:41 27.10.2019
5417 Clouds 18 1018 88 10000 4.6 210 20:23 27.10.2019
5418 Clouds 18 1018 88 10000 4.6 210 19:58 27.10.2019
5419 Clouds 18 1017 82 10000 4.1 210 19:39 27.10.2019
5420 Clouds 18 1017 82 10000 5.1 210 19:20 27.10.2019
5421 Clouds 18 1017 82 10000 5.1 210 19:20 27.10.2019
5422 Clouds 18 1017 82 10000 5.7 220 18:57 27.10.2019
5423 Clouds 18 1017 82 10000 5.7 220 18:39 27.10.2019
5424 Clouds 19 1017 77 10000 3.6 210 18:21 27.10.2019
5425 Clouds 19 1017 77 10000 5.1 190 17:56 27.10.2019
5426 Clouds 19 1017 77 10000 5.1 190 17:37 27.10.2019
5427 Clouds 19 1017 72 10000 5.1 190 17:19 27.10.2019
5428 Clouds 19 1017 77 10000 4.6 160 16:56 27.10.2019
5429 Clouds 19 1017 77 10000 4.6 160 16:38 27.10.2019
5430 Clouds 19 1017 77 10000 4.6 140 16:19 27.10.2019
5431 Clouds 19 1017 77 10000 3.1 80 15:55 27.10.2019
5432 Clouds 19 1017 77 10000 3.1 80 15:37 27.10.2019
5433 Clouds 19 1018 77 10000 2.6 80 15:18 27.10.2019
5434 Clouds 20 1018 82 10000 3.1 90 14:41 27.10.2019
5435 Clouds 20 1018 82 10000 3.6 100 14:20 27.10.2019
5436 Clouds 20 1018 82 10000 2.1 130 13:56 27.10.2019
5437 Clouds 20 1018 82 10000 2.1 130 13:38 27.10.2019
5438 Clouds 19 1018 82 10000 2.6 100 13:19 27.10.2019
5439 Fog 19 1019 82 9000 1.5 110 12:45 27.10.2019
5440 Clouds 18 1019 82 8000 2.1 80 12:24 27.10.2019
5441 Clouds 18 1019 82 8000 1 0 11:57 27.10.2019
5442 Clouds 18 1019 82 8000 1 0 11:38 27.10.2019
5443 Clouds 18 1019 93 7000 2.1 60 11:20 27.10.2019
5444 Clouds 17 1019 100 6000 1 0 10:43 27.10.2019
5445 Mist 16 1018 93 1400 1.5 70 10:24 27.10.2019
5446 Fog 15 1018 100 800 1.5 90 09:56 27.10.2019
5447 Fog 15 1018 100 800 1.5 90 09:37 27.10.2019
5448 Fog 15 1018 100 800 1.5 90 09:37 27.10.2019
5449 Clouds 14 1018 100 6000 2.1 80 09:18 27.10.2019
5450 Clouds 14 1018 100 6000 2.1 80 09:18 27.10.2019
5451 Clouds 14 1018 100 6000 2.1 80 09:18 27.10.2019
5452 Clouds 14 1018 100 6000 2.1 80 09:18 27.10.2019
5453 Clouds 14 1018 100 8000 0.5 0 08:41 27.10.2019
5454 Clouds 13 1018 93 9000 0.5 0 08:22 27.10.2019
5455 Clouds 13 1018 93 9000 0.5 0 07:56 27.10.2019
5456 Clouds 13 1018 100 9000 1 340 07:38 27.10.2019
5457 Clouds 13 1018 100 9000 0.5 0 07:19 27.10.2019
5458 Clouds 13 1018 100 8000 1 0 06:42 27.10.2019
5459 Clouds 13 1018 100 8000 1 0 06:42 27.10.2019
5460 Clouds 13 1017 93 8000 1.5 50 06:23 27.10.2019
5461 Clouds 14 1017 93 8000 1 0 05:39 27.10.2019
5462 Clouds 13 1017 93 8000 1.5 10 04:50 27.10.2019
5463 Clouds 14 1019 87 10000 1.5 60 02:54 27.10.2019
5464 Clouds 15 1019 87 10000 1 0 01:49 27.10.2019
5465 Clouds 15 1020 87 10000 2.1 310 01:20 27.10.2019
5466 Clouds 15 1020 82 10000 3.1 320 00:43 27.10.2019
5467 Clear 16 1019 82 10000 2.6 310 00:18 27.10.2019
5468 Clear 16 1019 82 10000 2.6 300 23:41 26.10.2019
5469 Clear 16 1019 82 10000 2.1 280 23:22 26.10.2019
5470 Clear 16 1019 82 10000 2.1 280 22:59 26.10.2019
5471 Clear 16 1019 77 10000 2.1 290 22:40 26.10.2019
5472 Clear 16 1018 77 10000 1.5 290 22:20 26.10.2019
5473 Clear 16 1018 77 10000 1.5 290 21:59 26.10.2019
5474 Clouds 17 1018 77 10000 1 280 21:41 26.10.2019
5475 Clear 17 1018 77 10000 1.5 240 21:21 26.10.2019
5476 Clear 18 1018 72 10000 2.1 230 20:45 26.10.2019
5477 Clear 18 1018 72 10000 2.1 230 20:45 26.10.2019
5478 Clear 18 1018 68 10000 3.1 250 20:20 26.10.2019
5479 Clear 18 1017 72 10000 3.1 270 19:59 26.10.2019
5480 Clear 19 1018 64 10000 2.1 230 19:40 26.10.2019
5481 Clear 19 1018 60 10000 2.1 220 19:20 26.10.2019
5482 Clear 20 1018 64 10000 2.6 180 18:56 26.10.2019
5483 Clear 20 1018 64 10000 2.6 180 18:37 26.10.2019
5484 Clear 20 1018 60 10000 3.1 190 18:18 26.10.2019
5485 Clear 20 1018 60 10000 2.1 140 17:56 26.10.2019
5486 Clear 20 1018 60 10000 2.1 140 17:36 26.10.2019
5487 Clear 21 1018 60 10000 3.1 160 17:18 26.10.2019
5488 Clear 21 1018 64 10000 2.1 0 16:43 26.10.2019
5489 Clouds 20 1018 68 10000 3.1 110 16:24 26.10.2019
5490 Clouds 20 1018 68 10000 3.1 110 16:24 26.10.2019
5491 Clouds 20 1018 68 10000 3.1 130 15:43 26.10.2019
5492 Clouds 20 1019 68 10000 2.6 0 15:21 26.10.2019
5493 Clouds 20 1019 68 10000 2.1 110 14:56 26.10.2019
5494 Clouds 20 1019 68 10000 2.1 110 14:37 26.10.2019
5495 Clear 21 1018 58 0 2.26 160 14:18 26.10.2019
5496 Clear 21 1018 58 0 2.26 160 13:42 26.10.2019
5497 Clear 21 1018 58 0 2.26 160 13:22 26.10.2019
5498 Clouds 18 1019 77 10000 2.1 60 12:49 26.10.2019
5499 Clear 16 1019 86 0 0.45 97 12:25 26.10.2019
5500 Clear 16 1019 93 10000 2.1 60 11:56 26.10.2019
5501 Clear 15 1019 93 10000 2.1 60 11:37 26.10.2019
5502 Clear 15 1019 93 10000 2.1 60 11:18 26.10.2019
5503 Clear 12 1019 100 10000 1.5 40 10:44 26.10.2019
5504 Clouds 11 1018 100 9000 1.5 0 10:24 26.10.2019
5505 Clouds 11 1018 100 8000 2.1 60 09:48 26.10.2019
5506 Clouds 11 1018 100 8000 1.5 20 09:28 26.10.2019
5507 Clouds 11 1018 100 10000 1.5 30 08:44 26.10.2019
5508 Clouds 11 1018 100 9000 1.5 330 08:26 26.10.2019
5509 Clouds 11 1017 100 9000 1.5 50 07:56 26.10.2019
5510 Clouds 10 1018 100 9000 0.5 0 07:33 26.10.2019
5511 Clouds 11 1017 100 9000 1 0 06:48 26.10.2019
5512 Clouds 11 1017 100 9000 1 0 06:29 26.10.2019
5513 Clouds 13 1018 100 6000 2.1 50 05:21 26.10.2019
5514 Clouds 13 1018 93 6000 1.5 50 04:44 26.10.2019
5515 Clear 14 1019 93 10000 0.5 0 03:24 26.10.2019
5516 Clear 14 1019 93 10000 2.1 230 02:18 26.10.2019
5517 Clear 14 1019 93 10000 1.5 230 01:42 26.10.2019
5518 Clear 14 1019 87 10000 2.1 250 00:33 26.10.2019
5519 Clear 15 1019 77 10000 3.1 240 23:47 25.10.2019
5520 Clear 16 1019 72 10000 3.6 240 23:21 25.10.2019
5521 Clear 16 1019 63 10000 4.1 240 22:54 25.10.2019
5522 Clear 16 1019 63 10000 4.1 240 22:36 25.10.2019
5523 Clear 17 1019 55 10000 4.6 250 22:18 25.10.2019
5524 Clear 17 1018 52 10000 4.6 240 21:54 25.10.2019
5525 Clear 17 1018 52 10000 4.6 240 21:54 25.10.2019
5526 Clear 17 1018 52 10000 4.6 240 21:36 25.10.2019
5527 Clouds 18 1018 48 10000 5.1 240 21:18 25.10.2019
5528 Clouds 18 1018 42 10000 4.6 240 20:42 25.10.2019
5529 Clouds 18 1018 49 10000 4.1 250 20:19 25.10.2019
5530 Clouds 19 1017 60 10000 5.1 260 19:46 25.10.2019
5531 Clouds 20 1018 43 10000 4.1 250 19:27 25.10.2019
5532 Clouds 22 1018 36 10000 3.1 140 18:48 25.10.2019
5533 Clouds 22 1018 36 10000 3.1 140 18:29 25.10.2019
5534 Clear 22 1018 40 10000 3.6 150 17:59 25.10.2019
5535 Clear 23 1018 40 10000 3.6 150 17:36 25.10.2019
5536 Clear 23 1018 40 10000 3.6 150 17:36 25.10.2019
5537 Clear 22 1018 40 10000 3.6 140 17:18 25.10.2019
5538 Clear 22 1019 46 10000 3.1 120 16:46 25.10.2019
5539 Clear 22 1019 49 10000 2.6 0 16:22 25.10.2019
5540 Clear 22 1020 52 10000 3.1 90 15:55 25.10.2019
5541 Clear 22 1020 52 10000 3.1 90 15:37 25.10.2019
5542 Clear 21 1020 56 10000 3.1 0 15:18 25.10.2019
5543 Clear 20 1021 59 10000 3.1 90 14:42 25.10.2019
5544 Clear 20 1021 63 10000 2.6 0 14:23 25.10.2019
5545 Clear 20 1021 67 10000 2.6 70 13:56 25.10.2019
5546 Clear 20 1021 67 10000 2.6 70 13:37 25.10.2019
5547 Clear 18 1022 77 10000 3.6 0 13:18 25.10.2019
5548 Clear 18 1022 77 10000 3.6 0 13:18 25.10.2019
5549 Clear 18 1022 77 10000 4.1 60 12:41 25.10.2019
5550 Clear 16 1022 82 10000 4.1 70 12:22 25.10.2019
5551 Clear 16 1022 82 10000 4.1 70 11:58 25.10.2019
5552 Clear 16 1021 72 10000 3.1 60 11:38 25.10.2019
5553 Clear 14 1022 93 10000 2.6 40 11:18 25.10.2019
5554 Clear 13 1022 93 10000 2.1 50 10:40 25.10.2019
5555 Clear 13 1022 100 10000 1.5 70 10:22 25.10.2019
5556 Clear 12 1022 100 10000 1 0 09:57 25.10.2019
5557 Clear 12 1022 100 10000 1 0 09:38 25.10.2019
5558 Clouds 12 1022 93 10000 2.6 40 09:19 25.10.2019
5559 Clouds 11 1022 93 10000 2.1 50 08:48 25.10.2019
5560 Clouds 11 1022 93 10000 2.1 40 08:29 25.10.2019
5561 Clouds 11 1022 93 10000 1.5 20 07:55 25.10.2019
5562 Clouds 11 1022 93 10000 1.5 20 07:34 25.10.2019
5563 Clouds 11 1022 93 10000 1.5 360 06:42 25.10.2019
5564 Clouds 12 1022 100 10000 1.5 350 05:57 25.10.2019
5565 Clouds 12 1022 100 10000 1.5 350 05:37 25.10.2019
5566 Clouds 11 1022 100 10000 1 350 04:52 25.10.2019
5567 Clouds 12 1022 100 10000 1 330 03:37 25.10.2019
5568 Clouds 12 1023 93 10000 1 0 01:54 25.10.2019
5569 Clouds 13 1023 93 10000 1 0 01:27 25.10.2019
5570 Clouds 13 1023 93 10000 0.65 330 00:21 25.10.2019
5571 Clouds 14 1023 93 10000 1 0 23:41 24.10.2019
5572 Clouds 14 1022 87 10000 1 0 23:22 24.10.2019
5573 Clouds 15 1022 87 10000 0.5 0 22:56 24.10.2019
5574 Clouds 15 1022 87 10000 0.5 0 22:37 24.10.2019
5575 Clouds 15 1022 87 10000 1.5 240 22:18 24.10.2019
5576 Clouds 15 1022 82 10000 1.5 240 21:56 24.10.2019
5577 Clouds 16 1022 82 10000 1.5 240 21:37 24.10.2019
5578 Clouds 16 1022 82 10000 2.1 230 21:19 24.10.2019
5579 Clouds 17 1022 77 10000 2.1 230 20:56 24.10.2019
5580 Clouds 17 1022 77 10000 2.1 230 20:38 24.10.2019
5581 Clouds 17 1021 68 10000 3.6 240 20:20 24.10.2019
5582 Clouds 18 1021 68 10000 4.1 230 19:54 24.10.2019
5583 Clouds 18 1021 68 10000 4.1 230 19:36 24.10.2019
5584 Clouds 18 1021 63 10000 4.6 220 19:18 24.10.2019
5585 Clouds 19 1021 63 10000 4.6 220 18:40 24.10.2019
5586 Clouds 19 1021 63 10000 4.1 240 18:22 24.10.2019
5587 Clouds 19 1021 63 10000 4.6 210 17:59 24.10.2019
5588 Clouds 20 1021 63 10000 4.6 210 17:39 24.10.2019
5589 Clouds 19 1021 63 10000 5.1 220 17:20 24.10.2019
5590 Clouds 19 1021 60 10000 5.1 220 16:55 24.10.2019
5591 Clouds 19 1021 60 10000 5.1 220 16:37 24.10.2019
5592 Clouds 20 1021 60 10000 4.6 230 16:18 24.10.2019
5593 Clouds 20 1021 64 10000 4.6 220 15:55 24.10.2019
5594 Clouds 20 1021 64 10000 4.6 220 15:37 24.10.2019
5595 Clouds 19 1021 63 10000 4.1 240 15:19 24.10.2019
5596 Clouds 19 1022 63 10000 4.1 240 14:44 24.10.2019
5597 Clouds 19 1021 63 10000 3.6 180 14:26 24.10.2019
5598 Clouds 19 1022 68 10000 3.6 230 13:59 24.10.2019
5599 Clouds 19 1022 59 10000 4.1 240 13:39 24.10.2019
5600 Clouds 18 1022 68 10000 2.6 260 13:19 24.10.2019
5601 Clouds 18 1022 72 10000 2.6 230 12:57 24.10.2019
5602 Clouds 18 1022 72 10000 2.6 230 12:38 24.10.2019
5603 Clouds 17 1021 72 10000 2.1 220 12:19 24.10.2019
5604 Clouds 17 1021 82 10000 2.1 230 11:56 24.10.2019
5605 Clouds 16 1021 82 10000 2.1 230 11:37 24.10.2019
5606 Clouds 15 1021 82 10000 2.1 240 11:18 24.10.2019
5607 Clouds 14 1020 87 10000 1.5 260 10:42 24.10.2019
5608 Clouds 14 1020 87 10000 2.1 280 10:23 24.10.2019
5609 Clouds 13 1020 87 10000 2.1 280 09:58 24.10.2019
5610 Clouds 12 1019 87 10000 1.5 270 09:37 24.10.2019
5611 Clouds 11 1019 87 10000 2.1 250 09:18 24.10.2019
5612 Clouds 11 1019 87 10000 2.1 250 09:18 24.10.2019
5613 Clouds 11 1019 87 10000 1 260 08:42 24.10.2019
5614 Clouds 11 1019 93 10000 1 0 08:20 24.10.2019
5615 Clouds 11 1019 87 10000 1.5 250 07:49 24.10.2019
5616 Clouds 11 1019 87 10000 2.1 260 07:24 24.10.2019
5617 Clouds 11 1018 87 10000 2.1 260 06:59 24.10.2019
5618 Clouds 11 1018 87 10000 2.1 260 06:37 24.10.2019
5619 Clouds 12 1018 87 10000 2.1 270 05:56 24.10.2019
5620 Clouds 12 1018 87 10000 2.1 270 05:36 24.10.2019
5621 Clouds 12 1018 82 10000 2.1 260 04:44 24.10.2019
5622 Clouds 13 1018 82 10000 2.1 250 03:36 24.10.2019
5623 Clouds 13 1018 87 10000 2.1 250 02:50 24.10.2019
5624 Clouds 13 1018 82 10000 1.5 270 02:21 24.10.2019
5625 Clouds 13 1018 82 10000 2.1 270 01:32 24.10.2019
5626 Clouds 14 1017 76 10000 2.1 270 00:57 24.10.2019
5627 Clouds 14 1017 76 10000 2.1 270 00:30 24.10.2019
5628 Clouds 14 1017 72 10000 2.6 270 23:59 23.10.2019
5629 Clouds 14 1017 72 10000 2.6 270 23:41 23.10.2019
5630 Clouds 14 1017 72 10000 2.6 290 23:21 23.10.2019
5631 Clouds 15 1017 72 10000 2.6 290 22:57 23.10.2019
5632 Clouds 15 1016 72 10000 2.1 270 22:57 23.10.2019
5633 Clouds 15 1016 72 10000 2.1 270 22:57 23.10.2019
5634 Clouds 15 1016 72 10000 2.1 270 22:37 23.10.2019
5635 Clouds 15 1016 72 10000 2.6 280 22:18 23.10.2019
5636 Clouds 15 1016 72 10000 2.6 280 22:18 23.10.2019
5637 Clouds 15 1016 72 10000 2.6 280 22:18 23.10.2019
5638 Clouds 15 1016 67 10000 3.6 300 21:57 23.10.2019
5639 Clouds 15 1016 67 10000 3.6 300 21:37 23.10.2019
5640 Clouds 16 1016 67 10000 3.6 310 21:19 23.10.2019
5641 Clouds 16 1015 63 10000 5.1 310 20:55 23.10.2019
5642 Clouds 16 1015 63 10000 5.1 310 20:36 23.10.2019
5643 Clouds 16 1015 63 10000 4.6 310 20:18 23.10.2019
5644 Clouds 16 1015 63 10000 6.2 300 19:44 23.10.2019
5645 Clouds 16 1015 63 10000 6.2 300 19:44 23.10.2019
5646 Clouds 17 1014 59 10000 6.2 300 19:20 23.10.2019
5647 Clouds 17 1014 63 10000 6.2 310 18:59 23.10.2019
5648 Clouds 17 1014 63 10000 6.2 310 18:39 23.10.2019
5649 Clouds 17 1014 63 10000 6.7 300 18:19 23.10.2019
5650 Clouds 17 1014 63 10000 6.7 300 17:58 23.10.2019
5651 Clouds 17 1014 63 10000 7.2 320 17:40 23.10.2019
5652 Clouds 18 1013 63 10000 7.2 300 17:19 23.10.2019
5653 Clouds 18 1013 63 10000 6.7 300 16:41 23.10.2019
5654 Clouds 18 1013 63 10000 7.2 320 16:21 23.10.2019
5655 Clouds 18 1013 63 10000 7.2 320 15:58 23.10.2019
5656 Clouds 18 1014 67 10000 6.7 310 15:40 23.10.2019
5657 Clouds 17 1014 63 10000 6.2 310 15:21 23.10.2019
5658 Clouds 17 1014 63 10000 6.2 310 14:56 23.10.2019
5659 Clouds 17 1014 67 10000 6.2 310 14:38 23.10.2019
5660 Clouds 18 1014 63 10000 6.7 310 14:19 23.10.2019
5661 Clouds 17 1014 67 10000 7.7 320 13:44 23.10.2019
5662 Clouds 17 1014 67 10000 7.7 320 13:44 23.10.2019
5663 Clouds 17 1013 67 10000 6.7 320 13:25 23.10.2019
5664 Clouds 17 1013 67 10000 6.7 320 12:59 23.10.2019
5665 Clouds 17 1013 63 10000 6.7 320 12:41 23.10.2019
5666 Clouds 17 1013 72 10000 7.2 310 12:19 23.10.2019
5667 Clouds 17 1013 72 10000 7.2 310 11:58 23.10.2019
5668 Clouds 16 1013 67 10000 6.7 310 11:40 23.10.2019
5669 Clouds 16 1013 72 10000 5.7 310 11:21 23.10.2019
5670 Clouds 16 1012 72 10000 5.1 310 10:59 23.10.2019
5671 Clouds 16 1012 67 10000 4.1 310 10:40 23.10.2019
5672 Clouds 15 1012 72 10000 4.6 310 10:22 23.10.2019
5673 Clouds 15 1011 72 10000 5.7 310 09:41 23.10.2019
5674 Clouds 15 1012 72 10000 5.1 310 09:22 23.10.2019
5675 Clouds 15 1011 72 10000 4.1 320 08:56 23.10.2019
5676 Clouds 15 1011 72 10000 4.1 320 08:38 23.10.2019
5677 Clouds 15 1012 77 10000 3.1 320 08:18 23.10.2019
5678 Clouds 15 1011 72 10000 3.6 300 07:45 23.10.2019
5679 Clouds 15 1012 77 10000 4.6 320 07:21 23.10.2019
5680 Clouds 15 1012 82 10000 3.1 340 06:45 23.10.2019
5681 Clouds 15 1012 77 10000 2.6 330 06:19 23.10.2019
5682 Clouds 15 1012 82 10000 5.1 310 05:20 23.10.2019
5683 Clouds 14 1012 82 10000 4.6 320 03:58 23.10.2019
5684 Clear 14 1013 82 10000 4.1 300 02:44 23.10.2019
5685 Clear 14 1014 76 10000 4.6 310 01:56 23.10.2019
5686 Clear 14 1014 76 10000 4.1 300 01:19 23.10.2019
5687 Clear 14 1014 76 10000 4.1 310 00:35 23.10.2019
5688 Clear 14 1014 76 10000 4.6 310 23:57 22.10.2019
5689 Clear 14 1014 76 10000 4.6 310 23:38 22.10.2019
5690 Clear 14 1013 71 10000 4.6 300 23:18 22.10.2019
5691 Clear 14 1013 71 10000 4.6 300 23:18 22.10.2019
5692 Clear 14 1013 71 10000 5.7 320 22:54 22.10.2019
5693 Clear 14 1013 71 10000 5.7 320 22:36 22.10.2019
5694 Clear 14 1013 71 10000 4.6 310 22:18 22.10.2019
5695 Clear 14 1013 62 10000 3.6 320 21:55 22.10.2019
5696 Clear 14 1013 62 10000 3.6 320 21:36 22.10.2019
5697 Clouds 15 1013 62 10000 3.1 310 21:18 22.10.2019
5698 Clouds 15 1013 59 10000 3.1 310 20:42 22.10.2019
5699 Clouds 16 1012 55 10000 5.7 330 20:23 22.10.2019
5700 Clouds 16 1012 55 10000 5.7 330 19:59 22.10.2019
5701 Clear 17 1012 48 10000 6.2 330 19:41 22.10.2019
5702 Clear 18 1012 42 10000 6.7 330 19:23 22.10.2019
5703 Clear 18 1012 37 10000 7.2 340 18:57 22.10.2019
5704 Clear 18 1012 37 10000 7.2 340 18:39 22.10.2019
5705 Clear 19 1012 37 10000 7.2 330 18:20 22.10.2019
5706 Clear 19 1012 42 10000 5.1 340 17:56 22.10.2019
5707 Clear 19 1012 42 10000 5.1 340 17:37 22.10.2019
5708 Clouds 19 1012 42 10000 5.7 360 17:19 22.10.2019
5709 Clouds 19 1012 42 10000 5.7 360 16:56 22.10.2019
5710 Clouds 19 1012 39 10000 6.7 10 16:37 22.10.2019
5711 Clear 19 1013 37 10000 5.7 10 16:18 22.10.2019
5712 Clear 19 1013 42 10000 5.1 10 15:43 22.10.2019
5713 Clouds 19 1013 45 10000 5.1 30 15:20 22.10.2019
5714 Clouds 18 1014 52 10000 4.1 60 14:50 22.10.2019
5715 Clear 18 1014 52 10000 3.6 30 14:23 22.10.2019
5716 Clear 18 1014 52 10000 3.6 30 13:59 22.10.2019
5717 Clear 18 1014 48 10000 4.1 10 13:41 22.10.2019
5718 Clear 17 1015 51 10000 6.2 50 13:19 22.10.2019
5719 Clouds 17 1015 55 10000 5.1 30 12:56 22.10.2019
5720 Clear 16 1015 58 10000 6.2 30 12:38 22.10.2019
5721 Clear 16 1015 58 10000 4.6 40 12:19 22.10.2019
5722 Clear 14 1015 67 10000 3.6 10 11:41 22.10.2019
5723 Clear 13 1015 71 10000 4.1 350 11:22 22.10.2019
5724 Clear 13 1015 71 10000 4.1 350 10:59 22.10.2019
5725 Clear 12 1014 76 10000 3.1 330 10:38 22.10.2019
5726 Clear 10 1014 81 10000 3.1 330 10:19 22.10.2019
5727 Clear 10 1014 81 10000 3.1 330 10:19 22.10.2019
5728 Clear 10 1014 81 10000 3.1 330 09:58 22.10.2019
5729 Clear 12 1014 81 10000 3.6 330 09:40 22.10.2019
5730 Clouds 11 1014 81 10000 4.1 330 09:21 22.10.2019
5731 Clouds 10 1014 87 10000 3.6 320 08:55 22.10.2019
5732 Clouds 10 1014 87 10000 3.6 320 08:37 22.10.2019
5733 Clouds 10 1014 81 10000 3.1 320 08:18 22.10.2019
5734 Clouds 10 1014 81 10000 3.1 330 07:42 22.10.2019
5735 Clouds 11 1014 76 10000 3.1 320 07:24 22.10.2019
5736 Clouds 11 1014 76 10000 3.1 320 06:40 22.10.2019
5737 Clouds 11 1014 76 10000 3.1 310 06:21 22.10.2019
5738 Clouds 11 1014 87 10000 2.6 330 05:34 22.10.2019
5739 Clouds 12 1015 87 10000 3.1 310 04:22 22.10.2019
5740 Clouds 12 1016 87 10000 2.6 340 02:30 22.10.2019
5741 Clouds 13 1017 82 10000 2.6 330 01:38 22.10.2019
5742 Clouds 13 1017 82 10000 2.1 320 01:18 22.10.2019
5743 Clouds 13 1017 82 10000 2.1 30 00:42 22.10.2019
5744 Thunderstorm 13 1017 82 10000 2.6 350 00:24 22.10.2019
5745 Thunderstorm 14 1017 82 10000 2.6 350 23:59 21.10.2019
5746 Clouds 14 1017 82 10000 3.1 340 23:38 21.10.2019
5747 Clouds 14 1017 82 10000 4.1 320 23:19 21.10.2019
5748 Clouds 14 1017 82 10000 4.1 320 22:58 21.10.2019
5749 Clouds 14 1017 82 10000 3.6 310 22:39 21.10.2019
5750 Clouds 14 1017 82 10000 4.6 310 22:20 21.10.2019
5751 Clouds 14 1017 82 10000 4.6 310 21:58 21.10.2019
5752 Clouds 14 1017 76 10000 4.6 320 21:38 21.10.2019
5753 Clouds 15 1017 72 10000 4.6 310 21:20 21.10.2019
5754 Clouds 15 1017 72 10000 4.6 310 20:57 21.10.2019
5755 Clouds 15 1016 67 10000 4.1 320 20:38 21.10.2019
5756 Clouds 15 1016 67 10000 4.1 310 20:20 21.10.2019
5757 Clouds 16 1016 59 10000 4.6 310 19:56 21.10.2019
5758 Clouds 16 1016 59 10000 4.6 310 19:37 21.10.2019
5759 Clouds 17 1016 48 10000 5.1 320 19:19 21.10.2019
5760 Clouds 17 1016 55 10000 4.1 310 18:55 21.10.2019
5761 Clouds 17 1016 55 10000 4.1 310 18:55 21.10.2019
5762 Clouds 17 1016 55 10000 4.1 310 18:36 21.10.2019
5763 Clouds 17 1016 55 10000 4.6 310 18:18 21.10.2019
5764 Clouds 18 1016 52 10000 3.6 320 17:39 21.10.2019
5765 Clouds 18 1016 55 10000 2.6 110 17:20 21.10.2019
5766 Clouds 18 1016 55 10000 2.6 110 16:59 21.10.2019
5767 Clouds 18 1017 45 10000 3.1 10 16:40 21.10.2019
5768 Clouds 18 1017 48 10000 3.6 330 16:22 21.10.2019
5769 Clouds 18 1017 48 10000 3.6 330 15:58 21.10.2019
5770 Clouds 18 1017 55 10000 3.1 10 15:39 21.10.2019
5771 Clouds 18 1018 63 10000 2.6 100 15:20 21.10.2019
5772 Clouds 18 1018 52 10000 3.6 350 14:56 21.10.2019
5773 Clouds 18 1018 59 10000 2.1 0 14:37 21.10.2019
5774 Clouds 18 1018 67 10000 1.5 0 14:18 21.10.2019
5775 Clouds 17 1018 67 10000 2.6 0 13:42 21.10.2019
5776 Clouds 17 1018 72 10000 2.1 0 13:21 21.10.2019
5777 Clouds 17 1018 72 10000 2.1 0 12:59 21.10.2019
5778 Clouds 16 1018 72 10000 2.6 10 12:40 21.10.2019
5779 Clouds 16 1018 77 10000 3.1 20 12:21 21.10.2019
5780 Clouds 16 1018 77 10000 2.6 360 11:55 21.10.2019
5781 Clouds 16 1018 77 10000 2.6 360 11:55 21.10.2019
5782 Clouds 15 1018 77 10000 2.6 360 11:37 21.10.2019
5783 Fog 14 1018 82 10000 2.6 340 11:18 21.10.2019
5784 Fog 13 1018 87 10000 0.5 0 10:55 21.10.2019
5785 Fog 12 1018 87 10000 0.5 0 10:37 21.10.2019
5786 Clouds 12 1018 93 10000 1 290 10:18 21.10.2019
5787 Clouds 10 1018 87 10000 1.5 290 09:43 21.10.2019
5788 Clear 10 1018 93 10000 1.5 290 09:23 21.10.2019
5789 Clear 10 1017 93 10000 1.5 300 08:43 21.10.2019
5790 Clear 10 1017 93 10000 2.1 300 08:23 21.10.2019
5791 Clear 11 1017 93 10000 2.1 300 07:59 21.10.2019
5792 Clear 10 1017 93 10000 1.5 270 07:37 21.10.2019
5793 Clear 10 1017 87 10000 1 0 07:19 21.10.2019
5794 Clear 10 1017 87 10000 2.1 300 06:51 21.10.2019
5795 Clear 10 1017 87 10000 2.1 300 06:32 21.10.2019
5796 Clear 11 1017 87 10000 1.5 310 05:50 21.10.2019
5797 Clear 10 1017 87 10000 2.1 310 04:43 21.10.2019
5798 Clear 13 1017 76 10000 2.6 300 02:42 21.10.2019
5799 Clear 13 1017 82 10000 2.1 300 02:22 21.10.2019
5800 Clear 13 1017 82 10000 2.1 300 02:22 21.10.2019
5801 Clear 12 1018 82 10000 1 0 01:52 21.10.2019
5802 Clear 13 1017 82 10000 2.1 300 01:23 21.10.2019
5803 Clear 13 1017 82 10000 2.1 320 00:43 21.10.2019
5804 Clear 13 1017 82 10000 2.6 310 00:24 21.10.2019
5805 Clear 13 1017 82 10000 2.1 310 23:41 20.10.2019
5806 Clear 14 1017 76 10000 2.1 300 23:22 20.10.2019
5807 Clear 13 1017 76 10000 2.1 300 22:56 20.10.2019
5808 Clear 13 1017 76 10000 2.1 300 22:37 20.10.2019
5809 Clear 14 1017 76 10000 2.6 300 22:18 20.10.2019
5810 Clear 14 1017 76 10000 2.6 300 21:57 20.10.2019
5811 Clouds 14 1016 71 10000 2.6 320 21:38 20.10.2019
5812 Clouds 14 1016 67 10000 2.6 300 21:20 20.10.2019
5813 Clouds 15 1016 67 10000 3.1 310 20:41 20.10.2019
5814 Clouds 15 1016 63 10000 3.1 310 20:18 20.10.2019
5815 Clouds 16 1016 63 10000 3.1 310 19:56 20.10.2019
5816 Clouds 16 1016 55 10000 4.6 300 19:37 20.10.2019
5817 Clouds 16 1015 59 10000 4.6 320 19:19 20.10.2019
5818 Clouds 17 1015 59 10000 3.1 310 18:55 20.10.2019
5819 Clouds 17 1015 59 10000 3.1 310 18:36 20.10.2019
5820 Clouds 17 1015 59 10000 4.1 300 18:18 20.10.2019
5821 Clouds 17 1015 55 10000 3.6 310 17:42 20.10.2019
5822 Clouds 18 1015 55 10000 4.1 310 17:23 20.10.2019
5823 Clouds 18 1015 55 10000 4.1 310 16:57 20.10.2019
5824 Clouds 18 1015 55 10000 4.1 300 16:39 20.10.2019
5825 Clouds 18 1015 55 10000 4.1 300 16:39 20.10.2019
5826 Clouds 17 1015 59 10000 5.1 320 16:21 20.10.2019
5827 Clouds 18 1015 59 10000 5.1 320 15:56 20.10.2019
5828 Clouds 18 1015 59 10000 4.6 300 15:38 20.10.2019
5829 Clouds 17 1015 55 10000 4.1 310 15:19 20.10.2019
5830 Clouds 17 1015 59 10000 5.1 330 14:56 20.10.2019
5831 Clouds 17 1015 51 10000 4.1 300 14:37 20.10.2019
5832 Clouds 17 1015 55 10000 4.6 310 14:18 20.10.2019
5833 Clouds 17 1015 55 10000 5.1 340 13:54 20.10.2019
5834 Clouds 17 1015 55 10000 5.1 340 13:36 20.10.2019
5835 Clouds 17 1015 67 10000 3.6 320 13:18 20.10.2019
5836 Clouds 16 1014 63 10000 3.1 290 12:55 20.10.2019
5837 Clouds 16 1014 63 10000 3.1 290 12:36 20.10.2019
5838 Clouds 16 1014 67 10000 3.6 300 12:18 20.10.2019
5839 Clouds 15 1014 67 10000 4.1 330 11:41 20.10.2019
5840 Clouds 15 1014 76 10000 2.6 290 11:23 20.10.2019
5841 Clouds 14 1014 76 10000 2.6 290 10:58 20.10.2019
5842 Clouds 13 1013 82 10000 2.6 280 10:39 20.10.2019
5843 Clouds 13 1013 76 10000 3.1 320 10:21 20.10.2019
5844 Clouds 13 1013 76 10000 3.1 320 10:21 20.10.2019
5845 Clouds 13 1013 76 10000 3.1 320 09:56 20.10.2019
5846 Clouds 12 1013 81 10000 2.1 290 09:37 20.10.2019
5847 Rain 12 1012 76 10000 3.1 300 09:19 20.10.2019
5848 Clouds 13 1012 82 10000 4.6 300 08:40 20.10.2019
5849 Clouds 13 1012 71 10000 3.1 300 08:21 20.10.2019
5850 Thunderstorm 13 1012 71 10000 3.6 300 07:48 20.10.2019
5851 Thunderstorm 13 1012 71 10000 3.6 300 07:28 20.10.2019
5852 Thunderstorm 13 1011 82 10000 2.1 290 06:31 20.10.2019
5853 Clouds 13 1011 82 10000 2.1 300 04:34 20.10.2019
5854 Rain 14 1011 87 10000 1.5 0 03:52 20.10.2019
5855 Rain 14 1011 82 10000 2.1 310 03:23 20.10.2019
5856 Clouds 14 1011 82 10000 2.6 300 02:55 20.10.2019
5857 Clouds 14 1011 82 10000 2.6 300 02:26 20.10.2019
5858 Clouds 14 1010 82 10000 3.1 300 01:53 20.10.2019
5859 Clouds 14 1010 82 10000 3.1 300 01:22 20.10.2019
5860 Clouds 15 1010 77 10000 4.1 290 00:53 20.10.2019
5861 Clouds 15 1010 77 10000 4.1 300 00:21 20.10.2019
5862 Clouds 15 1009 77 10000 4.1 280 23:55 19.10.2019
5863 Clouds 15 1009 77 10000 4.1 280 23:37 19.10.2019
5864 Clouds 15 1009 77 10000 4.6 270 23:19 19.10.2019
5865 Clouds 15 1009 77 10000 3.6 280 22:41 19.10.2019
5866 Clouds 15 1009 77 10000 2.6 290 22:23 19.10.2019
5867 Clouds 15 1009 77 10000 2.6 290 21:58 19.10.2019
5868 Rain 15 1009 82 10000 4.6 300 21:40 19.10.2019
5869 Rain 15 1009 82 10000 4.6 300 21:40 19.10.2019
5870 Clouds 16 1008 77 10000 4.1 300 21:20 19.10.2019
5871 Clouds 16 1008 77 10000 5.1 300 20:43 19.10.2019
5872 Clouds 16 1008 77 10000 4.1 300 20:21 19.10.2019
5873 Rain 17 1008 72 10000 5.7 300 19:56 19.10.2019
5874 Rain 17 1008 72 10000 5.7 300 19:37 19.10.2019
5875 Clouds 17 1007 77 10000 4.6 310 19:19 19.10.2019
5876 Clouds 18 1007 77 10000 5.7 300 18:41 19.10.2019
5877 Rain 18 1007 82 10000 6.2 300 18:22 19.10.2019
5878 Rain 18 1006 72 10000 6.2 300 17:42 19.10.2019
5879 Clouds 18 1006 77 10000 7.2 300 17:23 19.10.2019
5880 Clouds 18 1006 77 10000 7.2 300 16:59 19.10.2019
5881 Clouds 18 1006 77 10000 6.7 300 16:38 19.10.2019
5882 Clouds 18 1006 77 10000 6.7 300 16:38 19.10.2019
5883 Rain 18 1006 88 10000 6.2 280 16:19 19.10.2019
5884 Drizzle 17 1005 93 3000 8.7 220 15:43 19.10.2019
5885 Rain 17 1006 93 10000 8.2 220 15:25 19.10.2019
5886 Drizzle 18 1006 93 4000 9.3 210 14:40 19.10.2019
5887 Rain 18 1007 93 1200 10.8 200 14:21 19.10.2019
5888 Rain 18 1007 93 1200 10.8 200 13:59 19.10.2019
5889 Drizzle 18 1008 93 7000 9.8 200 13:41 19.10.2019
5890 Drizzle 18 1008 88 10000 7.7 190 13:23 19.10.2019
5891 Drizzle 18 1008 88 10000 7.7 190 12:59 19.10.2019
5892 Drizzle 18 1009 93 8000 6.7 200 12:39 19.10.2019
5893 Rain 18 1009 88 9000 4.6 210 12:20 19.10.2019
5894 Rain 18 1009 88 9000 4.6 210 11:42 19.10.2019
5895 Drizzle 18 1009 88 10000 4.6 210 11:23 19.10.2019
5896 Drizzle 18 1009 88 10000 4.6 210 11:23 19.10.2019
5897 Clouds 18 1010 88 10000 5.1 190 10:58 19.10.2019
5898 Clouds 17 1010 93 10000 4.6 190 10:40 19.10.2019
5899 Clouds 17 1010 93 10000 4.6 190 10:22 19.10.2019
5900 Clouds 17 1010 93 10000 4.1 190 09:56 19.10.2019
5901 Clouds 17 1010 93 10000 5.1 180 09:37 19.10.2019
5902 Clouds 17 1010 93 10000 5.1 180 09:19 19.10.2019
5903 Clouds 17 1010 93 10000 4.6 180 08:41 19.10.2019
5904 Clouds 17 1010 93 10000 4.6 180 08:21 19.10.2019
5905 Clouds 16 1011 100 10000 3.1 180 07:46 19.10.2019
5906 Clouds 16 1011 100 10000 3.1 180 07:26 19.10.2019
5907 Clouds 16 1011 100 10000 1.5 170 06:49 19.10.2019
5908 Clouds 16 1012 100 10000 1.5 200 06:30 19.10.2019
5909 Clouds 16 1012 100 10000 0.5 240 05:35 19.10.2019
5910 Clouds 16 1013 93 10000 2.6 190 04:26 19.10.2019
5911 Clouds 16 1014 87 10000 1 0 02:56 19.10.2019
5912 Clouds 15 1015 87 10000 2.1 220 01:56 19.10.2019
5913 Clouds 16 1015 93 10000 1.5 230 01:37 19.10.2019
5914 Clouds 15 1016 87 10000 2.6 210 00:51 19.10.2019
5915 Clouds 15 1016 87 10000 2.6 210 00:28 19.10.2019
5916 Clouds 16 1016 82 10000 2.6 220 23:56 18.10.2019
5917 Clouds 16 1016 82 10000 2.6 210 23:38 18.10.2019
5918 Clouds 16 1016 77 10000 3.1 230 23:19 18.10.2019
5919 Clouds 16 1016 77 10000 2.6 250 22:54 18.10.2019
5920 Clouds 17 1016 77 10000 2.6 250 22:36 18.10.2019
5921 Clouds 17 1016 77 10000 2.6 240 22:18 18.10.2019
5922 Clouds 17 1017 72 10000 3.1 260 21:55 18.10.2019
5923 Clouds 17 1017 72 10000 3.1 260 21:36 18.10.2019
5924 Clouds 17 1016 72 10000 4.6 250 21:18 18.10.2019
5925 Clouds 17 1016 72 10000 4.6 250 20:42 18.10.2019
5926 Clouds 17 1016 68 10000 5.1 260 20:22 18.10.2019
5927 Clouds 18 1016 68 10000 5.1 260 19:58 18.10.2019
5928 Clouds 18 1017 63 10000 4.6 260 19:40 18.10.2019
5929 Clouds 18 1017 68 10000 4.6 250 19:22 18.10.2019
5930 Clouds 18 1017 68 10000 4.6 250 18:58 18.10.2019
5931 Clouds 18 1017 59 10000 5.7 240 18:40 18.10.2019
5932 Clouds 19 1017 59 10000 5.1 250 18:22 18.10.2019
5933 Clouds 19 1017 63 10000 3.1 250 17:55 18.10.2019
5934 Clouds 19 1017 63 10000 3.1 250 17:36 18.10.2019
5935 Clouds 19 1017 63 10000 3.6 260 17:18 18.10.2019
5936 Clouds 19 1017 63 10000 3.1 270 16:39 18.10.2019
5937 Clouds 19 1018 68 10000 4.1 280 16:21 18.10.2019
5938 Clouds 19 1018 68 10000 4.1 280 15:57 18.10.2019
5939 Clouds 19 1018 68 10000 3.6 240 15:38 18.10.2019
5940 Clouds 19 1019 68 10000 3.1 280 15:19 18.10.2019
5941 Clouds 19 1019 68 10000 3.1 280 14:57 18.10.2019
5942 Clouds 18 1019 59 10000 2.6 250 14:38 18.10.2019
5943 Clouds 19 1019 59 10000 2.1 340 14:19 18.10.2019
5944 Clouds 19 1019 59 10000 2.6 280 13:55 18.10.2019
5945 Clouds 18 1019 59 10000 2.6 280 13:36 18.10.2019
5946 Clouds 18 1020 63 10000 3.1 280 13:18 18.10.2019
5947 Clouds 18 1020 63 10000 2.6 270 12:55 18.10.2019
5948 Clouds 18 1020 63 10000 2.6 270 12:36 18.10.2019
5949 Clouds 18 1020 77 10000 1.5 280 12:18 18.10.2019
5950 Clouds 18 1020 77 10000 1.5 270 11:41 18.10.2019
5951 Clouds 17 1019 82 10000 2.1 260 11:20 18.10.2019
5952 Clouds 17 1019 82 10000 2.1 260 10:57 18.10.2019
5953 Clouds 16 1019 87 10000 2.1 260 10:39 18.10.2019
5954 Clouds 16 1019 93 10000 2.6 230 10:20 18.10.2019
5955 Clouds 16 1019 93 10000 2.6 230 09:57 18.10.2019
5956 Clouds 15 1019 87 10000 2.1 240 09:39 18.10.2019
5957 Clouds 15 1019 87 10000 2.1 250 09:19 18.10.2019
5958 Clouds 15 1019 93 10000 2.6 240 08:44 18.10.2019
5959 Clouds 15 1019 93 10000 1.5 260 08:25 18.10.2019
5960 Clouds 15 1018 87 10000 2.1 280 07:53 18.10.2019
5961 Clouds 15 1018 87 10000 2.1 280 07:35 18.10.2019
5962 Clouds 15 1018 93 10000 1.5 300 06:55 18.10.2019
5963 Clouds 15 1018 93 10000 1.5 300 06:55 18.10.2019
5964 Clouds 15 1018 93 10000 1.5 300 06:35 18.10.2019
5965 Clouds 15 1018 93 10000 2.6 310 05:59 18.10.2019
5966 Clouds 14 1018 93 10000 2.6 320 05:41 18.10.2019
5967 Clouds 15 1018 93 10000 3.1 310 05:18 18.10.2019
5968 Clouds 16 1018 93 10000 2.6 320 03:36 18.10.2019
5969 Clouds 17 1018 93 10000 4.6 320 02:51 18.10.2019
5970 Clouds 17 1018 93 10000 4.6 320 02:32 18.10.2019
5971 Clouds 18 1018 100 10000 3.1 270 01:39 18.10.2019
5972 Drizzle 18 1018 94 8000 3.6 240 01:20 18.10.2019
5973 Drizzle 18 1018 94 6000 5.7 230 00:41 18.10.2019
5974 Rain 19 1018 94 10000 6.7 220 00:19 18.10.2019
5975 Drizzle 19 1018 94 6000 6.7 210 23:39 17.10.2019
5976 Drizzle 19 1018 94 7000 7.2 210 23:20 17.10.2019
5977 Drizzle 19 1018 94 7000 7.2 210 22:57 17.10.2019
5978 Drizzle 19 1018 94 5000 6.2 210 22:39 17.10.2019
5979 Drizzle 19 1018 94 10000 6.2 210 22:19 17.10.2019
5980 Drizzle 19 1018 94 10000 6.2 210 21:57 17.10.2019
5981 Drizzle 20 1018 94 6000 5.7 210 21:39 17.10.2019
5982 Drizzle 20 1018 94 8000 6.2 210 21:20 17.10.2019
5983 Drizzle 20 1018 94 8000 6.2 210 20:58 17.10.2019
5984 Clouds 20 1018 94 10000 5.7 220 20:39 17.10.2019
5985 Clouds 20 1018 94 10000 6.7 210 20:19 17.10.2019
5986 Clouds 20 1018 94 10000 6.7 210 19:58 17.10.2019
5987 Clouds 20 1018 94 10000 6.2 220 19:39 17.10.2019
5988 Clouds 20 1017 94 10000 6.2 220 19:19 17.10.2019
5989 Clouds 21 1017 94 10000 6.2 220 18:43 17.10.2019
5990 Drizzle 21 1017 94 8000 5.7 230 18:21 17.10.2019
5991 Drizzle 21 1017 94 8000 5.7 230 18:00 17.10.2019
5992 Drizzle 20 1018 100 9000 5.7 220 17:41 17.10.2019
5993 Rain 21 1018 94 10000 6.7 220 17:23 17.10.2019
5994 Rain 21 1018 94 10000 6.7 220 16:56 17.10.2019
5995 Clouds 21 1018 88 10000 6.2 220 16:38 17.10.2019
5996 Clouds 21 1018 88 10000 6.7 220 16:18 17.10.2019
5997 Clouds 21 1018 88 10000 6.7 220 15:55 17.10.2019
5998 Clouds 21 1018 88 10000 6.7 220 15:37 17.10.2019
5999 Rain 21 1018 88 10000 6.2 230 15:19 17.10.2019
6000 Rain 21 1019 88 6000 4.6 240 14:42 17.10.2019
6001 Clouds 21 1019 88 10000 4.6 240 14:24 17.10.2019
6002 Clouds 21 1019 88 10000 4.6 240 13:57 17.10.2019
6003 Clouds 20 1019 88 10000 5.1 230 13:39 17.10.2019
6004 Clouds 20 1019 88 10000 4.6 240 13:19 17.10.2019
6005 Clouds 20 1018 94 10000 4.1 230 12:41 17.10.2019
6006 Clouds 20 1018 94 10000 4.1 230 12:21 17.10.2019
6007 Rain 19 1018 100 10000 3.6 230 11:59 17.10.2019
6008 Rain 19 1018 100 10000 3.6 230 11:41 17.10.2019
6009 Rain 19 1018 100 10000 3.6 230 11:41 17.10.2019
6010 Clouds 19 1018 100 10000 4.1 230 11:19 17.10.2019
6011 -273 0 0 0 0 0 10:56 17.10.2019
6012 Drizzle 19 1018 100 2500 3.6 210 10:38 17.10.2019
6013 Drizzle 18 1017 100 6000 3.1 220 10:18 17.10.2019
6014 Clouds 18 1017 100 6000 2.1 230 09:54 17.10.2019
6015 Clouds 18 1017 100 6000 2.1 230 09:36 17.10.2019
6016 Drizzle 18 1017 100 8000 3.1 220 09:18 17.10.2019
6017 Rain 18 1017 100 10000 3.1 240 08:42 17.10.2019
6018 Rain 18 1017 100 10000 5.1 230 08:24 17.10.2019
6019 Clouds 18 1017 100 8000 6.2 230 07:56 17.10.2019
6020 Clouds 18 1017 100 8000 6.2 230 07:37 17.10.2019
6021 Drizzle 18 1017 93 5000 5.7 230 07:18 17.10.2019
6022 Drizzle 18 1017 93 4500 6.7 230 06:40 17.10.2019
6023 Drizzle 18 1017 93 7000 6.7 220 06:21 17.10.2019
6024 Clouds 18 1017 88 10000 6.7 210 05:54 17.10.2019
6025 Clouds 18 1017 88 10000 6.7 210 05:32 17.10.2019
6026 Clouds 18 1018 88 10000 6.2 210 04:55 17.10.2019
6027 Clouds 18 1018 88 10000 5.1 210 03:55 17.10.2019
6028 Clouds 19 1018 82 10000 5.1 210 02:50 17.10.2019
6029 Clouds 18 1018 88 10000 5.1 210 01:39 17.10.2019
6030 Clouds 18 1018 88 10000 5.1 220 00:40 17.10.2019
6031 Clouds 18 1018 88 10000 5.1 210 00:19 17.10.2019
6032 Clouds 18 1018 88 10000 5.7 220 23:42 16.10.2019
6033 Clouds 18 1018 82 10000 5.1 210 23:21 16.10.2019
6034 Clouds 18 1018 82 10000 5.1 210 22:56 16.10.2019
6035 Clouds 18 1018 82 10000 5.1 210 22:56 16.10.2019
6036 Clouds 18 1018 82 10000 4.6 210 22:37 16.10.2019
6037 Clouds 18 1018 82 10000 4.6 210 22:37 16.10.2019
6038 Clouds 18 1019 82 10000 4.6 210 22:19 16.10.2019
6039 Clouds 18 1019 82 10000 4.6 210 22:19 16.10.2019
6040 Clouds 18 1019 82 10000 4.6 210 22:19 16.10.2019
6041 Clouds 18 1019 82 10000 4.6 210 21:57 16.10.2019
6042 Clouds 18 1019 82 10000 4.1 210 21:38 16.10.2019
6043 Clouds 18 1019 82 10000 3.6 210 21:19 16.10.2019
6044 Clouds 18 1019 82 10000 4.1 210 20:58 16.10.2019
6045 Clouds 18 1019 82 10000 4.1 210 20:58 16.10.2019
6046 Clouds 18 1019 82 10000 4.1 210 20:39 16.10.2019
6047 Clouds 18 1019 82 10000 4.6 210 20:21 16.10.2019
6048 Clouds 18 1019 82 10000 4.6 210 19:59 16.10.2019
6049 Clouds 18 1019 82 10000 4.6 200 19:39 16.10.2019
6050 Rain 19 1019 82 10000 6.7 230 19:21 16.10.2019
6051 Clouds 19 1019 72 10000 6.7 220 18:55 16.10.2019
6052 Clouds 19 1019 72 10000 6.7 220 18:36 16.10.2019
6053 Clouds 19 1019 68 10000 7.2 210 18:18 16.10.2019
6054 Clouds 19 1019 68 10000 7.2 210 17:54 16.10.2019
6055 Clouds 19 1019 68 10000 7.2 210 17:54 16.10.2019
6056 -273 0 0 0 0 0 17:36 16.10.2019
6057 Clouds 19 1019 68 10000 7.2 210 17:36 16.10.2019
6058 Clouds 20 1019 64 10000 8.2 200 17:18 16.10.2019
6059 Clouds 20 1019 64 10000 7.2 210 16:42 16.10.2019
6060 Clouds 20 1019 60 10000 7.7 200 16:21 16.10.2019
6061 Clouds 20 1019 60 10000 7.7 200 15:58 16.10.2019
6062 Clouds 20 1019 60 10000 7.7 200 15:39 16.10.2019
6063 Clouds 20 1020 60 10000 6.2 210 15:19 16.10.2019
6064 Clouds 20 1020 60 10000 6.2 210 14:58 16.10.2019
6065 Clouds 20 1020 60 10000 6.2 210 14:58 16.10.2019
6066 Clouds 20 1020 60 10000 6.2 210 14:39 16.10.2019
6067 Clouds 20 1020 60 10000 6.2 200 14:19 16.10.2019
6068 Clouds 19 1020 60 10000 6.2 200 13:57 16.10.2019
6069 Clouds 20 1021 64 10000 5.1 210 13:38 16.10.2019
6070 Clouds 19 1021 77 10000 2.6 0 13:20 16.10.2019
6071 Clouds 19 1021 82 10000 2.1 70 12:42 16.10.2019
6072 Clouds 18 1021 87 10000 2.6 60 12:20 16.10.2019
6073 Clouds 17 1021 87 10000 1.5 0 11:45 16.10.2019
6074 Clouds 16 1021 82 10000 2.1 0 11:19 16.10.2019
6075 Clouds 16 1021 82 10000 2.1 0 10:56 16.10.2019
6076 Clouds 15 1021 93 10000 1 0 10:36 16.10.2019
6077 Clouds 13 1021 100 10000 2.456 230 10:18 16.10.2019
6078 Clouds 13 1020 93 10000 2.456 230 09:40 16.10.2019
6079 Clouds 13 1020 93 10000 2.722 234 09:40 16.10.2019
6080 Clouds 13 1020 87 10000 1 0 09:22 16.10.2019
6081 Clouds 12 1020 87 10000 1 0 08:56 16.10.2019
6082 Clear 12 1020 93 10000 1 0 08:37 16.10.2019
6083 Clear 13 1020 93 10000 2.218 234 08:19 16.10.2019
6084 Clear 13 1020 93 10000 2.218 234 07:41 16.10.2019
6085 Clear 13 1020 93 10000 2.218 234 07:23 16.10.2019
6086 Clouds 13 1020 93 10000 2.218 234 06:47 16.10.2019
6087 Clouds 13 1020 93 10000 2.218 234 06:28 16.10.2019
6088 Clear 13 1021 87 10000 1.5 250 04:31 16.10.2019
6089 Clouds 14 1021 87 10000 0.5 0 02:51 16.10.2019
6090 Clear 14 1022 82 10000 1.5 270 01:20 16.10.2019
6091 Clear 14 1022 82 10000 1.5 270 00:59 16.10.2019
6092 Clear 14 1022 87 10000 2.1 250 00:40 16.10.2019
6093 Clouds 15 1022 82 10000 3.1 240 23:59 15.10.2019
6094 Clouds 15 1022 82 10000 2.6 230 23:38 15.10.2019
6095 Clouds 15 1022 82 10000 3.1 230 23:20 15.10.2019
6096 Clouds 15 1022 77 10000 3.1 220 22:55 15.10.2019
6097 Clouds 15 1022 77 10000 3.1 220 22:37 15.10.2019
6098 Clouds 15 1022 77 10000 2.6 210 22:18 15.10.2019
6099 Clouds 15 1022 77 10000 3.6 220 21:55 15.10.2019
6100 Clouds 15 1022 77 10000 3.6 220 21:55 15.10.2019
6101 Clouds 16 1022 77 10000 3.6 220 21:36 15.10.2019
6102 Clouds 16 1022 77 10000 3.6 220 21:36 15.10.2019
6103 Clouds 17 1022 67 10000 3.1 220 21:18 15.10.2019
6104 Clouds 17 1021 67 10000 5.1 230 20:55 15.10.2019
6105 Clouds 17 1021 67 10000 5.1 230 20:55 15.10.2019
6106 Clouds 17 1021 67 10000 5.1 230 20:37 15.10.2019
6107 Clouds 17 1021 67 10000 5.1 230 20:19 15.10.2019
6108 Clouds 18 1021 63 10000 5.1 240 19:55 15.10.2019
6109 Clouds 18 1021 63 10000 5.1 240 19:36 15.10.2019
6110 Clouds 18 1021 63 10000 6.2 230 19:18 15.10.2019
6111 Clouds 18 1021 55 10000 6.7 220 18:43 15.10.2019
6112 -273 0 0 0 0 0 18:25 15.10.2019
6113 Clouds 19 1022 59 10000 5.7 230 17:55 15.10.2019
6114 Clouds 19 1022 59 10000 5.7 230 17:37 15.10.2019
6115 Clouds 19 1022 59 10000 5.7 230 17:37 15.10.2019
6116 Clouds 19 1022 56 10000 5.7 220 17:18 15.10.2019
6117 Clouds 19 1022 56 10000 5.7 230 16:43 15.10.2019
6118 Clouds 19 1022 56 10000 6.2 220 16:22 15.10.2019
6119 Clouds 19 1022 56 10000 6.2 220 15:57 15.10.2019
6120 Clouds 19 1022 52 10000 5.7 220 15:39 15.10.2019
6121 Clouds 19 1022 52 10000 5.7 220 15:39 15.10.2019
6122 Clouds 19 1023 52 10000 5.7 210 15:19 15.10.2019
6123 Clouds 19 1023 55 10000 5.1 200 14:56 15.10.2019
6124 Clouds 19 1023 55 10000 5.1 200 14:37 15.10.2019
6125 Clouds 19 1023 55 10000 5.1 200 14:37 15.10.2019
6126 Clouds 19 1023 55 10000 4.1 210 14:18 15.10.2019
6127 Clouds 19 1023 55 10000 3.6 220 13:43 15.10.2019
6128 Clouds 18 1023 59 10000 2.6 220 13:21 15.10.2019
6129 Clouds 18 1023 59 10000 2.6 220 12:57 15.10.2019
6130 Clouds 18 1023 59 10000 2.6 230 12:38 15.10.2019
6131 Clouds 17 1023 72 10000 2.1 220 12:19 15.10.2019
6132 Clouds 17 1023 77 10000 2.1 230 11:43 15.10.2019
6133 Clouds 15 1023 82 10000 2.6 250 11:20 15.10.2019
6134 Clouds 14 1022 87 10000 2.6 250 10:56 15.10.2019
6135 Clear 13 1022 87 10000 2.6 250 10:38 15.10.2019
6136 Clear 12 1022 87 10000 2.1 240 10:18 15.10.2019
6137 Clear 11 1022 87 10000 1.5 270 09:55 15.10.2019
6138 Clear 11 1022 87 10000 1.5 270 09:55 15.10.2019
6139 Clear 11 1022 87 10000 1.5 270 09:36 15.10.2019
6140 Clear 11 1022 87 10000 1.5 270 09:36 15.10.2019
6141 Clear 12 1022 87 10000 1.5 270 09:18 15.10.2019
6142 Clear 13 1022 82 10000 2.6 270 08:41 15.10.2019
6143 Clear 12 1022 87 10000 1.5 280 08:21 15.10.2019
6144 Clear 12 1022 87 10000 2.1 270 07:55 15.10.2019
6145 Clear 12 1022 87 10000 2.1 270 07:36 15.10.2019
6146 Clear 13 1022 87 10000 3.1 240 07:18 15.10.2019
6147 Clear 12 1022 87 10000 2.6 240 06:43 15.10.2019
6148 Clear 13 1022 87 10000 2.1 240 06:20 15.10.2019
6149 Clouds 12 1022 82 10000 1.5 260 05:37 15.10.2019
6150 Clouds 13 1022 82 10000 2.1 250 05:19 15.10.2019
6151 Clouds 13 1022 76 10000 2.1 280 04:23 15.10.2019
6152 Clouds 13 1022 82 10000 2.6 260 03:35 15.10.2019
6153 Clouds 13 1022 76 10000 2.6 250 02:22 15.10.2019
6154 Clouds 13 1022 82 10000 1.5 250 01:47 15.10.2019
6155 Clear 13 1022 82 10000 1 0 01:18 15.10.2019
6156 Clouds 14 1021 82 10000 0.5 0 00:28 15.10.2019
6157 Clouds 14 1021 82 10000 0.5 0 23:59 14.10.2019
6158 Clouds 14 1021 72 10000 1.5 270 23:39 14.10.2019
6159 Clouds 15 1021 67 10000 1.5 310 23:19 14.10.2019
6160 Clouds 15 1020 72 10000 2.1 280 22:40 14.10.2019
6161 Clouds 15 1020 67 10000 2.6 340 22:21 14.10.2019
6162 Clouds 15 1020 67 10000 2.6 340 21:59 14.10.2019
6163 Clouds 16 1020 63 10000 1.5 290 21:40 14.10.2019
6164 Clouds 16 1020 63 10000 2.1 300 21:21 14.10.2019
6165 Clouds 16 1020 63 10000 2.1 300 21:21 14.10.2019
6166 Clouds 16 1019 59 10000 4.1 310 20:58 14.10.2019
6167 Clouds 17 1019 59 10000 4.1 310 20:38 14.10.2019
6168 Clouds 17 1019 55 10000 4.1 300 20:20 14.10.2019
6169 Clouds 17 1019 55 10000 4.1 300 19:58 14.10.2019
6170 Clouds 18 1019 55 10000 5.1 300 19:39 14.10.2019
6171 Clouds 18 1019 55 10000 5.1 300 19:39 14.10.2019
6172 Clouds 18 1018 55 10000 4.6 330 19:21 14.10.2019
6173 Clouds 18 1018 55 10000 4.6 330 19:21 14.10.2019
6174 Clouds 18 1018 55 10000 6.2 320 18:57 14.10.2019
6175 Clouds 18 1018 55 10000 6.2 320 18:57 14.10.2019
6176 Clouds 18 1018 55 10000 6.2 320 18:38 14.10.2019
6177 Clouds 19 1017 52 10000 5.1 290 18:18 14.10.2019
6178 Clouds 19 1017 55 10000 5.7 290 17:44 14.10.2019
6179 Rain 19 1017 55 10000 6.2 290 17:25 14.10.2019
6180 Rain 19 1017 55 10000 6.2 290 16:58 14.10.2019
6181 Rain 19 1017 59 10000 6.2 300 16:40 14.10.2019
6182 Rain 19 1017 59 10000 6.2 300 16:40 14.10.2019
6183 Clouds 19 1017 55 10000 5.1 280 16:20 14.10.2019
6184 Clouds 19 1016 55 10000 5.7 290 15:41 14.10.2019
6185 Rain 18 1016 72 10000 5.7 310 15:22 14.10.2019
6186 Rain 18 1016 77 10000 6.2 290 14:46 14.10.2019
6187 Rain 18 1016 77 10000 4.6 260 14:26 14.10.2019
6188 Rain 17 1016 88 10000 3.6 240 13:59 14.10.2019
6189 Rain 18 1016 77 10000 4.6 260 13:59 14.10.2019
6190 -273 0 0 0 0 0 13:41 14.10.2019
6191 Rain 16 1016 82 10000 3.6 260 13:21 14.10.2019
6192 Rain 16 1016 93 10000 3.1 260 12:43 14.10.2019
6193 Rain 16 1015 93 10000 4.1 250 12:21 14.10.2019
6194 Rain 16 1015 93 10000 4.1 250 12:21 14.10.2019
6195 Rain 16 1014 93 10000 5.7 250 11:59 14.10.2019
6196 Rain 15 1014 93 10000 5.7 250 11:41 14.10.2019
6197 Rain 16 1014 93 10000 5.7 240 11:22 14.10.2019
6198 Rain 16 1013 93 10000 4.1 260 10:44 14.10.2019
6199 Rain 15 1013 87 10000 5.1 200 10:23 14.10.2019
6200 Rain 16 1013 87 10000 5.1 200 10:00 14.10.2019
6201 Clouds 15 1013 93 10000 4.1 210 09:41 14.10.2019
6202 Clouds 15 1012 100 10000 3.1 200 09:21 14.10.2019
6203 Clouds 15 1013 100 10000 3.6 220 08:50 14.10.2019
6204 Clouds 15 1013 100 10000 3.1 220 08:23 14.10.2019
6205 Clouds 14 1012 100 10000 3.1 220 07:47 14.10.2019
6206 Clouds 14 1012 93 10000 2.6 220 07:25 14.10.2019
6207 Clouds 14 1012 93 10000 3.6 240 06:58 14.10.2019
6208 Clouds 14 1012 93 10000 3.6 240 06:28 14.10.2019
6209 Clouds 14 1011 87 10000 3.1 250 05:56 14.10.2019
6210 Rain 15 1011 87 10000 3.1 250 05:26 14.10.2019
6211 Rain 15 1011 93 7000 4.1 290 03:50 14.10.2019
6212 Rain 15 1011 93 10000 5.7 290 03:25 14.10.2019
6213 Rain 16 1010 100 5000 4.6 270 02:31 14.10.2019
6214 Rain 17 1011 100 7000 3.6 240 01:21 14.10.2019
6215 Rain 18 1011 93 5000 3.6 220 00:42 14.10.2019
6216 Rain 17 1011 93 10000 4.1 210 00:18 14.10.2019
6217 Rain 18 1011 93 10000 3.1 210 23:41 13.10.2019
6218 Rain 18 1011 82 10000 5.1 200 23:19 13.10.2019
6219 Rain 18 1011 88 10000 7.7 190 22:57 13.10.2019
6220 Rain 18 1011 88 10000 7.7 190 22:39 13.10.2019
6221 Rain 18 1011 88 10000 6.7 200 22:20 13.10.2019
6222 Rain 18 1011 88 10000 6.7 200 21:57 13.10.2019
6223 Clouds 19 1011 82 10000 6.7 200 21:36 13.10.2019
6224 Clouds 19 1011 82 10000 6.7 200 21:18 13.10.2019
6225 Clouds 19 1011 72 10000 7.7 200 20:56 13.10.2019
6226 Clouds 19 1011 88 10000 5.1 170 20:56 13.10.2019
6227 Clouds 19 1011 72 10000 7.7 200 20:37 13.10.2019
6228 Clouds 19 1012 72 10000 7.7 200 20:19 13.10.2019
6229 -273 0 0 0 0 0 19:55 13.10.2019
6230 Clouds 20 1012 64 10000 8.2 200 19:36 13.10.2019
6231 Clouds 21 1012 64 10000 8.7 200 19:18 13.10.2019
6232 Clouds 21 1012 60 10000 8.2 210 18:54 13.10.2019
6233 Clouds 21 1012 56 10000 8.2 190 18:36 13.10.2019
6234 Clouds 22 1012 56 10000 8.2 190 18:18 13.10.2019
6235 -273 0 0 0 0 0 17:42 13.10.2019
6236 Clouds 22 1012 60 10000 8.2 200 17:42 13.10.2019
6237 Clouds 22 1012 60 10000 8.2 200 17:42 13.10.2019
6238 Clouds 22 1012 60 10000 8.2 210 17:24 13.10.2019
6239 Clouds 22 1012 60 10000 8.2 210 17:24 13.10.2019
6240 Clouds 22 1012 60 10000 8.7 200 16:45 13.10.2019
6241 Clouds 22 1012 60 10000 6.7 190 16:20 13.10.2019
6242 Clouds 22 1013 64 10000 9.8 190 15:59 13.10.2019
6243 Clouds 22 1013 64 10000 9.8 190 15:59 13.10.2019
6244 Clouds 22 1013 64 10000 9.8 190 15:39 13.10.2019
6245 Clouds 23 1013 64 10000 8.2 200 15:21 13.10.2019
6246 Clouds 22 1014 73 10000 9.3 200 14:59 13.10.2019
6247 Clouds 22 1014 73 10000 9.3 200 14:40 13.10.2019
6248 Clouds 21 1014 73 10000 8.2 200 14:22 13.10.2019
6249 Clouds 21 1014 73 10000 7.7 170 13:59 13.10.2019
6250 Clouds 21 1014 73 10000 7.7 170 13:39 13.10.2019
6251 Clouds 21 1014 77 10000 7.7 170 13:21 13.10.2019
6252 Clouds 21 1014 82 10000 6.7 170 12:56 13.10.2019
6253 Clouds 21 1014 82 10000 6.7 170 12:38 13.10.2019
6254 Clouds 20 1014 82 10000 6.7 170 12:19 13.10.2019
6255 Clouds 20 1014 88 10000 5.7 160 11:58 13.10.2019
6256 Clouds 19 1014 88 10000 5.7 160 11:38 13.10.2019
6257 Clouds 19 1014 88 10000 5.7 160 11:38 13.10.2019
6258 Clouds 19 1014 88 10000 5.7 170 11:19 13.10.2019
6259 -273 0 0 0 0 0 10:42 13.10.2019
6260 Clouds 18 1013 93 10000 5.7 160 10:23 13.10.2019
6261 Clouds 18 1013 93 10000 5.1 160 09:58 13.10.2019
6262 Clouds 18 1013 93 10000 5.1 160 09:38 13.10.2019
6263 Clouds 18 1013 93 10000 4.6 170 09:19 13.10.2019
6264 Clouds 18 1013 93 10000 5.1 170 08:43 13.10.2019
6265 Clouds 18 1013 93 10000 5.7 180 08:23 13.10.2019
6266 Clouds 18 1013 93 10000 4.6 170 07:47 13.10.2019
6267 Clouds 18 1013 93 10000 4.6 170 07:28 13.10.2019
6268 Clouds 19 1013 88 10000 5.1 190 06:48 13.10.2019
6269 Clouds 18 1013 88 10000 5.7 190 05:57 13.10.2019
6270 Clouds 19 1013 88 10000 5.7 180 04:59 13.10.2019
6271 Clouds 19 1013 88 10000 5.7 180 04:33 13.10.2019
6272 Clouds 18 1013 88 10000 6.2 190 02:48 13.10.2019
6273 Clouds 18 1014 88 10000 5.7 200 02:23 13.10.2019
6274 Clear 18 1013 100 10000 4.1 190 01:34 13.10.2019
6275 Clear 18 1013 100 10000 4.1 190 01:34 13.10.2019
6276 Clouds 18 1014 82 10000 5.7 200 00:52 13.10.2019
6277 Clouds 18 1014 82 10000 5.7 200 00:52 13.10.2019
6278 Clouds 18 1014 88 10000 6.2 200 00:22 13.10.2019
6279 Clouds 18 1014 82 10000 6.7 200 23:59 12.10.2019
6280 Clouds 18 1014 82 10000 6.7 200 23:40 12.10.2019
6281 Clouds 19 1013 82 10000 6.2 200 23:21 12.10.2019
6282 Clouds 18 1013 82 10000 6.2 200 22:58 12.10.2019
6283 Clouds 19 1013 82 10000 6.2 200 22:39 12.10.2019
6284 Clouds 18 1013 77 10000 5.7 200 22:21 12.10.2019
6285 Clouds 19 1013 82 10000 5.7 200 21:55 12.10.2019
6286 Clouds 19 1013 82 10000 5.7 200 21:37 12.10.2019
6287 Clouds 19 1013 82 10000 6.2 210 21:19 12.10.2019
6288 Clouds 19 1013 72 10000 6.2 200 20:43 12.10.2019
6289 Clouds 20 1013 72 10000 6.2 210 20:25 12.10.2019
6290 Clouds 20 1013 64 10000 6.2 220 19:40 12.10.2019
6291 Clouds 21 1013 68 10000 7.2 220 19:22 12.10.2019
6292 Clouds 21 1013 68 10000 7.2 220 19:22 12.10.2019
6293 Clouds 21 1013 73 10000 8.7 210 18:59 12.10.2019
6294 Clouds 21 1013 73 10000 8.7 210 18:41 12.10.2019
6295 Clouds 21 1013 73 10000 9.3 200 18:23 12.10.2019
6296 Clouds 21 1013 73 10000 8.7 200 17:45 12.10.2019
6297 Clouds 21 1013 73 10000 8.2 200 17:20 12.10.2019
6298 Clouds 22 1013 73 10000 8.7 200 16:56 12.10.2019
6299 Clouds 21 1013 73 10000 8.7 200 16:38 12.10.2019
6300 Clouds 22 1013 64 10000 4.6 220 16:18 12.10.2019
6301 Clouds 21 1014 68 10000 8.7 200 15:44 12.10.2019
6302 Clouds 22 1014 68 10000 8.7 200 15:25 12.10.2019
6303 Clouds 22 1014 68 10000 8.7 200 15:25 12.10.2019
6304 Clouds 22 1014 64 10000 7.7 210 14:57 12.10.2019
6305 Clouds 22 1014 64 10000 7.7 210 14:38 12.10.2019
6306 Clouds 22 1014 68 10000 7.7 200 14:18 12.10.2019
6307 Clouds 21 1014 68 10000 7.7 200 13:44 12.10.2019
6308 Clouds 21 1014 68 10000 7.7 180 13:26 12.10.2019
6309 Clouds 21 1014 73 10000 7.2 190 12:40 12.10.2019
6310 Clouds 20 1014 73 10000 6.7 190 12:22 12.10.2019
6311 Clouds 20 1014 73 10000 6.7 190 12:22 12.10.2019
6312 Clouds 20 1014 73 10000 6.7 190 11:59 12.10.2019
6313 Clouds 20 1014 77 10000 6.2 180 11:40 12.10.2019
6314 Clouds 20 1014 82 10000 5.1 170 11:22 12.10.2019
6315 Clouds 19 1014 82 10000 4.1 170 10:56 12.10.2019
6316 Clouds 19 1014 82 10000 4.1 170 10:37 12.10.2019
6317 Clouds 19 1014 88 10000 2.1 140 10:18 12.10.2019
6318 Clouds 18 1013 88 10000 2.1 90 09:55 12.10.2019
6319 Clouds 18 1013 88 10000 2.1 90 09:37 12.10.2019
6320 Clouds 18 1013 88 10000 1.5 120 09:18 12.10.2019
6321 Clouds 18 1013 88 10000 2.1 100 08:41 12.10.2019
6322 Clouds 18 1013 88 10000 2.1 100 08:41 12.10.2019
6323 Clouds 18 1013 88 10000 2.6 90 08:20 12.10.2019
6324 Clouds 18 1013 88 10000 2.6 90 08:20 12.10.2019
6325 Clouds 18 1013 82 10000 3.1 140 07:36 12.10.2019
6326 Clouds 18 1014 88 10000 3.1 200 07:18 12.10.2019
6327 Clouds 19 1014 82 10000 2.6 200 05:53 12.10.2019
6328 Clouds 19 1013 93 10000 0.5 0 05:24 12.10.2019
6329 Clouds 19 1015 77 10000 2.1 120 04:26 12.10.2019
6330 Clouds 19 1015 77 10000 2.1 120 03:42 12.10.2019
6331 Clear 19 1015 77 10000 1.21 88.913 02:28 12.10.2019
6332 Clear 19 1016 77 10000 0.5 0 01:30 12.10.2019
6333 Clear 19 1016 72 10000 1 0 00:43 12.10.2019
6334 Clear 19 1016 77 10000 1.5 330 00:24 12.10.2019
6335 Clear 20 1016 72 10000 2.1 330 23:41 11.10.2019
6336 Clear 19 1016 68 10000 1.5 340 23:21 11.10.2019
6337 Clear 19 1016 68 10000 1.5 340 22:59 11.10.2019
6338 Clear 19 1015 64 10000 1.5 310 22:37 11.10.2019
6339 Clear 19 1015 64 10000 1.5 310 22:37 11.10.2019
6340 Clear 20 1015 60 10000 1 0 22:18 11.10.2019
6341 Clear 20 1015 60 10000 2.1 300 21:40 11.10.2019
6342 Clear 21 1015 56 10000 2.1 260 21:21 11.10.2019
6343 Clear 21 1015 56 10000 3.1 260 20:55 11.10.2019
6344 Clear 21 1015 56 10000 3.1 260 20:37 11.10.2019
6345 Clear 21 1015 50 10000 3.1 240 20:18 11.10.2019
6346 Clear 22 1015 50 10000 4.1 250 19:55 11.10.2019
6347 Clear 22 1015 50 10000 4.1 250 19:36 11.10.2019
6348 Clear 22 1015 47 10000 5.1 250 19:18 11.10.2019
6349 Clear 23 1015 47 10000 4.6 240 18:54 11.10.2019
6350 Clear 23 1015 47 10000 4.6 240 18:36 11.10.2019
6351 Clear 23 1015 41 10000 3.6 230 18:18 11.10.2019
6352 Clear 23 1015 41 10000 3.1 160 17:54 11.10.2019
6353 Clear 24 1015 41 10000 3.1 160 17:36 11.10.2019
6354 Clear 24 1015 41 10000 3.1 130 17:18 11.10.2019
6355 Clear 25 1015 39 10000 3.1 90 16:39 11.10.2019
6356 Clear 25 1016 41 10000 3.1 100 16:19 11.10.2019
6357 Clear 25 1016 41 10000 2.1 80 15:57 11.10.2019
6358 Clear 25 1016 41 10000 2.1 80 15:37 11.10.2019
6359 Clear 24 1017 47 10000 2.1 80 15:18 11.10.2019
6360 Clear 24 1017 47 10000 2.1 100 14:44 11.10.2019
6361 Clear 23 1017 46 10000 1.5 160 14:25 11.10.2019
6362 Clear 23 1018 49 10000 1.5 0 13:47 11.10.2019
6363 Clear 22 1018 60 10000 1.5 80 13:27 11.10.2019
6364 Clear 22 1018 60 10000 1.5 80 12:59 11.10.2019
6365 Clear 21 1018 68 10000 1.5 0 12:41 11.10.2019
6366 Clear 19 1018 68 10000 2.6 70 12:22 11.10.2019
6367 Clear 19 1018 46 10000 2.6 130 11:59 11.10.2019
6368 Clear 18 1018 72 10000 2.1 70 11:39 11.10.2019
6369 Clear 17 1018 72 10000 1.5 60 11:21 11.10.2019
6370 Clear 15 1018 72 10000 1.5 70 10:56 11.10.2019
6371 Clear 15 1018 72 10000 1.5 70 10:38 11.10.2019
6372 Clear 15 1017 72 10000 1.5 30 10:19 11.10.2019
6373 Clear 15 1017 72 10000 1.5 50 09:43 11.10.2019
6374 Clear 15 1017 67 10000 1.5 360 09:21 11.10.2019
6375 Clear 15 1017 67 10000 1.5 360 08:59 11.10.2019
6376 Clear 15 1017 67 10000 1 40 08:39 11.10.2019
6377 Clear 15 1017 72 10000 1.71 48.392 08:21 11.10.2019
6378 Clear 14 1017 67 10000 1.71 48.392 07:58 11.10.2019
6379 Clear 15 1017 67 10000 1.71 48.392 07:39 11.10.2019
6380 Clear 15 1017 67 10000 1 0 07:20 11.10.2019
6381 Clear 15 1017 72 10000 1.71 48.392 06:43 11.10.2019
6382 Clear 15 1017 67 10000 3.68 32.791 06:20 11.10.2019
6383 Clear 15 1017 59 10000 0.5 0 05:32 11.10.2019
6384 Clear 16 1017 55 10000 1 0 04:59 11.10.2019
6385 Clear 16 1017 55 10000 1.5 340 03:46 11.10.2019
6386 Clear 17 1017 63 10000 1 0 01:57 11.10.2019
6387 Clear 17 1017 46 10000 1 0 00:42 11.10.2019
6388 Clear 17 1017 49 10000 4.1 310 00:22 11.10.2019
6389 Clear 18 1017 56 10000 5.1 320 23:42 10.10.2019
6390 Clear 18 1017 56 10000 4.6 310 23:20 10.10.2019
6391 Clear 18 1016 56 10000 4.1 310 22:57 10.10.2019
6392 Clear 18 1016 56 10000 4.1 310 22:37 10.10.2019
6393 Clear 19 1016 49 10000 2.6 300 22:19 10.10.2019
6394 Clear 19 1016 46 10000 4.6 320 21:54 10.10.2019
6395 Clear 20 1016 46 10000 4.6 320 21:36 10.10.2019
6396 Clear 20 1016 44 10000 3.1 310 21:18 10.10.2019
6397 Clear 21 1016 41 10000 3.1 310 20:41 10.10.2019
6398 Clear 22 1016 39 10000 3.1 310 20:21 10.10.2019
6399 Clear 23 1016 39 10000 3.1 310 19:58 10.10.2019
6400 Clear 24 1016 34 10000 3.1 320 19:39 10.10.2019
6401 Clear 27 1016 23 10000 2.1 0 19:20 10.10.2019
6402 Clear 27 1016 24 10000 2.1 110 18:56 10.10.2019
6403 Clear 26 1016 24 10000 2.1 110 18:38 10.10.2019
6404 Clear 28 1016 26 10000 2.6 100 18:19 10.10.2019
6405 Clear 27 1016 28 10000 2.1 80 17:41 10.10.2019
6406 Clear 27 1016 28 10000 3.1 0 17:20 10.10.2019
6407 Clear 27 1017 30 10000 3.1 100 16:59 10.10.2019
6408 Clear 27 1017 30 10000 3.1 100 16:41 10.10.2019
6409 Clear 26 1017 31 10000 3.1 100 16:22 10.10.2019
6410 Clear 26 1017 36 10000 2.6 100 15:44 10.10.2019
6411 Clear 25 1017 36 10000 2.6 0 15:25 10.10.2019
6412 Clear 24 1018 41 10000 2.1 70 14:59 10.10.2019
6413 Clear 24 1018 41 10000 2.1 70 14:38 10.10.2019
6414 Clear 24 1018 41 10000 2.1 70 14:38 10.10.2019
6415 Clear 24 1017 41 10000 3.1 10 14:19 10.10.2019
6416 Clear 23 1018 46 10000 2.6 70 13:59 10.10.2019
6417 Clear 23 1018 46 10000 2.6 70 13:59 10.10.2019
6418 Clear 22 1018 49 10000 2.1 80 13:41 10.10.2019
6419 Clear 21 1019 49 10000 2.6 30 13:20 10.10.2019
6420 Clear 21 1019 52 10000 3.1 360 12:57 10.10.2019
6421 Clear 20 1019 52 10000 3.1 360 12:39 10.10.2019
6422 Clear 19 1019 55 10000 3.6 360 12:19 10.10.2019
6423 Clear 19 1019 63 10000 4.6 330 11:55 10.10.2019
6424 Clear 18 1019 63 10000 4.6 330 11:37 10.10.2019
6425 Clear 17 1018 67 10000 4.6 330 11:18 10.10.2019
6426 Clear 17 1018 72 10000 4.1 330 10:44 10.10.2019
6427 Clear 15 1018 77 10000 4.6 330 10:25 10.10.2019
6428 Clear 15 1018 77 10000 4.1 330 09:56 10.10.2019
6429 Clear 15 1018 77 10000 4.1 330 09:38 10.10.2019
6430 Clear 15 1018 77 10000 4.1 320 09:19 10.10.2019
6431 Clear 15 1018 77 10000 4.6 320 08:41 10.10.2019
6432 Clear 15 1017 77 10000 4.1 320 08:23 10.10.2019
6433 Clear 15 1017 77 10000 4.1 320 07:59 10.10.2019
6434 Clear 15 1018 77 10000 6.2 320 07:40 10.10.2019
6435 Clear 15 1018 77 10000 6.2 320 07:20 10.10.2019
6436 Clear 15 1018 77 10000 5.7 330 06:45 10.10.2019
6437 Clear 15 1018 72 10000 6.2 330 06:24 10.10.2019
6438 Clear 15 1018 77 10000 8.2 340 05:24 10.10.2019
6439 Clear 16 1018 77 10000 7.7 340 04:37 10.10.2019
6440 Clear 16 1018 77 10000 7.7 330 03:42 10.10.2019
6441 Clear 16 1019 77 10000 8.2 340 01:43 10.10.2019
6442 Clear 16 1019 77 10000 8.7 330 01:24 10.10.2019
6443 Clear 16 1019 72 10000 10.3 330 00:53 10.10.2019
6444 Clear 16 1019 72 10000 9.3 330 00:21 10.10.2019
6445 Clear 16 1019 72 10000 9.8 330 23:39 09.10.2019
6446 Clear 16 1019 72 10000 8.2 330 23:20 09.10.2019
6447 Clear 17 1019 72 10000 9.3 330 22:44 09.10.2019
6448 Clear 17 1019 63 10000 9.8 330 22:24 09.10.2019
6449 Clear 17 1019 63 10000 9.8 330 21:59 09.10.2019
6450 Clear 17 1019 63 10000 9.3 340 21:40 09.10.2019
6451 Clear 17 1019 63 10000 7.2 320 21:20 09.10.2019
6452 Clear 17 1019 59 10000 8.7 330 20:56 09.10.2019
6453 Clear 17 1019 59 10000 8.7 330 20:56 09.10.2019
6454 Clear 18 1019 59 10000 8.7 330 20:37 09.10.2019
6455 Clear 18 1018 55 10000 5.1 350 20:19 09.10.2019
6456 Clear 18 1018 55 10000 5.1 350 20:19 09.10.2019
6457 Clear 19 1018 52 10000 9.8 330 19:57 09.10.2019
6458 Clear 19 1018 52 10000 9.8 330 19:39 09.10.2019
6459 Clear 19 1018 49 10000 7.2 330 19:20 09.10.2019
6460 Clear 21 1018 46 10000 7.7 330 18:38 09.10.2019
6461 Clear 21 1018 46 10000 9.3 340 18:19 09.10.2019
6462 Clear 21 1018 46 10000 9.3 340 17:57 09.10.2019
6463 Clear 21 1018 43 10000 10.3 340 17:37 09.10.2019
6464 Clear 22 1019 37 10000 10.8 340 17:19 09.10.2019
6465 Clear 22 1019 37 10000 10.8 340 17:19 09.10.2019
6466 -273 0 0 0 0 0 16:55 09.10.2019
6467 Clear 22 1019 37 10000 9.8 340 16:36 09.10.2019
6468 Clear 22 1019 40 10000 9.8 330 16:18 09.10.2019
6469 Clear 22 1019 40 10000 9.3 330 15:55 09.10.2019
6470 Clear 22 1019 40 10000 9.3 330 15:36 09.10.2019
6471 Clear 22 1019 40 10000 9.3 330 15:36 09.10.2019
6472 Clear 22 1019 37 10000 9.8 350 15:18 09.10.2019
6473 Clear 22 1020 33 10000 8.7 350 14:42 09.10.2019
6474 Clear 22 1020 33 10000 8.7 350 14:42 09.10.2019
6475 Clear 22 1020 35 10000 10.3 350 14:18 09.10.2019
6476 Clear 21 1020 35 10000 10.8 350 13:55 09.10.2019
6477 Clear 21 1020 35 10000 10.8 350 13:36 09.10.2019
6478 Clear 20 1020 42 10000 9.8 340 13:18 09.10.2019
6479 Clear 20 1021 45 10000 8.7 350 12:42 09.10.2019
6480 Clear 19 1020 52 10000 9.3 350 12:22 09.10.2019
6481 Clear 19 1020 55 10000 9.8 340 11:58 09.10.2019
6482 Clear 19 1020 55 10000 9.8 340 11:39 09.10.2019
6483 Clear 18 1020 59 10000 8.7 340 11:20 09.10.2019
6484 Clear 18 1020 59 10000 8.7 340 10:57 09.10.2019
6485 Clear 18 1020 59 10000 8.7 340 10:57 09.10.2019
6486 Clear 18 1020 63 10000 8.2 350 10:39 09.10.2019
6487 Clear 17 1020 67 10000 7.7 350 10:18 09.10.2019
6488 Clear 16 1020 67 10000 5.7 360 09:42 09.10.2019
6489 Clear 16 1020 63 10000 6.2 350 09:20 09.10.2019
6490 Clear 16 1019 63 10000 6.2 350 08:57 09.10.2019
6491 Clear 16 1019 63 10000 6.2 350 08:37 09.10.2019
6492 Clear 16 1019 63 10000 9.3 340 08:18 09.10.2019
6493 Clear 16 1019 67 10000 8.7 340 07:43 09.10.2019
6494 Clear 16 1019 72 10000 8.2 340 07:23 09.10.2019
6495 Clouds 16 1019 72 10000 5.1 350 06:52 09.10.2019
6496 Clouds 16 1019 77 10000 5.7 350 06:20 09.10.2019
6497 Clouds 16 1019 77 10000 7.2 340 05:46 09.10.2019
6498 Clouds 16 1019 77 10000 7.2 340 05:46 09.10.2019
6499 Clear 17 1019 77 10000 4.6 350 04:41 09.10.2019
6500 Clear 17 1019 72 10000 6.2 340 03:24 09.10.2019
6501 Clear 17 1019 72 10000 6.2 340 01:48 09.10.2019
6502 Clear 17 1019 72 10000 6.7 340 01:22 09.10.2019
6503 Clear 17 1019 77 10000 4.6 350 00:59 09.10.2019
6504 Clear 18 1019 77 10000 4.6 350 00:40 09.10.2019
6505 Clouds 18 1019 77 10000 4.6 330 00:22 09.10.2019
6506 Clouds 18 1019 77 10000 4.6 330 00:22 09.10.2019
6507 Clouds 18 1019 82 10000 3.1 10 23:58 08.10.2019
6508 Clouds 18 1019 82 10000 3.1 10 23:37 08.10.2019
6509 Clouds 18 1019 82 10000 2.6 310 23:18 08.10.2019
6510 Clouds 19 1018 88 10000 4.6 340 22:40 08.10.2019
6511 Clouds 19 1018 88 10000 6.2 340 22:21 08.10.2019
6512 Clouds 19 1018 88 10000 6.2 340 21:58 08.10.2019
6513 Clouds 19 1018 88 10000 3.6 340 21:39 08.10.2019
6514 Clouds 20 1018 88 10000 3.6 340 21:39 08.10.2019
6515 Clouds 20 1018 88 10000 7.7 340 21:20 08.10.2019
6516 Clouds 20 1018 83 10000 7.2 320 20:57 08.10.2019
6517 Clouds 20 1018 83 10000 7.2 320 20:39 08.10.2019
6518 Clouds 20 1017 73 10000 6.2 310 20:21 08.10.2019
6519 Clouds 21 1017 73 10000 9.3 330 19:59 08.10.2019
6520 Clouds 21 1017 73 10000 9.3 330 19:41 08.10.2019
6521 Clouds 23 1017 64 10000 9.3 330 19:23 08.10.2019
6522 Clouds 24 1017 61 10000 7.7 330 18:57 08.10.2019
6523 Clouds 24 1017 61 10000 7.7 330 18:39 08.10.2019
6524 Clouds 25 1017 57 10000 7.7 330 18:19 08.10.2019
6525 Clouds 25 1017 57 10000 6.7 330 17:55 08.10.2019
6526 Clouds 25 1017 57 10000 6.7 330 17:55 08.10.2019
6527 Clouds 25 1017 57 10000 6.7 330 17:36 08.10.2019
6528 Clouds 26 1017 57 10000 5.7 310 17:18 08.10.2019
6529 Clouds 26 1017 61 10000 7.2 330 16:40 08.10.2019
6530 Clouds 26 1017 57 10000 5.1 320 16:22 08.10.2019
6531 Clouds 26 1017 57 10000 6.2 320 15:56 08.10.2019
6532 Clouds 26 1017 57 10000 6.2 320 15:37 08.10.2019
6533 Clouds 26 1018 61 10000 5.1 310 15:19 08.10.2019
6534 Clouds 26 1018 57 10000 5.1 320 14:42 08.10.2019
6535 Clouds 25 1018 61 10000 5.7 330 14:21 08.10.2019
6536 Clouds 25 1018 61 10000 5.7 330 14:21 08.10.2019
6537 Clouds 25 1018 61 10000 5.7 330 13:58 08.10.2019
6538 Clouds 25 1018 61 10000 5.7 340 13:39 08.10.2019
6539 Clouds 24 1018 69 10000 5.7 340 13:20 08.10.2019
6540 Clouds 23 1018 69 10000 5.7 340 12:59 08.10.2019
6541 Clouds 23 1018 69 10000 7.2 350 12:38 08.10.2019
6542 Clouds 22 1019 69 10000 6.7 350 12:19 08.10.2019
6543 Clouds 21 1019 73 10000 7.2 350 11:43 08.10.2019
6544 Clouds 20 1019 77 10000 6.7 340 11:24 08.10.2019
6545 Clouds 20 1018 77 10000 5.1 350 10:59 08.10.2019
6546 Clouds 19 1018 77 10000 5.1 350 10:40 08.10.2019
6547 Clouds 19 1018 82 10000 5.7 330 10:21 08.10.2019
6548 Clear 18 1018 82 10000 4.1 340 09:58 08.10.2019
6549 Clear 18 1018 82 10000 4.1 340 09:39 08.10.2019
6550 Clear 18 1018 77 10000 4.6 330 09:20 08.10.2019
6551 Clear 18 1018 82 10000 2.1 360 08:43 08.10.2019
6552 Clear 18 1018 82 10000 4.6 340 08:25 08.10.2019
6553 Clear 18 1017 82 10000 6.2 330 07:46 08.10.2019
6554 Clear 18 1017 77 10000 5.7 330 07:22 08.10.2019
6555 Clear 18 1017 77 10000 5.7 330 06:56 08.10.2019
6556 Clear 18 1017 77 10000 5.7 330 06:32 08.10.2019
6557 Clear 19 1017 82 10000 5.1 320 05:57 08.10.2019
6558 Clear 19 1017 82 10000 5.1 330 05:57 08.10.2019
6559 Clear 19 1017 82 10000 5.1 330 05:36 08.10.2019
6560 Clear 18 1018 82 10000 4.6 320 04:36 08.10.2019
6561 Clear 18 1018 77 10000 5.1 330 03:29 08.10.2019
6562 Clear 18 1018 72 10000 4.6 330 02:39 08.10.2019
6563 Clear 18 1018 63 10000 3.6 350 01:49 08.10.2019
6564 Clear 18 1018 63 10000 3.6 350 01:31 08.10.2019
6565 Clear 18 1018 63 10000 3.6 350 01:31 08.10.2019
6566 Clear 19 1018 59 10000 4.6 350 00:51 08.10.2019
6567 Clear 19 1018 60 10000 6.2 340 00:22 08.10.2019
6568 Clear 19 1018 59 10000 6.2 340 23:42 07.10.2019
6569 Clear 19 1019 45 10000 6.2 330 23:21 07.10.2019
6570 Clear 19 1019 45 10000 6.2 330 23:21 07.10.2019
6571 Clear 19 1019 45 10000 6.2 330 22:58 07.10.2019
6572 Clear 19 1018 42 10000 5.1 320 22:40 07.10.2019
6573 Clear 20 1018 42 10000 6.2 310 22:21 07.10.2019
6574 Clear 20 1018 40 10000 5.7 320 21:58 07.10.2019
6575 Clear 19 1018 40 10000 5.7 320 21:40 07.10.2019
6576 Clear 21 1018 37 10000 5.1 310 21:20 07.10.2019
6577 Clear 21 1018 33 10000 4.1 320 20:58 07.10.2019
6578 Clear 22 1018 33 10000 4.1 320 20:39 07.10.2019
6579 Clear 23 1018 29 10000 6.2 320 20:21 07.10.2019
6580 Clear 23 1018 29 10000 6.2 320 19:58 07.10.2019
6581 Clear 24 1018 26 10000 6.2 330 19:40 07.10.2019
6582 Clear 26 1018 21 10000 7.2 340 19:20 07.10.2019
6583 Clear 26 1018 21 10000 7.2 340 18:58 07.10.2019
6584 Clear 26 1018 19 10000 8.2 340 18:38 07.10.2019
6585 Clear 26 1018 76 10000 7.2 340 18:19 07.10.2019
6586 Clear 27 1018 17 10000 6.2 340 17:43 07.10.2019
6587 Clear 27 1018 18 10000 6.7 340 17:23 07.10.2019
6588 Clear 27 1018 18 10000 6.7 340 17:23 07.10.2019
6589 Clear 27 1018 21 10000 6.7 330 16:59 07.10.2019
6590 Clear 27 1018 21 10000 6.7 330 16:41 07.10.2019
6591 Clear 28 1019 24 10000 6.2 340 16:22 07.10.2019
6592 Clear 28 1019 26 10000 5.7 340 15:46 07.10.2019
6593 Clear 26 1019 28 10000 5.7 330 15:26 07.10.2019
6594 Clear 27 1020 30 10000 5.1 360 14:58 07.10.2019
6595 Clear 26 1020 30 10000 5.1 360 14:40 07.10.2019
6596 Clear 25 1020 34 10000 4.6 350 14:22 07.10.2019
6597 Clear 24 1020 44 10000 4.1 340 13:43 07.10.2019
6598 Clear 23 1020 46 10000 3.6 310 13:21 07.10.2019
6599 Clear 23 1020 43 10000 4.1 340 12:57 07.10.2019
6600 Clear 22 1020 43 10000 4.1 340 12:39 07.10.2019
6601 Clear 20 1020 49 10000 4.1 340 12:19 07.10.2019
6602 Clear 21 1020 49 10000 4.1 340 11:58 07.10.2019
6603 Clear 20 1020 56 10000 4.6 330 11:38 07.10.2019
6604 Clear 19 1020 59 10000 4.1 330 11:20 07.10.2019
6605 Clouds 18 1020 72 10000 3.6 330 10:42 07.10.2019
6606 Clouds 17 1020 77 10000 2.6 320 10:21 07.10.2019
6607 Clouds 16 1020 77 10000 4.6 330 09:56 07.10.2019
6608 Clouds 16 1020 77 10000 4.6 330 09:38 07.10.2019
6609 Clear 16 1019 77 10000 4.1 320 09:19 07.10.2019
6610 Clear 15 1019 77 10000 5.1 320 08:42 07.10.2019
6611 Clear 16 1019 82 10000 4.1 320 08:20 07.10.2019
6612 Clear 16 1019 82 10000 3.1 310 07:46 07.10.2019
6613 Clear 16 1019 82 10000 3.6 300 07:27 07.10.2019
6614 Clear 16 1019 82 10000 3.6 320 06:57 07.10.2019
6615 Clear 16 1019 82 10000 3.6 320 06:38 07.10.2019
6616 Clear 16 1019 72 10000 2.1 310 05:56 07.10.2019
6617 Clear 16 1019 77 10000 1.5 0 05:25 07.10.2019
6618 Clear 16 1019 82 10000 6.7 320 04:47 07.10.2019
6619 Clear 17 1020 82 10000 4.1 320 03:45 07.10.2019
6620 Clear 17 1020 82 10000 4.1 320 03:45 07.10.2019
6621 Clear 17 1020 82 10000 2.1 310 03:27 07.10.2019
6622 Clouds 18 1021 88 10000 5.1 340 02:23 07.10.2019
6623 Clouds 18 1021 88 10000 5.7 340 01:58 07.10.2019
6624 Clouds 18 1021 88 10000 3.1 340 01:23 07.10.2019
6625 Clouds 18 1021 88 10000 6.2 340 00:45 07.10.2019
6626 Clouds 18 1021 88 10000 2.6 340 00:23 07.10.2019
6627 Clouds 18 1021 88 10000 2.6 340 23:59 06.10.2019
6628 Clouds 18 1021 88 10000 3.6 310 23:39 06.10.2019
6629 Clouds 19 1021 88 10000 5.1 320 23:18 06.10.2019
6630 Clouds 19 1021 82 10000 6.2 320 22:54 06.10.2019
6631 Clouds 19 1021 82 10000 6.2 320 22:36 06.10.2019
6632 Clouds 19 1021 82 10000 6.2 320 22:18 06.10.2019
6633 Clouds 19 1021 82 10000 6.2 320 22:18 06.10.2019
6634 Clouds 19 1020 77 10000 5.7 310 21:55 06.10.2019
6635 Clouds 19 1020 77 10000 5.7 310 21:54 06.10.2019
6636 Clouds 19 1020 77 10000 5.7 310 21:36 06.10.2019
6637 Clouds 19 1020 77 10000 6.2 320 21:18 06.10.2019
6638 Clouds 20 1020 68 10000 5.7 320 20:54 06.10.2019
6639 Clouds 21 1020 68 10000 5.7 320 20:36 06.10.2019
6640 Clouds 21 1020 68 10000 5.7 320 20:36 06.10.2019
6641 Clear 21 1020 64 10000 4.1 320 20:18 06.10.2019
6642 Clear 22 1020 57 10000 7.7 340 19:54 06.10.2019
6643 Clear 23 1020 57 10000 7.7 340 19:36 06.10.2019
6644 Clear 23 1020 53 10000 6.7 340 19:18 06.10.2019
6645 Clear 24 1020 53 10000 5.7 330 18:54 06.10.2019
6646 Clear 24 1020 53 10000 5.7 330 18:36 06.10.2019
6647 Clear 25 1020 47 10000 6.7 350 18:18 06.10.2019
6648 Clear 25 1020 47 10000 6.7 330 17:42 06.10.2019
6649 Clear 26 1020 47 10000 6.2 330 17:19 06.10.2019
6650 Clear 26 1020 47 10000 5.7 330 16:54 06.10.2019
6651 Clear 26 1020 47 10000 5.7 330 16:36 06.10.2019
6652 Clear 26 1020 44 10000 5.1 360 16:18 06.10.2019
6653 Clear 26 1021 44 10000 5.1 350 15:42 06.10.2019
6654 Clear 25 1021 47 10000 4.6 360 15:19 06.10.2019
6655 Clear 25 1021 53 10000 5.7 330 14:44 06.10.2019
6656 Clear 24 1021 50 10000 5.7 340 14:25 06.10.2019
6657 Clear 24 1022 60 10000 6.2 340 13:58 06.10.2019
6658 Clear 23 1022 60 10000 6.2 340 13:39 06.10.2019
6659 Clear 23 1021 53 10000 4.6 20 13:21 06.10.2019
6660 Clear 22 1022 60 10000 6.7 340 12:57 06.10.2019
6661 Clear 22 1022 60 10000 6.7 340 12:39 06.10.2019
6662 Clouds 21 1022 64 10000 7.7 340 12:20 06.10.2019
6663 Clouds 20 1021 68 10000 7.2 340 11:58 06.10.2019
6664 Clouds 20 1021 68 10000 7.2 340 11:39 06.10.2019
6665 Clouds 20 1021 72 10000 5.7 350 11:20 06.10.2019
6666 Clear 19 1021 77 10000 5.7 350 10:45 06.10.2019
6667 Clear 18 1020 82 10000 4.1 340 10:26 06.10.2019
6668 Clear 17 1020 82 10000 4.1 340 09:58 06.10.2019
6669 Clear 17 1020 77 10000 3.6 10 09:40 06.10.2019
6670 Clear 16 1020 77 10000 3.6 360 09:19 06.10.2019
6671 Clear 16 1020 82 10000 4.6 350 08:45 06.10.2019